<?xml version="1.0" encoding="UTF-8" standalone="no" ?>
<gpx xmlns="http://www.topografix.com/GPX/1/1" xmlns:xsi="http://www.w3.org/2001/XMLSchema-instance" xsi:schemaLocation="http://www.topografix.com/GPX/1/1 http://www.topografix.com/GPX/1/1/gpx.xsd" version="1.1" creator="VisuGPX - https://www.visugpx.com">
  <metadata>
    <name>Tracé 20200920-115840</name>
    <desc><![CDATA[Sillery Aller retour le long du canal]]></desc>
  </metadata>
  <wpt lat="49.24494" lon="4.01174">
    <ele>207</ele>
    <name><![CDATA[Yhg]]></name>
  </wpt>
  <trk>
    <name><![CDATA[Tracé 20200920-115840]]></name>
    <trkseg>
      <trkpt lat="49.24494" lon="4.01174">
        <ele>207</ele>
        <time>2020-09-20T09:58:40Z</time>
      </trkpt>
      <trkpt lat="49.2449" lon="4.01177">
        <ele>196</ele>
        <time>2020-09-20T09:58:43Z</time>
      </trkpt>
      <trkpt lat="49.24501" lon="4.01186">
        <ele>163</ele>
        <time>2020-09-20T09:58:57Z</time>
      </trkpt>
      <trkpt lat="49.24498" lon="4.01188">
        <ele>162</ele>
        <time>2020-09-20T09:59:01Z</time>
      </trkpt>
      <trkpt lat="49.24499" lon="4.01188">
        <ele>163</ele>
        <time>2020-09-20T09:59:02Z</time>
      </trkpt>
      <trkpt lat="49.245" lon="4.01189">
        <ele>163</ele>
        <time>2020-09-20T09:59:03Z</time>
      </trkpt>
      <trkpt lat="49.24501" lon="4.0119">
        <ele>165</ele>
        <time>2020-09-20T09:59:04Z</time>
      </trkpt>
      <trkpt lat="49.24501" lon="4.01191">
        <ele>167</ele>
        <time>2020-09-20T09:59:05Z</time>
      </trkpt>
      <trkpt lat="49.24501" lon="4.01191">
        <ele>166</ele>
        <time>2020-09-20T09:59:06Z</time>
      </trkpt>
      <trkpt lat="49.24498" lon="4.01224">
        <ele>146</ele>
        <time>2020-09-20T09:59:13Z</time>
      </trkpt>
      <trkpt lat="49.24497" lon="4.01226">
        <ele>155</ele>
        <time>2020-09-20T09:59:15Z</time>
      </trkpt>
      <trkpt lat="49.24499" lon="4.01231">
        <ele>154</ele>
        <time>2020-09-20T09:59:17Z</time>
      </trkpt>
      <trkpt lat="49.24497" lon="4.01237">
        <ele>155</ele>
        <time>2020-09-20T09:59:18Z</time>
      </trkpt>
      <trkpt lat="49.24501" lon="4.01166">
        <ele>171</ele>
        <time>2020-09-20T09:59:58Z</time>
      </trkpt>
      <trkpt lat="49.24501" lon="4.01163">
        <ele>178</ele>
        <time>2020-09-20T09:59:59Z</time>
      </trkpt>
      <trkpt lat="49.24501" lon="4.01162">
        <ele>183</ele>
        <time>2020-09-20T10:00:00Z</time>
      </trkpt>
      <trkpt lat="49.245" lon="4.01161">
        <ele>185</ele>
        <time>2020-09-20T10:00:01Z</time>
      </trkpt>
      <trkpt lat="49.24501" lon="4.0116">
        <ele>184</ele>
        <time>2020-09-20T10:00:02Z</time>
      </trkpt>
      <trkpt lat="49.24502" lon="4.01162">
        <ele>178</ele>
        <time>2020-09-20T10:00:03Z</time>
      </trkpt>
      <trkpt lat="49.24504" lon="4.01165">
        <ele>168</ele>
        <time>2020-09-20T10:00:04Z</time>
      </trkpt>
      <trkpt lat="49.24506" lon="4.01169">
        <ele>163</ele>
        <time>2020-09-20T10:00:05Z</time>
      </trkpt>
      <trkpt lat="49.24507" lon="4.01171">
        <ele>162</ele>
        <time>2020-09-20T10:00:06Z</time>
      </trkpt>
      <trkpt lat="49.24507" lon="4.01172">
        <ele>160</ele>
        <time>2020-09-20T10:00:07Z</time>
      </trkpt>
      <trkpt lat="49.24508" lon="4.01177">
        <ele>156</ele>
        <time>2020-09-20T10:00:08Z</time>
      </trkpt>
      <trkpt lat="49.24508" lon="4.01178">
        <ele>154</ele>
        <time>2020-09-20T10:00:09Z</time>
      </trkpt>
      <trkpt lat="49.24508" lon="4.01183">
        <ele>153</ele>
        <time>2020-09-20T10:00:10Z</time>
      </trkpt>
      <trkpt lat="49.24508" lon="4.01183">
        <ele>153</ele>
        <time>2020-09-20T10:00:11Z</time>
      </trkpt>
      <trkpt lat="49.24508" lon="4.01183">
        <ele>153</ele>
        <time>2020-09-20T10:00:12Z</time>
      </trkpt>
      <trkpt lat="49.24507" lon="4.01186">
        <ele>150</ele>
        <time>2020-09-20T10:00:13Z</time>
      </trkpt>
      <trkpt lat="49.24506" lon="4.01188">
        <ele>146</ele>
        <time>2020-09-20T10:00:14Z</time>
      </trkpt>
      <trkpt lat="49.24505" lon="4.01189">
        <ele>146</ele>
        <time>2020-09-20T10:00:15Z</time>
      </trkpt>
      <trkpt lat="49.24504" lon="4.01193">
        <ele>145</ele>
        <time>2020-09-20T10:00:16Z</time>
      </trkpt>
      <trkpt lat="49.24504" lon="4.01193">
        <ele>145</ele>
        <time>2020-09-20T10:00:17Z</time>
      </trkpt>
      <trkpt lat="49.24504" lon="4.01193">
        <ele>145</ele>
        <time>2020-09-20T10:00:18Z</time>
      </trkpt>
      <trkpt lat="49.24504" lon="4.01193">
        <ele>145</ele>
        <time>2020-09-20T10:00:19Z</time>
      </trkpt>
      <trkpt lat="49.24504" lon="4.01193">
        <ele>145</ele>
        <time>2020-09-20T10:00:20Z</time>
      </trkpt>
      <trkpt lat="49.24504" lon="4.01196">
        <ele>145</ele>
        <time>2020-09-20T10:00:21Z</time>
      </trkpt>
      <trkpt lat="49.24504" lon="4.01198">
        <ele>146</ele>
        <time>2020-09-20T10:00:22Z</time>
      </trkpt>
      <trkpt lat="49.24503" lon="4.01202">
        <ele>143</ele>
        <time>2020-09-20T10:00:23Z</time>
      </trkpt>
      <trkpt lat="49.24504" lon="4.01206">
        <ele>140</ele>
        <time>2020-09-20T10:00:24Z</time>
      </trkpt>
      <trkpt lat="49.24505" lon="4.01209">
        <ele>138</ele>
        <time>2020-09-20T10:00:25Z</time>
      </trkpt>
      <trkpt lat="49.24505" lon="4.01212">
        <ele>136</ele>
        <time>2020-09-20T10:00:26Z</time>
      </trkpt>
      <trkpt lat="49.24505" lon="4.01213">
        <ele>135</ele>
        <time>2020-09-20T10:00:27Z</time>
      </trkpt>
      <trkpt lat="49.24505" lon="4.01213">
        <ele>133</ele>
        <time>2020-09-20T10:00:28Z</time>
      </trkpt>
      <trkpt lat="49.24506" lon="4.01213">
        <ele>133</ele>
        <time>2020-09-20T10:00:29Z</time>
      </trkpt>
      <trkpt lat="49.24506" lon="4.01212">
        <ele>133</ele>
        <time>2020-09-20T10:00:30Z</time>
      </trkpt>
      <trkpt lat="49.24507" lon="4.01213">
        <ele>133</ele>
        <time>2020-09-20T10:00:31Z</time>
      </trkpt>
      <trkpt lat="49.24507" lon="4.01213">
        <ele>133</ele>
        <time>2020-09-20T10:00:32Z</time>
      </trkpt>
      <trkpt lat="49.24507" lon="4.01213">
        <ele>133</ele>
        <time>2020-09-20T10:00:33Z</time>
      </trkpt>
      <trkpt lat="49.24508" lon="4.01215">
        <ele>132</ele>
        <time>2020-09-20T10:00:34Z</time>
      </trkpt>
      <trkpt lat="49.2451" lon="4.01216">
        <ele>132</ele>
        <time>2020-09-20T10:00:35Z</time>
      </trkpt>
      <trkpt lat="49.24512" lon="4.01217">
        <ele>132</ele>
        <time>2020-09-20T10:00:36Z</time>
      </trkpt>
      <trkpt lat="49.24513" lon="4.01219">
        <ele>131</ele>
        <time>2020-09-20T10:00:37Z</time>
      </trkpt>
      <trkpt lat="49.24514" lon="4.0122">
        <ele>131</ele>
        <time>2020-09-20T10:00:38Z</time>
      </trkpt>
      <trkpt lat="49.24516" lon="4.01223">
        <ele>131</ele>
        <time>2020-09-20T10:00:39Z</time>
      </trkpt>
      <trkpt lat="49.24517" lon="4.01226">
        <ele>131</ele>
        <time>2020-09-20T10:00:40Z</time>
      </trkpt>
      <trkpt lat="49.24518" lon="4.01229">
        <ele>132</ele>
        <time>2020-09-20T10:00:41Z</time>
      </trkpt>
      <trkpt lat="49.24519" lon="4.01232">
        <ele>132</ele>
        <time>2020-09-20T10:00:42Z</time>
      </trkpt>
      <trkpt lat="49.24521" lon="4.01234">
        <ele>132</ele>
        <time>2020-09-20T10:00:43Z</time>
      </trkpt>
      <trkpt lat="49.24522" lon="4.01237">
        <ele>131</ele>
        <time>2020-09-20T10:00:44Z</time>
      </trkpt>
      <trkpt lat="49.24524" lon="4.01239">
        <ele>131</ele>
        <time>2020-09-20T10:00:45Z</time>
      </trkpt>
      <trkpt lat="49.24525" lon="4.0124">
        <ele>130</ele>
        <time>2020-09-20T10:00:46Z</time>
      </trkpt>
      <trkpt lat="49.24527" lon="4.01241">
        <ele>130</ele>
        <time>2020-09-20T10:00:47Z</time>
      </trkpt>
      <trkpt lat="49.24529" lon="4.01241">
        <ele>130</ele>
        <time>2020-09-20T10:00:48Z</time>
      </trkpt>
      <trkpt lat="49.24531" lon="4.01243">
        <ele>130</ele>
        <time>2020-09-20T10:00:49Z</time>
      </trkpt>
      <trkpt lat="49.24533" lon="4.01246">
        <ele>129</ele>
        <time>2020-09-20T10:00:50Z</time>
      </trkpt>
      <trkpt lat="49.24532" lon="4.01248">
        <ele>129</ele>
        <time>2020-09-20T10:00:51Z</time>
      </trkpt>
      <trkpt lat="49.24532" lon="4.0125">
        <ele>129</ele>
        <time>2020-09-20T10:00:52Z</time>
      </trkpt>
      <trkpt lat="49.24531" lon="4.01253">
        <ele>129</ele>
        <time>2020-09-20T10:00:53Z</time>
      </trkpt>
      <trkpt lat="49.24532" lon="4.01255">
        <ele>128</ele>
        <time>2020-09-20T10:00:54Z</time>
      </trkpt>
      <trkpt lat="49.24534" lon="4.01257">
        <ele>128</ele>
        <time>2020-09-20T10:00:55Z</time>
      </trkpt>
      <trkpt lat="49.24537" lon="4.01257">
        <ele>128</ele>
        <time>2020-09-20T10:00:56Z</time>
      </trkpt>
      <trkpt lat="49.24539" lon="4.01256">
        <ele>128</ele>
        <time>2020-09-20T10:00:57Z</time>
      </trkpt>
      <trkpt lat="49.24541" lon="4.01255">
        <ele>129</ele>
        <time>2020-09-20T10:00:58Z</time>
      </trkpt>
      <trkpt lat="49.24544" lon="4.01254">
        <ele>129</ele>
        <time>2020-09-20T10:00:59Z</time>
      </trkpt>
      <trkpt lat="49.24547" lon="4.01253">
        <ele>129</ele>
        <time>2020-09-20T10:01:00Z</time>
      </trkpt>
      <trkpt lat="49.24551" lon="4.01253">
        <ele>129</ele>
        <time>2020-09-20T10:01:01Z</time>
      </trkpt>
      <trkpt lat="49.24554" lon="4.01252">
        <ele>129</ele>
        <time>2020-09-20T10:01:02Z</time>
      </trkpt>
      <trkpt lat="49.24558" lon="4.01252">
        <ele>129</ele>
        <time>2020-09-20T10:01:03Z</time>
      </trkpt>
      <trkpt lat="49.24561" lon="4.01251">
        <ele>129</ele>
        <time>2020-09-20T10:01:04Z</time>
      </trkpt>
      <trkpt lat="49.24565" lon="4.01251">
        <ele>130</ele>
        <time>2020-09-20T10:01:05Z</time>
      </trkpt>
      <trkpt lat="49.24568" lon="4.0125">
        <ele>130</ele>
        <time>2020-09-20T10:01:06Z</time>
      </trkpt>
      <trkpt lat="49.24571" lon="4.0125">
        <ele>130</ele>
        <time>2020-09-20T10:01:07Z</time>
      </trkpt>
      <trkpt lat="49.24574" lon="4.0125">
        <ele>130</ele>
        <time>2020-09-20T10:01:08Z</time>
      </trkpt>
      <trkpt lat="49.24577" lon="4.0125">
        <ele>130</ele>
        <time>2020-09-20T10:01:09Z</time>
      </trkpt>
      <trkpt lat="49.2458" lon="4.0125">
        <ele>130</ele>
        <time>2020-09-20T10:01:10Z</time>
      </trkpt>
      <trkpt lat="49.24584" lon="4.01248">
        <ele>130</ele>
        <time>2020-09-20T10:01:11Z</time>
      </trkpt>
      <trkpt lat="49.24587" lon="4.01247">
        <ele>130</ele>
        <time>2020-09-20T10:01:12Z</time>
      </trkpt>
      <trkpt lat="49.24591" lon="4.01247">
        <ele>131</ele>
        <time>2020-09-20T10:01:13Z</time>
      </trkpt>
      <trkpt lat="49.24594" lon="4.01248">
        <ele>131</ele>
        <time>2020-09-20T10:01:14Z</time>
      </trkpt>
      <trkpt lat="49.24599" lon="4.01248">
        <ele>131</ele>
        <time>2020-09-20T10:01:15Z</time>
      </trkpt>
      <trkpt lat="49.24604" lon="4.01248">
        <ele>131</ele>
        <time>2020-09-20T10:01:16Z</time>
      </trkpt>
      <trkpt lat="49.24608" lon="4.01247">
        <ele>131</ele>
        <time>2020-09-20T10:01:17Z</time>
      </trkpt>
      <trkpt lat="49.24613" lon="4.01245">
        <ele>131</ele>
        <time>2020-09-20T10:01:18Z</time>
      </trkpt>
      <trkpt lat="49.24617" lon="4.01245">
        <ele>131</ele>
        <time>2020-09-20T10:01:19Z</time>
      </trkpt>
      <trkpt lat="49.24622" lon="4.01245">
        <ele>131</ele>
        <time>2020-09-20T10:01:20Z</time>
      </trkpt>
      <trkpt lat="49.24627" lon="4.01246">
        <ele>131</ele>
        <time>2020-09-20T10:01:21Z</time>
      </trkpt>
      <trkpt lat="49.24632" lon="4.01248">
        <ele>131</ele>
        <time>2020-09-20T10:01:22Z</time>
      </trkpt>
      <trkpt lat="49.24637" lon="4.01249">
        <ele>132</ele>
        <time>2020-09-20T10:01:23Z</time>
      </trkpt>
      <trkpt lat="49.24642" lon="4.01249">
        <ele>131</ele>
        <time>2020-09-20T10:01:24Z</time>
      </trkpt>
      <trkpt lat="49.24647" lon="4.01248">
        <ele>131</ele>
        <time>2020-09-20T10:01:25Z</time>
      </trkpt>
      <trkpt lat="49.24652" lon="4.01247">
        <ele>131</ele>
        <time>2020-09-20T10:01:26Z</time>
      </trkpt>
      <trkpt lat="49.24657" lon="4.01247">
        <ele>131</ele>
        <time>2020-09-20T10:01:27Z</time>
      </trkpt>
      <trkpt lat="49.24662" lon="4.01247">
        <ele>131</ele>
        <time>2020-09-20T10:01:28Z</time>
      </trkpt>
      <trkpt lat="49.24667" lon="4.01247">
        <ele>131</ele>
        <time>2020-09-20T10:01:29Z</time>
      </trkpt>
      <trkpt lat="49.24672" lon="4.01247">
        <ele>131</ele>
        <time>2020-09-20T10:01:30Z</time>
      </trkpt>
      <trkpt lat="49.24678" lon="4.01247">
        <ele>131</ele>
        <time>2020-09-20T10:01:31Z</time>
      </trkpt>
      <trkpt lat="49.24683" lon="4.01248">
        <ele>130</ele>
        <time>2020-09-20T10:01:32Z</time>
      </trkpt>
      <trkpt lat="49.24688" lon="4.01247">
        <ele>130</ele>
        <time>2020-09-20T10:01:33Z</time>
      </trkpt>
      <trkpt lat="49.24694" lon="4.01247">
        <ele>130</ele>
        <time>2020-09-20T10:01:34Z</time>
      </trkpt>
      <trkpt lat="49.247" lon="4.01248">
        <ele>130</ele>
        <time>2020-09-20T10:01:35Z</time>
      </trkpt>
      <trkpt lat="49.24706" lon="4.01248">
        <ele>129</ele>
        <time>2020-09-20T10:01:36Z</time>
      </trkpt>
      <trkpt lat="49.24712" lon="4.01249">
        <ele>129</ele>
        <time>2020-09-20T10:01:37Z</time>
      </trkpt>
      <trkpt lat="49.24718" lon="4.0125">
        <ele>129</ele>
        <time>2020-09-20T10:01:38Z</time>
      </trkpt>
      <trkpt lat="49.24724" lon="4.01252">
        <ele>128</ele>
        <time>2020-09-20T10:01:39Z</time>
      </trkpt>
      <trkpt lat="49.2473" lon="4.01253">
        <ele>129</ele>
        <time>2020-09-20T10:01:40Z</time>
      </trkpt>
      <trkpt lat="49.24736" lon="4.01254">
        <ele>129</ele>
        <time>2020-09-20T10:01:41Z</time>
      </trkpt>
      <trkpt lat="49.24741" lon="4.01254">
        <ele>128</ele>
        <time>2020-09-20T10:01:42Z</time>
      </trkpt>
      <trkpt lat="49.24747" lon="4.01255">
        <ele>129</ele>
        <time>2020-09-20T10:01:43Z</time>
      </trkpt>
      <trkpt lat="49.24753" lon="4.01256">
        <ele>129</ele>
        <time>2020-09-20T10:01:44Z</time>
      </trkpt>
      <trkpt lat="49.24759" lon="4.01257">
        <ele>129</ele>
        <time>2020-09-20T10:01:45Z</time>
      </trkpt>
      <trkpt lat="49.24765" lon="4.01258">
        <ele>128</ele>
        <time>2020-09-20T10:01:46Z</time>
      </trkpt>
      <trkpt lat="49.2477" lon="4.01259">
        <ele>128</ele>
        <time>2020-09-20T10:01:47Z</time>
      </trkpt>
      <trkpt lat="49.24776" lon="4.01261">
        <ele>128</ele>
        <time>2020-09-20T10:01:48Z</time>
      </trkpt>
      <trkpt lat="49.24782" lon="4.01263">
        <ele>128</ele>
        <time>2020-09-20T10:01:49Z</time>
      </trkpt>
      <trkpt lat="49.24788" lon="4.01264">
        <ele>128</ele>
        <time>2020-09-20T10:01:50Z</time>
      </trkpt>
      <trkpt lat="49.24794" lon="4.01266">
        <ele>128</ele>
        <time>2020-09-20T10:01:51Z</time>
      </trkpt>
      <trkpt lat="49.24801" lon="4.01267">
        <ele>128</ele>
        <time>2020-09-20T10:01:52Z</time>
      </trkpt>
      <trkpt lat="49.24807" lon="4.01269">
        <ele>128</ele>
        <time>2020-09-20T10:01:53Z</time>
      </trkpt>
      <trkpt lat="49.24813" lon="4.01269">
        <ele>128</ele>
        <time>2020-09-20T10:01:54Z</time>
      </trkpt>
      <trkpt lat="49.24819" lon="4.01271">
        <ele>127</ele>
        <time>2020-09-20T10:01:55Z</time>
      </trkpt>
      <trkpt lat="49.24825" lon="4.01273">
        <ele>127</ele>
        <time>2020-09-20T10:01:56Z</time>
      </trkpt>
      <trkpt lat="49.2483" lon="4.01274">
        <ele>127</ele>
        <time>2020-09-20T10:01:57Z</time>
      </trkpt>
      <trkpt lat="49.24835" lon="4.01274">
        <ele>127</ele>
        <time>2020-09-20T10:01:58Z</time>
      </trkpt>
      <trkpt lat="49.24839" lon="4.01275">
        <ele>127</ele>
        <time>2020-09-20T10:01:59Z</time>
      </trkpt>
      <trkpt lat="49.24844" lon="4.01276">
        <ele>127</ele>
        <time>2020-09-20T10:02:00Z</time>
      </trkpt>
      <trkpt lat="49.24849" lon="4.01277">
        <ele>127</ele>
        <time>2020-09-20T10:02:01Z</time>
      </trkpt>
      <trkpt lat="49.24853" lon="4.01282">
        <ele>127</ele>
        <time>2020-09-20T10:02:02Z</time>
      </trkpt>
      <trkpt lat="49.24856" lon="4.01288">
        <ele>127</ele>
        <time>2020-09-20T10:02:03Z</time>
      </trkpt>
      <trkpt lat="49.24858" lon="4.01295">
        <ele>127</ele>
        <time>2020-09-20T10:02:04Z</time>
      </trkpt>
      <trkpt lat="49.2486" lon="4.01299">
        <ele>127</ele>
        <time>2020-09-20T10:02:05Z</time>
      </trkpt>
      <trkpt lat="49.24861" lon="4.01305">
        <ele>128</ele>
        <time>2020-09-20T10:02:06Z</time>
      </trkpt>
      <trkpt lat="49.24862" lon="4.0131">
        <ele>127</ele>
        <time>2020-09-20T10:02:07Z</time>
      </trkpt>
      <trkpt lat="49.24863" lon="4.01316">
        <ele>127</ele>
        <time>2020-09-20T10:02:08Z</time>
      </trkpt>
      <trkpt lat="49.24864" lon="4.01322">
        <ele>128</ele>
        <time>2020-09-20T10:02:09Z</time>
      </trkpt>
      <trkpt lat="49.24866" lon="4.01328">
        <ele>128</ele>
        <time>2020-09-20T10:02:10Z</time>
      </trkpt>
      <trkpt lat="49.24868" lon="4.01334">
        <ele>128</ele>
        <time>2020-09-20T10:02:11Z</time>
      </trkpt>
      <trkpt lat="49.24868" lon="4.0134">
        <ele>128</ele>
        <time>2020-09-20T10:02:12Z</time>
      </trkpt>
      <trkpt lat="49.24869" lon="4.01346">
        <ele>128</ele>
        <time>2020-09-20T10:02:13Z</time>
      </trkpt>
      <trkpt lat="49.24869" lon="4.01351">
        <ele>128</ele>
        <time>2020-09-20T10:02:14Z</time>
      </trkpt>
      <trkpt lat="49.2487" lon="4.01355">
        <ele>127</ele>
        <time>2020-09-20T10:02:15Z</time>
      </trkpt>
      <trkpt lat="49.24871" lon="4.0136">
        <ele>127</ele>
        <time>2020-09-20T10:02:16Z</time>
      </trkpt>
      <trkpt lat="49.24872" lon="4.01364">
        <ele>127</ele>
        <time>2020-09-20T10:02:17Z</time>
      </trkpt>
      <trkpt lat="49.24874" lon="4.01369">
        <ele>127</ele>
        <time>2020-09-20T10:02:18Z</time>
      </trkpt>
      <trkpt lat="49.24875" lon="4.01374">
        <ele>127</ele>
        <time>2020-09-20T10:02:19Z</time>
      </trkpt>
      <trkpt lat="49.24877" lon="4.0138">
        <ele>127</ele>
        <time>2020-09-20T10:02:20Z</time>
      </trkpt>
      <trkpt lat="49.24878" lon="4.01386">
        <ele>127</ele>
        <time>2020-09-20T10:02:21Z</time>
      </trkpt>
      <trkpt lat="49.24879" lon="4.01391">
        <ele>128</ele>
        <time>2020-09-20T10:02:22Z</time>
      </trkpt>
      <trkpt lat="49.24881" lon="4.01398">
        <ele>127</ele>
        <time>2020-09-20T10:02:23Z</time>
      </trkpt>
      <trkpt lat="49.24882" lon="4.01404">
        <ele>128</ele>
        <time>2020-09-20T10:02:24Z</time>
      </trkpt>
      <trkpt lat="49.24884" lon="4.01411">
        <ele>128</ele>
        <time>2020-09-20T10:02:25Z</time>
      </trkpt>
      <trkpt lat="49.24885" lon="4.01419">
        <ele>129</ele>
        <time>2020-09-20T10:02:26Z</time>
      </trkpt>
      <trkpt lat="49.24886" lon="4.01427">
        <ele>129</ele>
        <time>2020-09-20T10:02:27Z</time>
      </trkpt>
      <trkpt lat="49.24887" lon="4.01436">
        <ele>129</ele>
        <time>2020-09-20T10:02:28Z</time>
      </trkpt>
      <trkpt lat="49.24888" lon="4.01444">
        <ele>129</ele>
        <time>2020-09-20T10:02:29Z</time>
      </trkpt>
      <trkpt lat="49.24889" lon="4.01453">
        <ele>129</ele>
        <time>2020-09-20T10:02:30Z</time>
      </trkpt>
      <trkpt lat="49.24891" lon="4.01461">
        <ele>129</ele>
        <time>2020-09-20T10:02:31Z</time>
      </trkpt>
      <trkpt lat="49.24892" lon="4.0147">
        <ele>129</ele>
        <time>2020-09-20T10:02:32Z</time>
      </trkpt>
      <trkpt lat="49.24894" lon="4.01479">
        <ele>129</ele>
        <time>2020-09-20T10:02:33Z</time>
      </trkpt>
      <trkpt lat="49.24896" lon="4.01488">
        <ele>129</ele>
        <time>2020-09-20T10:02:34Z</time>
      </trkpt>
      <trkpt lat="49.24898" lon="4.01497">
        <ele>130</ele>
        <time>2020-09-20T10:02:35Z</time>
      </trkpt>
      <trkpt lat="49.24899" lon="4.01507">
        <ele>129</ele>
        <time>2020-09-20T10:02:36Z</time>
      </trkpt>
      <trkpt lat="49.249" lon="4.01516">
        <ele>129</ele>
        <time>2020-09-20T10:02:37Z</time>
      </trkpt>
      <trkpt lat="49.24901" lon="4.01526">
        <ele>129</ele>
        <time>2020-09-20T10:02:38Z</time>
      </trkpt>
      <trkpt lat="49.24902" lon="4.01535">
        <ele>129</ele>
        <time>2020-09-20T10:02:39Z</time>
      </trkpt>
      <trkpt lat="49.24904" lon="4.01545">
        <ele>128</ele>
        <time>2020-09-20T10:02:40Z</time>
      </trkpt>
      <trkpt lat="49.24905" lon="4.01554">
        <ele>128</ele>
        <time>2020-09-20T10:02:41Z</time>
      </trkpt>
      <trkpt lat="49.24906" lon="4.01564">
        <ele>127</ele>
        <time>2020-09-20T10:02:42Z</time>
      </trkpt>
      <trkpt lat="49.24908" lon="4.01574">
        <ele>127</ele>
        <time>2020-09-20T10:02:43Z</time>
      </trkpt>
      <trkpt lat="49.24909" lon="4.01584">
        <ele>126</ele>
        <time>2020-09-20T10:02:44Z</time>
      </trkpt>
      <trkpt lat="49.2491" lon="4.01595">
        <ele>126</ele>
        <time>2020-09-20T10:02:45Z</time>
      </trkpt>
      <trkpt lat="49.24911" lon="4.01605">
        <ele>126</ele>
        <time>2020-09-20T10:02:46Z</time>
      </trkpt>
      <trkpt lat="49.24913" lon="4.01615">
        <ele>126</ele>
        <time>2020-09-20T10:02:47Z</time>
      </trkpt>
      <trkpt lat="49.24914" lon="4.01626">
        <ele>126</ele>
        <time>2020-09-20T10:02:48Z</time>
      </trkpt>
      <trkpt lat="49.24916" lon="4.01637">
        <ele>125</ele>
        <time>2020-09-20T10:02:49Z</time>
      </trkpt>
      <trkpt lat="49.24917" lon="4.01647">
        <ele>125</ele>
        <time>2020-09-20T10:02:50Z</time>
      </trkpt>
      <trkpt lat="49.24919" lon="4.01657">
        <ele>125</ele>
        <time>2020-09-20T10:02:51Z</time>
      </trkpt>
      <trkpt lat="49.24921" lon="4.01667">
        <ele>126</ele>
        <time>2020-09-20T10:02:52Z</time>
      </trkpt>
      <trkpt lat="49.24922" lon="4.01678">
        <ele>126</ele>
        <time>2020-09-20T10:02:53Z</time>
      </trkpt>
      <trkpt lat="49.24924" lon="4.01688">
        <ele>126</ele>
        <time>2020-09-20T10:02:54Z</time>
      </trkpt>
      <trkpt lat="49.24925" lon="4.01699">
        <ele>126</ele>
        <time>2020-09-20T10:02:55Z</time>
      </trkpt>
      <trkpt lat="49.24927" lon="4.01708">
        <ele>126</ele>
        <time>2020-09-20T10:02:56Z</time>
      </trkpt>
      <trkpt lat="49.24929" lon="4.01718">
        <ele>125</ele>
        <time>2020-09-20T10:02:57Z</time>
      </trkpt>
      <trkpt lat="49.24932" lon="4.01727">
        <ele>125</ele>
        <time>2020-09-20T10:02:58Z</time>
      </trkpt>
      <trkpt lat="49.24935" lon="4.01736">
        <ele>125</ele>
        <time>2020-09-20T10:02:59Z</time>
      </trkpt>
      <trkpt lat="49.24938" lon="4.01746">
        <ele>125</ele>
        <time>2020-09-20T10:03:00Z</time>
      </trkpt>
      <trkpt lat="49.24941" lon="4.01755">
        <ele>125</ele>
        <time>2020-09-20T10:03:01Z</time>
      </trkpt>
      <trkpt lat="49.24944" lon="4.01764">
        <ele>125</ele>
        <time>2020-09-20T10:03:02Z</time>
      </trkpt>
      <trkpt lat="49.24947" lon="4.01773">
        <ele>124</ele>
        <time>2020-09-20T10:03:03Z</time>
      </trkpt>
      <trkpt lat="49.2495" lon="4.01781">
        <ele>124</ele>
        <time>2020-09-20T10:03:04Z</time>
      </trkpt>
      <trkpt lat="49.24953" lon="4.01789">
        <ele>124</ele>
        <time>2020-09-20T10:03:05Z</time>
      </trkpt>
      <trkpt lat="49.24956" lon="4.01798">
        <ele>124</ele>
        <time>2020-09-20T10:03:06Z</time>
      </trkpt>
      <trkpt lat="49.24959" lon="4.01807">
        <ele>124</ele>
        <time>2020-09-20T10:03:07Z</time>
      </trkpt>
      <trkpt lat="49.24962" lon="4.01816">
        <ele>123</ele>
        <time>2020-09-20T10:03:08Z</time>
      </trkpt>
      <trkpt lat="49.24965" lon="4.01824">
        <ele>123</ele>
        <time>2020-09-20T10:03:09Z</time>
      </trkpt>
      <trkpt lat="49.24969" lon="4.01833">
        <ele>123</ele>
        <time>2020-09-20T10:03:10Z</time>
      </trkpt>
      <trkpt lat="49.24972" lon="4.01842">
        <ele>123</ele>
        <time>2020-09-20T10:03:11Z</time>
      </trkpt>
      <trkpt lat="49.24975" lon="4.01851">
        <ele>123</ele>
        <time>2020-09-20T10:03:12Z</time>
      </trkpt>
      <trkpt lat="49.24978" lon="4.0186">
        <ele>122</ele>
        <time>2020-09-20T10:03:13Z</time>
      </trkpt>
      <trkpt lat="49.24981" lon="4.0187">
        <ele>122</ele>
        <time>2020-09-20T10:03:14Z</time>
      </trkpt>
      <trkpt lat="49.24984" lon="4.01878">
        <ele>122</ele>
        <time>2020-09-20T10:03:15Z</time>
      </trkpt>
      <trkpt lat="49.24988" lon="4.01887">
        <ele>122</ele>
        <time>2020-09-20T10:03:16Z</time>
      </trkpt>
      <trkpt lat="49.24991" lon="4.01896">
        <ele>122</ele>
        <time>2020-09-20T10:03:17Z</time>
      </trkpt>
      <trkpt lat="49.24994" lon="4.01904">
        <ele>123</ele>
        <time>2020-09-20T10:03:18Z</time>
      </trkpt>
      <trkpt lat="49.24997" lon="4.01913">
        <ele>123</ele>
        <time>2020-09-20T10:03:19Z</time>
      </trkpt>
      <trkpt lat="49.25" lon="4.01922">
        <ele>123</ele>
        <time>2020-09-20T10:03:20Z</time>
      </trkpt>
      <trkpt lat="49.25003" lon="4.01931">
        <ele>123</ele>
        <time>2020-09-20T10:03:21Z</time>
      </trkpt>
      <trkpt lat="49.25006" lon="4.0194">
        <ele>123</ele>
        <time>2020-09-20T10:03:22Z</time>
      </trkpt>
      <trkpt lat="49.25009" lon="4.01949">
        <ele>123</ele>
        <time>2020-09-20T10:03:23Z</time>
      </trkpt>
      <trkpt lat="49.25011" lon="4.01957">
        <ele>123</ele>
        <time>2020-09-20T10:03:24Z</time>
      </trkpt>
      <trkpt lat="49.25014" lon="4.01965">
        <ele>122</ele>
        <time>2020-09-20T10:03:25Z</time>
      </trkpt>
      <trkpt lat="49.25016" lon="4.01973">
        <ele>122</ele>
        <time>2020-09-20T10:03:26Z</time>
      </trkpt>
      <trkpt lat="49.25019" lon="4.01982">
        <ele>122</ele>
        <time>2020-09-20T10:03:27Z</time>
      </trkpt>
      <trkpt lat="49.25022" lon="4.0199">
        <ele>122</ele>
        <time>2020-09-20T10:03:28Z</time>
      </trkpt>
      <trkpt lat="49.25024" lon="4.01997">
        <ele>123</ele>
        <time>2020-09-20T10:03:29Z</time>
      </trkpt>
      <trkpt lat="49.25027" lon="4.02004">
        <ele>123</ele>
        <time>2020-09-20T10:03:30Z</time>
      </trkpt>
      <trkpt lat="49.2503" lon="4.02011">
        <ele>124</ele>
        <time>2020-09-20T10:03:31Z</time>
      </trkpt>
      <trkpt lat="49.25031" lon="4.02019">
        <ele>124</ele>
        <time>2020-09-20T10:03:32Z</time>
      </trkpt>
      <trkpt lat="49.25031" lon="4.02026">
        <ele>124</ele>
        <time>2020-09-20T10:03:33Z</time>
      </trkpt>
      <trkpt lat="49.25033" lon="4.02032">
        <ele>124</ele>
        <time>2020-09-20T10:03:34Z</time>
      </trkpt>
      <trkpt lat="49.25035" lon="4.02037">
        <ele>124</ele>
        <time>2020-09-20T10:03:35Z</time>
      </trkpt>
      <trkpt lat="49.25037" lon="4.02043">
        <ele>124</ele>
        <time>2020-09-20T10:03:36Z</time>
      </trkpt>
      <trkpt lat="49.25039" lon="4.02049">
        <ele>124</ele>
        <time>2020-09-20T10:03:37Z</time>
      </trkpt>
      <trkpt lat="49.2504" lon="4.02055">
        <ele>124</ele>
        <time>2020-09-20T10:03:38Z</time>
      </trkpt>
      <trkpt lat="49.25042" lon="4.0206">
        <ele>124</ele>
        <time>2020-09-20T10:03:39Z</time>
      </trkpt>
      <trkpt lat="49.25044" lon="4.02065">
        <ele>124</ele>
        <time>2020-09-20T10:03:40Z</time>
      </trkpt>
      <trkpt lat="49.25045" lon="4.02072">
        <ele>124</ele>
        <time>2020-09-20T10:03:41Z</time>
      </trkpt>
      <trkpt lat="49.25047" lon="4.02078">
        <ele>125</ele>
        <time>2020-09-20T10:03:42Z</time>
      </trkpt>
      <trkpt lat="49.2505" lon="4.02082">
        <ele>126</ele>
        <time>2020-09-20T10:03:43Z</time>
      </trkpt>
      <trkpt lat="49.25052" lon="4.02087">
        <ele>126</ele>
        <time>2020-09-20T10:03:44Z</time>
      </trkpt>
      <trkpt lat="49.25055" lon="4.02092">
        <ele>126</ele>
        <time>2020-09-20T10:03:45Z</time>
      </trkpt>
      <trkpt lat="49.25057" lon="4.02096">
        <ele>126</ele>
        <time>2020-09-20T10:03:46Z</time>
      </trkpt>
      <trkpt lat="49.2506" lon="4.02101">
        <ele>126</ele>
        <time>2020-09-20T10:03:47Z</time>
      </trkpt>
      <trkpt lat="49.25063" lon="4.02106">
        <ele>126</ele>
        <time>2020-09-20T10:03:48Z</time>
      </trkpt>
      <trkpt lat="49.25065" lon="4.02111">
        <ele>126</ele>
        <time>2020-09-20T10:03:49Z</time>
      </trkpt>
      <trkpt lat="49.25067" lon="4.02116">
        <ele>126</ele>
        <time>2020-09-20T10:03:50Z</time>
      </trkpt>
      <trkpt lat="49.25068" lon="4.02121">
        <ele>126</ele>
        <time>2020-09-20T10:03:51Z</time>
      </trkpt>
      <trkpt lat="49.2507" lon="4.02127">
        <ele>126</ele>
        <time>2020-09-20T10:03:52Z</time>
      </trkpt>
      <trkpt lat="49.25071" lon="4.02131">
        <ele>127</ele>
        <time>2020-09-20T10:03:53Z</time>
      </trkpt>
      <trkpt lat="49.25072" lon="4.02135">
        <ele>126</ele>
        <time>2020-09-20T10:03:54Z</time>
      </trkpt>
      <trkpt lat="49.25074" lon="4.02139">
        <ele>126</ele>
        <time>2020-09-20T10:03:55Z</time>
      </trkpt>
      <trkpt lat="49.25076" lon="4.02143">
        <ele>126</ele>
        <time>2020-09-20T10:03:56Z</time>
      </trkpt>
      <trkpt lat="49.25077" lon="4.02148">
        <ele>126</ele>
        <time>2020-09-20T10:03:57Z</time>
      </trkpt>
      <trkpt lat="49.25079" lon="4.02152">
        <ele>126</ele>
        <time>2020-09-20T10:03:58Z</time>
      </trkpt>
      <trkpt lat="49.25081" lon="4.02157">
        <ele>126</ele>
        <time>2020-09-20T10:03:59Z</time>
      </trkpt>
      <trkpt lat="49.25082" lon="4.02162">
        <ele>126</ele>
        <time>2020-09-20T10:04:00Z</time>
      </trkpt>
      <trkpt lat="49.25084" lon="4.02167">
        <ele>126</ele>
        <time>2020-09-20T10:04:01Z</time>
      </trkpt>
      <trkpt lat="49.25085" lon="4.02171">
        <ele>126</ele>
        <time>2020-09-20T10:04:02Z</time>
      </trkpt>
      <trkpt lat="49.25087" lon="4.02175">
        <ele>126</ele>
        <time>2020-09-20T10:04:03Z</time>
      </trkpt>
      <trkpt lat="49.25088" lon="4.02178">
        <ele>126</ele>
        <time>2020-09-20T10:04:04Z</time>
      </trkpt>
      <trkpt lat="49.25089" lon="4.02181">
        <ele>126</ele>
        <time>2020-09-20T10:04:05Z</time>
      </trkpt>
      <trkpt lat="49.25091" lon="4.02184">
        <ele>126</ele>
        <time>2020-09-20T10:04:06Z</time>
      </trkpt>
      <trkpt lat="49.25092" lon="4.02188">
        <ele>126</ele>
        <time>2020-09-20T10:04:07Z</time>
      </trkpt>
      <trkpt lat="49.25092" lon="4.02191">
        <ele>126</ele>
        <time>2020-09-20T10:04:08Z</time>
      </trkpt>
      <trkpt lat="49.25093" lon="4.02192">
        <ele>126</ele>
        <time>2020-09-20T10:04:09Z</time>
      </trkpt>
      <trkpt lat="49.25093" lon="4.02193">
        <ele>126</ele>
        <time>2020-09-20T10:04:10Z</time>
      </trkpt>
      <trkpt lat="49.25093" lon="4.02194">
        <ele>126</ele>
        <time>2020-09-20T10:04:11Z</time>
      </trkpt>
      <trkpt lat="49.25092" lon="4.02195">
        <ele>125</ele>
        <time>2020-09-20T10:04:12Z</time>
      </trkpt>
      <trkpt lat="49.25093" lon="4.02197">
        <ele>126</ele>
        <time>2020-09-20T10:04:13Z</time>
      </trkpt>
      <trkpt lat="49.25093" lon="4.02198">
        <ele>126</ele>
        <time>2020-09-20T10:04:14Z</time>
      </trkpt>
      <trkpt lat="49.25093" lon="4.02198">
        <ele>126</ele>
        <time>2020-09-20T10:04:15Z</time>
      </trkpt>
      <trkpt lat="49.25093" lon="4.02199">
        <ele>126</ele>
        <time>2020-09-20T10:04:16Z</time>
      </trkpt>
      <trkpt lat="49.25093" lon="4.02199">
        <ele>126</ele>
        <time>2020-09-20T10:04:17Z</time>
      </trkpt>
      <trkpt lat="49.25093" lon="4.02201">
        <ele>126</ele>
        <time>2020-09-20T10:04:18Z</time>
      </trkpt>
      <trkpt lat="49.25093" lon="4.02201">
        <ele>126</ele>
        <time>2020-09-20T10:04:19Z</time>
      </trkpt>
      <trkpt lat="49.25093" lon="4.02201">
        <ele>126</ele>
        <time>2020-09-20T10:04:20Z</time>
      </trkpt>
      <trkpt lat="49.25092" lon="4.02202">
        <ele>126</ele>
        <time>2020-09-20T10:04:21Z</time>
      </trkpt>
      <trkpt lat="49.25091" lon="4.02203">
        <ele>125</ele>
        <time>2020-09-20T10:04:22Z</time>
      </trkpt>
      <trkpt lat="49.2509" lon="4.02205">
        <ele>125</ele>
        <time>2020-09-20T10:04:23Z</time>
      </trkpt>
      <trkpt lat="49.25089" lon="4.02206">
        <ele>124</ele>
        <time>2020-09-20T10:04:24Z</time>
      </trkpt>
      <trkpt lat="49.25089" lon="4.02206">
        <ele>124</ele>
        <time>2020-09-20T10:04:25Z</time>
      </trkpt>
      <trkpt lat="49.25089" lon="4.02206">
        <ele>124</ele>
        <time>2020-09-20T10:04:26Z</time>
      </trkpt>
      <trkpt lat="49.25089" lon="4.02208">
        <ele>124</ele>
        <time>2020-09-20T10:04:27Z</time>
      </trkpt>
      <trkpt lat="49.25088" lon="4.02208">
        <ele>124</ele>
        <time>2020-09-20T10:04:28Z</time>
      </trkpt>
      <trkpt lat="49.25088" lon="4.02209">
        <ele>124</ele>
        <time>2020-09-20T10:04:29Z</time>
      </trkpt>
      <trkpt lat="49.25088" lon="4.02211">
        <ele>124</ele>
        <time>2020-09-20T10:04:30Z</time>
      </trkpt>
      <trkpt lat="49.25088" lon="4.02214">
        <ele>123</ele>
        <time>2020-09-20T10:04:31Z</time>
      </trkpt>
      <trkpt lat="49.25086" lon="4.02216">
        <ele>123</ele>
        <time>2020-09-20T10:04:32Z</time>
      </trkpt>
      <trkpt lat="49.25083" lon="4.02218">
        <ele>123</ele>
        <time>2020-09-20T10:04:33Z</time>
      </trkpt>
      <trkpt lat="49.25081" lon="4.02222">
        <ele>122</ele>
        <time>2020-09-20T10:04:34Z</time>
      </trkpt>
      <trkpt lat="49.25078" lon="4.02225">
        <ele>122</ele>
        <time>2020-09-20T10:04:35Z</time>
      </trkpt>
      <trkpt lat="49.25075" lon="4.02229">
        <ele>122</ele>
        <time>2020-09-20T10:04:36Z</time>
      </trkpt>
      <trkpt lat="49.25071" lon="4.02234">
        <ele>122</ele>
        <time>2020-09-20T10:04:37Z</time>
      </trkpt>
      <trkpt lat="49.25068" lon="4.02238">
        <ele>122</ele>
        <time>2020-09-20T10:04:38Z</time>
      </trkpt>
      <trkpt lat="49.25064" lon="4.02242">
        <ele>121</ele>
        <time>2020-09-20T10:04:39Z</time>
      </trkpt>
      <trkpt lat="49.25061" lon="4.02247">
        <ele>121</ele>
        <time>2020-09-20T10:04:40Z</time>
      </trkpt>
      <trkpt lat="49.25057" lon="4.02252">
        <ele>122</ele>
        <time>2020-09-20T10:04:41Z</time>
      </trkpt>
      <trkpt lat="49.25054" lon="4.02257">
        <ele>122</ele>
        <time>2020-09-20T10:04:42Z</time>
      </trkpt>
      <trkpt lat="49.2505" lon="4.02262">
        <ele>122</ele>
        <time>2020-09-20T10:04:43Z</time>
      </trkpt>
      <trkpt lat="49.25046" lon="4.02268">
        <ele>122</ele>
        <time>2020-09-20T10:04:44Z</time>
      </trkpt>
      <trkpt lat="49.25043" lon="4.02273">
        <ele>122</ele>
        <time>2020-09-20T10:04:45Z</time>
      </trkpt>
      <trkpt lat="49.25039" lon="4.02278">
        <ele>122</ele>
        <time>2020-09-20T10:04:46Z</time>
      </trkpt>
      <trkpt lat="49.25036" lon="4.02284">
        <ele>122</ele>
        <time>2020-09-20T10:04:47Z</time>
      </trkpt>
      <trkpt lat="49.25032" lon="4.02289">
        <ele>122</ele>
        <time>2020-09-20T10:04:48Z</time>
      </trkpt>
      <trkpt lat="49.25028" lon="4.02294">
        <ele>123</ele>
        <time>2020-09-20T10:04:49Z</time>
      </trkpt>
      <trkpt lat="49.25024" lon="4.023">
        <ele>123</ele>
        <time>2020-09-20T10:04:50Z</time>
      </trkpt>
      <trkpt lat="49.25021" lon="4.02305">
        <ele>122</ele>
        <time>2020-09-20T10:04:51Z</time>
      </trkpt>
      <trkpt lat="49.25017" lon="4.02311">
        <ele>122</ele>
        <time>2020-09-20T10:04:52Z</time>
      </trkpt>
      <trkpt lat="49.25013" lon="4.02316">
        <ele>122</ele>
        <time>2020-09-20T10:04:53Z</time>
      </trkpt>
      <trkpt lat="49.25009" lon="4.02321">
        <ele>122</ele>
        <time>2020-09-20T10:04:54Z</time>
      </trkpt>
      <trkpt lat="49.25005" lon="4.02327">
        <ele>122</ele>
        <time>2020-09-20T10:04:55Z</time>
      </trkpt>
      <trkpt lat="49.25001" lon="4.02332">
        <ele>123</ele>
        <time>2020-09-20T10:04:56Z</time>
      </trkpt>
      <trkpt lat="49.24997" lon="4.02337">
        <ele>122</ele>
        <time>2020-09-20T10:04:57Z</time>
      </trkpt>
      <trkpt lat="49.24994" lon="4.02342">
        <ele>122</ele>
        <time>2020-09-20T10:04:58Z</time>
      </trkpt>
      <trkpt lat="49.2499" lon="4.02347">
        <ele>122</ele>
        <time>2020-09-20T10:04:59Z</time>
      </trkpt>
      <trkpt lat="49.24986" lon="4.02353">
        <ele>122</ele>
        <time>2020-09-20T10:05:00Z</time>
      </trkpt>
      <trkpt lat="49.24982" lon="4.02358">
        <ele>122</ele>
        <time>2020-09-20T10:05:01Z</time>
      </trkpt>
      <trkpt lat="49.24978" lon="4.02364">
        <ele>122</ele>
        <time>2020-09-20T10:05:02Z</time>
      </trkpt>
      <trkpt lat="49.24974" lon="4.0237">
        <ele>122</ele>
        <time>2020-09-20T10:05:03Z</time>
      </trkpt>
      <trkpt lat="49.24971" lon="4.02376">
        <ele>122</ele>
        <time>2020-09-20T10:05:04Z</time>
      </trkpt>
      <trkpt lat="49.24967" lon="4.02382">
        <ele>122</ele>
        <time>2020-09-20T10:05:05Z</time>
      </trkpt>
      <trkpt lat="49.24963" lon="4.02388">
        <ele>122</ele>
        <time>2020-09-20T10:05:06Z</time>
      </trkpt>
      <trkpt lat="49.24958" lon="4.02393">
        <ele>122</ele>
        <time>2020-09-20T10:05:07Z</time>
      </trkpt>
      <trkpt lat="49.24954" lon="4.02398">
        <ele>122</ele>
        <time>2020-09-20T10:05:08Z</time>
      </trkpt>
      <trkpt lat="49.2495" lon="4.02404">
        <ele>122</ele>
        <time>2020-09-20T10:05:09Z</time>
      </trkpt>
      <trkpt lat="49.24946" lon="4.02409">
        <ele>122</ele>
        <time>2020-09-20T10:05:10Z</time>
      </trkpt>
      <trkpt lat="49.24942" lon="4.02415">
        <ele>123</ele>
        <time>2020-09-20T10:05:11Z</time>
      </trkpt>
      <trkpt lat="49.24938" lon="4.02421">
        <ele>123</ele>
        <time>2020-09-20T10:05:12Z</time>
      </trkpt>
      <trkpt lat="49.24934" lon="4.02426">
        <ele>123</ele>
        <time>2020-09-20T10:05:13Z</time>
      </trkpt>
      <trkpt lat="49.24929" lon="4.02431">
        <ele>122</ele>
        <time>2020-09-20T10:05:14Z</time>
      </trkpt>
      <trkpt lat="49.24924" lon="4.02435">
        <ele>122</ele>
        <time>2020-09-20T10:05:15Z</time>
      </trkpt>
      <trkpt lat="49.24918" lon="4.02439">
        <ele>122</ele>
        <time>2020-09-20T10:05:16Z</time>
      </trkpt>
      <trkpt lat="49.24914" lon="4.02445">
        <ele>122</ele>
        <time>2020-09-20T10:05:17Z</time>
      </trkpt>
      <trkpt lat="49.24909" lon="4.02451">
        <ele>122</ele>
        <time>2020-09-20T10:05:18Z</time>
      </trkpt>
      <trkpt lat="49.24906" lon="4.02457">
        <ele>122</ele>
        <time>2020-09-20T10:05:19Z</time>
      </trkpt>
      <trkpt lat="49.24902" lon="4.02463">
        <ele>121</ele>
        <time>2020-09-20T10:05:20Z</time>
      </trkpt>
      <trkpt lat="49.24899" lon="4.02468">
        <ele>121</ele>
        <time>2020-09-20T10:05:21Z</time>
      </trkpt>
      <trkpt lat="49.24895" lon="4.02473">
        <ele>121</ele>
        <time>2020-09-20T10:05:22Z</time>
      </trkpt>
      <trkpt lat="49.24891" lon="4.02478">
        <ele>121</ele>
        <time>2020-09-20T10:05:23Z</time>
      </trkpt>
      <trkpt lat="49.24887" lon="4.02483">
        <ele>121</ele>
        <time>2020-09-20T10:05:24Z</time>
      </trkpt>
      <trkpt lat="49.24883" lon="4.02489">
        <ele>121</ele>
        <time>2020-09-20T10:05:25Z</time>
      </trkpt>
      <trkpt lat="49.24878" lon="4.02496">
        <ele>121</ele>
        <time>2020-09-20T10:05:26Z</time>
      </trkpt>
      <trkpt lat="49.24875" lon="4.02503">
        <ele>121</ele>
        <time>2020-09-20T10:05:27Z</time>
      </trkpt>
      <trkpt lat="49.24871" lon="4.02508">
        <ele>121</ele>
        <time>2020-09-20T10:05:28Z</time>
      </trkpt>
      <trkpt lat="49.24867" lon="4.02514">
        <ele>121</ele>
        <time>2020-09-20T10:05:29Z</time>
      </trkpt>
      <trkpt lat="49.24863" lon="4.02519">
        <ele>122</ele>
        <time>2020-09-20T10:05:30Z</time>
      </trkpt>
      <trkpt lat="49.24859" lon="4.02525">
        <ele>122</ele>
        <time>2020-09-20T10:05:31Z</time>
      </trkpt>
      <trkpt lat="49.24855" lon="4.0253">
        <ele>121</ele>
        <time>2020-09-20T10:05:32Z</time>
      </trkpt>
      <trkpt lat="49.24852" lon="4.02536">
        <ele>121</ele>
        <time>2020-09-20T10:05:33Z</time>
      </trkpt>
      <trkpt lat="49.24849" lon="4.02542">
        <ele>121</ele>
        <time>2020-09-20T10:05:34Z</time>
      </trkpt>
      <trkpt lat="49.24844" lon="4.02547">
        <ele>121</ele>
        <time>2020-09-20T10:05:35Z</time>
      </trkpt>
      <trkpt lat="49.2484" lon="4.02553">
        <ele>121</ele>
        <time>2020-09-20T10:05:36Z</time>
      </trkpt>
      <trkpt lat="49.24837" lon="4.02559">
        <ele>121</ele>
        <time>2020-09-20T10:05:37Z</time>
      </trkpt>
      <trkpt lat="49.24833" lon="4.02564">
        <ele>121</ele>
        <time>2020-09-20T10:05:38Z</time>
      </trkpt>
      <trkpt lat="49.24831" lon="4.02568">
        <ele>121</ele>
        <time>2020-09-20T10:05:39Z</time>
      </trkpt>
      <trkpt lat="49.24828" lon="4.02572">
        <ele>121</ele>
        <time>2020-09-20T10:05:40Z</time>
      </trkpt>
      <trkpt lat="49.24826" lon="4.02577">
        <ele>121</ele>
        <time>2020-09-20T10:05:41Z</time>
      </trkpt>
      <trkpt lat="49.24824" lon="4.02581">
        <ele>121</ele>
        <time>2020-09-20T10:05:42Z</time>
      </trkpt>
      <trkpt lat="49.24821" lon="4.02585">
        <ele>122</ele>
        <time>2020-09-20T10:05:43Z</time>
      </trkpt>
      <trkpt lat="49.24818" lon="4.0259">
        <ele>121</ele>
        <time>2020-09-20T10:05:44Z</time>
      </trkpt>
      <trkpt lat="49.24814" lon="4.02596">
        <ele>121</ele>
        <time>2020-09-20T10:05:45Z</time>
      </trkpt>
      <trkpt lat="49.2481" lon="4.02601">
        <ele>121</ele>
        <time>2020-09-20T10:05:46Z</time>
      </trkpt>
      <trkpt lat="49.24806" lon="4.02607">
        <ele>121</ele>
        <time>2020-09-20T10:05:47Z</time>
      </trkpt>
      <trkpt lat="49.24802" lon="4.02613">
        <ele>121</ele>
        <time>2020-09-20T10:05:48Z</time>
      </trkpt>
      <trkpt lat="49.24798" lon="4.0262">
        <ele>121</ele>
        <time>2020-09-20T10:05:49Z</time>
      </trkpt>
      <trkpt lat="49.24794" lon="4.02627">
        <ele>121</ele>
        <time>2020-09-20T10:05:50Z</time>
      </trkpt>
      <trkpt lat="49.2479" lon="4.02634">
        <ele>122</ele>
        <time>2020-09-20T10:05:51Z</time>
      </trkpt>
      <trkpt lat="49.24787" lon="4.0264">
        <ele>122</ele>
        <time>2020-09-20T10:05:52Z</time>
      </trkpt>
      <trkpt lat="49.24783" lon="4.02647">
        <ele>122</ele>
        <time>2020-09-20T10:05:53Z</time>
      </trkpt>
      <trkpt lat="49.24779" lon="4.02654">
        <ele>122</ele>
        <time>2020-09-20T10:05:54Z</time>
      </trkpt>
      <trkpt lat="49.24775" lon="4.0266">
        <ele>122</ele>
        <time>2020-09-20T10:05:55Z</time>
      </trkpt>
      <trkpt lat="49.24771" lon="4.02667">
        <ele>122</ele>
        <time>2020-09-20T10:05:56Z</time>
      </trkpt>
      <trkpt lat="49.24767" lon="4.02673">
        <ele>122</ele>
        <time>2020-09-20T10:05:57Z</time>
      </trkpt>
      <trkpt lat="49.24763" lon="4.02679">
        <ele>123</ele>
        <time>2020-09-20T10:05:58Z</time>
      </trkpt>
      <trkpt lat="49.24759" lon="4.02686">
        <ele>123</ele>
        <time>2020-09-20T10:05:59Z</time>
      </trkpt>
      <trkpt lat="49.24754" lon="4.02691">
        <ele>123</ele>
        <time>2020-09-20T10:06:00Z</time>
      </trkpt>
      <trkpt lat="49.2475" lon="4.02697">
        <ele>123</ele>
        <time>2020-09-20T10:06:01Z</time>
      </trkpt>
      <trkpt lat="49.24746" lon="4.02704">
        <ele>123</ele>
        <time>2020-09-20T10:06:02Z</time>
      </trkpt>
      <trkpt lat="49.24742" lon="4.0271">
        <ele>122</ele>
        <time>2020-09-20T10:06:03Z</time>
      </trkpt>
      <trkpt lat="49.24738" lon="4.02716">
        <ele>122</ele>
        <time>2020-09-20T10:06:04Z</time>
      </trkpt>
      <trkpt lat="49.24734" lon="4.02723">
        <ele>122</ele>
        <time>2020-09-20T10:06:05Z</time>
      </trkpt>
      <trkpt lat="49.24731" lon="4.0273">
        <ele>122</ele>
        <time>2020-09-20T10:06:06Z</time>
      </trkpt>
      <trkpt lat="49.24726" lon="4.02737">
        <ele>122</ele>
        <time>2020-09-20T10:06:07Z</time>
      </trkpt>
      <trkpt lat="49.24722" lon="4.02744">
        <ele>123</ele>
        <time>2020-09-20T10:06:08Z</time>
      </trkpt>
      <trkpt lat="49.24718" lon="4.0275">
        <ele>123</ele>
        <time>2020-09-20T10:06:09Z</time>
      </trkpt>
      <trkpt lat="49.24714" lon="4.02757">
        <ele>123</ele>
        <time>2020-09-20T10:06:10Z</time>
      </trkpt>
      <trkpt lat="49.24709" lon="4.02763">
        <ele>123</ele>
        <time>2020-09-20T10:06:11Z</time>
      </trkpt>
      <trkpt lat="49.24705" lon="4.02769">
        <ele>123</ele>
        <time>2020-09-20T10:06:12Z</time>
      </trkpt>
      <trkpt lat="49.24701" lon="4.02776">
        <ele>123</ele>
        <time>2020-09-20T10:06:13Z</time>
      </trkpt>
      <trkpt lat="49.24697" lon="4.02782">
        <ele>123</ele>
        <time>2020-09-20T10:06:14Z</time>
      </trkpt>
      <trkpt lat="49.24693" lon="4.0279">
        <ele>123</ele>
        <time>2020-09-20T10:06:15Z</time>
      </trkpt>
      <trkpt lat="49.24689" lon="4.02796">
        <ele>123</ele>
        <time>2020-09-20T10:06:16Z</time>
      </trkpt>
      <trkpt lat="49.24685" lon="4.02803">
        <ele>123</ele>
        <time>2020-09-20T10:06:17Z</time>
      </trkpt>
      <trkpt lat="49.24681" lon="4.0281">
        <ele>123</ele>
        <time>2020-09-20T10:06:18Z</time>
      </trkpt>
      <trkpt lat="49.24677" lon="4.02817">
        <ele>123</ele>
        <time>2020-09-20T10:06:19Z</time>
      </trkpt>
      <trkpt lat="49.24673" lon="4.02823">
        <ele>123</ele>
        <time>2020-09-20T10:06:20Z</time>
      </trkpt>
      <trkpt lat="49.24669" lon="4.0283">
        <ele>123</ele>
        <time>2020-09-20T10:06:21Z</time>
      </trkpt>
      <trkpt lat="49.24665" lon="4.02836">
        <ele>123</ele>
        <time>2020-09-20T10:06:22Z</time>
      </trkpt>
      <trkpt lat="49.24661" lon="4.02843">
        <ele>123</ele>
        <time>2020-09-20T10:06:23Z</time>
      </trkpt>
      <trkpt lat="49.24657" lon="4.02849">
        <ele>122</ele>
        <time>2020-09-20T10:06:24Z</time>
      </trkpt>
      <trkpt lat="49.24653" lon="4.02856">
        <ele>123</ele>
        <time>2020-09-20T10:06:25Z</time>
      </trkpt>
      <trkpt lat="49.24648" lon="4.02862">
        <ele>122</ele>
        <time>2020-09-20T10:06:26Z</time>
      </trkpt>
      <trkpt lat="49.24644" lon="4.02869">
        <ele>122</ele>
        <time>2020-09-20T10:06:27Z</time>
      </trkpt>
      <trkpt lat="49.2464" lon="4.02875">
        <ele>122</ele>
        <time>2020-09-20T10:06:28Z</time>
      </trkpt>
      <trkpt lat="49.24636" lon="4.02882">
        <ele>122</ele>
        <time>2020-09-20T10:06:29Z</time>
      </trkpt>
      <trkpt lat="49.24632" lon="4.02888">
        <ele>122</ele>
        <time>2020-09-20T10:06:30Z</time>
      </trkpt>
      <trkpt lat="49.24628" lon="4.02895">
        <ele>122</ele>
        <time>2020-09-20T10:06:31Z</time>
      </trkpt>
      <trkpt lat="49.24624" lon="4.02901">
        <ele>122</ele>
        <time>2020-09-20T10:06:32Z</time>
      </trkpt>
      <trkpt lat="49.24619" lon="4.02908">
        <ele>122</ele>
        <time>2020-09-20T10:06:33Z</time>
      </trkpt>
      <trkpt lat="49.24616" lon="4.02914">
        <ele>122</ele>
        <time>2020-09-20T10:06:34Z</time>
      </trkpt>
      <trkpt lat="49.24612" lon="4.02921">
        <ele>123</ele>
        <time>2020-09-20T10:06:35Z</time>
      </trkpt>
      <trkpt lat="49.24609" lon="4.02926">
        <ele>123</ele>
        <time>2020-09-20T10:06:36Z</time>
      </trkpt>
      <trkpt lat="49.24605" lon="4.02932">
        <ele>123</ele>
        <time>2020-09-20T10:06:37Z</time>
      </trkpt>
      <trkpt lat="49.24602" lon="4.02939">
        <ele>124</ele>
        <time>2020-09-20T10:06:38Z</time>
      </trkpt>
      <trkpt lat="49.24599" lon="4.02946">
        <ele>124</ele>
        <time>2020-09-20T10:06:39Z</time>
      </trkpt>
      <trkpt lat="49.24596" lon="4.02955">
        <ele>123</ele>
        <time>2020-09-20T10:06:40Z</time>
      </trkpt>
      <trkpt lat="49.24594" lon="4.02962">
        <ele>123</ele>
        <time>2020-09-20T10:06:41Z</time>
      </trkpt>
      <trkpt lat="49.24591" lon="4.0297">
        <ele>123</ele>
        <time>2020-09-20T10:06:42Z</time>
      </trkpt>
      <trkpt lat="49.24589" lon="4.02977">
        <ele>123</ele>
        <time>2020-09-20T10:06:43Z</time>
      </trkpt>
      <trkpt lat="49.24587" lon="4.02984">
        <ele>123</ele>
        <time>2020-09-20T10:06:44Z</time>
      </trkpt>
      <trkpt lat="49.24584" lon="4.0299">
        <ele>123</ele>
        <time>2020-09-20T10:06:45Z</time>
      </trkpt>
      <trkpt lat="49.24581" lon="4.02997">
        <ele>122</ele>
        <time>2020-09-20T10:06:46Z</time>
      </trkpt>
      <trkpt lat="49.24578" lon="4.03003">
        <ele>122</ele>
        <time>2020-09-20T10:06:47Z</time>
      </trkpt>
      <trkpt lat="49.24575" lon="4.0301">
        <ele>122</ele>
        <time>2020-09-20T10:06:48Z</time>
      </trkpt>
      <trkpt lat="49.24571" lon="4.03016">
        <ele>122</ele>
        <time>2020-09-20T10:06:49Z</time>
      </trkpt>
      <trkpt lat="49.24567" lon="4.03023">
        <ele>122</ele>
        <time>2020-09-20T10:06:50Z</time>
      </trkpt>
      <trkpt lat="49.24563" lon="4.0303">
        <ele>123</ele>
        <time>2020-09-20T10:06:51Z</time>
      </trkpt>
      <trkpt lat="49.24557" lon="4.03035">
        <ele>123</ele>
        <time>2020-09-20T10:06:52Z</time>
      </trkpt>
      <trkpt lat="49.24552" lon="4.0304">
        <ele>123</ele>
        <time>2020-09-20T10:06:53Z</time>
      </trkpt>
      <trkpt lat="49.24548" lon="4.03044">
        <ele>123</ele>
        <time>2020-09-20T10:06:54Z</time>
      </trkpt>
      <trkpt lat="49.24543" lon="4.03049">
        <ele>123</ele>
        <time>2020-09-20T10:06:55Z</time>
      </trkpt>
      <trkpt lat="49.24539" lon="4.03055">
        <ele>123</ele>
        <time>2020-09-20T10:06:56Z</time>
      </trkpt>
      <trkpt lat="49.24535" lon="4.0306">
        <ele>123</ele>
        <time>2020-09-20T10:06:57Z</time>
      </trkpt>
      <trkpt lat="49.2453" lon="4.03065">
        <ele>123</ele>
        <time>2020-09-20T10:06:58Z</time>
      </trkpt>
      <trkpt lat="49.24526" lon="4.03071">
        <ele>124</ele>
        <time>2020-09-20T10:06:59Z</time>
      </trkpt>
      <trkpt lat="49.24521" lon="4.03076">
        <ele>123</ele>
        <time>2020-09-20T10:07:00Z</time>
      </trkpt>
      <trkpt lat="49.24518" lon="4.03082">
        <ele>123</ele>
        <time>2020-09-20T10:07:01Z</time>
      </trkpt>
      <trkpt lat="49.24513" lon="4.03087">
        <ele>123</ele>
        <time>2020-09-20T10:07:02Z</time>
      </trkpt>
      <trkpt lat="49.24509" lon="4.03093">
        <ele>123</ele>
        <time>2020-09-20T10:07:03Z</time>
      </trkpt>
      <trkpt lat="49.24504" lon="4.03098">
        <ele>123</ele>
        <time>2020-09-20T10:07:04Z</time>
      </trkpt>
      <trkpt lat="49.245" lon="4.03104">
        <ele>123</ele>
        <time>2020-09-20T10:07:05Z</time>
      </trkpt>
      <trkpt lat="49.24495" lon="4.0311">
        <ele>123</ele>
        <time>2020-09-20T10:07:06Z</time>
      </trkpt>
      <trkpt lat="49.24492" lon="4.03117">
        <ele>122</ele>
        <time>2020-09-20T10:07:07Z</time>
      </trkpt>
      <trkpt lat="49.24487" lon="4.03124">
        <ele>122</ele>
        <time>2020-09-20T10:07:08Z</time>
      </trkpt>
      <trkpt lat="49.24483" lon="4.0313">
        <ele>122</ele>
        <time>2020-09-20T10:07:09Z</time>
      </trkpt>
      <trkpt lat="49.24479" lon="4.03136">
        <ele>123</ele>
        <time>2020-09-20T10:07:10Z</time>
      </trkpt>
      <trkpt lat="49.24475" lon="4.03143">
        <ele>123</ele>
        <time>2020-09-20T10:07:11Z</time>
      </trkpt>
      <trkpt lat="49.24471" lon="4.03149">
        <ele>123</ele>
        <time>2020-09-20T10:07:12Z</time>
      </trkpt>
      <trkpt lat="49.24467" lon="4.03155">
        <ele>123</ele>
        <time>2020-09-20T10:07:13Z</time>
      </trkpt>
      <trkpt lat="49.24463" lon="4.03161">
        <ele>123</ele>
        <time>2020-09-20T10:07:14Z</time>
      </trkpt>
      <trkpt lat="49.2446" lon="4.03168">
        <ele>123</ele>
        <time>2020-09-20T10:07:15Z</time>
      </trkpt>
      <trkpt lat="49.24456" lon="4.03174">
        <ele>123</ele>
        <time>2020-09-20T10:07:16Z</time>
      </trkpt>
      <trkpt lat="49.24452" lon="4.0318">
        <ele>123</ele>
        <time>2020-09-20T10:07:17Z</time>
      </trkpt>
      <trkpt lat="49.24448" lon="4.03186">
        <ele>123</ele>
        <time>2020-09-20T10:07:18Z</time>
      </trkpt>
      <trkpt lat="49.24445" lon="4.03193">
        <ele>123</ele>
        <time>2020-09-20T10:07:19Z</time>
      </trkpt>
      <trkpt lat="49.2444" lon="4.03198">
        <ele>123</ele>
        <time>2020-09-20T10:07:20Z</time>
      </trkpt>
      <trkpt lat="49.24436" lon="4.03205">
        <ele>122</ele>
        <time>2020-09-20T10:07:21Z</time>
      </trkpt>
      <trkpt lat="49.24432" lon="4.03211">
        <ele>122</ele>
        <time>2020-09-20T10:07:22Z</time>
      </trkpt>
      <trkpt lat="49.24428" lon="4.03217">
        <ele>122</ele>
        <time>2020-09-20T10:07:23Z</time>
      </trkpt>
      <trkpt lat="49.24424" lon="4.03223">
        <ele>122</ele>
        <time>2020-09-20T10:07:24Z</time>
      </trkpt>
      <trkpt lat="49.24419" lon="4.0323">
        <ele>122</ele>
        <time>2020-09-20T10:07:25Z</time>
      </trkpt>
      <trkpt lat="49.24415" lon="4.03234">
        <ele>122</ele>
        <time>2020-09-20T10:07:26Z</time>
      </trkpt>
      <trkpt lat="49.24411" lon="4.03239">
        <ele>121</ele>
        <time>2020-09-20T10:07:27Z</time>
      </trkpt>
      <trkpt lat="49.24407" lon="4.03245">
        <ele>121</ele>
        <time>2020-09-20T10:07:28Z</time>
      </trkpt>
      <trkpt lat="49.24402" lon="4.03251">
        <ele>121</ele>
        <time>2020-09-20T10:07:29Z</time>
      </trkpt>
      <trkpt lat="49.24399" lon="4.03256">
        <ele>121</ele>
        <time>2020-09-20T10:07:30Z</time>
      </trkpt>
      <trkpt lat="49.24394" lon="4.03262">
        <ele>121</ele>
        <time>2020-09-20T10:07:31Z</time>
      </trkpt>
      <trkpt lat="49.2439" lon="4.03268">
        <ele>122</ele>
        <time>2020-09-20T10:07:32Z</time>
      </trkpt>
      <trkpt lat="49.24386" lon="4.03273">
        <ele>122</ele>
        <time>2020-09-20T10:07:33Z</time>
      </trkpt>
      <trkpt lat="49.24383" lon="4.03279">
        <ele>122</ele>
        <time>2020-09-20T10:07:34Z</time>
      </trkpt>
      <trkpt lat="49.24378" lon="4.03286">
        <ele>122</ele>
        <time>2020-09-20T10:07:35Z</time>
      </trkpt>
      <trkpt lat="49.24374" lon="4.03291">
        <ele>122</ele>
        <time>2020-09-20T10:07:36Z</time>
      </trkpt>
      <trkpt lat="49.24369" lon="4.03296">
        <ele>122</ele>
        <time>2020-09-20T10:07:37Z</time>
      </trkpt>
      <trkpt lat="49.24364" lon="4.03301">
        <ele>122</ele>
        <time>2020-09-20T10:07:38Z</time>
      </trkpt>
      <trkpt lat="49.24359" lon="4.03305">
        <ele>122</ele>
        <time>2020-09-20T10:07:39Z</time>
      </trkpt>
      <trkpt lat="49.24355" lon="4.0331">
        <ele>122</ele>
        <time>2020-09-20T10:07:40Z</time>
      </trkpt>
      <trkpt lat="49.24351" lon="4.03314">
        <ele>122</ele>
        <time>2020-09-20T10:07:41Z</time>
      </trkpt>
      <trkpt lat="49.24346" lon="4.0332">
        <ele>122</ele>
        <time>2020-09-20T10:07:42Z</time>
      </trkpt>
      <trkpt lat="49.24341" lon="4.03324">
        <ele>122</ele>
        <time>2020-09-20T10:07:43Z</time>
      </trkpt>
      <trkpt lat="49.24337" lon="4.03328">
        <ele>122</ele>
        <time>2020-09-20T10:07:44Z</time>
      </trkpt>
      <trkpt lat="49.24332" lon="4.03333">
        <ele>122</ele>
        <time>2020-09-20T10:07:45Z</time>
      </trkpt>
      <trkpt lat="49.24328" lon="4.03337">
        <ele>122</ele>
        <time>2020-09-20T10:07:46Z</time>
      </trkpt>
      <trkpt lat="49.24323" lon="4.03343">
        <ele>122</ele>
        <time>2020-09-20T10:07:47Z</time>
      </trkpt>
      <trkpt lat="49.24319" lon="4.03349">
        <ele>122</ele>
        <time>2020-09-20T10:07:48Z</time>
      </trkpt>
      <trkpt lat="49.24315" lon="4.03355">
        <ele>121</ele>
        <time>2020-09-20T10:07:49Z</time>
      </trkpt>
      <trkpt lat="49.24312" lon="4.03361">
        <ele>121</ele>
        <time>2020-09-20T10:07:50Z</time>
      </trkpt>
      <trkpt lat="49.24307" lon="4.03367">
        <ele>121</ele>
        <time>2020-09-20T10:07:51Z</time>
      </trkpt>
      <trkpt lat="49.24304" lon="4.03374">
        <ele>121</ele>
        <time>2020-09-20T10:07:52Z</time>
      </trkpt>
      <trkpt lat="49.24302" lon="4.03383">
        <ele>122</ele>
        <time>2020-09-20T10:07:53Z</time>
      </trkpt>
      <trkpt lat="49.24299" lon="4.03391">
        <ele>122</ele>
        <time>2020-09-20T10:07:54Z</time>
      </trkpt>
      <trkpt lat="49.24295" lon="4.03396">
        <ele>122</ele>
        <time>2020-09-20T10:07:55Z</time>
      </trkpt>
      <trkpt lat="49.24291" lon="4.03401">
        <ele>122</ele>
        <time>2020-09-20T10:07:56Z</time>
      </trkpt>
      <trkpt lat="49.24286" lon="4.03406">
        <ele>122</ele>
        <time>2020-09-20T10:07:57Z</time>
      </trkpt>
      <trkpt lat="49.24281" lon="4.03411">
        <ele>122</ele>
        <time>2020-09-20T10:07:58Z</time>
      </trkpt>
      <trkpt lat="49.24277" lon="4.03416">
        <ele>122</ele>
        <time>2020-09-20T10:07:59Z</time>
      </trkpt>
      <trkpt lat="49.24272" lon="4.03421">
        <ele>122</ele>
        <time>2020-09-20T10:08:00Z</time>
      </trkpt>
      <trkpt lat="49.24267" lon="4.03426">
        <ele>122</ele>
        <time>2020-09-20T10:08:01Z</time>
      </trkpt>
      <trkpt lat="49.24262" lon="4.03432">
        <ele>121</ele>
        <time>2020-09-20T10:08:02Z</time>
      </trkpt>
      <trkpt lat="49.24257" lon="4.03438">
        <ele>121</ele>
        <time>2020-09-20T10:08:03Z</time>
      </trkpt>
      <trkpt lat="49.24253" lon="4.03443">
        <ele>121</ele>
        <time>2020-09-20T10:08:04Z</time>
      </trkpt>
      <trkpt lat="49.24248" lon="4.03449">
        <ele>121</ele>
        <time>2020-09-20T10:08:05Z</time>
      </trkpt>
      <trkpt lat="49.24243" lon="4.03455">
        <ele>121</ele>
        <time>2020-09-20T10:08:06Z</time>
      </trkpt>
      <trkpt lat="49.24238" lon="4.03459">
        <ele>121</ele>
        <time>2020-09-20T10:08:07Z</time>
      </trkpt>
      <trkpt lat="49.24233" lon="4.03463">
        <ele>121</ele>
        <time>2020-09-20T10:08:08Z</time>
      </trkpt>
      <trkpt lat="49.24228" lon="4.03467">
        <ele>121</ele>
        <time>2020-09-20T10:08:09Z</time>
      </trkpt>
      <trkpt lat="49.24223" lon="4.03472">
        <ele>121</ele>
        <time>2020-09-20T10:08:10Z</time>
      </trkpt>
      <trkpt lat="49.24219" lon="4.03477">
        <ele>120</ele>
        <time>2020-09-20T10:08:11Z</time>
      </trkpt>
      <trkpt lat="49.24215" lon="4.03483">
        <ele>121</ele>
        <time>2020-09-20T10:08:12Z</time>
      </trkpt>
      <trkpt lat="49.24211" lon="4.03488">
        <ele>121</ele>
        <time>2020-09-20T10:08:13Z</time>
      </trkpt>
      <trkpt lat="49.24207" lon="4.03494">
        <ele>121</ele>
        <time>2020-09-20T10:08:14Z</time>
      </trkpt>
      <trkpt lat="49.24203" lon="4.03499">
        <ele>121</ele>
        <time>2020-09-20T10:08:15Z</time>
      </trkpt>
      <trkpt lat="49.24198" lon="4.03504">
        <ele>121</ele>
        <time>2020-09-20T10:08:16Z</time>
      </trkpt>
      <trkpt lat="49.24194" lon="4.03508">
        <ele>121</ele>
        <time>2020-09-20T10:08:17Z</time>
      </trkpt>
      <trkpt lat="49.24189" lon="4.03512">
        <ele>121</ele>
        <time>2020-09-20T10:08:18Z</time>
      </trkpt>
      <trkpt lat="49.24185" lon="4.03517">
        <ele>120</ele>
        <time>2020-09-20T10:08:19Z</time>
      </trkpt>
      <trkpt lat="49.24181" lon="4.03522">
        <ele>120</ele>
        <time>2020-09-20T10:08:20Z</time>
      </trkpt>
      <trkpt lat="49.24177" lon="4.03527">
        <ele>120</ele>
        <time>2020-09-20T10:08:21Z</time>
      </trkpt>
      <trkpt lat="49.24173" lon="4.03533">
        <ele>120</ele>
        <time>2020-09-20T10:08:22Z</time>
      </trkpt>
      <trkpt lat="49.2417" lon="4.03539">
        <ele>120</ele>
        <time>2020-09-20T10:08:23Z</time>
      </trkpt>
      <trkpt lat="49.24167" lon="4.03544">
        <ele>120</ele>
        <time>2020-09-20T10:08:24Z</time>
      </trkpt>
      <trkpt lat="49.24163" lon="4.0355">
        <ele>120</ele>
        <time>2020-09-20T10:08:25Z</time>
      </trkpt>
      <trkpt lat="49.24159" lon="4.03554">
        <ele>120</ele>
        <time>2020-09-20T10:08:26Z</time>
      </trkpt>
      <trkpt lat="49.24154" lon="4.03557">
        <ele>121</ele>
        <time>2020-09-20T10:08:27Z</time>
      </trkpt>
      <trkpt lat="49.24149" lon="4.03558">
        <ele>121</ele>
        <time>2020-09-20T10:08:28Z</time>
      </trkpt>
      <trkpt lat="49.24144" lon="4.03562">
        <ele>121</ele>
        <time>2020-09-20T10:08:29Z</time>
      </trkpt>
      <trkpt lat="49.2414" lon="4.03567">
        <ele>122</ele>
        <time>2020-09-20T10:08:30Z</time>
      </trkpt>
      <trkpt lat="49.24136" lon="4.03571">
        <ele>122</ele>
        <time>2020-09-20T10:08:31Z</time>
      </trkpt>
      <trkpt lat="49.24132" lon="4.03574">
        <ele>122</ele>
        <time>2020-09-20T10:08:32Z</time>
      </trkpt>
      <trkpt lat="49.24128" lon="4.03578">
        <ele>122</ele>
        <time>2020-09-20T10:08:33Z</time>
      </trkpt>
      <trkpt lat="49.24125" lon="4.03581">
        <ele>122</ele>
        <time>2020-09-20T10:08:34Z</time>
      </trkpt>
      <trkpt lat="49.2412" lon="4.03584">
        <ele>122</ele>
        <time>2020-09-20T10:08:35Z</time>
      </trkpt>
      <trkpt lat="49.24116" lon="4.03587">
        <ele>122</ele>
        <time>2020-09-20T10:08:36Z</time>
      </trkpt>
      <trkpt lat="49.24112" lon="4.03592">
        <ele>122</ele>
        <time>2020-09-20T10:08:37Z</time>
      </trkpt>
      <trkpt lat="49.24108" lon="4.03597">
        <ele>122</ele>
        <time>2020-09-20T10:08:38Z</time>
      </trkpt>
      <trkpt lat="49.24104" lon="4.03602">
        <ele>122</ele>
        <time>2020-09-20T10:08:39Z</time>
      </trkpt>
      <trkpt lat="49.241" lon="4.03606">
        <ele>122</ele>
        <time>2020-09-20T10:08:40Z</time>
      </trkpt>
      <trkpt lat="49.24096" lon="4.0361">
        <ele>122</ele>
        <time>2020-09-20T10:08:41Z</time>
      </trkpt>
      <trkpt lat="49.24091" lon="4.03614">
        <ele>123</ele>
        <time>2020-09-20T10:08:42Z</time>
      </trkpt>
      <trkpt lat="49.24088" lon="4.03618">
        <ele>123</ele>
        <time>2020-09-20T10:08:43Z</time>
      </trkpt>
      <trkpt lat="49.24084" lon="4.03623">
        <ele>123</ele>
        <time>2020-09-20T10:08:44Z</time>
      </trkpt>
      <trkpt lat="49.24079" lon="4.03627">
        <ele>123</ele>
        <time>2020-09-20T10:08:45Z</time>
      </trkpt>
      <trkpt lat="49.24075" lon="4.0363">
        <ele>123</ele>
        <time>2020-09-20T10:08:46Z</time>
      </trkpt>
      <trkpt lat="49.24071" lon="4.03635">
        <ele>124</ele>
        <time>2020-09-20T10:08:47Z</time>
      </trkpt>
      <trkpt lat="49.24067" lon="4.03641">
        <ele>124</ele>
        <time>2020-09-20T10:08:48Z</time>
      </trkpt>
      <trkpt lat="49.24062" lon="4.03646">
        <ele>124</ele>
        <time>2020-09-20T10:08:49Z</time>
      </trkpt>
      <trkpt lat="49.24058" lon="4.0365">
        <ele>123</ele>
        <time>2020-09-20T10:08:50Z</time>
      </trkpt>
      <trkpt lat="49.24053" lon="4.03654">
        <ele>123</ele>
        <time>2020-09-20T10:08:51Z</time>
      </trkpt>
      <trkpt lat="49.24049" lon="4.03659">
        <ele>123</ele>
        <time>2020-09-20T10:08:52Z</time>
      </trkpt>
      <trkpt lat="49.24045" lon="4.03663">
        <ele>123</ele>
        <time>2020-09-20T10:08:53Z</time>
      </trkpt>
      <trkpt lat="49.24041" lon="4.03667">
        <ele>123</ele>
        <time>2020-09-20T10:08:54Z</time>
      </trkpt>
      <trkpt lat="49.24036" lon="4.03672">
        <ele>124</ele>
        <time>2020-09-20T10:08:55Z</time>
      </trkpt>
      <trkpt lat="49.24032" lon="4.03677">
        <ele>124</ele>
        <time>2020-09-20T10:08:56Z</time>
      </trkpt>
      <trkpt lat="49.24028" lon="4.03681">
        <ele>124</ele>
        <time>2020-09-20T10:08:57Z</time>
      </trkpt>
      <trkpt lat="49.24024" lon="4.03686">
        <ele>124</ele>
        <time>2020-09-20T10:08:58Z</time>
      </trkpt>
      <trkpt lat="49.2402" lon="4.0369">
        <ele>124</ele>
        <time>2020-09-20T10:08:59Z</time>
      </trkpt>
      <trkpt lat="49.24016" lon="4.03695">
        <ele>124</ele>
        <time>2020-09-20T10:09:00Z</time>
      </trkpt>
      <trkpt lat="49.24011" lon="4.037">
        <ele>124</ele>
        <time>2020-09-20T10:09:01Z</time>
      </trkpt>
      <trkpt lat="49.24006" lon="4.03705">
        <ele>124</ele>
        <time>2020-09-20T10:09:02Z</time>
      </trkpt>
      <trkpt lat="49.24002" lon="4.0371">
        <ele>124</ele>
        <time>2020-09-20T10:09:03Z</time>
      </trkpt>
      <trkpt lat="49.23997" lon="4.03716">
        <ele>124</ele>
        <time>2020-09-20T10:09:04Z</time>
      </trkpt>
      <trkpt lat="49.23993" lon="4.0372">
        <ele>125</ele>
        <time>2020-09-20T10:09:05Z</time>
      </trkpt>
      <trkpt lat="49.23989" lon="4.03724">
        <ele>124</ele>
        <time>2020-09-20T10:09:06Z</time>
      </trkpt>
      <trkpt lat="49.23984" lon="4.03729">
        <ele>124</ele>
        <time>2020-09-20T10:09:07Z</time>
      </trkpt>
      <trkpt lat="49.2398" lon="4.03734">
        <ele>124</ele>
        <time>2020-09-20T10:09:08Z</time>
      </trkpt>
      <trkpt lat="49.23975" lon="4.0374">
        <ele>124</ele>
        <time>2020-09-20T10:09:09Z</time>
      </trkpt>
      <trkpt lat="49.2397" lon="4.03745">
        <ele>125</ele>
        <time>2020-09-20T10:09:10Z</time>
      </trkpt>
      <trkpt lat="49.23965" lon="4.03749">
        <ele>125</ele>
        <time>2020-09-20T10:09:11Z</time>
      </trkpt>
      <trkpt lat="49.23961" lon="4.03754">
        <ele>125</ele>
        <time>2020-09-20T10:09:12Z</time>
      </trkpt>
      <trkpt lat="49.23956" lon="4.03759">
        <ele>125</ele>
        <time>2020-09-20T10:09:13Z</time>
      </trkpt>
      <trkpt lat="49.23952" lon="4.03764">
        <ele>125</ele>
        <time>2020-09-20T10:09:14Z</time>
      </trkpt>
      <trkpt lat="49.23948" lon="4.03769">
        <ele>125</ele>
        <time>2020-09-20T10:09:15Z</time>
      </trkpt>
      <trkpt lat="49.23943" lon="4.03774">
        <ele>125</ele>
        <time>2020-09-20T10:09:16Z</time>
      </trkpt>
      <trkpt lat="49.23938" lon="4.0378">
        <ele>125</ele>
        <time>2020-09-20T10:09:17Z</time>
      </trkpt>
      <trkpt lat="49.23933" lon="4.03786">
        <ele>124</ele>
        <time>2020-09-20T10:09:18Z</time>
      </trkpt>
      <trkpt lat="49.23929" lon="4.03791">
        <ele>123</ele>
        <time>2020-09-20T10:09:19Z</time>
      </trkpt>
      <trkpt lat="49.23924" lon="4.03796">
        <ele>123</ele>
        <time>2020-09-20T10:09:20Z</time>
      </trkpt>
      <trkpt lat="49.23919" lon="4.03801">
        <ele>123</ele>
        <time>2020-09-20T10:09:21Z</time>
      </trkpt>
      <trkpt lat="49.23914" lon="4.03806">
        <ele>122</ele>
        <time>2020-09-20T10:09:22Z</time>
      </trkpt>
      <trkpt lat="49.23909" lon="4.03811">
        <ele>122</ele>
        <time>2020-09-20T10:09:23Z</time>
      </trkpt>
      <trkpt lat="49.23904" lon="4.03816">
        <ele>122</ele>
        <time>2020-09-20T10:09:24Z</time>
      </trkpt>
      <trkpt lat="49.239" lon="4.03821">
        <ele>122</ele>
        <time>2020-09-20T10:09:25Z</time>
      </trkpt>
      <trkpt lat="49.23895" lon="4.03826">
        <ele>122</ele>
        <time>2020-09-20T10:09:26Z</time>
      </trkpt>
      <trkpt lat="49.2389" lon="4.03831">
        <ele>122</ele>
        <time>2020-09-20T10:09:27Z</time>
      </trkpt>
      <trkpt lat="49.23885" lon="4.03836">
        <ele>122</ele>
        <time>2020-09-20T10:09:28Z</time>
      </trkpt>
      <trkpt lat="49.2388" lon="4.03841">
        <ele>122</ele>
        <time>2020-09-20T10:09:29Z</time>
      </trkpt>
      <trkpt lat="49.23875" lon="4.03846">
        <ele>123</ele>
        <time>2020-09-20T10:09:30Z</time>
      </trkpt>
      <trkpt lat="49.2387" lon="4.03852">
        <ele>122</ele>
        <time>2020-09-20T10:09:31Z</time>
      </trkpt>
      <trkpt lat="49.23865" lon="4.03856">
        <ele>123</ele>
        <time>2020-09-20T10:09:32Z</time>
      </trkpt>
      <trkpt lat="49.2386" lon="4.03862">
        <ele>123</ele>
        <time>2020-09-20T10:09:33Z</time>
      </trkpt>
      <trkpt lat="49.23855" lon="4.03866">
        <ele>123</ele>
        <time>2020-09-20T10:09:34Z</time>
      </trkpt>
      <trkpt lat="49.23849" lon="4.03872">
        <ele>124</ele>
        <time>2020-09-20T10:09:35Z</time>
      </trkpt>
      <trkpt lat="49.23844" lon="4.03877">
        <ele>124</ele>
        <time>2020-09-20T10:09:36Z</time>
      </trkpt>
      <trkpt lat="49.23839" lon="4.03882">
        <ele>124</ele>
        <time>2020-09-20T10:09:37Z</time>
      </trkpt>
      <trkpt lat="49.23835" lon="4.03888">
        <ele>124</ele>
        <time>2020-09-20T10:09:38Z</time>
      </trkpt>
      <trkpt lat="49.23831" lon="4.03893">
        <ele>124</ele>
        <time>2020-09-20T10:09:39Z</time>
      </trkpt>
      <trkpt lat="49.23826" lon="4.03899">
        <ele>125</ele>
        <time>2020-09-20T10:09:40Z</time>
      </trkpt>
      <trkpt lat="49.23822" lon="4.03904">
        <ele>125</ele>
        <time>2020-09-20T10:09:41Z</time>
      </trkpt>
      <trkpt lat="49.23817" lon="4.03909">
        <ele>125</ele>
        <time>2020-09-20T10:09:42Z</time>
      </trkpt>
      <trkpt lat="49.23813" lon="4.03915">
        <ele>126</ele>
        <time>2020-09-20T10:09:43Z</time>
      </trkpt>
      <trkpt lat="49.23808" lon="4.03919">
        <ele>126</ele>
        <time>2020-09-20T10:09:44Z</time>
      </trkpt>
      <trkpt lat="49.23803" lon="4.03923">
        <ele>127</ele>
        <time>2020-09-20T10:09:45Z</time>
      </trkpt>
      <trkpt lat="49.23799" lon="4.03928">
        <ele>127</ele>
        <time>2020-09-20T10:09:46Z</time>
      </trkpt>
      <trkpt lat="49.23794" lon="4.03932">
        <ele>127</ele>
        <time>2020-09-20T10:09:47Z</time>
      </trkpt>
      <trkpt lat="49.2379" lon="4.03937">
        <ele>126</ele>
        <time>2020-09-20T10:09:48Z</time>
      </trkpt>
      <trkpt lat="49.23786" lon="4.03942">
        <ele>125</ele>
        <time>2020-09-20T10:09:49Z</time>
      </trkpt>
      <trkpt lat="49.23781" lon="4.03947">
        <ele>125</ele>
        <time>2020-09-20T10:09:50Z</time>
      </trkpt>
      <trkpt lat="49.23777" lon="4.03951">
        <ele>125</ele>
        <time>2020-09-20T10:09:51Z</time>
      </trkpt>
      <trkpt lat="49.23772" lon="4.03956">
        <ele>125</ele>
        <time>2020-09-20T10:09:52Z</time>
      </trkpt>
      <trkpt lat="49.23768" lon="4.0396">
        <ele>125</ele>
        <time>2020-09-20T10:09:53Z</time>
      </trkpt>
      <trkpt lat="49.23763" lon="4.03966">
        <ele>125</ele>
        <time>2020-09-20T10:09:54Z</time>
      </trkpt>
      <trkpt lat="49.23759" lon="4.0397">
        <ele>125</ele>
        <time>2020-09-20T10:09:55Z</time>
      </trkpt>
      <trkpt lat="49.23754" lon="4.03975">
        <ele>125</ele>
        <time>2020-09-20T10:09:56Z</time>
      </trkpt>
      <trkpt lat="49.2375" lon="4.03979">
        <ele>126</ele>
        <time>2020-09-20T10:09:57Z</time>
      </trkpt>
      <trkpt lat="49.23746" lon="4.03985">
        <ele>125</ele>
        <time>2020-09-20T10:09:58Z</time>
      </trkpt>
      <trkpt lat="49.23742" lon="4.0399">
        <ele>125</ele>
        <time>2020-09-20T10:09:59Z</time>
      </trkpt>
      <trkpt lat="49.23738" lon="4.03996">
        <ele>125</ele>
        <time>2020-09-20T10:10:00Z</time>
      </trkpt>
      <trkpt lat="49.23734" lon="4.04001">
        <ele>125</ele>
        <time>2020-09-20T10:10:01Z</time>
      </trkpt>
      <trkpt lat="49.23729" lon="4.04005">
        <ele>125</ele>
        <time>2020-09-20T10:10:02Z</time>
      </trkpt>
      <trkpt lat="49.23725" lon="4.0401">
        <ele>125</ele>
        <time>2020-09-20T10:10:03Z</time>
      </trkpt>
      <trkpt lat="49.23721" lon="4.04014">
        <ele>125</ele>
        <time>2020-09-20T10:10:04Z</time>
      </trkpt>
      <trkpt lat="49.23716" lon="4.04018">
        <ele>125</ele>
        <time>2020-09-20T10:10:05Z</time>
      </trkpt>
      <trkpt lat="49.23712" lon="4.04022">
        <ele>125</ele>
        <time>2020-09-20T10:10:06Z</time>
      </trkpt>
      <trkpt lat="49.23708" lon="4.04026">
        <ele>125</ele>
        <time>2020-09-20T10:10:07Z</time>
      </trkpt>
      <trkpt lat="49.23703" lon="4.04031">
        <ele>125</ele>
        <time>2020-09-20T10:10:08Z</time>
      </trkpt>
      <trkpt lat="49.23699" lon="4.04035">
        <ele>124</ele>
        <time>2020-09-20T10:10:09Z</time>
      </trkpt>
      <trkpt lat="49.23695" lon="4.0404">
        <ele>124</ele>
        <time>2020-09-20T10:10:10Z</time>
      </trkpt>
      <trkpt lat="49.2369" lon="4.04044">
        <ele>124</ele>
        <time>2020-09-20T10:10:11Z</time>
      </trkpt>
      <trkpt lat="49.23686" lon="4.04048">
        <ele>124</ele>
        <time>2020-09-20T10:10:12Z</time>
      </trkpt>
      <trkpt lat="49.23681" lon="4.04053">
        <ele>124</ele>
        <time>2020-09-20T10:10:13Z</time>
      </trkpt>
      <trkpt lat="49.23677" lon="4.04058">
        <ele>124</ele>
        <time>2020-09-20T10:10:14Z</time>
      </trkpt>
      <trkpt lat="49.23673" lon="4.04063">
        <ele>124</ele>
        <time>2020-09-20T10:10:15Z</time>
      </trkpt>
      <trkpt lat="49.23669" lon="4.04068">
        <ele>124</ele>
        <time>2020-09-20T10:10:16Z</time>
      </trkpt>
      <trkpt lat="49.23664" lon="4.04073">
        <ele>124</ele>
        <time>2020-09-20T10:10:17Z</time>
      </trkpt>
      <trkpt lat="49.2366" lon="4.04079">
        <ele>124</ele>
        <time>2020-09-20T10:10:18Z</time>
      </trkpt>
      <trkpt lat="49.23655" lon="4.04083">
        <ele>124</ele>
        <time>2020-09-20T10:10:19Z</time>
      </trkpt>
      <trkpt lat="49.2365" lon="4.04088">
        <ele>124</ele>
        <time>2020-09-20T10:10:20Z</time>
      </trkpt>
      <trkpt lat="49.23646" lon="4.04093">
        <ele>124</ele>
        <time>2020-09-20T10:10:21Z</time>
      </trkpt>
      <trkpt lat="49.23641" lon="4.04099">
        <ele>124</ele>
        <time>2020-09-20T10:10:22Z</time>
      </trkpt>
      <trkpt lat="49.23637" lon="4.04105">
        <ele>124</ele>
        <time>2020-09-20T10:10:23Z</time>
      </trkpt>
      <trkpt lat="49.23632" lon="4.0411">
        <ele>124</ele>
        <time>2020-09-20T10:10:24Z</time>
      </trkpt>
      <trkpt lat="49.23627" lon="4.04115">
        <ele>124</ele>
        <time>2020-09-20T10:10:25Z</time>
      </trkpt>
      <trkpt lat="49.23621" lon="4.04119">
        <ele>124</ele>
        <time>2020-09-20T10:10:26Z</time>
      </trkpt>
      <trkpt lat="49.23617" lon="4.04124">
        <ele>124</ele>
        <time>2020-09-20T10:10:27Z</time>
      </trkpt>
      <trkpt lat="49.23612" lon="4.04129">
        <ele>124</ele>
        <time>2020-09-20T10:10:28Z</time>
      </trkpt>
      <trkpt lat="49.23608" lon="4.04133">
        <ele>125</ele>
        <time>2020-09-20T10:10:29Z</time>
      </trkpt>
      <trkpt lat="49.23603" lon="4.04138">
        <ele>125</ele>
        <time>2020-09-20T10:10:30Z</time>
      </trkpt>
      <trkpt lat="49.23599" lon="4.04142">
        <ele>125</ele>
        <time>2020-09-20T10:10:31Z</time>
      </trkpt>
      <trkpt lat="49.23595" lon="4.04146">
        <ele>125</ele>
        <time>2020-09-20T10:10:32Z</time>
      </trkpt>
      <trkpt lat="49.23591" lon="4.0415">
        <ele>125</ele>
        <time>2020-09-20T10:10:33Z</time>
      </trkpt>
      <trkpt lat="49.23588" lon="4.04155">
        <ele>125</ele>
        <time>2020-09-20T10:10:34Z</time>
      </trkpt>
      <trkpt lat="49.23585" lon="4.04159">
        <ele>125</ele>
        <time>2020-09-20T10:10:35Z</time>
      </trkpt>
      <trkpt lat="49.23581" lon="4.04163">
        <ele>125</ele>
        <time>2020-09-20T10:10:36Z</time>
      </trkpt>
      <trkpt lat="49.23577" lon="4.04167">
        <ele>125</ele>
        <time>2020-09-20T10:10:37Z</time>
      </trkpt>
      <trkpt lat="49.23574" lon="4.04171">
        <ele>125</ele>
        <time>2020-09-20T10:10:38Z</time>
      </trkpt>
      <trkpt lat="49.23569" lon="4.04175">
        <ele>125</ele>
        <time>2020-09-20T10:10:39Z</time>
      </trkpt>
      <trkpt lat="49.23566" lon="4.04178">
        <ele>125</ele>
        <time>2020-09-20T10:10:40Z</time>
      </trkpt>
      <trkpt lat="49.23562" lon="4.04183">
        <ele>125</ele>
        <time>2020-09-20T10:10:41Z</time>
      </trkpt>
      <trkpt lat="49.23557" lon="4.04187">
        <ele>126</ele>
        <time>2020-09-20T10:10:42Z</time>
      </trkpt>
      <trkpt lat="49.23553" lon="4.04191">
        <ele>126</ele>
        <time>2020-09-20T10:10:43Z</time>
      </trkpt>
      <trkpt lat="49.23549" lon="4.04195">
        <ele>126</ele>
        <time>2020-09-20T10:10:44Z</time>
      </trkpt>
      <trkpt lat="49.23546" lon="4.04198">
        <ele>126</ele>
        <time>2020-09-20T10:10:45Z</time>
      </trkpt>
      <trkpt lat="49.23542" lon="4.04201">
        <ele>126</ele>
        <time>2020-09-20T10:10:46Z</time>
      </trkpt>
      <trkpt lat="49.23539" lon="4.04205">
        <ele>126</ele>
        <time>2020-09-20T10:10:47Z</time>
      </trkpt>
      <trkpt lat="49.23536" lon="4.0421">
        <ele>126</ele>
        <time>2020-09-20T10:10:48Z</time>
      </trkpt>
      <trkpt lat="49.23532" lon="4.04216">
        <ele>125</ele>
        <time>2020-09-20T10:10:49Z</time>
      </trkpt>
      <trkpt lat="49.23527" lon="4.04222">
        <ele>126</ele>
        <time>2020-09-20T10:10:50Z</time>
      </trkpt>
      <trkpt lat="49.23522" lon="4.04226">
        <ele>126</ele>
        <time>2020-09-20T10:10:51Z</time>
      </trkpt>
      <trkpt lat="49.23518" lon="4.0423">
        <ele>126</ele>
        <time>2020-09-20T10:10:52Z</time>
      </trkpt>
      <trkpt lat="49.23513" lon="4.04235">
        <ele>126</ele>
        <time>2020-09-20T10:10:53Z</time>
      </trkpt>
      <trkpt lat="49.23509" lon="4.0424">
        <ele>126</ele>
        <time>2020-09-20T10:10:54Z</time>
      </trkpt>
      <trkpt lat="49.23505" lon="4.04244">
        <ele>127</ele>
        <time>2020-09-20T10:10:55Z</time>
      </trkpt>
      <trkpt lat="49.23501" lon="4.04248">
        <ele>127</ele>
        <time>2020-09-20T10:10:56Z</time>
      </trkpt>
      <trkpt lat="49.23497" lon="4.04254">
        <ele>127</ele>
        <time>2020-09-20T10:10:57Z</time>
      </trkpt>
      <trkpt lat="49.23493" lon="4.04258">
        <ele>127</ele>
        <time>2020-09-20T10:10:58Z</time>
      </trkpt>
      <trkpt lat="49.2349" lon="4.04264">
        <ele>127</ele>
        <time>2020-09-20T10:10:59Z</time>
      </trkpt>
      <trkpt lat="49.23486" lon="4.04268">
        <ele>127</ele>
        <time>2020-09-20T10:11:00Z</time>
      </trkpt>
      <trkpt lat="49.23482" lon="4.04272">
        <ele>127</ele>
        <time>2020-09-20T10:11:01Z</time>
      </trkpt>
      <trkpt lat="49.23478" lon="4.04278">
        <ele>127</ele>
        <time>2020-09-20T10:11:02Z</time>
      </trkpt>
      <trkpt lat="49.23474" lon="4.04284">
        <ele>128</ele>
        <time>2020-09-20T10:11:03Z</time>
      </trkpt>
      <trkpt lat="49.2347" lon="4.0429">
        <ele>127</ele>
        <time>2020-09-20T10:11:04Z</time>
      </trkpt>
      <trkpt lat="49.23466" lon="4.04296">
        <ele>127</ele>
        <time>2020-09-20T10:11:05Z</time>
      </trkpt>
      <trkpt lat="49.23462" lon="4.04302">
        <ele>128</ele>
        <time>2020-09-20T10:11:06Z</time>
      </trkpt>
      <trkpt lat="49.23458" lon="4.04308">
        <ele>127</ele>
        <time>2020-09-20T10:11:07Z</time>
      </trkpt>
      <trkpt lat="49.23454" lon="4.04315">
        <ele>127</ele>
        <time>2020-09-20T10:11:08Z</time>
      </trkpt>
      <trkpt lat="49.2345" lon="4.04321">
        <ele>127</ele>
        <time>2020-09-20T10:11:09Z</time>
      </trkpt>
      <trkpt lat="49.23446" lon="4.04328">
        <ele>127</ele>
        <time>2020-09-20T10:11:10Z</time>
      </trkpt>
      <trkpt lat="49.23442" lon="4.04333">
        <ele>128</ele>
        <time>2020-09-20T10:11:11Z</time>
      </trkpt>
      <trkpt lat="49.23438" lon="4.04338">
        <ele>128</ele>
        <time>2020-09-20T10:11:12Z</time>
      </trkpt>
      <trkpt lat="49.23435" lon="4.04345">
        <ele>128</ele>
        <time>2020-09-20T10:11:13Z</time>
      </trkpt>
      <trkpt lat="49.23432" lon="4.04352">
        <ele>128</ele>
        <time>2020-09-20T10:11:14Z</time>
      </trkpt>
      <trkpt lat="49.23429" lon="4.04359">
        <ele>128</ele>
        <time>2020-09-20T10:11:15Z</time>
      </trkpt>
      <trkpt lat="49.23425" lon="4.04366">
        <ele>127</ele>
        <time>2020-09-20T10:11:16Z</time>
      </trkpt>
      <trkpt lat="49.23422" lon="4.04373">
        <ele>127</ele>
        <time>2020-09-20T10:11:17Z</time>
      </trkpt>
      <trkpt lat="49.23418" lon="4.04379">
        <ele>127</ele>
        <time>2020-09-20T10:11:18Z</time>
      </trkpt>
      <trkpt lat="49.23415" lon="4.04385">
        <ele>127</ele>
        <time>2020-09-20T10:11:19Z</time>
      </trkpt>
      <trkpt lat="49.23411" lon="4.04391">
        <ele>127</ele>
        <time>2020-09-20T10:11:20Z</time>
      </trkpt>
      <trkpt lat="49.23407" lon="4.04399">
        <ele>127</ele>
        <time>2020-09-20T10:11:21Z</time>
      </trkpt>
      <trkpt lat="49.23404" lon="4.04406">
        <ele>126</ele>
        <time>2020-09-20T10:11:22Z</time>
      </trkpt>
      <trkpt lat="49.234" lon="4.04413">
        <ele>126</ele>
        <time>2020-09-20T10:11:23Z</time>
      </trkpt>
      <trkpt lat="49.23397" lon="4.0442">
        <ele>126</ele>
        <time>2020-09-20T10:11:24Z</time>
      </trkpt>
      <trkpt lat="49.23393" lon="4.04427">
        <ele>126</ele>
        <time>2020-09-20T10:11:25Z</time>
      </trkpt>
      <trkpt lat="49.23389" lon="4.04435">
        <ele>126</ele>
        <time>2020-09-20T10:11:26Z</time>
      </trkpt>
      <trkpt lat="49.23386" lon="4.04442">
        <ele>126</ele>
        <time>2020-09-20T10:11:27Z</time>
      </trkpt>
      <trkpt lat="49.23383" lon="4.04449">
        <ele>125</ele>
        <time>2020-09-20T10:11:28Z</time>
      </trkpt>
      <trkpt lat="49.2338" lon="4.04456">
        <ele>125</ele>
        <time>2020-09-20T10:11:29Z</time>
      </trkpt>
      <trkpt lat="49.23378" lon="4.04462">
        <ele>125</ele>
        <time>2020-09-20T10:11:30Z</time>
      </trkpt>
      <trkpt lat="49.23375" lon="4.0447">
        <ele>125</ele>
        <time>2020-09-20T10:11:31Z</time>
      </trkpt>
      <trkpt lat="49.23372" lon="4.04478">
        <ele>125</ele>
        <time>2020-09-20T10:11:32Z</time>
      </trkpt>
      <trkpt lat="49.23369" lon="4.04485">
        <ele>125</ele>
        <time>2020-09-20T10:11:33Z</time>
      </trkpt>
      <trkpt lat="49.23367" lon="4.04493">
        <ele>125</ele>
        <time>2020-09-20T10:11:34Z</time>
      </trkpt>
      <trkpt lat="49.23364" lon="4.04501">
        <ele>125</ele>
        <time>2020-09-20T10:11:35Z</time>
      </trkpt>
      <trkpt lat="49.23361" lon="4.04509">
        <ele>126</ele>
        <time>2020-09-20T10:11:36Z</time>
      </trkpt>
      <trkpt lat="49.23359" lon="4.04517">
        <ele>126</ele>
        <time>2020-09-20T10:11:37Z</time>
      </trkpt>
      <trkpt lat="49.23357" lon="4.04525">
        <ele>126</ele>
        <time>2020-09-20T10:11:38Z</time>
      </trkpt>
      <trkpt lat="49.23355" lon="4.04532">
        <ele>125</ele>
        <time>2020-09-20T10:11:39Z</time>
      </trkpt>
      <trkpt lat="49.23353" lon="4.0454">
        <ele>126</ele>
        <time>2020-09-20T10:11:40Z</time>
      </trkpt>
      <trkpt lat="49.2335" lon="4.04548">
        <ele>126</ele>
        <time>2020-09-20T10:11:41Z</time>
      </trkpt>
      <trkpt lat="49.23348" lon="4.04556">
        <ele>126</ele>
        <time>2020-09-20T10:11:42Z</time>
      </trkpt>
      <trkpt lat="49.23346" lon="4.04564">
        <ele>126</ele>
        <time>2020-09-20T10:11:43Z</time>
      </trkpt>
      <trkpt lat="49.23344" lon="4.04572">
        <ele>127</ele>
        <time>2020-09-20T10:11:44Z</time>
      </trkpt>
      <trkpt lat="49.23342" lon="4.0458">
        <ele>127</ele>
        <time>2020-09-20T10:11:45Z</time>
      </trkpt>
      <trkpt lat="49.2334" lon="4.04588">
        <ele>127</ele>
        <time>2020-09-20T10:11:46Z</time>
      </trkpt>
      <trkpt lat="49.23338" lon="4.04596">
        <ele>127</ele>
        <time>2020-09-20T10:11:47Z</time>
      </trkpt>
      <trkpt lat="49.23337" lon="4.04603">
        <ele>127</ele>
        <time>2020-09-20T10:11:48Z</time>
      </trkpt>
      <trkpt lat="49.23335" lon="4.0461">
        <ele>127</ele>
        <time>2020-09-20T10:11:49Z</time>
      </trkpt>
      <trkpt lat="49.23333" lon="4.04617">
        <ele>127</ele>
        <time>2020-09-20T10:11:50Z</time>
      </trkpt>
      <trkpt lat="49.23331" lon="4.04624">
        <ele>126</ele>
        <time>2020-09-20T10:11:51Z</time>
      </trkpt>
      <trkpt lat="49.23329" lon="4.04632">
        <ele>126</ele>
        <time>2020-09-20T10:11:52Z</time>
      </trkpt>
      <trkpt lat="49.23327" lon="4.0464">
        <ele>126</ele>
        <time>2020-09-20T10:11:53Z</time>
      </trkpt>
      <trkpt lat="49.23325" lon="4.04647">
        <ele>125</ele>
        <time>2020-09-20T10:11:54Z</time>
      </trkpt>
      <trkpt lat="49.23323" lon="4.04655">
        <ele>125</ele>
        <time>2020-09-20T10:11:55Z</time>
      </trkpt>
      <trkpt lat="49.23321" lon="4.04662">
        <ele>125</ele>
        <time>2020-09-20T10:11:56Z</time>
      </trkpt>
      <trkpt lat="49.23319" lon="4.0467">
        <ele>125</ele>
        <time>2020-09-20T10:11:57Z</time>
      </trkpt>
      <trkpt lat="49.23317" lon="4.04677">
        <ele>125</ele>
        <time>2020-09-20T10:11:58Z</time>
      </trkpt>
      <trkpt lat="49.23315" lon="4.04686">
        <ele>125</ele>
        <time>2020-09-20T10:11:59Z</time>
      </trkpt>
      <trkpt lat="49.23313" lon="4.04694">
        <ele>124</ele>
        <time>2020-09-20T10:12:00Z</time>
      </trkpt>
      <trkpt lat="49.23311" lon="4.04701">
        <ele>124</ele>
        <time>2020-09-20T10:12:01Z</time>
      </trkpt>
      <trkpt lat="49.23309" lon="4.04709">
        <ele>124</ele>
        <time>2020-09-20T10:12:02Z</time>
      </trkpt>
      <trkpt lat="49.23307" lon="4.04717">
        <ele>124</ele>
        <time>2020-09-20T10:12:03Z</time>
      </trkpt>
      <trkpt lat="49.23305" lon="4.04726">
        <ele>124</ele>
        <time>2020-09-20T10:12:04Z</time>
      </trkpt>
      <trkpt lat="49.23303" lon="4.04734">
        <ele>124</ele>
        <time>2020-09-20T10:12:05Z</time>
      </trkpt>
      <trkpt lat="49.23301" lon="4.04742">
        <ele>124</ele>
        <time>2020-09-20T10:12:06Z</time>
      </trkpt>
      <trkpt lat="49.23299" lon="4.04749">
        <ele>124</ele>
        <time>2020-09-20T10:12:07Z</time>
      </trkpt>
      <trkpt lat="49.23297" lon="4.04757">
        <ele>125</ele>
        <time>2020-09-20T10:12:08Z</time>
      </trkpt>
      <trkpt lat="49.23296" lon="4.04765">
        <ele>124</ele>
        <time>2020-09-20T10:12:09Z</time>
      </trkpt>
      <trkpt lat="49.23294" lon="4.04773">
        <ele>125</ele>
        <time>2020-09-20T10:12:10Z</time>
      </trkpt>
      <trkpt lat="49.23292" lon="4.0478">
        <ele>125</ele>
        <time>2020-09-20T10:12:11Z</time>
      </trkpt>
      <trkpt lat="49.23291" lon="4.04787">
        <ele>125</ele>
        <time>2020-09-20T10:12:12Z</time>
      </trkpt>
      <trkpt lat="49.23291" lon="4.04793">
        <ele>126</ele>
        <time>2020-09-20T10:12:13Z</time>
      </trkpt>
      <trkpt lat="49.2329" lon="4.04799">
        <ele>126</ele>
        <time>2020-09-20T10:12:14Z</time>
      </trkpt>
      <trkpt lat="49.23288" lon="4.04806">
        <ele>126</ele>
        <time>2020-09-20T10:12:15Z</time>
      </trkpt>
      <trkpt lat="49.23287" lon="4.04813">
        <ele>126</ele>
        <time>2020-09-20T10:12:16Z</time>
      </trkpt>
      <trkpt lat="49.23286" lon="4.04821">
        <ele>126</ele>
        <time>2020-09-20T10:12:17Z</time>
      </trkpt>
      <trkpt lat="49.23285" lon="4.04828">
        <ele>126</ele>
        <time>2020-09-20T10:12:18Z</time>
      </trkpt>
      <trkpt lat="49.23284" lon="4.04835">
        <ele>126</ele>
        <time>2020-09-20T10:12:19Z</time>
      </trkpt>
      <trkpt lat="49.23282" lon="4.04842">
        <ele>126</ele>
        <time>2020-09-20T10:12:20Z</time>
      </trkpt>
      <trkpt lat="49.2328" lon="4.04849">
        <ele>127</ele>
        <time>2020-09-20T10:12:21Z</time>
      </trkpt>
      <trkpt lat="49.23277" lon="4.04857">
        <ele>127</ele>
        <time>2020-09-20T10:12:22Z</time>
      </trkpt>
      <trkpt lat="49.23274" lon="4.04864">
        <ele>127</ele>
        <time>2020-09-20T10:12:23Z</time>
      </trkpt>
      <trkpt lat="49.23271" lon="4.04871">
        <ele>127</ele>
        <time>2020-09-20T10:12:24Z</time>
      </trkpt>
      <trkpt lat="49.23269" lon="4.04878">
        <ele>127</ele>
        <time>2020-09-20T10:12:25Z</time>
      </trkpt>
      <trkpt lat="49.23267" lon="4.04885">
        <ele>127</ele>
        <time>2020-09-20T10:12:26Z</time>
      </trkpt>
      <trkpt lat="49.23264" lon="4.04891">
        <ele>128</ele>
        <time>2020-09-20T10:12:27Z</time>
      </trkpt>
      <trkpt lat="49.23262" lon="4.04898">
        <ele>128</ele>
        <time>2020-09-20T10:12:28Z</time>
      </trkpt>
      <trkpt lat="49.23261" lon="4.04905">
        <ele>128</ele>
        <time>2020-09-20T10:12:29Z</time>
      </trkpt>
      <trkpt lat="49.23259" lon="4.04911">
        <ele>128</ele>
        <time>2020-09-20T10:12:30Z</time>
      </trkpt>
      <trkpt lat="49.23256" lon="4.04917">
        <ele>128</ele>
        <time>2020-09-20T10:12:31Z</time>
      </trkpt>
      <trkpt lat="49.23254" lon="4.04922">
        <ele>129</ele>
        <time>2020-09-20T10:12:32Z</time>
      </trkpt>
      <trkpt lat="49.23252" lon="4.04928">
        <ele>129</ele>
        <time>2020-09-20T10:12:33Z</time>
      </trkpt>
      <trkpt lat="49.2325" lon="4.04933">
        <ele>129</ele>
        <time>2020-09-20T10:12:34Z</time>
      </trkpt>
      <trkpt lat="49.23249" lon="4.04939">
        <ele>129</ele>
        <time>2020-09-20T10:12:35Z</time>
      </trkpt>
      <trkpt lat="49.23247" lon="4.04946">
        <ele>129</ele>
        <time>2020-09-20T10:12:36Z</time>
      </trkpt>
      <trkpt lat="49.23245" lon="4.04953">
        <ele>129</ele>
        <time>2020-09-20T10:12:37Z</time>
      </trkpt>
      <trkpt lat="49.23243" lon="4.0496">
        <ele>129</ele>
        <time>2020-09-20T10:12:38Z</time>
      </trkpt>
      <trkpt lat="49.23242" lon="4.04967">
        <ele>129</ele>
        <time>2020-09-20T10:12:39Z</time>
      </trkpt>
      <trkpt lat="49.2324" lon="4.04974">
        <ele>129</ele>
        <time>2020-09-20T10:12:40Z</time>
      </trkpt>
      <trkpt lat="49.23238" lon="4.04981">
        <ele>129</ele>
        <time>2020-09-20T10:12:41Z</time>
      </trkpt>
      <trkpt lat="49.23236" lon="4.04987">
        <ele>129</ele>
        <time>2020-09-20T10:12:42Z</time>
      </trkpt>
      <trkpt lat="49.23234" lon="4.04994">
        <ele>129</ele>
        <time>2020-09-20T10:12:43Z</time>
      </trkpt>
      <trkpt lat="49.23232" lon="4.05001">
        <ele>128</ele>
        <time>2020-09-20T10:12:44Z</time>
      </trkpt>
      <trkpt lat="49.2323" lon="4.05008">
        <ele>128</ele>
        <time>2020-09-20T10:12:45Z</time>
      </trkpt>
      <trkpt lat="49.23229" lon="4.05015">
        <ele>129</ele>
        <time>2020-09-20T10:12:46Z</time>
      </trkpt>
      <trkpt lat="49.23227" lon="4.05022">
        <ele>129</ele>
        <time>2020-09-20T10:12:47Z</time>
      </trkpt>
      <trkpt lat="49.23225" lon="4.05029">
        <ele>129</ele>
        <time>2020-09-20T10:12:48Z</time>
      </trkpt>
      <trkpt lat="49.23223" lon="4.05036">
        <ele>129</ele>
        <time>2020-09-20T10:12:49Z</time>
      </trkpt>
      <trkpt lat="49.23221" lon="4.05043">
        <ele>129</ele>
        <time>2020-09-20T10:12:50Z</time>
      </trkpt>
      <trkpt lat="49.2322" lon="4.0505">
        <ele>129</ele>
        <time>2020-09-20T10:12:51Z</time>
      </trkpt>
      <trkpt lat="49.23218" lon="4.05057">
        <ele>129</ele>
        <time>2020-09-20T10:12:52Z</time>
      </trkpt>
      <trkpt lat="49.23216" lon="4.05064">
        <ele>129</ele>
        <time>2020-09-20T10:12:53Z</time>
      </trkpt>
      <trkpt lat="49.23215" lon="4.05071">
        <ele>129</ele>
        <time>2020-09-20T10:12:54Z</time>
      </trkpt>
      <trkpt lat="49.23213" lon="4.05079">
        <ele>129</ele>
        <time>2020-09-20T10:12:55Z</time>
      </trkpt>
      <trkpt lat="49.23211" lon="4.05086">
        <ele>128</ele>
        <time>2020-09-20T10:12:56Z</time>
      </trkpt>
      <trkpt lat="49.23209" lon="4.05092">
        <ele>128</ele>
        <time>2020-09-20T10:12:57Z</time>
      </trkpt>
      <trkpt lat="49.23208" lon="4.05099">
        <ele>128</ele>
        <time>2020-09-20T10:12:58Z</time>
      </trkpt>
      <trkpt lat="49.23206" lon="4.05106">
        <ele>128</ele>
        <time>2020-09-20T10:12:59Z</time>
      </trkpt>
      <trkpt lat="49.23204" lon="4.05113">
        <ele>128</ele>
        <time>2020-09-20T10:13:00Z</time>
      </trkpt>
      <trkpt lat="49.23203" lon="4.05119">
        <ele>128</ele>
        <time>2020-09-20T10:13:01Z</time>
      </trkpt>
      <trkpt lat="49.23201" lon="4.05126">
        <ele>128</ele>
        <time>2020-09-20T10:13:02Z</time>
      </trkpt>
      <trkpt lat="49.23199" lon="4.05133">
        <ele>128</ele>
        <time>2020-09-20T10:13:03Z</time>
      </trkpt>
      <trkpt lat="49.23197" lon="4.0514">
        <ele>128</ele>
        <time>2020-09-20T10:13:04Z</time>
      </trkpt>
      <trkpt lat="49.23196" lon="4.05148">
        <ele>129</ele>
        <time>2020-09-20T10:13:05Z</time>
      </trkpt>
      <trkpt lat="49.23194" lon="4.05155">
        <ele>129</ele>
        <time>2020-09-20T10:13:06Z</time>
      </trkpt>
      <trkpt lat="49.23192" lon="4.05163">
        <ele>129</ele>
        <time>2020-09-20T10:13:07Z</time>
      </trkpt>
      <trkpt lat="49.2319" lon="4.0517">
        <ele>129</ele>
        <time>2020-09-20T10:13:08Z</time>
      </trkpt>
      <trkpt lat="49.23188" lon="4.05178">
        <ele>129</ele>
        <time>2020-09-20T10:13:09Z</time>
      </trkpt>
      <trkpt lat="49.23186" lon="4.05185">
        <ele>129</ele>
        <time>2020-09-20T10:13:10Z</time>
      </trkpt>
      <trkpt lat="49.23184" lon="4.05193">
        <ele>129</ele>
        <time>2020-09-20T10:13:11Z</time>
      </trkpt>
      <trkpt lat="49.23182" lon="4.052">
        <ele>129</ele>
        <time>2020-09-20T10:13:12Z</time>
      </trkpt>
      <trkpt lat="49.2318" lon="4.05208">
        <ele>129</ele>
        <time>2020-09-20T10:13:13Z</time>
      </trkpt>
      <trkpt lat="49.23179" lon="4.05216">
        <ele>129</ele>
        <time>2020-09-20T10:13:14Z</time>
      </trkpt>
      <trkpt lat="49.23177" lon="4.05223">
        <ele>129</ele>
        <time>2020-09-20T10:13:15Z</time>
      </trkpt>
      <trkpt lat="49.23175" lon="4.05231">
        <ele>130</ele>
        <time>2020-09-20T10:13:16Z</time>
      </trkpt>
      <trkpt lat="49.23173" lon="4.05238">
        <ele>130</ele>
        <time>2020-09-20T10:13:17Z</time>
      </trkpt>
      <trkpt lat="49.2317" lon="4.05245">
        <ele>130</ele>
        <time>2020-09-20T10:13:18Z</time>
      </trkpt>
      <trkpt lat="49.23168" lon="4.05253">
        <ele>129</ele>
        <time>2020-09-20T10:13:19Z</time>
      </trkpt>
      <trkpt lat="49.23166" lon="4.0526">
        <ele>129</ele>
        <time>2020-09-20T10:13:20Z</time>
      </trkpt>
      <trkpt lat="49.23164" lon="4.05268">
        <ele>129</ele>
        <time>2020-09-20T10:13:21Z</time>
      </trkpt>
      <trkpt lat="49.23162" lon="4.05275">
        <ele>129</ele>
        <time>2020-09-20T10:13:22Z</time>
      </trkpt>
      <trkpt lat="49.2316" lon="4.05283">
        <ele>129</ele>
        <time>2020-09-20T10:13:23Z</time>
      </trkpt>
      <trkpt lat="49.23158" lon="4.0529">
        <ele>129</ele>
        <time>2020-09-20T10:13:24Z</time>
      </trkpt>
      <trkpt lat="49.23156" lon="4.05297">
        <ele>128</ele>
        <time>2020-09-20T10:13:25Z</time>
      </trkpt>
      <trkpt lat="49.23155" lon="4.05304">
        <ele>129</ele>
        <time>2020-09-20T10:13:26Z</time>
      </trkpt>
      <trkpt lat="49.23154" lon="4.05311">
        <ele>129</ele>
        <time>2020-09-20T10:13:27Z</time>
      </trkpt>
      <trkpt lat="49.23152" lon="4.05319">
        <ele>129</ele>
        <time>2020-09-20T10:13:28Z</time>
      </trkpt>
      <trkpt lat="49.23149" lon="4.05326">
        <ele>129</ele>
        <time>2020-09-20T10:13:29Z</time>
      </trkpt>
      <trkpt lat="49.23147" lon="4.05333">
        <ele>129</ele>
        <time>2020-09-20T10:13:30Z</time>
      </trkpt>
      <trkpt lat="49.23145" lon="4.05341">
        <ele>129</ele>
        <time>2020-09-20T10:13:31Z</time>
      </trkpt>
      <trkpt lat="49.23142" lon="4.05348">
        <ele>129</ele>
        <time>2020-09-20T10:13:32Z</time>
      </trkpt>
      <trkpt lat="49.2314" lon="4.05356">
        <ele>129</ele>
        <time>2020-09-20T10:13:33Z</time>
      </trkpt>
      <trkpt lat="49.23138" lon="4.05363">
        <ele>128</ele>
        <time>2020-09-20T10:13:34Z</time>
      </trkpt>
      <trkpt lat="49.23136" lon="4.05371">
        <ele>128</ele>
        <time>2020-09-20T10:13:35Z</time>
      </trkpt>
      <trkpt lat="49.23134" lon="4.05379">
        <ele>128</ele>
        <time>2020-09-20T10:13:36Z</time>
      </trkpt>
      <trkpt lat="49.23132" lon="4.05387">
        <ele>128</ele>
        <time>2020-09-20T10:13:37Z</time>
      </trkpt>
      <trkpt lat="49.2313" lon="4.05394">
        <ele>128</ele>
        <time>2020-09-20T10:13:38Z</time>
      </trkpt>
      <trkpt lat="49.23128" lon="4.05402">
        <ele>128</ele>
        <time>2020-09-20T10:13:39Z</time>
      </trkpt>
      <trkpt lat="49.23126" lon="4.05409">
        <ele>128</ele>
        <time>2020-09-20T10:13:40Z</time>
      </trkpt>
      <trkpt lat="49.23124" lon="4.05416">
        <ele>128</ele>
        <time>2020-09-20T10:13:41Z</time>
      </trkpt>
      <trkpt lat="49.23123" lon="4.05423">
        <ele>128</ele>
        <time>2020-09-20T10:13:42Z</time>
      </trkpt>
      <trkpt lat="49.23121" lon="4.05431">
        <ele>128</ele>
        <time>2020-09-20T10:13:43Z</time>
      </trkpt>
      <trkpt lat="49.23119" lon="4.05439">
        <ele>128</ele>
        <time>2020-09-20T10:13:44Z</time>
      </trkpt>
      <trkpt lat="49.23117" lon="4.05446">
        <ele>128</ele>
        <time>2020-09-20T10:13:45Z</time>
      </trkpt>
      <trkpt lat="49.23115" lon="4.05454">
        <ele>128</ele>
        <time>2020-09-20T10:13:46Z</time>
      </trkpt>
      <trkpt lat="49.23113" lon="4.05461">
        <ele>127</ele>
        <time>2020-09-20T10:13:47Z</time>
      </trkpt>
      <trkpt lat="49.23111" lon="4.05469">
        <ele>127</ele>
        <time>2020-09-20T10:13:48Z</time>
      </trkpt>
      <trkpt lat="49.2311" lon="4.05476">
        <ele>128</ele>
        <time>2020-09-20T10:13:49Z</time>
      </trkpt>
      <trkpt lat="49.23108" lon="4.05484">
        <ele>128</ele>
        <time>2020-09-20T10:13:50Z</time>
      </trkpt>
      <trkpt lat="49.23106" lon="4.05491">
        <ele>128</ele>
        <time>2020-09-20T10:13:51Z</time>
      </trkpt>
      <trkpt lat="49.23105" lon="4.05498">
        <ele>128</ele>
        <time>2020-09-20T10:13:52Z</time>
      </trkpt>
      <trkpt lat="49.23103" lon="4.05505">
        <ele>128</ele>
        <time>2020-09-20T10:13:53Z</time>
      </trkpt>
      <trkpt lat="49.231" lon="4.05512">
        <ele>128</ele>
        <time>2020-09-20T10:13:54Z</time>
      </trkpt>
      <trkpt lat="49.23099" lon="4.0552">
        <ele>128</ele>
        <time>2020-09-20T10:13:55Z</time>
      </trkpt>
      <trkpt lat="49.23097" lon="4.05527">
        <ele>128</ele>
        <time>2020-09-20T10:13:56Z</time>
      </trkpt>
      <trkpt lat="49.23095" lon="4.05535">
        <ele>128</ele>
        <time>2020-09-20T10:13:57Z</time>
      </trkpt>
      <trkpt lat="49.23092" lon="4.05543">
        <ele>128</ele>
        <time>2020-09-20T10:13:58Z</time>
      </trkpt>
      <trkpt lat="49.2309" lon="4.0555">
        <ele>128</ele>
        <time>2020-09-20T10:13:59Z</time>
      </trkpt>
      <trkpt lat="49.23088" lon="4.05558">
        <ele>128</ele>
        <time>2020-09-20T10:14:00Z</time>
      </trkpt>
      <trkpt lat="49.23086" lon="4.05565">
        <ele>128</ele>
        <time>2020-09-20T10:14:01Z</time>
      </trkpt>
      <trkpt lat="49.23084" lon="4.05573">
        <ele>128</ele>
        <time>2020-09-20T10:14:02Z</time>
      </trkpt>
      <trkpt lat="49.23082" lon="4.0558">
        <ele>128</ele>
        <time>2020-09-20T10:14:03Z</time>
      </trkpt>
      <trkpt lat="49.23081" lon="4.05587">
        <ele>128</ele>
        <time>2020-09-20T10:14:04Z</time>
      </trkpt>
      <trkpt lat="49.23079" lon="4.05595">
        <ele>128</ele>
        <time>2020-09-20T10:14:05Z</time>
      </trkpt>
      <trkpt lat="49.23077" lon="4.05602">
        <ele>128</ele>
        <time>2020-09-20T10:14:06Z</time>
      </trkpt>
      <trkpt lat="49.23075" lon="4.0561">
        <ele>128</ele>
        <time>2020-09-20T10:14:07Z</time>
      </trkpt>
      <trkpt lat="49.23073" lon="4.05617">
        <ele>128</ele>
        <time>2020-09-20T10:14:08Z</time>
      </trkpt>
      <trkpt lat="49.23071" lon="4.05624">
        <ele>128</ele>
        <time>2020-09-20T10:14:09Z</time>
      </trkpt>
      <trkpt lat="49.23069" lon="4.05632">
        <ele>128</ele>
        <time>2020-09-20T10:14:10Z</time>
      </trkpt>
      <trkpt lat="49.23068" lon="4.05639">
        <ele>128</ele>
        <time>2020-09-20T10:14:11Z</time>
      </trkpt>
      <trkpt lat="49.23066" lon="4.05647">
        <ele>128</ele>
        <time>2020-09-20T10:14:12Z</time>
      </trkpt>
      <trkpt lat="49.23065" lon="4.05655">
        <ele>128</ele>
        <time>2020-09-20T10:14:13Z</time>
      </trkpt>
      <trkpt lat="49.23063" lon="4.05662">
        <ele>128</ele>
        <time>2020-09-20T10:14:14Z</time>
      </trkpt>
      <trkpt lat="49.23061" lon="4.0567">
        <ele>128</ele>
        <time>2020-09-20T10:14:15Z</time>
      </trkpt>
      <trkpt lat="49.23059" lon="4.05678">
        <ele>128</ele>
        <time>2020-09-20T10:14:16Z</time>
      </trkpt>
      <trkpt lat="49.23057" lon="4.05685">
        <ele>128</ele>
        <time>2020-09-20T10:14:17Z</time>
      </trkpt>
      <trkpt lat="49.23054" lon="4.05693">
        <ele>128</ele>
        <time>2020-09-20T10:14:18Z</time>
      </trkpt>
      <trkpt lat="49.23051" lon="4.057">
        <ele>128</ele>
        <time>2020-09-20T10:14:19Z</time>
      </trkpt>
      <trkpt lat="49.23049" lon="4.05707">
        <ele>127</ele>
        <time>2020-09-20T10:14:20Z</time>
      </trkpt>
      <trkpt lat="49.23047" lon="4.05714">
        <ele>128</ele>
        <time>2020-09-20T10:14:21Z</time>
      </trkpt>
      <trkpt lat="49.23045" lon="4.05722">
        <ele>128</ele>
        <time>2020-09-20T10:14:22Z</time>
      </trkpt>
      <trkpt lat="49.23043" lon="4.05729">
        <ele>128</ele>
        <time>2020-09-20T10:14:23Z</time>
      </trkpt>
      <trkpt lat="49.23042" lon="4.05737">
        <ele>128</ele>
        <time>2020-09-20T10:14:24Z</time>
      </trkpt>
      <trkpt lat="49.2304" lon="4.05745">
        <ele>128</ele>
        <time>2020-09-20T10:14:25Z</time>
      </trkpt>
      <trkpt lat="49.23039" lon="4.05752">
        <ele>128</ele>
        <time>2020-09-20T10:14:26Z</time>
      </trkpt>
      <trkpt lat="49.23038" lon="4.0576">
        <ele>128</ele>
        <time>2020-09-20T10:14:27Z</time>
      </trkpt>
      <trkpt lat="49.23036" lon="4.05767">
        <ele>128</ele>
        <time>2020-09-20T10:14:28Z</time>
      </trkpt>
      <trkpt lat="49.23034" lon="4.05773">
        <ele>128</ele>
        <time>2020-09-20T10:14:29Z</time>
      </trkpt>
      <trkpt lat="49.23032" lon="4.05781">
        <ele>128</ele>
        <time>2020-09-20T10:14:30Z</time>
      </trkpt>
      <trkpt lat="49.2303" lon="4.05789">
        <ele>128</ele>
        <time>2020-09-20T10:14:31Z</time>
      </trkpt>
      <trkpt lat="49.23028" lon="4.05796">
        <ele>128</ele>
        <time>2020-09-20T10:14:32Z</time>
      </trkpt>
      <trkpt lat="49.23026" lon="4.05803">
        <ele>128</ele>
        <time>2020-09-20T10:14:33Z</time>
      </trkpt>
      <trkpt lat="49.23023" lon="4.05811">
        <ele>128</ele>
        <time>2020-09-20T10:14:34Z</time>
      </trkpt>
      <trkpt lat="49.23021" lon="4.05818">
        <ele>128</ele>
        <time>2020-09-20T10:14:35Z</time>
      </trkpt>
      <trkpt lat="49.23019" lon="4.05826">
        <ele>129</ele>
        <time>2020-09-20T10:14:36Z</time>
      </trkpt>
      <trkpt lat="49.23017" lon="4.05834">
        <ele>129</ele>
        <time>2020-09-20T10:14:37Z</time>
      </trkpt>
      <trkpt lat="49.23014" lon="4.05842">
        <ele>128</ele>
        <time>2020-09-20T10:14:38Z</time>
      </trkpt>
      <trkpt lat="49.23012" lon="4.0585">
        <ele>128</ele>
        <time>2020-09-20T10:14:39Z</time>
      </trkpt>
      <trkpt lat="49.2301" lon="4.05857">
        <ele>128</ele>
        <time>2020-09-20T10:14:40Z</time>
      </trkpt>
      <trkpt lat="49.23008" lon="4.05865">
        <ele>128</ele>
        <time>2020-09-20T10:14:41Z</time>
      </trkpt>
      <trkpt lat="49.23006" lon="4.05873">
        <ele>129</ele>
        <time>2020-09-20T10:14:42Z</time>
      </trkpt>
      <trkpt lat="49.23004" lon="4.05881">
        <ele>129</ele>
        <time>2020-09-20T10:14:43Z</time>
      </trkpt>
      <trkpt lat="49.23002" lon="4.05889">
        <ele>129</ele>
        <time>2020-09-20T10:14:44Z</time>
      </trkpt>
      <trkpt lat="49.23001" lon="4.05897">
        <ele>129</ele>
        <time>2020-09-20T10:14:45Z</time>
      </trkpt>
      <trkpt lat="49.22999" lon="4.05904">
        <ele>129</ele>
        <time>2020-09-20T10:14:46Z</time>
      </trkpt>
      <trkpt lat="49.22997" lon="4.05912">
        <ele>129</ele>
        <time>2020-09-20T10:14:47Z</time>
      </trkpt>
      <trkpt lat="49.22995" lon="4.05919">
        <ele>129</ele>
        <time>2020-09-20T10:14:48Z</time>
      </trkpt>
      <trkpt lat="49.22993" lon="4.05926">
        <ele>129</ele>
        <time>2020-09-20T10:14:49Z</time>
      </trkpt>
      <trkpt lat="49.22991" lon="4.05934">
        <ele>129</ele>
        <time>2020-09-20T10:14:50Z</time>
      </trkpt>
      <trkpt lat="49.22989" lon="4.05941">
        <ele>129</ele>
        <time>2020-09-20T10:14:51Z</time>
      </trkpt>
      <trkpt lat="49.22988" lon="4.05948">
        <ele>129</ele>
        <time>2020-09-20T10:14:52Z</time>
      </trkpt>
      <trkpt lat="49.22986" lon="4.05956">
        <ele>129</ele>
        <time>2020-09-20T10:14:53Z</time>
      </trkpt>
      <trkpt lat="49.22985" lon="4.05962">
        <ele>129</ele>
        <time>2020-09-20T10:14:54Z</time>
      </trkpt>
      <trkpt lat="49.22983" lon="4.05968">
        <ele>129</ele>
        <time>2020-09-20T10:14:55Z</time>
      </trkpt>
      <trkpt lat="49.22982" lon="4.05973">
        <ele>129</ele>
        <time>2020-09-20T10:14:56Z</time>
      </trkpt>
      <trkpt lat="49.22981" lon="4.05979">
        <ele>130</ele>
        <time>2020-09-20T10:14:57Z</time>
      </trkpt>
      <trkpt lat="49.2298" lon="4.05985">
        <ele>130</ele>
        <time>2020-09-20T10:14:58Z</time>
      </trkpt>
      <trkpt lat="49.2298" lon="4.05992">
        <ele>130</ele>
        <time>2020-09-20T10:14:59Z</time>
      </trkpt>
      <trkpt lat="49.22979" lon="4.05999">
        <ele>130</ele>
        <time>2020-09-20T10:15:00Z</time>
      </trkpt>
      <trkpt lat="49.22977" lon="4.06006">
        <ele>130</ele>
        <time>2020-09-20T10:15:01Z</time>
      </trkpt>
      <trkpt lat="49.22975" lon="4.06014">
        <ele>130</ele>
        <time>2020-09-20T10:15:02Z</time>
      </trkpt>
      <trkpt lat="49.22973" lon="4.0602">
        <ele>130</ele>
        <time>2020-09-20T10:15:03Z</time>
      </trkpt>
      <trkpt lat="49.2297" lon="4.06027">
        <ele>130</ele>
        <time>2020-09-20T10:15:04Z</time>
      </trkpt>
      <trkpt lat="49.22968" lon="4.06035">
        <ele>129</ele>
        <time>2020-09-20T10:15:05Z</time>
      </trkpt>
      <trkpt lat="49.22967" lon="4.06042">
        <ele>129</ele>
        <time>2020-09-20T10:15:06Z</time>
      </trkpt>
      <trkpt lat="49.22965" lon="4.0605">
        <ele>129</ele>
        <time>2020-09-20T10:15:07Z</time>
      </trkpt>
      <trkpt lat="49.22964" lon="4.06058">
        <ele>129</ele>
        <time>2020-09-20T10:15:08Z</time>
      </trkpt>
      <trkpt lat="49.22963" lon="4.06066">
        <ele>129</ele>
        <time>2020-09-20T10:15:09Z</time>
      </trkpt>
      <trkpt lat="49.22962" lon="4.06074">
        <ele>129</ele>
        <time>2020-09-20T10:15:10Z</time>
      </trkpt>
      <trkpt lat="49.22961" lon="4.06083">
        <ele>129</ele>
        <time>2020-09-20T10:15:11Z</time>
      </trkpt>
      <trkpt lat="49.22959" lon="4.06091">
        <ele>129</ele>
        <time>2020-09-20T10:15:12Z</time>
      </trkpt>
      <trkpt lat="49.22957" lon="4.06098">
        <ele>129</ele>
        <time>2020-09-20T10:15:13Z</time>
      </trkpt>
      <trkpt lat="49.22954" lon="4.06106">
        <ele>129</ele>
        <time>2020-09-20T10:15:14Z</time>
      </trkpt>
      <trkpt lat="49.22953" lon="4.06114">
        <ele>129</ele>
        <time>2020-09-20T10:15:15Z</time>
      </trkpt>
      <trkpt lat="49.2295" lon="4.06122">
        <ele>129</ele>
        <time>2020-09-20T10:15:16Z</time>
      </trkpt>
      <trkpt lat="49.22949" lon="4.0613">
        <ele>129</ele>
        <time>2020-09-20T10:15:17Z</time>
      </trkpt>
      <trkpt lat="49.22947" lon="4.06138">
        <ele>129</ele>
        <time>2020-09-20T10:15:18Z</time>
      </trkpt>
      <trkpt lat="49.22945" lon="4.06147">
        <ele>129</ele>
        <time>2020-09-20T10:15:19Z</time>
      </trkpt>
      <trkpt lat="49.22943" lon="4.06154">
        <ele>129</ele>
        <time>2020-09-20T10:15:20Z</time>
      </trkpt>
      <trkpt lat="49.22942" lon="4.06162">
        <ele>129</ele>
        <time>2020-09-20T10:15:21Z</time>
      </trkpt>
      <trkpt lat="49.2294" lon="4.0617">
        <ele>129</ele>
        <time>2020-09-20T10:15:22Z</time>
      </trkpt>
      <trkpt lat="49.22938" lon="4.06178">
        <ele>129</ele>
        <time>2020-09-20T10:15:23Z</time>
      </trkpt>
      <trkpt lat="49.22937" lon="4.06186">
        <ele>129</ele>
        <time>2020-09-20T10:15:24Z</time>
      </trkpt>
      <trkpt lat="49.22935" lon="4.06194">
        <ele>128</ele>
        <time>2020-09-20T10:15:25Z</time>
      </trkpt>
      <trkpt lat="49.22934" lon="4.06202">
        <ele>129</ele>
        <time>2020-09-20T10:15:26Z</time>
      </trkpt>
      <trkpt lat="49.22932" lon="4.0621">
        <ele>128</ele>
        <time>2020-09-20T10:15:27Z</time>
      </trkpt>
      <trkpt lat="49.22931" lon="4.06219">
        <ele>128</ele>
        <time>2020-09-20T10:15:28Z</time>
      </trkpt>
      <trkpt lat="49.22929" lon="4.06228">
        <ele>128</ele>
        <time>2020-09-20T10:15:29Z</time>
      </trkpt>
      <trkpt lat="49.22928" lon="4.06237">
        <ele>128</ele>
        <time>2020-09-20T10:15:30Z</time>
      </trkpt>
      <trkpt lat="49.22926" lon="4.06246">
        <ele>128</ele>
        <time>2020-09-20T10:15:31Z</time>
      </trkpt>
      <trkpt lat="49.22924" lon="4.06255">
        <ele>128</ele>
        <time>2020-09-20T10:15:32Z</time>
      </trkpt>
      <trkpt lat="49.22922" lon="4.06264">
        <ele>128</ele>
        <time>2020-09-20T10:15:33Z</time>
      </trkpt>
      <trkpt lat="49.2292" lon="4.06273">
        <ele>128</ele>
        <time>2020-09-20T10:15:34Z</time>
      </trkpt>
      <trkpt lat="49.22919" lon="4.06283">
        <ele>128</ele>
        <time>2020-09-20T10:15:35Z</time>
      </trkpt>
      <trkpt lat="49.22917" lon="4.06292">
        <ele>128</ele>
        <time>2020-09-20T10:15:36Z</time>
      </trkpt>
      <trkpt lat="49.22915" lon="4.06301">
        <ele>128</ele>
        <time>2020-09-20T10:15:37Z</time>
      </trkpt>
      <trkpt lat="49.22913" lon="4.0631">
        <ele>128</ele>
        <time>2020-09-20T10:15:38Z</time>
      </trkpt>
      <trkpt lat="49.22911" lon="4.06319">
        <ele>128</ele>
        <time>2020-09-20T10:15:39Z</time>
      </trkpt>
      <trkpt lat="49.22909" lon="4.06328">
        <ele>128</ele>
        <time>2020-09-20T10:15:40Z</time>
      </trkpt>
      <trkpt lat="49.22908" lon="4.06337">
        <ele>129</ele>
        <time>2020-09-20T10:15:41Z</time>
      </trkpt>
      <trkpt lat="49.22906" lon="4.06346">
        <ele>129</ele>
        <time>2020-09-20T10:15:42Z</time>
      </trkpt>
      <trkpt lat="49.22904" lon="4.06355">
        <ele>128</ele>
        <time>2020-09-20T10:15:43Z</time>
      </trkpt>
      <trkpt lat="49.22902" lon="4.06364">
        <ele>128</ele>
        <time>2020-09-20T10:15:44Z</time>
      </trkpt>
      <trkpt lat="49.229" lon="4.06373">
        <ele>128</ele>
        <time>2020-09-20T10:15:45Z</time>
      </trkpt>
      <trkpt lat="49.22898" lon="4.06382">
        <ele>129</ele>
        <time>2020-09-20T10:15:46Z</time>
      </trkpt>
      <trkpt lat="49.22896" lon="4.06391">
        <ele>128</ele>
        <time>2020-09-20T10:15:47Z</time>
      </trkpt>
      <trkpt lat="49.22894" lon="4.064">
        <ele>128</ele>
        <time>2020-09-20T10:15:48Z</time>
      </trkpt>
      <trkpt lat="49.22893" lon="4.06409">
        <ele>128</ele>
        <time>2020-09-20T10:15:49Z</time>
      </trkpt>
      <trkpt lat="49.22891" lon="4.06417">
        <ele>128</ele>
        <time>2020-09-20T10:15:50Z</time>
      </trkpt>
      <trkpt lat="49.22888" lon="4.06426">
        <ele>128</ele>
        <time>2020-09-20T10:15:51Z</time>
      </trkpt>
      <trkpt lat="49.22887" lon="4.06435">
        <ele>128</ele>
        <time>2020-09-20T10:15:52Z</time>
      </trkpt>
      <trkpt lat="49.22885" lon="4.06443">
        <ele>128</ele>
        <time>2020-09-20T10:15:53Z</time>
      </trkpt>
      <trkpt lat="49.22883" lon="4.06452">
        <ele>128</ele>
        <time>2020-09-20T10:15:54Z</time>
      </trkpt>
      <trkpt lat="49.22882" lon="4.06461">
        <ele>128</ele>
        <time>2020-09-20T10:15:55Z</time>
      </trkpt>
      <trkpt lat="49.22881" lon="4.06469">
        <ele>128</ele>
        <time>2020-09-20T10:15:56Z</time>
      </trkpt>
      <trkpt lat="49.22879" lon="4.06478">
        <ele>128</ele>
        <time>2020-09-20T10:15:57Z</time>
      </trkpt>
      <trkpt lat="49.22877" lon="4.06486">
        <ele>128</ele>
        <time>2020-09-20T10:15:58Z</time>
      </trkpt>
      <trkpt lat="49.22875" lon="4.06494">
        <ele>128</ele>
        <time>2020-09-20T10:15:59Z</time>
      </trkpt>
      <trkpt lat="49.22873" lon="4.06502">
        <ele>128</ele>
        <time>2020-09-20T10:16:00Z</time>
      </trkpt>
      <trkpt lat="49.22871" lon="4.0651">
        <ele>128</ele>
        <time>2020-09-20T10:16:01Z</time>
      </trkpt>
      <trkpt lat="49.2287" lon="4.06518">
        <ele>128</ele>
        <time>2020-09-20T10:16:02Z</time>
      </trkpt>
      <trkpt lat="49.22868" lon="4.06527">
        <ele>128</ele>
        <time>2020-09-20T10:16:03Z</time>
      </trkpt>
      <trkpt lat="49.22866" lon="4.06534">
        <ele>128</ele>
        <time>2020-09-20T10:16:04Z</time>
      </trkpt>
      <trkpt lat="49.22865" lon="4.06543">
        <ele>128</ele>
        <time>2020-09-20T10:16:05Z</time>
      </trkpt>
      <trkpt lat="49.22863" lon="4.06552">
        <ele>128</ele>
        <time>2020-09-20T10:16:06Z</time>
      </trkpt>
      <trkpt lat="49.22862" lon="4.0656">
        <ele>128</ele>
        <time>2020-09-20T10:16:07Z</time>
      </trkpt>
      <trkpt lat="49.2286" lon="4.06568">
        <ele>128</ele>
        <time>2020-09-20T10:16:08Z</time>
      </trkpt>
      <trkpt lat="49.22859" lon="4.06576">
        <ele>129</ele>
        <time>2020-09-20T10:16:09Z</time>
      </trkpt>
      <trkpt lat="49.22857" lon="4.06584">
        <ele>129</ele>
        <time>2020-09-20T10:16:10Z</time>
      </trkpt>
      <trkpt lat="49.22855" lon="4.06592">
        <ele>129</ele>
        <time>2020-09-20T10:16:11Z</time>
      </trkpt>
      <trkpt lat="49.22853" lon="4.066">
        <ele>130</ele>
        <time>2020-09-20T10:16:12Z</time>
      </trkpt>
      <trkpt lat="49.22852" lon="4.06608">
        <ele>129</ele>
        <time>2020-09-20T10:16:13Z</time>
      </trkpt>
      <trkpt lat="49.22851" lon="4.06616">
        <ele>129</ele>
        <time>2020-09-20T10:16:14Z</time>
      </trkpt>
      <trkpt lat="49.2285" lon="4.06625">
        <ele>129</ele>
        <time>2020-09-20T10:16:15Z</time>
      </trkpt>
      <trkpt lat="49.22848" lon="4.06633">
        <ele>129</ele>
        <time>2020-09-20T10:16:16Z</time>
      </trkpt>
      <trkpt lat="49.22846" lon="4.0664">
        <ele>129</ele>
        <time>2020-09-20T10:16:17Z</time>
      </trkpt>
      <trkpt lat="49.22844" lon="4.06649">
        <ele>129</ele>
        <time>2020-09-20T10:16:18Z</time>
      </trkpt>
      <trkpt lat="49.22842" lon="4.06656">
        <ele>129</ele>
        <time>2020-09-20T10:16:19Z</time>
      </trkpt>
      <trkpt lat="49.2284" lon="4.06664">
        <ele>129</ele>
        <time>2020-09-20T10:16:20Z</time>
      </trkpt>
      <trkpt lat="49.22838" lon="4.06672">
        <ele>129</ele>
        <time>2020-09-20T10:16:21Z</time>
      </trkpt>
      <trkpt lat="49.22836" lon="4.0668">
        <ele>129</ele>
        <time>2020-09-20T10:16:22Z</time>
      </trkpt>
      <trkpt lat="49.22834" lon="4.06687">
        <ele>130</ele>
        <time>2020-09-20T10:16:23Z</time>
      </trkpt>
      <trkpt lat="49.22833" lon="4.06696">
        <ele>130</ele>
        <time>2020-09-20T10:16:24Z</time>
      </trkpt>
      <trkpt lat="49.22831" lon="4.06704">
        <ele>130</ele>
        <time>2020-09-20T10:16:25Z</time>
      </trkpt>
      <trkpt lat="49.2283" lon="4.06712">
        <ele>130</ele>
        <time>2020-09-20T10:16:26Z</time>
      </trkpt>
      <trkpt lat="49.22828" lon="4.0672">
        <ele>130</ele>
        <time>2020-09-20T10:16:27Z</time>
      </trkpt>
      <trkpt lat="49.22827" lon="4.06727">
        <ele>130</ele>
        <time>2020-09-20T10:16:28Z</time>
      </trkpt>
      <trkpt lat="49.22826" lon="4.06735">
        <ele>130</ele>
        <time>2020-09-20T10:16:29Z</time>
      </trkpt>
      <trkpt lat="49.22824" lon="4.06744">
        <ele>129</ele>
        <time>2020-09-20T10:16:30Z</time>
      </trkpt>
      <trkpt lat="49.22823" lon="4.06753">
        <ele>129</ele>
        <time>2020-09-20T10:16:31Z</time>
      </trkpt>
      <trkpt lat="49.22822" lon="4.06763">
        <ele>129</ele>
        <time>2020-09-20T10:16:32Z</time>
      </trkpt>
      <trkpt lat="49.2282" lon="4.06771">
        <ele>129</ele>
        <time>2020-09-20T10:16:33Z</time>
      </trkpt>
      <trkpt lat="49.22818" lon="4.06778">
        <ele>129</ele>
        <time>2020-09-20T10:16:34Z</time>
      </trkpt>
      <trkpt lat="49.22816" lon="4.06785">
        <ele>129</ele>
        <time>2020-09-20T10:16:35Z</time>
      </trkpt>
      <trkpt lat="49.22814" lon="4.06792">
        <ele>129</ele>
        <time>2020-09-20T10:16:36Z</time>
      </trkpt>
      <trkpt lat="49.22813" lon="4.06799">
        <ele>129</ele>
        <time>2020-09-20T10:16:37Z</time>
      </trkpt>
      <trkpt lat="49.22811" lon="4.06807">
        <ele>129</ele>
        <time>2020-09-20T10:16:38Z</time>
      </trkpt>
      <trkpt lat="49.22809" lon="4.06815">
        <ele>129</ele>
        <time>2020-09-20T10:16:39Z</time>
      </trkpt>
      <trkpt lat="49.22808" lon="4.06823">
        <ele>129</ele>
        <time>2020-09-20T10:16:40Z</time>
      </trkpt>
      <trkpt lat="49.22805" lon="4.06832">
        <ele>129</ele>
        <time>2020-09-20T10:16:41Z</time>
      </trkpt>
      <trkpt lat="49.22803" lon="4.0684">
        <ele>129</ele>
        <time>2020-09-20T10:16:42Z</time>
      </trkpt>
      <trkpt lat="49.22802" lon="4.06848">
        <ele>129</ele>
        <time>2020-09-20T10:16:43Z</time>
      </trkpt>
      <trkpt lat="49.228" lon="4.06856">
        <ele>129</ele>
        <time>2020-09-20T10:16:44Z</time>
      </trkpt>
      <trkpt lat="49.22798" lon="4.06864">
        <ele>130</ele>
        <time>2020-09-20T10:16:45Z</time>
      </trkpt>
      <trkpt lat="49.22797" lon="4.06872">
        <ele>130</ele>
        <time>2020-09-20T10:16:46Z</time>
      </trkpt>
      <trkpt lat="49.22795" lon="4.0688">
        <ele>130</ele>
        <time>2020-09-20T10:16:47Z</time>
      </trkpt>
      <trkpt lat="49.22794" lon="4.06888">
        <ele>130</ele>
        <time>2020-09-20T10:16:48Z</time>
      </trkpt>
      <trkpt lat="49.22792" lon="4.06896">
        <ele>129</ele>
        <time>2020-09-20T10:16:49Z</time>
      </trkpt>
      <trkpt lat="49.22791" lon="4.06904">
        <ele>129</ele>
        <time>2020-09-20T10:16:50Z</time>
      </trkpt>
      <trkpt lat="49.22789" lon="4.06911">
        <ele>129</ele>
        <time>2020-09-20T10:16:51Z</time>
      </trkpt>
      <trkpt lat="49.22788" lon="4.06919">
        <ele>130</ele>
        <time>2020-09-20T10:16:52Z</time>
      </trkpt>
      <trkpt lat="49.22786" lon="4.06927">
        <ele>129</ele>
        <time>2020-09-20T10:16:53Z</time>
      </trkpt>
      <trkpt lat="49.22784" lon="4.06934">
        <ele>129</ele>
        <time>2020-09-20T10:16:54Z</time>
      </trkpt>
      <trkpt lat="49.22783" lon="4.06942">
        <ele>130</ele>
        <time>2020-09-20T10:16:55Z</time>
      </trkpt>
      <trkpt lat="49.22781" lon="4.06949">
        <ele>130</ele>
        <time>2020-09-20T10:16:56Z</time>
      </trkpt>
      <trkpt lat="49.2278" lon="4.06957">
        <ele>130</ele>
        <time>2020-09-20T10:16:57Z</time>
      </trkpt>
      <trkpt lat="49.22778" lon="4.06965">
        <ele>130</ele>
        <time>2020-09-20T10:16:58Z</time>
      </trkpt>
      <trkpt lat="49.22777" lon="4.06973">
        <ele>129</ele>
        <time>2020-09-20T10:16:59Z</time>
      </trkpt>
      <trkpt lat="49.22775" lon="4.06981">
        <ele>129</ele>
        <time>2020-09-20T10:17:00Z</time>
      </trkpt>
      <trkpt lat="49.22774" lon="4.06989">
        <ele>129</ele>
        <time>2020-09-20T10:17:01Z</time>
      </trkpt>
      <trkpt lat="49.22773" lon="4.06997">
        <ele>129</ele>
        <time>2020-09-20T10:17:02Z</time>
      </trkpt>
      <trkpt lat="49.22771" lon="4.07005">
        <ele>129</ele>
        <time>2020-09-20T10:17:03Z</time>
      </trkpt>
      <trkpt lat="49.2277" lon="4.07013">
        <ele>129</ele>
        <time>2020-09-20T10:17:04Z</time>
      </trkpt>
      <trkpt lat="49.22769" lon="4.07021">
        <ele>130</ele>
        <time>2020-09-20T10:17:05Z</time>
      </trkpt>
      <trkpt lat="49.22768" lon="4.07028">
        <ele>130</ele>
        <time>2020-09-20T10:17:06Z</time>
      </trkpt>
      <trkpt lat="49.22768" lon="4.07036">
        <ele>130</ele>
        <time>2020-09-20T10:17:07Z</time>
      </trkpt>
      <trkpt lat="49.22767" lon="4.07043">
        <ele>130</ele>
        <time>2020-09-20T10:17:08Z</time>
      </trkpt>
      <trkpt lat="49.22767" lon="4.0705">
        <ele>131</ele>
        <time>2020-09-20T10:17:09Z</time>
      </trkpt>
      <trkpt lat="49.22766" lon="4.07056">
        <ele>130</ele>
        <time>2020-09-20T10:17:10Z</time>
      </trkpt>
      <trkpt lat="49.22764" lon="4.07064">
        <ele>130</ele>
        <time>2020-09-20T10:17:11Z</time>
      </trkpt>
      <trkpt lat="49.22761" lon="4.07071">
        <ele>131</ele>
        <time>2020-09-20T10:17:12Z</time>
      </trkpt>
      <trkpt lat="49.22758" lon="4.07077">
        <ele>130</ele>
        <time>2020-09-20T10:17:13Z</time>
      </trkpt>
      <trkpt lat="49.22755" lon="4.07083">
        <ele>130</ele>
        <time>2020-09-20T10:17:14Z</time>
      </trkpt>
      <trkpt lat="49.22753" lon="4.0709">
        <ele>130</ele>
        <time>2020-09-20T10:17:15Z</time>
      </trkpt>
      <trkpt lat="49.2275" lon="4.07097">
        <ele>130</ele>
        <time>2020-09-20T10:17:16Z</time>
      </trkpt>
      <trkpt lat="49.22748" lon="4.07105">
        <ele>130</ele>
        <time>2020-09-20T10:17:17Z</time>
      </trkpt>
      <trkpt lat="49.22746" lon="4.07113">
        <ele>130</ele>
        <time>2020-09-20T10:17:18Z</time>
      </trkpt>
      <trkpt lat="49.22745" lon="4.0712">
        <ele>129</ele>
        <time>2020-09-20T10:17:19Z</time>
      </trkpt>
      <trkpt lat="49.22743" lon="4.07129">
        <ele>129</ele>
        <time>2020-09-20T10:17:20Z</time>
      </trkpt>
      <trkpt lat="49.22741" lon="4.07137">
        <ele>129</ele>
        <time>2020-09-20T10:17:21Z</time>
      </trkpt>
      <trkpt lat="49.2274" lon="4.07145">
        <ele>129</ele>
        <time>2020-09-20T10:17:22Z</time>
      </trkpt>
      <trkpt lat="49.22738" lon="4.07153">
        <ele>129</ele>
        <time>2020-09-20T10:17:23Z</time>
      </trkpt>
      <trkpt lat="49.22736" lon="4.0716">
        <ele>130</ele>
        <time>2020-09-20T10:17:24Z</time>
      </trkpt>
      <trkpt lat="49.22734" lon="4.07168">
        <ele>130</ele>
        <time>2020-09-20T10:17:25Z</time>
      </trkpt>
      <trkpt lat="49.22732" lon="4.07176">
        <ele>130</ele>
        <time>2020-09-20T10:17:26Z</time>
      </trkpt>
      <trkpt lat="49.22731" lon="4.07184">
        <ele>130</ele>
        <time>2020-09-20T10:17:27Z</time>
      </trkpt>
      <trkpt lat="49.22729" lon="4.07192">
        <ele>130</ele>
        <time>2020-09-20T10:17:28Z</time>
      </trkpt>
      <trkpt lat="49.22727" lon="4.072">
        <ele>130</ele>
        <time>2020-09-20T10:17:29Z</time>
      </trkpt>
      <trkpt lat="49.22726" lon="4.07207">
        <ele>130</ele>
        <time>2020-09-20T10:17:30Z</time>
      </trkpt>
      <trkpt lat="49.22724" lon="4.07215">
        <ele>130</ele>
        <time>2020-09-20T10:17:31Z</time>
      </trkpt>
      <trkpt lat="49.22723" lon="4.07223">
        <ele>130</ele>
        <time>2020-09-20T10:17:32Z</time>
      </trkpt>
      <trkpt lat="49.22721" lon="4.07231">
        <ele>130</ele>
        <time>2020-09-20T10:17:33Z</time>
      </trkpt>
      <trkpt lat="49.22719" lon="4.0724">
        <ele>130</ele>
        <time>2020-09-20T10:17:34Z</time>
      </trkpt>
      <trkpt lat="49.22718" lon="4.07248">
        <ele>130</ele>
        <time>2020-09-20T10:17:35Z</time>
      </trkpt>
      <trkpt lat="49.22717" lon="4.07256">
        <ele>130</ele>
        <time>2020-09-20T10:17:36Z</time>
      </trkpt>
      <trkpt lat="49.22715" lon="4.07264">
        <ele>130</ele>
        <time>2020-09-20T10:17:37Z</time>
      </trkpt>
      <trkpt lat="49.22714" lon="4.07272">
        <ele>130</ele>
        <time>2020-09-20T10:17:38Z</time>
      </trkpt>
      <trkpt lat="49.22712" lon="4.0728">
        <ele>130</ele>
        <time>2020-09-20T10:17:39Z</time>
      </trkpt>
      <trkpt lat="49.2271" lon="4.07289">
        <ele>130</ele>
        <time>2020-09-20T10:17:40Z</time>
      </trkpt>
      <trkpt lat="49.22709" lon="4.07297">
        <ele>130</ele>
        <time>2020-09-20T10:17:41Z</time>
      </trkpt>
      <trkpt lat="49.22707" lon="4.07304">
        <ele>130</ele>
        <time>2020-09-20T10:17:42Z</time>
      </trkpt>
      <trkpt lat="49.22706" lon="4.07313">
        <ele>130</ele>
        <time>2020-09-20T10:17:43Z</time>
      </trkpt>
      <trkpt lat="49.22704" lon="4.07321">
        <ele>130</ele>
        <time>2020-09-20T10:17:44Z</time>
      </trkpt>
      <trkpt lat="49.22702" lon="4.07329">
        <ele>130</ele>
        <time>2020-09-20T10:17:45Z</time>
      </trkpt>
      <trkpt lat="49.22701" lon="4.07337">
        <ele>130</ele>
        <time>2020-09-20T10:17:46Z</time>
      </trkpt>
      <trkpt lat="49.22699" lon="4.07345">
        <ele>130</ele>
        <time>2020-09-20T10:17:47Z</time>
      </trkpt>
      <trkpt lat="49.22697" lon="4.07353">
        <ele>130</ele>
        <time>2020-09-20T10:17:48Z</time>
      </trkpt>
      <trkpt lat="49.22696" lon="4.07361">
        <ele>130</ele>
        <time>2020-09-20T10:17:49Z</time>
      </trkpt>
      <trkpt lat="49.22694" lon="4.07369">
        <ele>130</ele>
        <time>2020-09-20T10:17:50Z</time>
      </trkpt>
      <trkpt lat="49.22692" lon="4.07377">
        <ele>130</ele>
        <time>2020-09-20T10:17:51Z</time>
      </trkpt>
      <trkpt lat="49.22691" lon="4.07385">
        <ele>130</ele>
        <time>2020-09-20T10:17:52Z</time>
      </trkpt>
      <trkpt lat="49.2269" lon="4.07393">
        <ele>130</ele>
        <time>2020-09-20T10:17:53Z</time>
      </trkpt>
      <trkpt lat="49.22689" lon="4.07401">
        <ele>130</ele>
        <time>2020-09-20T10:17:54Z</time>
      </trkpt>
      <trkpt lat="49.22687" lon="4.0741">
        <ele>130</ele>
        <time>2020-09-20T10:17:55Z</time>
      </trkpt>
      <trkpt lat="49.22686" lon="4.07418">
        <ele>131</ele>
        <time>2020-09-20T10:17:56Z</time>
      </trkpt>
      <trkpt lat="49.22685" lon="4.07426">
        <ele>131</ele>
        <time>2020-09-20T10:17:57Z</time>
      </trkpt>
      <trkpt lat="49.22683" lon="4.07434">
        <ele>131</ele>
        <time>2020-09-20T10:17:58Z</time>
      </trkpt>
      <trkpt lat="49.22682" lon="4.07442">
        <ele>131</ele>
        <time>2020-09-20T10:17:59Z</time>
      </trkpt>
      <trkpt lat="49.2268" lon="4.0745">
        <ele>131</ele>
        <time>2020-09-20T10:18:00Z</time>
      </trkpt>
      <trkpt lat="49.22678" lon="4.07458">
        <ele>131</ele>
        <time>2020-09-20T10:18:01Z</time>
      </trkpt>
      <trkpt lat="49.22676" lon="4.07465">
        <ele>131</ele>
        <time>2020-09-20T10:18:02Z</time>
      </trkpt>
      <trkpt lat="49.22674" lon="4.07473">
        <ele>131</ele>
        <time>2020-09-20T10:18:03Z</time>
      </trkpt>
      <trkpt lat="49.22672" lon="4.07481">
        <ele>131</ele>
        <time>2020-09-20T10:18:04Z</time>
      </trkpt>
      <trkpt lat="49.22671" lon="4.07489">
        <ele>131</ele>
        <time>2020-09-20T10:18:05Z</time>
      </trkpt>
      <trkpt lat="49.2267" lon="4.07498">
        <ele>131</ele>
        <time>2020-09-20T10:18:06Z</time>
      </trkpt>
      <trkpt lat="49.22669" lon="4.07506">
        <ele>131</ele>
        <time>2020-09-20T10:18:07Z</time>
      </trkpt>
      <trkpt lat="49.22668" lon="4.07515">
        <ele>131</ele>
        <time>2020-09-20T10:18:08Z</time>
      </trkpt>
      <trkpt lat="49.22667" lon="4.07523">
        <ele>131</ele>
        <time>2020-09-20T10:18:09Z</time>
      </trkpt>
      <trkpt lat="49.22666" lon="4.07531">
        <ele>132</ele>
        <time>2020-09-20T10:18:10Z</time>
      </trkpt>
      <trkpt lat="49.22664" lon="4.07539">
        <ele>132</ele>
        <time>2020-09-20T10:18:11Z</time>
      </trkpt>
      <trkpt lat="49.22663" lon="4.07547">
        <ele>131</ele>
        <time>2020-09-20T10:18:12Z</time>
      </trkpt>
      <trkpt lat="49.22662" lon="4.07556">
        <ele>131</ele>
        <time>2020-09-20T10:18:13Z</time>
      </trkpt>
      <trkpt lat="49.22661" lon="4.07564">
        <ele>131</ele>
        <time>2020-09-20T10:18:14Z</time>
      </trkpt>
      <trkpt lat="49.22659" lon="4.07572">
        <ele>131</ele>
        <time>2020-09-20T10:18:15Z</time>
      </trkpt>
      <trkpt lat="49.22658" lon="4.0758">
        <ele>132</ele>
        <time>2020-09-20T10:18:16Z</time>
      </trkpt>
      <trkpt lat="49.22656" lon="4.07587">
        <ele>132</ele>
        <time>2020-09-20T10:18:17Z</time>
      </trkpt>
      <trkpt lat="49.22654" lon="4.07595">
        <ele>132</ele>
        <time>2020-09-20T10:18:18Z</time>
      </trkpt>
      <trkpt lat="49.22652" lon="4.07604">
        <ele>133</ele>
        <time>2020-09-20T10:18:19Z</time>
      </trkpt>
      <trkpt lat="49.22649" lon="4.07612">
        <ele>133</ele>
        <time>2020-09-20T10:18:20Z</time>
      </trkpt>
      <trkpt lat="49.22647" lon="4.0762">
        <ele>133</ele>
        <time>2020-09-20T10:18:21Z</time>
      </trkpt>
      <trkpt lat="49.22645" lon="4.07628">
        <ele>133</ele>
        <time>2020-09-20T10:18:22Z</time>
      </trkpt>
      <trkpt lat="49.22643" lon="4.07636">
        <ele>133</ele>
        <time>2020-09-20T10:18:23Z</time>
      </trkpt>
      <trkpt lat="49.2264" lon="4.07644">
        <ele>133</ele>
        <time>2020-09-20T10:18:24Z</time>
      </trkpt>
      <trkpt lat="49.22638" lon="4.07652">
        <ele>133</ele>
        <time>2020-09-20T10:18:25Z</time>
      </trkpt>
      <trkpt lat="49.22636" lon="4.0766">
        <ele>133</ele>
        <time>2020-09-20T10:18:26Z</time>
      </trkpt>
      <trkpt lat="49.22634" lon="4.07668">
        <ele>133</ele>
        <time>2020-09-20T10:18:27Z</time>
      </trkpt>
      <trkpt lat="49.22632" lon="4.07675">
        <ele>133</ele>
        <time>2020-09-20T10:18:28Z</time>
      </trkpt>
      <trkpt lat="49.22631" lon="4.07683">
        <ele>133</ele>
        <time>2020-09-20T10:18:29Z</time>
      </trkpt>
      <trkpt lat="49.22629" lon="4.07691">
        <ele>133</ele>
        <time>2020-09-20T10:18:30Z</time>
      </trkpt>
      <trkpt lat="49.22627" lon="4.07698">
        <ele>132</ele>
        <time>2020-09-20T10:18:31Z</time>
      </trkpt>
      <trkpt lat="49.22626" lon="4.07705">
        <ele>132</ele>
        <time>2020-09-20T10:18:32Z</time>
      </trkpt>
      <trkpt lat="49.22624" lon="4.07713">
        <ele>132</ele>
        <time>2020-09-20T10:18:33Z</time>
      </trkpt>
      <trkpt lat="49.22622" lon="4.07721">
        <ele>131</ele>
        <time>2020-09-20T10:18:34Z</time>
      </trkpt>
      <trkpt lat="49.2262" lon="4.07729">
        <ele>131</ele>
        <time>2020-09-20T10:18:35Z</time>
      </trkpt>
      <trkpt lat="49.22618" lon="4.07736">
        <ele>131</ele>
        <time>2020-09-20T10:18:36Z</time>
      </trkpt>
      <trkpt lat="49.22616" lon="4.07744">
        <ele>131</ele>
        <time>2020-09-20T10:18:37Z</time>
      </trkpt>
      <trkpt lat="49.22615" lon="4.07752">
        <ele>130</ele>
        <time>2020-09-20T10:18:38Z</time>
      </trkpt>
      <trkpt lat="49.22613" lon="4.0776">
        <ele>129</ele>
        <time>2020-09-20T10:18:39Z</time>
      </trkpt>
      <trkpt lat="49.22612" lon="4.07768">
        <ele>129</ele>
        <time>2020-09-20T10:18:40Z</time>
      </trkpt>
      <trkpt lat="49.2261" lon="4.07776">
        <ele>128</ele>
        <time>2020-09-20T10:18:41Z</time>
      </trkpt>
      <trkpt lat="49.22609" lon="4.07784">
        <ele>128</ele>
        <time>2020-09-20T10:18:42Z</time>
      </trkpt>
      <trkpt lat="49.22607" lon="4.07792">
        <ele>128</ele>
        <time>2020-09-20T10:18:43Z</time>
      </trkpt>
      <trkpt lat="49.22605" lon="4.078">
        <ele>128</ele>
        <time>2020-09-20T10:18:44Z</time>
      </trkpt>
      <trkpt lat="49.22603" lon="4.07808">
        <ele>128</ele>
        <time>2020-09-20T10:18:45Z</time>
      </trkpt>
      <trkpt lat="49.22602" lon="4.07815">
        <ele>129</ele>
        <time>2020-09-20T10:18:46Z</time>
      </trkpt>
      <trkpt lat="49.226" lon="4.07824">
        <ele>128</ele>
        <time>2020-09-20T10:18:47Z</time>
      </trkpt>
      <trkpt lat="49.22598" lon="4.07832">
        <ele>129</ele>
        <time>2020-09-20T10:18:48Z</time>
      </trkpt>
      <trkpt lat="49.22597" lon="4.07839">
        <ele>128</ele>
        <time>2020-09-20T10:18:49Z</time>
      </trkpt>
      <trkpt lat="49.22595" lon="4.07847">
        <ele>128</ele>
        <time>2020-09-20T10:18:50Z</time>
      </trkpt>
      <trkpt lat="49.22594" lon="4.07855">
        <ele>128</ele>
        <time>2020-09-20T10:18:51Z</time>
      </trkpt>
      <trkpt lat="49.22592" lon="4.07863">
        <ele>128</ele>
        <time>2020-09-20T10:18:52Z</time>
      </trkpt>
      <trkpt lat="49.22591" lon="4.07871">
        <ele>128</ele>
        <time>2020-09-20T10:18:53Z</time>
      </trkpt>
      <trkpt lat="49.22589" lon="4.07879">
        <ele>128</ele>
        <time>2020-09-20T10:18:54Z</time>
      </trkpt>
      <trkpt lat="49.22586" lon="4.07894">
        <ele>128</ele>
        <time>2020-09-20T10:18:56Z</time>
      </trkpt>
      <trkpt lat="49.22584" lon="4.07902">
        <ele>128</ele>
        <time>2020-09-20T10:18:57Z</time>
      </trkpt>
      <trkpt lat="49.22583" lon="4.07909">
        <ele>128</ele>
        <time>2020-09-20T10:18:58Z</time>
      </trkpt>
      <trkpt lat="49.22581" lon="4.07917">
        <ele>128</ele>
        <time>2020-09-20T10:18:59Z</time>
      </trkpt>
      <trkpt lat="49.2258" lon="4.07924">
        <ele>128</ele>
        <time>2020-09-20T10:19:00Z</time>
      </trkpt>
      <trkpt lat="49.22579" lon="4.07931">
        <ele>128</ele>
        <time>2020-09-20T10:19:01Z</time>
      </trkpt>
      <trkpt lat="49.22577" lon="4.07939">
        <ele>128</ele>
        <time>2020-09-20T10:19:02Z</time>
      </trkpt>
      <trkpt lat="49.22575" lon="4.07947">
        <ele>128</ele>
        <time>2020-09-20T10:19:03Z</time>
      </trkpt>
      <trkpt lat="49.22574" lon="4.07954">
        <ele>129</ele>
        <time>2020-09-20T10:19:04Z</time>
      </trkpt>
      <trkpt lat="49.22573" lon="4.07961">
        <ele>129</ele>
        <time>2020-09-20T10:19:05Z</time>
      </trkpt>
      <trkpt lat="49.22572" lon="4.07968">
        <ele>129</ele>
        <time>2020-09-20T10:19:06Z</time>
      </trkpt>
      <trkpt lat="49.2257" lon="4.07976">
        <ele>129</ele>
        <time>2020-09-20T10:19:07Z</time>
      </trkpt>
      <trkpt lat="49.22568" lon="4.07984">
        <ele>129</ele>
        <time>2020-09-20T10:19:08Z</time>
      </trkpt>
      <trkpt lat="49.22566" lon="4.07992">
        <ele>129</ele>
        <time>2020-09-20T10:19:09Z</time>
      </trkpt>
      <trkpt lat="49.22565" lon="4.08">
        <ele>129</ele>
        <time>2020-09-20T10:19:10Z</time>
      </trkpt>
      <trkpt lat="49.22564" lon="4.08008">
        <ele>129</ele>
        <time>2020-09-20T10:19:11Z</time>
      </trkpt>
      <trkpt lat="49.22562" lon="4.08016">
        <ele>129</ele>
        <time>2020-09-20T10:19:12Z</time>
      </trkpt>
      <trkpt lat="49.2256" lon="4.08024">
        <ele>129</ele>
        <time>2020-09-20T10:19:13Z</time>
      </trkpt>
      <trkpt lat="49.22558" lon="4.08031">
        <ele>129</ele>
        <time>2020-09-20T10:19:14Z</time>
      </trkpt>
      <trkpt lat="49.22557" lon="4.08039">
        <ele>129</ele>
        <time>2020-09-20T10:19:15Z</time>
      </trkpt>
      <trkpt lat="49.22556" lon="4.08047">
        <ele>129</ele>
        <time>2020-09-20T10:19:16Z</time>
      </trkpt>
      <trkpt lat="49.22554" lon="4.08055">
        <ele>129</ele>
        <time>2020-09-20T10:19:17Z</time>
      </trkpt>
      <trkpt lat="49.22553" lon="4.08062">
        <ele>129</ele>
        <time>2020-09-20T10:19:18Z</time>
      </trkpt>
      <trkpt lat="49.22551" lon="4.0807">
        <ele>129</ele>
        <time>2020-09-20T10:19:19Z</time>
      </trkpt>
      <trkpt lat="49.2255" lon="4.08078">
        <ele>129</ele>
        <time>2020-09-20T10:19:20Z</time>
      </trkpt>
      <trkpt lat="49.22548" lon="4.08085">
        <ele>129</ele>
        <time>2020-09-20T10:19:21Z</time>
      </trkpt>
      <trkpt lat="49.22546" lon="4.08093">
        <ele>129</ele>
        <time>2020-09-20T10:19:22Z</time>
      </trkpt>
      <trkpt lat="49.22544" lon="4.08101">
        <ele>129</ele>
        <time>2020-09-20T10:19:23Z</time>
      </trkpt>
      <trkpt lat="49.22543" lon="4.08109">
        <ele>129</ele>
        <time>2020-09-20T10:19:24Z</time>
      </trkpt>
      <trkpt lat="49.22542" lon="4.08117">
        <ele>129</ele>
        <time>2020-09-20T10:19:25Z</time>
      </trkpt>
      <trkpt lat="49.2254" lon="4.08124">
        <ele>129</ele>
        <time>2020-09-20T10:19:26Z</time>
      </trkpt>
      <trkpt lat="49.22539" lon="4.08132">
        <ele>130</ele>
        <time>2020-09-20T10:19:27Z</time>
      </trkpt>
      <trkpt lat="49.22538" lon="4.08139">
        <ele>130</ele>
        <time>2020-09-20T10:19:28Z</time>
      </trkpt>
      <trkpt lat="49.22536" lon="4.08146">
        <ele>130</ele>
        <time>2020-09-20T10:19:29Z</time>
      </trkpt>
      <trkpt lat="49.22535" lon="4.08153">
        <ele>130</ele>
        <time>2020-09-20T10:19:30Z</time>
      </trkpt>
      <trkpt lat="49.22533" lon="4.08161">
        <ele>130</ele>
        <time>2020-09-20T10:19:31Z</time>
      </trkpt>
      <trkpt lat="49.22531" lon="4.08169">
        <ele>130</ele>
        <time>2020-09-20T10:19:32Z</time>
      </trkpt>
      <trkpt lat="49.22529" lon="4.08176">
        <ele>131</ele>
        <time>2020-09-20T10:19:33Z</time>
      </trkpt>
      <trkpt lat="49.22528" lon="4.08183">
        <ele>130</ele>
        <time>2020-09-20T10:19:34Z</time>
      </trkpt>
      <trkpt lat="49.22526" lon="4.0819">
        <ele>130</ele>
        <time>2020-09-20T10:19:35Z</time>
      </trkpt>
      <trkpt lat="49.22525" lon="4.08197">
        <ele>130</ele>
        <time>2020-09-20T10:19:36Z</time>
      </trkpt>
      <trkpt lat="49.22523" lon="4.08205">
        <ele>130</ele>
        <time>2020-09-20T10:19:37Z</time>
      </trkpt>
      <trkpt lat="49.22522" lon="4.08212">
        <ele>130</ele>
        <time>2020-09-20T10:19:38Z</time>
      </trkpt>
      <trkpt lat="49.22521" lon="4.0822">
        <ele>129</ele>
        <time>2020-09-20T10:19:39Z</time>
      </trkpt>
      <trkpt lat="49.22519" lon="4.08227">
        <ele>129</ele>
        <time>2020-09-20T10:19:40Z</time>
      </trkpt>
      <trkpt lat="49.22518" lon="4.08234">
        <ele>129</ele>
        <time>2020-09-20T10:19:41Z</time>
      </trkpt>
      <trkpt lat="49.22516" lon="4.08242">
        <ele>129</ele>
        <time>2020-09-20T10:19:42Z</time>
      </trkpt>
      <trkpt lat="49.22514" lon="4.0825">
        <ele>128</ele>
        <time>2020-09-20T10:19:43Z</time>
      </trkpt>
      <trkpt lat="49.22512" lon="4.08257">
        <ele>128</ele>
        <time>2020-09-20T10:19:44Z</time>
      </trkpt>
      <trkpt lat="49.22511" lon="4.08265">
        <ele>128</ele>
        <time>2020-09-20T10:19:45Z</time>
      </trkpt>
      <trkpt lat="49.22509" lon="4.08272">
        <ele>128</ele>
        <time>2020-09-20T10:19:46Z</time>
      </trkpt>
      <trkpt lat="49.22508" lon="4.0828">
        <ele>128</ele>
        <time>2020-09-20T10:19:47Z</time>
      </trkpt>
      <trkpt lat="49.22505" lon="4.08288">
        <ele>129</ele>
        <time>2020-09-20T10:19:48Z</time>
      </trkpt>
      <trkpt lat="49.22504" lon="4.08295">
        <ele>128</ele>
        <time>2020-09-20T10:19:49Z</time>
      </trkpt>
      <trkpt lat="49.22502" lon="4.08303">
        <ele>128</ele>
        <time>2020-09-20T10:19:50Z</time>
      </trkpt>
      <trkpt lat="49.22501" lon="4.0831">
        <ele>128</ele>
        <time>2020-09-20T10:19:51Z</time>
      </trkpt>
      <trkpt lat="49.225" lon="4.08318">
        <ele>128</ele>
        <time>2020-09-20T10:19:52Z</time>
      </trkpt>
      <trkpt lat="49.22498" lon="4.08326">
        <ele>128</ele>
        <time>2020-09-20T10:19:53Z</time>
      </trkpt>
      <trkpt lat="49.22497" lon="4.08333">
        <ele>128</ele>
        <time>2020-09-20T10:19:54Z</time>
      </trkpt>
      <trkpt lat="49.22495" lon="4.08341">
        <ele>128</ele>
        <time>2020-09-20T10:19:55Z</time>
      </trkpt>
      <trkpt lat="49.22494" lon="4.08348">
        <ele>128</ele>
        <time>2020-09-20T10:19:56Z</time>
      </trkpt>
      <trkpt lat="49.22493" lon="4.08355">
        <ele>127</ele>
        <time>2020-09-20T10:19:57Z</time>
      </trkpt>
      <trkpt lat="49.22491" lon="4.08363">
        <ele>127</ele>
        <time>2020-09-20T10:19:58Z</time>
      </trkpt>
      <trkpt lat="49.2249" lon="4.0837">
        <ele>128</ele>
        <time>2020-09-20T10:19:59Z</time>
      </trkpt>
      <trkpt lat="49.22488" lon="4.08377">
        <ele>128</ele>
        <time>2020-09-20T10:20:00Z</time>
      </trkpt>
      <trkpt lat="49.22487" lon="4.08384">
        <ele>128</ele>
        <time>2020-09-20T10:20:01Z</time>
      </trkpt>
      <trkpt lat="49.22486" lon="4.08392">
        <ele>128</ele>
        <time>2020-09-20T10:20:02Z</time>
      </trkpt>
      <trkpt lat="49.22484" lon="4.084">
        <ele>128</ele>
        <time>2020-09-20T10:20:03Z</time>
      </trkpt>
      <trkpt lat="49.22483" lon="4.08408">
        <ele>128</ele>
        <time>2020-09-20T10:20:04Z</time>
      </trkpt>
      <trkpt lat="49.22481" lon="4.08415">
        <ele>128</ele>
        <time>2020-09-20T10:20:05Z</time>
      </trkpt>
      <trkpt lat="49.2248" lon="4.08423">
        <ele>128</ele>
        <time>2020-09-20T10:20:06Z</time>
      </trkpt>
      <trkpt lat="49.22478" lon="4.08431">
        <ele>128</ele>
        <time>2020-09-20T10:20:07Z</time>
      </trkpt>
      <trkpt lat="49.22476" lon="4.08439">
        <ele>128</ele>
        <time>2020-09-20T10:20:08Z</time>
      </trkpt>
      <trkpt lat="49.22475" lon="4.08447">
        <ele>129</ele>
        <time>2020-09-20T10:20:09Z</time>
      </trkpt>
      <trkpt lat="49.22474" lon="4.08455">
        <ele>129</ele>
        <time>2020-09-20T10:20:10Z</time>
      </trkpt>
      <trkpt lat="49.22472" lon="4.08463">
        <ele>129</ele>
        <time>2020-09-20T10:20:11Z</time>
      </trkpt>
      <trkpt lat="49.22471" lon="4.08471">
        <ele>129</ele>
        <time>2020-09-20T10:20:12Z</time>
      </trkpt>
      <trkpt lat="49.22469" lon="4.08479">
        <ele>128</ele>
        <time>2020-09-20T10:20:13Z</time>
      </trkpt>
      <trkpt lat="49.22468" lon="4.08486">
        <ele>128</ele>
        <time>2020-09-20T10:20:14Z</time>
      </trkpt>
      <trkpt lat="49.22466" lon="4.08493">
        <ele>128</ele>
        <time>2020-09-20T10:20:15Z</time>
      </trkpt>
      <trkpt lat="49.22464" lon="4.08501">
        <ele>128</ele>
        <time>2020-09-20T10:20:16Z</time>
      </trkpt>
      <trkpt lat="49.22463" lon="4.08509">
        <ele>128</ele>
        <time>2020-09-20T10:20:17Z</time>
      </trkpt>
      <trkpt lat="49.22461" lon="4.08517">
        <ele>128</ele>
        <time>2020-09-20T10:20:18Z</time>
      </trkpt>
      <trkpt lat="49.2246" lon="4.08524">
        <ele>128</ele>
        <time>2020-09-20T10:20:19Z</time>
      </trkpt>
      <trkpt lat="49.22459" lon="4.08532">
        <ele>128</ele>
        <time>2020-09-20T10:20:20Z</time>
      </trkpt>
      <trkpt lat="49.22457" lon="4.08541">
        <ele>128</ele>
        <time>2020-09-20T10:20:21Z</time>
      </trkpt>
      <trkpt lat="49.22455" lon="4.08548">
        <ele>127</ele>
        <time>2020-09-20T10:20:22Z</time>
      </trkpt>
      <trkpt lat="49.22453" lon="4.08556">
        <ele>127</ele>
        <time>2020-09-20T10:20:23Z</time>
      </trkpt>
      <trkpt lat="49.2245" lon="4.08564">
        <ele>128</ele>
        <time>2020-09-20T10:20:24Z</time>
      </trkpt>
      <trkpt lat="49.22448" lon="4.08572">
        <ele>127</ele>
        <time>2020-09-20T10:20:25Z</time>
      </trkpt>
      <trkpt lat="49.22447" lon="4.0858">
        <ele>127</ele>
        <time>2020-09-20T10:20:26Z</time>
      </trkpt>
      <trkpt lat="49.22445" lon="4.08589">
        <ele>127</ele>
        <time>2020-09-20T10:20:27Z</time>
      </trkpt>
      <trkpt lat="49.22443" lon="4.08597">
        <ele>127</ele>
        <time>2020-09-20T10:20:28Z</time>
      </trkpt>
      <trkpt lat="49.22442" lon="4.08605">
        <ele>127</ele>
        <time>2020-09-20T10:20:29Z</time>
      </trkpt>
      <trkpt lat="49.2244" lon="4.08614">
        <ele>127</ele>
        <time>2020-09-20T10:20:30Z</time>
      </trkpt>
      <trkpt lat="49.22438" lon="4.08622">
        <ele>127</ele>
        <time>2020-09-20T10:20:31Z</time>
      </trkpt>
      <trkpt lat="49.22437" lon="4.08631">
        <ele>128</ele>
        <time>2020-09-20T10:20:32Z</time>
      </trkpt>
      <trkpt lat="49.22435" lon="4.08639">
        <ele>128</ele>
        <time>2020-09-20T10:20:33Z</time>
      </trkpt>
      <trkpt lat="49.22433" lon="4.08647">
        <ele>128</ele>
        <time>2020-09-20T10:20:34Z</time>
      </trkpt>
      <trkpt lat="49.22431" lon="4.08655">
        <ele>128</ele>
        <time>2020-09-20T10:20:35Z</time>
      </trkpt>
      <trkpt lat="49.22429" lon="4.08663">
        <ele>128</ele>
        <time>2020-09-20T10:20:36Z</time>
      </trkpt>
      <trkpt lat="49.22428" lon="4.08671">
        <ele>128</ele>
        <time>2020-09-20T10:20:37Z</time>
      </trkpt>
      <trkpt lat="49.22426" lon="4.08678">
        <ele>128</ele>
        <time>2020-09-20T10:20:38Z</time>
      </trkpt>
      <trkpt lat="49.22425" lon="4.08686">
        <ele>128</ele>
        <time>2020-09-20T10:20:39Z</time>
      </trkpt>
      <trkpt lat="49.22423" lon="4.08693">
        <ele>127</ele>
        <time>2020-09-20T10:20:40Z</time>
      </trkpt>
      <trkpt lat="49.22421" lon="4.08701">
        <ele>127</ele>
        <time>2020-09-20T10:20:41Z</time>
      </trkpt>
      <trkpt lat="49.2242" lon="4.08709">
        <ele>127</ele>
        <time>2020-09-20T10:20:42Z</time>
      </trkpt>
      <trkpt lat="49.22418" lon="4.08717">
        <ele>127</ele>
        <time>2020-09-20T10:20:43Z</time>
      </trkpt>
      <trkpt lat="49.22416" lon="4.08725">
        <ele>127</ele>
        <time>2020-09-20T10:20:44Z</time>
      </trkpt>
      <trkpt lat="49.22414" lon="4.08733">
        <ele>128</ele>
        <time>2020-09-20T10:20:45Z</time>
      </trkpt>
      <trkpt lat="49.22412" lon="4.08741">
        <ele>127</ele>
        <time>2020-09-20T10:20:46Z</time>
      </trkpt>
      <trkpt lat="49.22411" lon="4.0875">
        <ele>127</ele>
        <time>2020-09-20T10:20:47Z</time>
      </trkpt>
      <trkpt lat="49.2241" lon="4.08757">
        <ele>127</ele>
        <time>2020-09-20T10:20:48Z</time>
      </trkpt>
      <trkpt lat="49.22408" lon="4.08765">
        <ele>127</ele>
        <time>2020-09-20T10:20:49Z</time>
      </trkpt>
      <trkpt lat="49.22406" lon="4.08773">
        <ele>127</ele>
        <time>2020-09-20T10:20:50Z</time>
      </trkpt>
      <trkpt lat="49.22405" lon="4.08781">
        <ele>127</ele>
        <time>2020-09-20T10:20:51Z</time>
      </trkpt>
      <trkpt lat="49.22403" lon="4.08789">
        <ele>127</ele>
        <time>2020-09-20T10:20:52Z</time>
      </trkpt>
      <trkpt lat="49.22402" lon="4.08797">
        <ele>127</ele>
        <time>2020-09-20T10:20:53Z</time>
      </trkpt>
      <trkpt lat="49.224" lon="4.08804">
        <ele>127</ele>
        <time>2020-09-20T10:20:54Z</time>
      </trkpt>
      <trkpt lat="49.22399" lon="4.08812">
        <ele>127</ele>
        <time>2020-09-20T10:20:55Z</time>
      </trkpt>
      <trkpt lat="49.22397" lon="4.0882">
        <ele>126</ele>
        <time>2020-09-20T10:20:56Z</time>
      </trkpt>
      <trkpt lat="49.22395" lon="4.08828">
        <ele>126</ele>
        <time>2020-09-20T10:20:57Z</time>
      </trkpt>
      <trkpt lat="49.22393" lon="4.08836">
        <ele>126</ele>
        <time>2020-09-20T10:20:58Z</time>
      </trkpt>
      <trkpt lat="49.22391" lon="4.08843">
        <ele>127</ele>
        <time>2020-09-20T10:20:59Z</time>
      </trkpt>
      <trkpt lat="49.2239" lon="4.08851">
        <ele>127</ele>
        <time>2020-09-20T10:21:00Z</time>
      </trkpt>
      <trkpt lat="49.22388" lon="4.08857">
        <ele>127</ele>
        <time>2020-09-20T10:21:01Z</time>
      </trkpt>
      <trkpt lat="49.22387" lon="4.08864">
        <ele>127</ele>
        <time>2020-09-20T10:21:02Z</time>
      </trkpt>
      <trkpt lat="49.22386" lon="4.08872">
        <ele>127</ele>
        <time>2020-09-20T10:21:03Z</time>
      </trkpt>
      <trkpt lat="49.22384" lon="4.08879">
        <ele>127</ele>
        <time>2020-09-20T10:21:04Z</time>
      </trkpt>
      <trkpt lat="49.22383" lon="4.08887">
        <ele>127</ele>
        <time>2020-09-20T10:21:05Z</time>
      </trkpt>
      <trkpt lat="49.22381" lon="4.08895">
        <ele>127</ele>
        <time>2020-09-20T10:21:06Z</time>
      </trkpt>
      <trkpt lat="49.2238" lon="4.08903">
        <ele>128</ele>
        <time>2020-09-20T10:21:07Z</time>
      </trkpt>
      <trkpt lat="49.22378" lon="4.08911">
        <ele>128</ele>
        <time>2020-09-20T10:21:08Z</time>
      </trkpt>
      <trkpt lat="49.22377" lon="4.0892">
        <ele>128</ele>
        <time>2020-09-20T10:21:09Z</time>
      </trkpt>
      <trkpt lat="49.22376" lon="4.08927">
        <ele>128</ele>
        <time>2020-09-20T10:21:10Z</time>
      </trkpt>
      <trkpt lat="49.22374" lon="4.08935">
        <ele>128</ele>
        <time>2020-09-20T10:21:11Z</time>
      </trkpt>
      <trkpt lat="49.22373" lon="4.08943">
        <ele>128</ele>
        <time>2020-09-20T10:21:12Z</time>
      </trkpt>
      <trkpt lat="49.22371" lon="4.0895">
        <ele>128</ele>
        <time>2020-09-20T10:21:13Z</time>
      </trkpt>
      <trkpt lat="49.22369" lon="4.08958">
        <ele>128</ele>
        <time>2020-09-20T10:21:14Z</time>
      </trkpt>
      <trkpt lat="49.22368" lon="4.08965">
        <ele>128</ele>
        <time>2020-09-20T10:21:15Z</time>
      </trkpt>
      <trkpt lat="49.22366" lon="4.08973">
        <ele>128</ele>
        <time>2020-09-20T10:21:16Z</time>
      </trkpt>
      <trkpt lat="49.22365" lon="4.0898">
        <ele>128</ele>
        <time>2020-09-20T10:21:17Z</time>
      </trkpt>
      <trkpt lat="49.22363" lon="4.08988">
        <ele>128</ele>
        <time>2020-09-20T10:21:18Z</time>
      </trkpt>
      <trkpt lat="49.22362" lon="4.08995">
        <ele>128</ele>
        <time>2020-09-20T10:21:19Z</time>
      </trkpt>
      <trkpt lat="49.2236" lon="4.09002">
        <ele>128</ele>
        <time>2020-09-20T10:21:20Z</time>
      </trkpt>
      <trkpt lat="49.22359" lon="4.09009">
        <ele>128</ele>
        <time>2020-09-20T10:21:21Z</time>
      </trkpt>
      <trkpt lat="49.22358" lon="4.09017">
        <ele>128</ele>
        <time>2020-09-20T10:21:22Z</time>
      </trkpt>
      <trkpt lat="49.22356" lon="4.09024">
        <ele>128</ele>
        <time>2020-09-20T10:21:23Z</time>
      </trkpt>
      <trkpt lat="49.22354" lon="4.09032">
        <ele>128</ele>
        <time>2020-09-20T10:21:24Z</time>
      </trkpt>
      <trkpt lat="49.22353" lon="4.0904">
        <ele>128</ele>
        <time>2020-09-20T10:21:25Z</time>
      </trkpt>
      <trkpt lat="49.22351" lon="4.09047">
        <ele>128</ele>
        <time>2020-09-20T10:21:26Z</time>
      </trkpt>
      <trkpt lat="49.2235" lon="4.09054">
        <ele>128</ele>
        <time>2020-09-20T10:21:27Z</time>
      </trkpt>
      <trkpt lat="49.22348" lon="4.09062">
        <ele>128</ele>
        <time>2020-09-20T10:21:28Z</time>
      </trkpt>
      <trkpt lat="49.22346" lon="4.0907">
        <ele>128</ele>
        <time>2020-09-20T10:21:29Z</time>
      </trkpt>
      <trkpt lat="49.22345" lon="4.09077">
        <ele>128</ele>
        <time>2020-09-20T10:21:30Z</time>
      </trkpt>
      <trkpt lat="49.22344" lon="4.09084">
        <ele>128</ele>
        <time>2020-09-20T10:21:31Z</time>
      </trkpt>
      <trkpt lat="49.22342" lon="4.09091">
        <ele>128</ele>
        <time>2020-09-20T10:21:32Z</time>
      </trkpt>
      <trkpt lat="49.2234" lon="4.09099">
        <ele>128</ele>
        <time>2020-09-20T10:21:33Z</time>
      </trkpt>
      <trkpt lat="49.22339" lon="4.09106">
        <ele>129</ele>
        <time>2020-09-20T10:21:34Z</time>
      </trkpt>
      <trkpt lat="49.22338" lon="4.09114">
        <ele>129</ele>
        <time>2020-09-20T10:21:35Z</time>
      </trkpt>
      <trkpt lat="49.22336" lon="4.09121">
        <ele>129</ele>
        <time>2020-09-20T10:21:36Z</time>
      </trkpt>
      <trkpt lat="49.22334" lon="4.09129">
        <ele>129</ele>
        <time>2020-09-20T10:21:37Z</time>
      </trkpt>
      <trkpt lat="49.22333" lon="4.09136">
        <ele>128</ele>
        <time>2020-09-20T10:21:38Z</time>
      </trkpt>
      <trkpt lat="49.22331" lon="4.09143">
        <ele>128</ele>
        <time>2020-09-20T10:21:39Z</time>
      </trkpt>
      <trkpt lat="49.2233" lon="4.09151">
        <ele>128</ele>
        <time>2020-09-20T10:21:40Z</time>
      </trkpt>
      <trkpt lat="49.22328" lon="4.09158">
        <ele>128</ele>
        <time>2020-09-20T10:21:41Z</time>
      </trkpt>
      <trkpt lat="49.22327" lon="4.09165">
        <ele>128</ele>
        <time>2020-09-20T10:21:42Z</time>
      </trkpt>
      <trkpt lat="49.22325" lon="4.09173">
        <ele>128</ele>
        <time>2020-09-20T10:21:43Z</time>
      </trkpt>
      <trkpt lat="49.22323" lon="4.0918">
        <ele>128</ele>
        <time>2020-09-20T10:21:44Z</time>
      </trkpt>
      <trkpt lat="49.22322" lon="4.09187">
        <ele>128</ele>
        <time>2020-09-20T10:21:45Z</time>
      </trkpt>
      <trkpt lat="49.2232" lon="4.09194">
        <ele>128</ele>
        <time>2020-09-20T10:21:46Z</time>
      </trkpt>
      <trkpt lat="49.22319" lon="4.09202">
        <ele>128</ele>
        <time>2020-09-20T10:21:47Z</time>
      </trkpt>
      <trkpt lat="49.22317" lon="4.09209">
        <ele>128</ele>
        <time>2020-09-20T10:21:48Z</time>
      </trkpt>
      <trkpt lat="49.22316" lon="4.09217">
        <ele>128</ele>
        <time>2020-09-20T10:21:49Z</time>
      </trkpt>
      <trkpt lat="49.22314" lon="4.09225">
        <ele>129</ele>
        <time>2020-09-20T10:21:50Z</time>
      </trkpt>
      <trkpt lat="49.22313" lon="4.09232">
        <ele>129</ele>
        <time>2020-09-20T10:21:51Z</time>
      </trkpt>
      <trkpt lat="49.22311" lon="4.0924">
        <ele>128</ele>
        <time>2020-09-20T10:21:52Z</time>
      </trkpt>
      <trkpt lat="49.2231" lon="4.09247">
        <ele>128</ele>
        <time>2020-09-20T10:21:53Z</time>
      </trkpt>
      <trkpt lat="49.22308" lon="4.09255">
        <ele>128</ele>
        <time>2020-09-20T10:21:54Z</time>
      </trkpt>
      <trkpt lat="49.22306" lon="4.09262">
        <ele>128</ele>
        <time>2020-09-20T10:21:55Z</time>
      </trkpt>
      <trkpt lat="49.22305" lon="4.0927">
        <ele>129</ele>
        <time>2020-09-20T10:21:56Z</time>
      </trkpt>
      <trkpt lat="49.22304" lon="4.09277">
        <ele>129</ele>
        <time>2020-09-20T10:21:57Z</time>
      </trkpt>
      <trkpt lat="49.22302" lon="4.09285">
        <ele>128</ele>
        <time>2020-09-20T10:21:58Z</time>
      </trkpt>
      <trkpt lat="49.22301" lon="4.09292">
        <ele>129</ele>
        <time>2020-09-20T10:21:59Z</time>
      </trkpt>
      <trkpt lat="49.22299" lon="4.09299">
        <ele>129</ele>
        <time>2020-09-20T10:22:00Z</time>
      </trkpt>
      <trkpt lat="49.22298" lon="4.09306">
        <ele>129</ele>
        <time>2020-09-20T10:22:01Z</time>
      </trkpt>
      <trkpt lat="49.22296" lon="4.09313">
        <ele>129</ele>
        <time>2020-09-20T10:22:02Z</time>
      </trkpt>
      <trkpt lat="49.22295" lon="4.09321">
        <ele>129</ele>
        <time>2020-09-20T10:22:03Z</time>
      </trkpt>
      <trkpt lat="49.22294" lon="4.09328">
        <ele>129</ele>
        <time>2020-09-20T10:22:04Z</time>
      </trkpt>
      <trkpt lat="49.22292" lon="4.09335">
        <ele>129</ele>
        <time>2020-09-20T10:22:05Z</time>
      </trkpt>
      <trkpt lat="49.22291" lon="4.09342">
        <ele>129</ele>
        <time>2020-09-20T10:22:06Z</time>
      </trkpt>
      <trkpt lat="49.2229" lon="4.09349">
        <ele>129</ele>
        <time>2020-09-20T10:22:07Z</time>
      </trkpt>
      <trkpt lat="49.22288" lon="4.09355">
        <ele>129</ele>
        <time>2020-09-20T10:22:08Z</time>
      </trkpt>
      <trkpt lat="49.22287" lon="4.09362">
        <ele>129</ele>
        <time>2020-09-20T10:22:09Z</time>
      </trkpt>
      <trkpt lat="49.22286" lon="4.09368">
        <ele>128</ele>
        <time>2020-09-20T10:22:10Z</time>
      </trkpt>
      <trkpt lat="49.22284" lon="4.09375">
        <ele>129</ele>
        <time>2020-09-20T10:22:11Z</time>
      </trkpt>
      <trkpt lat="49.22282" lon="4.09382">
        <ele>129</ele>
        <time>2020-09-20T10:22:12Z</time>
      </trkpt>
      <trkpt lat="49.22281" lon="4.09389">
        <ele>129</ele>
        <time>2020-09-20T10:22:13Z</time>
      </trkpt>
      <trkpt lat="49.22279" lon="4.09396">
        <ele>129</ele>
        <time>2020-09-20T10:22:14Z</time>
      </trkpt>
      <trkpt lat="49.22277" lon="4.09402">
        <ele>128</ele>
        <time>2020-09-20T10:22:15Z</time>
      </trkpt>
      <trkpt lat="49.22276" lon="4.09409">
        <ele>129</ele>
        <time>2020-09-20T10:22:16Z</time>
      </trkpt>
      <trkpt lat="49.22275" lon="4.09416">
        <ele>128</ele>
        <time>2020-09-20T10:22:17Z</time>
      </trkpt>
      <trkpt lat="49.22273" lon="4.09423">
        <ele>128</ele>
        <time>2020-09-20T10:22:18Z</time>
      </trkpt>
      <trkpt lat="49.22272" lon="4.0943">
        <ele>128</ele>
        <time>2020-09-20T10:22:19Z</time>
      </trkpt>
      <trkpt lat="49.22271" lon="4.09437">
        <ele>129</ele>
        <time>2020-09-20T10:22:20Z</time>
      </trkpt>
      <trkpt lat="49.2227" lon="4.09444">
        <ele>129</ele>
        <time>2020-09-20T10:22:21Z</time>
      </trkpt>
      <trkpt lat="49.22268" lon="4.0945">
        <ele>129</ele>
        <time>2020-09-20T10:22:22Z</time>
      </trkpt>
      <trkpt lat="49.22267" lon="4.09458">
        <ele>129</ele>
        <time>2020-09-20T10:22:23Z</time>
      </trkpt>
      <trkpt lat="49.22266" lon="4.09464">
        <ele>129</ele>
        <time>2020-09-20T10:22:24Z</time>
      </trkpt>
      <trkpt lat="49.22265" lon="4.09472">
        <ele>129</ele>
        <time>2020-09-20T10:22:25Z</time>
      </trkpt>
      <trkpt lat="49.22264" lon="4.0948">
        <ele>130</ele>
        <time>2020-09-20T10:22:26Z</time>
      </trkpt>
      <trkpt lat="49.22263" lon="4.09486">
        <ele>130</ele>
        <time>2020-09-20T10:22:27Z</time>
      </trkpt>
      <trkpt lat="49.22262" lon="4.09493">
        <ele>130</ele>
        <time>2020-09-20T10:22:28Z</time>
      </trkpt>
      <trkpt lat="49.22261" lon="4.09498">
        <ele>131</ele>
        <time>2020-09-20T10:22:29Z</time>
      </trkpt>
      <trkpt lat="49.2226" lon="4.09505">
        <ele>130</ele>
        <time>2020-09-20T10:22:30Z</time>
      </trkpt>
      <trkpt lat="49.22259" lon="4.09512">
        <ele>130</ele>
        <time>2020-09-20T10:22:31Z</time>
      </trkpt>
      <trkpt lat="49.22257" lon="4.09519">
        <ele>130</ele>
        <time>2020-09-20T10:22:32Z</time>
      </trkpt>
      <trkpt lat="49.22255" lon="4.09525">
        <ele>130</ele>
        <time>2020-09-20T10:22:33Z</time>
      </trkpt>
      <trkpt lat="49.22253" lon="4.09531">
        <ele>130</ele>
        <time>2020-09-20T10:22:34Z</time>
      </trkpt>
      <trkpt lat="49.22251" lon="4.09538">
        <ele>129</ele>
        <time>2020-09-20T10:22:35Z</time>
      </trkpt>
      <trkpt lat="49.22249" lon="4.09545">
        <ele>129</ele>
        <time>2020-09-20T10:22:36Z</time>
      </trkpt>
      <trkpt lat="49.22247" lon="4.09551">
        <ele>128</ele>
        <time>2020-09-20T10:22:37Z</time>
      </trkpt>
      <trkpt lat="49.22245" lon="4.09558">
        <ele>128</ele>
        <time>2020-09-20T10:22:38Z</time>
      </trkpt>
      <trkpt lat="49.22243" lon="4.09564">
        <ele>128</ele>
        <time>2020-09-20T10:22:39Z</time>
      </trkpt>
      <trkpt lat="49.22241" lon="4.09572">
        <ele>128</ele>
        <time>2020-09-20T10:22:40Z</time>
      </trkpt>
      <trkpt lat="49.22239" lon="4.09579">
        <ele>128</ele>
        <time>2020-09-20T10:22:41Z</time>
      </trkpt>
      <trkpt lat="49.22237" lon="4.09586">
        <ele>128</ele>
        <time>2020-09-20T10:22:42Z</time>
      </trkpt>
      <trkpt lat="49.22236" lon="4.09594">
        <ele>128</ele>
        <time>2020-09-20T10:22:43Z</time>
      </trkpt>
      <trkpt lat="49.22234" lon="4.09602">
        <ele>128</ele>
        <time>2020-09-20T10:22:44Z</time>
      </trkpt>
      <trkpt lat="49.22232" lon="4.09609">
        <ele>128</ele>
        <time>2020-09-20T10:22:45Z</time>
      </trkpt>
      <trkpt lat="49.2223" lon="4.09617">
        <ele>128</ele>
        <time>2020-09-20T10:22:46Z</time>
      </trkpt>
      <trkpt lat="49.22228" lon="4.09624">
        <ele>128</ele>
        <time>2020-09-20T10:22:47Z</time>
      </trkpt>
      <trkpt lat="49.22226" lon="4.09632">
        <ele>128</ele>
        <time>2020-09-20T10:22:48Z</time>
      </trkpt>
      <trkpt lat="49.22223" lon="4.09639">
        <ele>128</ele>
        <time>2020-09-20T10:22:49Z</time>
      </trkpt>
      <trkpt lat="49.22221" lon="4.09646">
        <ele>128</ele>
        <time>2020-09-20T10:22:50Z</time>
      </trkpt>
      <trkpt lat="49.22219" lon="4.09653">
        <ele>128</ele>
        <time>2020-09-20T10:22:51Z</time>
      </trkpt>
      <trkpt lat="49.22217" lon="4.09659">
        <ele>128</ele>
        <time>2020-09-20T10:22:52Z</time>
      </trkpt>
      <trkpt lat="49.22215" lon="4.09665">
        <ele>128</ele>
        <time>2020-09-20T10:22:53Z</time>
      </trkpt>
      <trkpt lat="49.22212" lon="4.09671">
        <ele>128</ele>
        <time>2020-09-20T10:22:54Z</time>
      </trkpt>
      <trkpt lat="49.22211" lon="4.09678">
        <ele>128</ele>
        <time>2020-09-20T10:22:55Z</time>
      </trkpt>
      <trkpt lat="49.22208" lon="4.09685">
        <ele>128</ele>
        <time>2020-09-20T10:22:56Z</time>
      </trkpt>
      <trkpt lat="49.22206" lon="4.09692">
        <ele>127</ele>
        <time>2020-09-20T10:22:57Z</time>
      </trkpt>
      <trkpt lat="49.22203" lon="4.09698">
        <ele>127</ele>
        <time>2020-09-20T10:22:58Z</time>
      </trkpt>
      <trkpt lat="49.22201" lon="4.09705">
        <ele>127</ele>
        <time>2020-09-20T10:22:59Z</time>
      </trkpt>
      <trkpt lat="49.22198" lon="4.09712">
        <ele>127</ele>
        <time>2020-09-20T10:23:00Z</time>
      </trkpt>
      <trkpt lat="49.22196" lon="4.09719">
        <ele>127</ele>
        <time>2020-09-20T10:23:01Z</time>
      </trkpt>
      <trkpt lat="49.22194" lon="4.09726">
        <ele>127</ele>
        <time>2020-09-20T10:23:02Z</time>
      </trkpt>
      <trkpt lat="49.22192" lon="4.09732">
        <ele>127</ele>
        <time>2020-09-20T10:23:03Z</time>
      </trkpt>
      <trkpt lat="49.22189" lon="4.09739">
        <ele>127</ele>
        <time>2020-09-20T10:23:04Z</time>
      </trkpt>
      <trkpt lat="49.22186" lon="4.09746">
        <ele>127</ele>
        <time>2020-09-20T10:23:05Z</time>
      </trkpt>
      <trkpt lat="49.22183" lon="4.09752">
        <ele>127</ele>
        <time>2020-09-20T10:23:06Z</time>
      </trkpt>
      <trkpt lat="49.2218" lon="4.09758">
        <ele>127</ele>
        <time>2020-09-20T10:23:07Z</time>
      </trkpt>
      <trkpt lat="49.22177" lon="4.09765">
        <ele>127</ele>
        <time>2020-09-20T10:23:08Z</time>
      </trkpt>
      <trkpt lat="49.22174" lon="4.09772">
        <ele>127</ele>
        <time>2020-09-20T10:23:09Z</time>
      </trkpt>
      <trkpt lat="49.22171" lon="4.09779">
        <ele>127</ele>
        <time>2020-09-20T10:23:10Z</time>
      </trkpt>
      <trkpt lat="49.22168" lon="4.09785">
        <ele>127</ele>
        <time>2020-09-20T10:23:11Z</time>
      </trkpt>
      <trkpt lat="49.22165" lon="4.09792">
        <ele>127</ele>
        <time>2020-09-20T10:23:12Z</time>
      </trkpt>
      <trkpt lat="49.22162" lon="4.09799">
        <ele>128</ele>
        <time>2020-09-20T10:23:13Z</time>
      </trkpt>
      <trkpt lat="49.22159" lon="4.09806">
        <ele>128</ele>
        <time>2020-09-20T10:23:14Z</time>
      </trkpt>
      <trkpt lat="49.22157" lon="4.09813">
        <ele>128</ele>
        <time>2020-09-20T10:23:15Z</time>
      </trkpt>
      <trkpt lat="49.22154" lon="4.0982">
        <ele>128</ele>
        <time>2020-09-20T10:23:16Z</time>
      </trkpt>
      <trkpt lat="49.22151" lon="4.09826">
        <ele>128</ele>
        <time>2020-09-20T10:23:17Z</time>
      </trkpt>
      <trkpt lat="49.22147" lon="4.09834">
        <ele>128</ele>
        <time>2020-09-20T10:23:18Z</time>
      </trkpt>
      <trkpt lat="49.22144" lon="4.0984">
        <ele>128</ele>
        <time>2020-09-20T10:23:19Z</time>
      </trkpt>
      <trkpt lat="49.22141" lon="4.09847">
        <ele>128</ele>
        <time>2020-09-20T10:23:20Z</time>
      </trkpt>
      <trkpt lat="49.22138" lon="4.09854">
        <ele>128</ele>
        <time>2020-09-20T10:23:21Z</time>
      </trkpt>
      <trkpt lat="49.22135" lon="4.09861">
        <ele>128</ele>
        <time>2020-09-20T10:23:22Z</time>
      </trkpt>
      <trkpt lat="49.22132" lon="4.09868">
        <ele>128</ele>
        <time>2020-09-20T10:23:23Z</time>
      </trkpt>
      <trkpt lat="49.22129" lon="4.09875">
        <ele>128</ele>
        <time>2020-09-20T10:23:24Z</time>
      </trkpt>
      <trkpt lat="49.22126" lon="4.09882">
        <ele>128</ele>
        <time>2020-09-20T10:23:25Z</time>
      </trkpt>
      <trkpt lat="49.22123" lon="4.09889">
        <ele>128</ele>
        <time>2020-09-20T10:23:26Z</time>
      </trkpt>
      <trkpt lat="49.22119" lon="4.09896">
        <ele>128</ele>
        <time>2020-09-20T10:23:27Z</time>
      </trkpt>
      <trkpt lat="49.22116" lon="4.09902">
        <ele>128</ele>
        <time>2020-09-20T10:23:28Z</time>
      </trkpt>
      <trkpt lat="49.22113" lon="4.09909">
        <ele>128</ele>
        <time>2020-09-20T10:23:29Z</time>
      </trkpt>
      <trkpt lat="49.2211" lon="4.09916">
        <ele>128</ele>
        <time>2020-09-20T10:23:30Z</time>
      </trkpt>
      <trkpt lat="49.22107" lon="4.09923">
        <ele>128</ele>
        <time>2020-09-20T10:23:31Z</time>
      </trkpt>
      <trkpt lat="49.22104" lon="4.0993">
        <ele>128</ele>
        <time>2020-09-20T10:23:32Z</time>
      </trkpt>
      <trkpt lat="49.22101" lon="4.09937">
        <ele>129</ele>
        <time>2020-09-20T10:23:33Z</time>
      </trkpt>
      <trkpt lat="49.22098" lon="4.09943">
        <ele>129</ele>
        <time>2020-09-20T10:23:34Z</time>
      </trkpt>
      <trkpt lat="49.22094" lon="4.09951">
        <ele>129</ele>
        <time>2020-09-20T10:23:35Z</time>
      </trkpt>
      <trkpt lat="49.22091" lon="4.09958">
        <ele>129</ele>
        <time>2020-09-20T10:23:36Z</time>
      </trkpt>
      <trkpt lat="49.22088" lon="4.09965">
        <ele>129</ele>
        <time>2020-09-20T10:23:37Z</time>
      </trkpt>
      <trkpt lat="49.22085" lon="4.09972">
        <ele>129</ele>
        <time>2020-09-20T10:23:38Z</time>
      </trkpt>
      <trkpt lat="49.22082" lon="4.0998">
        <ele>129</ele>
        <time>2020-09-20T10:23:39Z</time>
      </trkpt>
      <trkpt lat="49.22079" lon="4.09987">
        <ele>129</ele>
        <time>2020-09-20T10:23:40Z</time>
      </trkpt>
      <trkpt lat="49.22076" lon="4.09995">
        <ele>129</ele>
        <time>2020-09-20T10:23:41Z</time>
      </trkpt>
      <trkpt lat="49.22073" lon="4.10002">
        <ele>129</ele>
        <time>2020-09-20T10:23:42Z</time>
      </trkpt>
      <trkpt lat="49.2207" lon="4.10009">
        <ele>128</ele>
        <time>2020-09-20T10:23:43Z</time>
      </trkpt>
      <trkpt lat="49.22067" lon="4.10016">
        <ele>128</ele>
        <time>2020-09-20T10:23:44Z</time>
      </trkpt>
      <trkpt lat="49.22064" lon="4.10024">
        <ele>128</ele>
        <time>2020-09-20T10:23:45Z</time>
      </trkpt>
      <trkpt lat="49.22061" lon="4.10032">
        <ele>129</ele>
        <time>2020-09-20T10:23:46Z</time>
      </trkpt>
      <trkpt lat="49.22059" lon="4.1004">
        <ele>128</ele>
        <time>2020-09-20T10:23:47Z</time>
      </trkpt>
      <trkpt lat="49.22056" lon="4.10047">
        <ele>128</ele>
        <time>2020-09-20T10:23:48Z</time>
      </trkpt>
      <trkpt lat="49.22052" lon="4.10054">
        <ele>129</ele>
        <time>2020-09-20T10:23:49Z</time>
      </trkpt>
      <trkpt lat="49.22049" lon="4.10061">
        <ele>129</ele>
        <time>2020-09-20T10:23:50Z</time>
      </trkpt>
      <trkpt lat="49.22045" lon="4.10069">
        <ele>128</ele>
        <time>2020-09-20T10:23:51Z</time>
      </trkpt>
      <trkpt lat="49.22041" lon="4.10075">
        <ele>128</ele>
        <time>2020-09-20T10:23:52Z</time>
      </trkpt>
      <trkpt lat="49.22038" lon="4.10083">
        <ele>128</ele>
        <time>2020-09-20T10:23:53Z</time>
      </trkpt>
      <trkpt lat="49.22035" lon="4.1009">
        <ele>128</ele>
        <time>2020-09-20T10:23:54Z</time>
      </trkpt>
      <trkpt lat="49.22032" lon="4.10098">
        <ele>128</ele>
        <time>2020-09-20T10:23:55Z</time>
      </trkpt>
      <trkpt lat="49.22029" lon="4.10105">
        <ele>129</ele>
        <time>2020-09-20T10:23:56Z</time>
      </trkpt>
      <trkpt lat="49.22026" lon="4.10113">
        <ele>129</ele>
        <time>2020-09-20T10:23:57Z</time>
      </trkpt>
      <trkpt lat="49.22022" lon="4.1012">
        <ele>129</ele>
        <time>2020-09-20T10:23:58Z</time>
      </trkpt>
      <trkpt lat="49.22019" lon="4.10128">
        <ele>129</ele>
        <time>2020-09-20T10:23:59Z</time>
      </trkpt>
      <trkpt lat="49.22016" lon="4.10135">
        <ele>130</ele>
        <time>2020-09-20T10:24:00Z</time>
      </trkpt>
      <trkpt lat="49.22012" lon="4.10143">
        <ele>129</ele>
        <time>2020-09-20T10:24:01Z</time>
      </trkpt>
      <trkpt lat="49.22009" lon="4.1015">
        <ele>129</ele>
        <time>2020-09-20T10:24:02Z</time>
      </trkpt>
      <trkpt lat="49.22006" lon="4.10157">
        <ele>129</ele>
        <time>2020-09-20T10:24:03Z</time>
      </trkpt>
      <trkpt lat="49.22002" lon="4.10164">
        <ele>129</ele>
        <time>2020-09-20T10:24:04Z</time>
      </trkpt>
      <trkpt lat="49.21998" lon="4.10171">
        <ele>129</ele>
        <time>2020-09-20T10:24:05Z</time>
      </trkpt>
      <trkpt lat="49.21995" lon="4.10177">
        <ele>129</ele>
        <time>2020-09-20T10:24:06Z</time>
      </trkpt>
      <trkpt lat="49.21991" lon="4.10185">
        <ele>129</ele>
        <time>2020-09-20T10:24:07Z</time>
      </trkpt>
      <trkpt lat="49.21988" lon="4.10192">
        <ele>129</ele>
        <time>2020-09-20T10:24:08Z</time>
      </trkpt>
      <trkpt lat="49.21985" lon="4.10199">
        <ele>129</ele>
        <time>2020-09-20T10:24:09Z</time>
      </trkpt>
      <trkpt lat="49.21981" lon="4.10206">
        <ele>128</ele>
        <time>2020-09-20T10:24:10Z</time>
      </trkpt>
      <trkpt lat="49.21978" lon="4.10213">
        <ele>128</ele>
        <time>2020-09-20T10:24:11Z</time>
      </trkpt>
      <trkpt lat="49.21975" lon="4.1022">
        <ele>128</ele>
        <time>2020-09-20T10:24:12Z</time>
      </trkpt>
      <trkpt lat="49.21971" lon="4.10227">
        <ele>128</ele>
        <time>2020-09-20T10:24:13Z</time>
      </trkpt>
      <trkpt lat="49.21968" lon="4.10234">
        <ele>128</ele>
        <time>2020-09-20T10:24:14Z</time>
      </trkpt>
      <trkpt lat="49.21965" lon="4.10241">
        <ele>128</ele>
        <time>2020-09-20T10:24:15Z</time>
      </trkpt>
      <trkpt lat="49.21962" lon="4.10248">
        <ele>128</ele>
        <time>2020-09-20T10:24:16Z</time>
      </trkpt>
      <trkpt lat="49.21959" lon="4.10256">
        <ele>128</ele>
        <time>2020-09-20T10:24:17Z</time>
      </trkpt>
      <trkpt lat="49.21956" lon="4.10263">
        <ele>129</ele>
        <time>2020-09-20T10:24:18Z</time>
      </trkpt>
      <trkpt lat="49.21953" lon="4.1027">
        <ele>129</ele>
        <time>2020-09-20T10:24:19Z</time>
      </trkpt>
      <trkpt lat="49.2195" lon="4.10277">
        <ele>129</ele>
        <time>2020-09-20T10:24:20Z</time>
      </trkpt>
      <trkpt lat="49.21947" lon="4.10285">
        <ele>129</ele>
        <time>2020-09-20T10:24:21Z</time>
      </trkpt>
      <trkpt lat="49.21944" lon="4.10292">
        <ele>129</ele>
        <time>2020-09-20T10:24:22Z</time>
      </trkpt>
      <trkpt lat="49.21941" lon="4.10299">
        <ele>129</ele>
        <time>2020-09-20T10:24:23Z</time>
      </trkpt>
      <trkpt lat="49.21938" lon="4.10306">
        <ele>129</ele>
        <time>2020-09-20T10:24:24Z</time>
      </trkpt>
      <trkpt lat="49.21935" lon="4.10313">
        <ele>129</ele>
        <time>2020-09-20T10:24:25Z</time>
      </trkpt>
      <trkpt lat="49.21932" lon="4.1032">
        <ele>129</ele>
        <time>2020-09-20T10:24:26Z</time>
      </trkpt>
      <trkpt lat="49.21929" lon="4.10326">
        <ele>129</ele>
        <time>2020-09-20T10:24:27Z</time>
      </trkpt>
      <trkpt lat="49.21926" lon="4.10334">
        <ele>130</ele>
        <time>2020-09-20T10:24:28Z</time>
      </trkpt>
      <trkpt lat="49.21922" lon="4.10341">
        <ele>129</ele>
        <time>2020-09-20T10:24:29Z</time>
      </trkpt>
      <trkpt lat="49.21919" lon="4.10348">
        <ele>129</ele>
        <time>2020-09-20T10:24:30Z</time>
      </trkpt>
      <trkpt lat="49.21916" lon="4.10355">
        <ele>129</ele>
        <time>2020-09-20T10:24:31Z</time>
      </trkpt>
      <trkpt lat="49.21913" lon="4.10362">
        <ele>129</ele>
        <time>2020-09-20T10:24:32Z</time>
      </trkpt>
      <trkpt lat="49.2191" lon="4.10369">
        <ele>129</ele>
        <time>2020-09-20T10:24:33Z</time>
      </trkpt>
      <trkpt lat="49.21907" lon="4.10376">
        <ele>129</ele>
        <time>2020-09-20T10:24:34Z</time>
      </trkpt>
      <trkpt lat="49.21904" lon="4.10384">
        <ele>129</ele>
        <time>2020-09-20T10:24:35Z</time>
      </trkpt>
      <trkpt lat="49.21901" lon="4.10391">
        <ele>129</ele>
        <time>2020-09-20T10:24:36Z</time>
      </trkpt>
      <trkpt lat="49.21898" lon="4.10398">
        <ele>129</ele>
        <time>2020-09-20T10:24:37Z</time>
      </trkpt>
      <trkpt lat="49.21895" lon="4.10404">
        <ele>129</ele>
        <time>2020-09-20T10:24:38Z</time>
      </trkpt>
      <trkpt lat="49.21892" lon="4.10411">
        <ele>129</ele>
        <time>2020-09-20T10:24:39Z</time>
      </trkpt>
      <trkpt lat="49.21889" lon="4.10419">
        <ele>129</ele>
        <time>2020-09-20T10:24:40Z</time>
      </trkpt>
      <trkpt lat="49.21886" lon="4.10426">
        <ele>129</ele>
        <time>2020-09-20T10:24:41Z</time>
      </trkpt>
      <trkpt lat="49.21883" lon="4.10433">
        <ele>129</ele>
        <time>2020-09-20T10:24:42Z</time>
      </trkpt>
      <trkpt lat="49.2188" lon="4.1044">
        <ele>129</ele>
        <time>2020-09-20T10:24:43Z</time>
      </trkpt>
      <trkpt lat="49.21877" lon="4.10447">
        <ele>129</ele>
        <time>2020-09-20T10:24:44Z</time>
      </trkpt>
      <trkpt lat="49.21874" lon="4.10454">
        <ele>129</ele>
        <time>2020-09-20T10:24:45Z</time>
      </trkpt>
      <trkpt lat="49.21871" lon="4.10462">
        <ele>129</ele>
        <time>2020-09-20T10:24:46Z</time>
      </trkpt>
      <trkpt lat="49.21868" lon="4.10469">
        <ele>129</ele>
        <time>2020-09-20T10:24:47Z</time>
      </trkpt>
      <trkpt lat="49.21865" lon="4.10476">
        <ele>129</ele>
        <time>2020-09-20T10:24:48Z</time>
      </trkpt>
      <trkpt lat="49.21862" lon="4.10483">
        <ele>129</ele>
        <time>2020-09-20T10:24:49Z</time>
      </trkpt>
      <trkpt lat="49.2186" lon="4.1049">
        <ele>130</ele>
        <time>2020-09-20T10:24:50Z</time>
      </trkpt>
      <trkpt lat="49.21857" lon="4.10497">
        <ele>130</ele>
        <time>2020-09-20T10:24:51Z</time>
      </trkpt>
      <trkpt lat="49.21853" lon="4.10503">
        <ele>130</ele>
        <time>2020-09-20T10:24:52Z</time>
      </trkpt>
      <trkpt lat="49.2185" lon="4.1051">
        <ele>130</ele>
        <time>2020-09-20T10:24:53Z</time>
      </trkpt>
      <trkpt lat="49.21847" lon="4.10517">
        <ele>130</ele>
        <time>2020-09-20T10:24:54Z</time>
      </trkpt>
      <trkpt lat="49.21844" lon="4.10525">
        <ele>130</ele>
        <time>2020-09-20T10:24:55Z</time>
      </trkpt>
      <trkpt lat="49.21841" lon="4.10532">
        <ele>130</ele>
        <time>2020-09-20T10:24:56Z</time>
      </trkpt>
      <trkpt lat="49.21838" lon="4.10539">
        <ele>129</ele>
        <time>2020-09-20T10:24:57Z</time>
      </trkpt>
      <trkpt lat="49.21835" lon="4.10546">
        <ele>129</ele>
        <time>2020-09-20T10:24:58Z</time>
      </trkpt>
      <trkpt lat="49.21832" lon="4.10554">
        <ele>129</ele>
        <time>2020-09-20T10:24:59Z</time>
      </trkpt>
      <trkpt lat="49.21829" lon="4.10561">
        <ele>129</ele>
        <time>2020-09-20T10:25:00Z</time>
      </trkpt>
      <trkpt lat="49.21825" lon="4.10568">
        <ele>129</ele>
        <time>2020-09-20T10:25:01Z</time>
      </trkpt>
      <trkpt lat="49.21822" lon="4.10574">
        <ele>129</ele>
        <time>2020-09-20T10:25:02Z</time>
      </trkpt>
      <trkpt lat="49.21818" lon="4.10581">
        <ele>129</ele>
        <time>2020-09-20T10:25:03Z</time>
      </trkpt>
      <trkpt lat="49.21815" lon="4.10588">
        <ele>129</ele>
        <time>2020-09-20T10:25:04Z</time>
      </trkpt>
      <trkpt lat="49.21811" lon="4.10595">
        <ele>129</ele>
        <time>2020-09-20T10:25:05Z</time>
      </trkpt>
      <trkpt lat="49.21808" lon="4.10602">
        <ele>128</ele>
        <time>2020-09-20T10:25:06Z</time>
      </trkpt>
      <trkpt lat="49.21805" lon="4.1061">
        <ele>128</ele>
        <time>2020-09-20T10:25:07Z</time>
      </trkpt>
      <trkpt lat="49.21802" lon="4.10617">
        <ele>128</ele>
        <time>2020-09-20T10:25:08Z</time>
      </trkpt>
      <trkpt lat="49.21798" lon="4.10623">
        <ele>128</ele>
        <time>2020-09-20T10:25:09Z</time>
      </trkpt>
      <trkpt lat="49.21796" lon="4.10629">
        <ele>128</ele>
        <time>2020-09-20T10:25:10Z</time>
      </trkpt>
      <trkpt lat="49.21794" lon="4.10634">
        <ele>128</ele>
        <time>2020-09-20T10:25:11Z</time>
      </trkpt>
      <trkpt lat="49.21793" lon="4.1064">
        <ele>128</ele>
        <time>2020-09-20T10:25:12Z</time>
      </trkpt>
      <trkpt lat="49.21789" lon="4.10646">
        <ele>128</ele>
        <time>2020-09-20T10:25:13Z</time>
      </trkpt>
      <trkpt lat="49.21786" lon="4.10653">
        <ele>128</ele>
        <time>2020-09-20T10:25:14Z</time>
      </trkpt>
      <trkpt lat="49.21783" lon="4.1066">
        <ele>128</ele>
        <time>2020-09-20T10:25:15Z</time>
      </trkpt>
      <trkpt lat="49.2178" lon="4.10667">
        <ele>128</ele>
        <time>2020-09-20T10:25:16Z</time>
      </trkpt>
      <trkpt lat="49.21777" lon="4.10674">
        <ele>128</ele>
        <time>2020-09-20T10:25:17Z</time>
      </trkpt>
      <trkpt lat="49.21773" lon="4.10682">
        <ele>128</ele>
        <time>2020-09-20T10:25:18Z</time>
      </trkpt>
      <trkpt lat="49.2177" lon="4.1069">
        <ele>128</ele>
        <time>2020-09-20T10:25:19Z</time>
      </trkpt>
      <trkpt lat="49.21766" lon="4.10698">
        <ele>128</ele>
        <time>2020-09-20T10:25:20Z</time>
      </trkpt>
      <trkpt lat="49.21763" lon="4.10705">
        <ele>128</ele>
        <time>2020-09-20T10:25:21Z</time>
      </trkpt>
      <trkpt lat="49.21759" lon="4.10712">
        <ele>128</ele>
        <time>2020-09-20T10:25:22Z</time>
      </trkpt>
      <trkpt lat="49.21756" lon="4.10718">
        <ele>128</ele>
        <time>2020-09-20T10:25:23Z</time>
      </trkpt>
      <trkpt lat="49.21753" lon="4.10726">
        <ele>128</ele>
        <time>2020-09-20T10:25:24Z</time>
      </trkpt>
      <trkpt lat="49.2175" lon="4.10733">
        <ele>128</ele>
        <time>2020-09-20T10:25:25Z</time>
      </trkpt>
      <trkpt lat="49.21747" lon="4.1074">
        <ele>128</ele>
        <time>2020-09-20T10:25:26Z</time>
      </trkpt>
      <trkpt lat="49.21743" lon="4.10747">
        <ele>129</ele>
        <time>2020-09-20T10:25:27Z</time>
      </trkpt>
      <trkpt lat="49.21739" lon="4.10754">
        <ele>129</ele>
        <time>2020-09-20T10:25:28Z</time>
      </trkpt>
      <trkpt lat="49.21735" lon="4.10761">
        <ele>129</ele>
        <time>2020-09-20T10:25:29Z</time>
      </trkpt>
      <trkpt lat="49.21731" lon="4.10768">
        <ele>129</ele>
        <time>2020-09-20T10:25:30Z</time>
      </trkpt>
      <trkpt lat="49.21727" lon="4.10775">
        <ele>129</ele>
        <time>2020-09-20T10:25:31Z</time>
      </trkpt>
      <trkpt lat="49.21723" lon="4.10782">
        <ele>129</ele>
        <time>2020-09-20T10:25:32Z</time>
      </trkpt>
      <trkpt lat="49.21719" lon="4.10789">
        <ele>129</ele>
        <time>2020-09-20T10:25:33Z</time>
      </trkpt>
      <trkpt lat="49.21715" lon="4.10795">
        <ele>130</ele>
        <time>2020-09-20T10:25:34Z</time>
      </trkpt>
      <trkpt lat="49.21711" lon="4.10802">
        <ele>130</ele>
        <time>2020-09-20T10:25:35Z</time>
      </trkpt>
      <trkpt lat="49.21707" lon="4.10809">
        <ele>130</ele>
        <time>2020-09-20T10:25:36Z</time>
      </trkpt>
      <trkpt lat="49.21703" lon="4.10815">
        <ele>129</ele>
        <time>2020-09-20T10:25:37Z</time>
      </trkpt>
      <trkpt lat="49.21699" lon="4.10821">
        <ele>130</ele>
        <time>2020-09-20T10:25:38Z</time>
      </trkpt>
      <trkpt lat="49.21694" lon="4.10828">
        <ele>129</ele>
        <time>2020-09-20T10:25:39Z</time>
      </trkpt>
      <trkpt lat="49.2169" lon="4.10834">
        <ele>129</ele>
        <time>2020-09-20T10:25:40Z</time>
      </trkpt>
      <trkpt lat="49.21686" lon="4.10841">
        <ele>129</ele>
        <time>2020-09-20T10:25:41Z</time>
      </trkpt>
      <trkpt lat="49.21683" lon="4.10847">
        <ele>129</ele>
        <time>2020-09-20T10:25:42Z</time>
      </trkpt>
      <trkpt lat="49.21679" lon="4.10853">
        <ele>129</ele>
        <time>2020-09-20T10:25:43Z</time>
      </trkpt>
      <trkpt lat="49.21676" lon="4.10858">
        <ele>129</ele>
        <time>2020-09-20T10:25:44Z</time>
      </trkpt>
      <trkpt lat="49.21671" lon="4.10864">
        <ele>129</ele>
        <time>2020-09-20T10:25:45Z</time>
      </trkpt>
      <trkpt lat="49.21667" lon="4.10869">
        <ele>129</ele>
        <time>2020-09-20T10:25:46Z</time>
      </trkpt>
      <trkpt lat="49.21663" lon="4.10875">
        <ele>130</ele>
        <time>2020-09-20T10:25:47Z</time>
      </trkpt>
      <trkpt lat="49.21658" lon="4.10881">
        <ele>129</ele>
        <time>2020-09-20T10:25:48Z</time>
      </trkpt>
      <trkpt lat="49.21654" lon="4.10887">
        <ele>130</ele>
        <time>2020-09-20T10:25:49Z</time>
      </trkpt>
      <trkpt lat="49.21649" lon="4.10893">
        <ele>129</ele>
        <time>2020-09-20T10:25:50Z</time>
      </trkpt>
      <trkpt lat="49.21645" lon="4.10899">
        <ele>130</ele>
        <time>2020-09-20T10:25:51Z</time>
      </trkpt>
      <trkpt lat="49.21641" lon="4.10905">
        <ele>130</ele>
        <time>2020-09-20T10:25:52Z</time>
      </trkpt>
      <trkpt lat="49.21637" lon="4.10912">
        <ele>130</ele>
        <time>2020-09-20T10:25:53Z</time>
      </trkpt>
      <trkpt lat="49.21633" lon="4.10918">
        <ele>130</ele>
        <time>2020-09-20T10:25:54Z</time>
      </trkpt>
      <trkpt lat="49.21629" lon="4.10924">
        <ele>130</ele>
        <time>2020-09-20T10:25:55Z</time>
      </trkpt>
      <trkpt lat="49.21625" lon="4.10931">
        <ele>130</ele>
        <time>2020-09-20T10:25:56Z</time>
      </trkpt>
      <trkpt lat="49.21621" lon="4.10937">
        <ele>130</ele>
        <time>2020-09-20T10:25:57Z</time>
      </trkpt>
      <trkpt lat="49.21617" lon="4.10943">
        <ele>130</ele>
        <time>2020-09-20T10:25:58Z</time>
      </trkpt>
      <trkpt lat="49.21613" lon="4.10949">
        <ele>131</ele>
        <time>2020-09-20T10:25:59Z</time>
      </trkpt>
      <trkpt lat="49.21609" lon="4.10955">
        <ele>131</ele>
        <time>2020-09-20T10:26:00Z</time>
      </trkpt>
      <trkpt lat="49.21604" lon="4.1096">
        <ele>131</ele>
        <time>2020-09-20T10:26:01Z</time>
      </trkpt>
      <trkpt lat="49.216" lon="4.10965">
        <ele>131</ele>
        <time>2020-09-20T10:26:02Z</time>
      </trkpt>
      <trkpt lat="49.21595" lon="4.1097">
        <ele>131</ele>
        <time>2020-09-20T10:26:03Z</time>
      </trkpt>
      <trkpt lat="49.2159" lon="4.10976">
        <ele>131</ele>
        <time>2020-09-20T10:26:04Z</time>
      </trkpt>
      <trkpt lat="49.21586" lon="4.10981">
        <ele>131</ele>
        <time>2020-09-20T10:26:05Z</time>
      </trkpt>
      <trkpt lat="49.21582" lon="4.10987">
        <ele>131</ele>
        <time>2020-09-20T10:26:06Z</time>
      </trkpt>
      <trkpt lat="49.21578" lon="4.10994">
        <ele>131</ele>
        <time>2020-09-20T10:26:07Z</time>
      </trkpt>
      <trkpt lat="49.21573" lon="4.11">
        <ele>131</ele>
        <time>2020-09-20T10:26:08Z</time>
      </trkpt>
      <trkpt lat="49.21569" lon="4.11006">
        <ele>131</ele>
        <time>2020-09-20T10:26:09Z</time>
      </trkpt>
      <trkpt lat="49.21564" lon="4.11012">
        <ele>131</ele>
        <time>2020-09-20T10:26:10Z</time>
      </trkpt>
      <trkpt lat="49.2156" lon="4.11018">
        <ele>131</ele>
        <time>2020-09-20T10:26:11Z</time>
      </trkpt>
      <trkpt lat="49.21556" lon="4.11024">
        <ele>131</ele>
        <time>2020-09-20T10:26:12Z</time>
      </trkpt>
      <trkpt lat="49.21551" lon="4.11029">
        <ele>131</ele>
        <time>2020-09-20T10:26:13Z</time>
      </trkpt>
      <trkpt lat="49.21547" lon="4.11034">
        <ele>131</ele>
        <time>2020-09-20T10:26:14Z</time>
      </trkpt>
      <trkpt lat="49.21543" lon="4.11041">
        <ele>131</ele>
        <time>2020-09-20T10:26:15Z</time>
      </trkpt>
      <trkpt lat="49.21538" lon="4.11047">
        <ele>131</ele>
        <time>2020-09-20T10:26:16Z</time>
      </trkpt>
      <trkpt lat="49.21534" lon="4.11053">
        <ele>130</ele>
        <time>2020-09-20T10:26:17Z</time>
      </trkpt>
      <trkpt lat="49.21529" lon="4.11059">
        <ele>130</ele>
        <time>2020-09-20T10:26:18Z</time>
      </trkpt>
      <trkpt lat="49.21525" lon="4.11065">
        <ele>130</ele>
        <time>2020-09-20T10:26:19Z</time>
      </trkpt>
      <trkpt lat="49.21521" lon="4.11071">
        <ele>130</ele>
        <time>2020-09-20T10:26:20Z</time>
      </trkpt>
      <trkpt lat="49.21516" lon="4.11077">
        <ele>130</ele>
        <time>2020-09-20T10:26:21Z</time>
      </trkpt>
      <trkpt lat="49.21512" lon="4.11084">
        <ele>130</ele>
        <time>2020-09-20T10:26:22Z</time>
      </trkpt>
      <trkpt lat="49.21507" lon="4.11089">
        <ele>130</ele>
        <time>2020-09-20T10:26:23Z</time>
      </trkpt>
      <trkpt lat="49.21503" lon="4.11096">
        <ele>130</ele>
        <time>2020-09-20T10:26:24Z</time>
      </trkpt>
      <trkpt lat="49.21499" lon="4.11102">
        <ele>130</ele>
        <time>2020-09-20T10:26:25Z</time>
      </trkpt>
      <trkpt lat="49.21495" lon="4.11108">
        <ele>130</ele>
        <time>2020-09-20T10:26:26Z</time>
      </trkpt>
      <trkpt lat="49.2149" lon="4.11114">
        <ele>130</ele>
        <time>2020-09-20T10:26:27Z</time>
      </trkpt>
      <trkpt lat="49.21486" lon="4.1112">
        <ele>130</ele>
        <time>2020-09-20T10:26:28Z</time>
      </trkpt>
      <trkpt lat="49.21482" lon="4.11126">
        <ele>130</ele>
        <time>2020-09-20T10:26:29Z</time>
      </trkpt>
      <trkpt lat="49.21478" lon="4.11132">
        <ele>130</ele>
        <time>2020-09-20T10:26:30Z</time>
      </trkpt>
      <trkpt lat="49.21473" lon="4.11138">
        <ele>130</ele>
        <time>2020-09-20T10:26:31Z</time>
      </trkpt>
      <trkpt lat="49.21469" lon="4.11144">
        <ele>130</ele>
        <time>2020-09-20T10:26:32Z</time>
      </trkpt>
      <trkpt lat="49.21464" lon="4.1115">
        <ele>130</ele>
        <time>2020-09-20T10:26:33Z</time>
      </trkpt>
      <trkpt lat="49.2146" lon="4.11156">
        <ele>130</ele>
        <time>2020-09-20T10:26:34Z</time>
      </trkpt>
      <trkpt lat="49.21455" lon="4.11162">
        <ele>130</ele>
        <time>2020-09-20T10:26:35Z</time>
      </trkpt>
      <trkpt lat="49.21451" lon="4.11168">
        <ele>130</ele>
        <time>2020-09-20T10:26:36Z</time>
      </trkpt>
      <trkpt lat="49.21447" lon="4.11174">
        <ele>130</ele>
        <time>2020-09-20T10:26:37Z</time>
      </trkpt>
      <trkpt lat="49.21442" lon="4.1118">
        <ele>130</ele>
        <time>2020-09-20T10:26:38Z</time>
      </trkpt>
      <trkpt lat="49.21439" lon="4.11186">
        <ele>130</ele>
        <time>2020-09-20T10:26:39Z</time>
      </trkpt>
      <trkpt lat="49.21435" lon="4.11193">
        <ele>130</ele>
        <time>2020-09-20T10:26:40Z</time>
      </trkpt>
      <trkpt lat="49.21431" lon="4.11199">
        <ele>130</ele>
        <time>2020-09-20T10:26:41Z</time>
      </trkpt>
      <trkpt lat="49.21427" lon="4.11204">
        <ele>130</ele>
        <time>2020-09-20T10:26:42Z</time>
      </trkpt>
      <trkpt lat="49.21423" lon="4.1121">
        <ele>130</ele>
        <time>2020-09-20T10:26:43Z</time>
      </trkpt>
      <trkpt lat="49.21419" lon="4.11216">
        <ele>130</ele>
        <time>2020-09-20T10:26:44Z</time>
      </trkpt>
      <trkpt lat="49.21414" lon="4.11221">
        <ele>130</ele>
        <time>2020-09-20T10:26:45Z</time>
      </trkpt>
      <trkpt lat="49.2141" lon="4.11227">
        <ele>130</ele>
        <time>2020-09-20T10:26:46Z</time>
      </trkpt>
      <trkpt lat="49.21406" lon="4.11233">
        <ele>130</ele>
        <time>2020-09-20T10:26:47Z</time>
      </trkpt>
      <trkpt lat="49.21402" lon="4.11239">
        <ele>130</ele>
        <time>2020-09-20T10:26:48Z</time>
      </trkpt>
      <trkpt lat="49.21398" lon="4.11244">
        <ele>130</ele>
        <time>2020-09-20T10:26:49Z</time>
      </trkpt>
      <trkpt lat="49.21394" lon="4.1125">
        <ele>130</ele>
        <time>2020-09-20T10:26:50Z</time>
      </trkpt>
      <trkpt lat="49.2139" lon="4.11255">
        <ele>130</ele>
        <time>2020-09-20T10:26:51Z</time>
      </trkpt>
      <trkpt lat="49.21386" lon="4.11261">
        <ele>130</ele>
        <time>2020-09-20T10:26:52Z</time>
      </trkpt>
      <trkpt lat="49.21382" lon="4.11267">
        <ele>130</ele>
        <time>2020-09-20T10:26:53Z</time>
      </trkpt>
      <trkpt lat="49.21377" lon="4.11273">
        <ele>130</ele>
        <time>2020-09-20T10:26:54Z</time>
      </trkpt>
      <trkpt lat="49.21372" lon="4.11279">
        <ele>131</ele>
        <time>2020-09-20T10:26:55Z</time>
      </trkpt>
      <trkpt lat="49.21368" lon="4.11285">
        <ele>131</ele>
        <time>2020-09-20T10:26:56Z</time>
      </trkpt>
      <trkpt lat="49.21364" lon="4.11291">
        <ele>131</ele>
        <time>2020-09-20T10:26:57Z</time>
      </trkpt>
      <trkpt lat="49.2136" lon="4.11297">
        <ele>131</ele>
        <time>2020-09-20T10:26:58Z</time>
      </trkpt>
      <trkpt lat="49.21356" lon="4.11303">
        <ele>130</ele>
        <time>2020-09-20T10:26:59Z</time>
      </trkpt>
      <trkpt lat="49.21352" lon="4.11309">
        <ele>130</ele>
        <time>2020-09-20T10:27:00Z</time>
      </trkpt>
      <trkpt lat="49.21347" lon="4.11315">
        <ele>130</ele>
        <time>2020-09-20T10:27:01Z</time>
      </trkpt>
      <trkpt lat="49.21343" lon="4.1132">
        <ele>130</ele>
        <time>2020-09-20T10:27:02Z</time>
      </trkpt>
      <trkpt lat="49.21339" lon="4.11326">
        <ele>130</ele>
        <time>2020-09-20T10:27:03Z</time>
      </trkpt>
      <trkpt lat="49.21335" lon="4.11332">
        <ele>130</ele>
        <time>2020-09-20T10:27:04Z</time>
      </trkpt>
      <trkpt lat="49.2133" lon="4.11338">
        <ele>130</ele>
        <time>2020-09-20T10:27:05Z</time>
      </trkpt>
      <trkpt lat="49.21325" lon="4.11344">
        <ele>130</ele>
        <time>2020-09-20T10:27:06Z</time>
      </trkpt>
      <trkpt lat="49.21321" lon="4.1135">
        <ele>129</ele>
        <time>2020-09-20T10:27:07Z</time>
      </trkpt>
      <trkpt lat="49.21317" lon="4.11355">
        <ele>129</ele>
        <time>2020-09-20T10:27:08Z</time>
      </trkpt>
      <trkpt lat="49.21312" lon="4.11362">
        <ele>129</ele>
        <time>2020-09-20T10:27:09Z</time>
      </trkpt>
      <trkpt lat="49.21308" lon="4.11368">
        <ele>129</ele>
        <time>2020-09-20T10:27:10Z</time>
      </trkpt>
      <trkpt lat="49.21304" lon="4.11374">
        <ele>129</ele>
        <time>2020-09-20T10:27:11Z</time>
      </trkpt>
      <trkpt lat="49.21299" lon="4.11381">
        <ele>129</ele>
        <time>2020-09-20T10:27:12Z</time>
      </trkpt>
      <trkpt lat="49.21294" lon="4.11387">
        <ele>129</ele>
        <time>2020-09-20T10:27:13Z</time>
      </trkpt>
      <trkpt lat="49.2129" lon="4.11392">
        <ele>128</ele>
        <time>2020-09-20T10:27:14Z</time>
      </trkpt>
      <trkpt lat="49.21286" lon="4.11398">
        <ele>128</ele>
        <time>2020-09-20T10:27:15Z</time>
      </trkpt>
      <trkpt lat="49.21282" lon="4.11404">
        <ele>128</ele>
        <time>2020-09-20T10:27:16Z</time>
      </trkpt>
      <trkpt lat="49.21277" lon="4.11409">
        <ele>128</ele>
        <time>2020-09-20T10:27:17Z</time>
      </trkpt>
      <trkpt lat="49.21273" lon="4.11415">
        <ele>129</ele>
        <time>2020-09-20T10:27:18Z</time>
      </trkpt>
      <trkpt lat="49.21269" lon="4.1142">
        <ele>128</ele>
        <time>2020-09-20T10:27:19Z</time>
      </trkpt>
      <trkpt lat="49.21265" lon="4.11426">
        <ele>128</ele>
        <time>2020-09-20T10:27:20Z</time>
      </trkpt>
      <trkpt lat="49.21261" lon="4.11431">
        <ele>128</ele>
        <time>2020-09-20T10:27:21Z</time>
      </trkpt>
      <trkpt lat="49.21256" lon="4.11437">
        <ele>128</ele>
        <time>2020-09-20T10:27:22Z</time>
      </trkpt>
      <trkpt lat="49.21252" lon="4.11443">
        <ele>128</ele>
        <time>2020-09-20T10:27:23Z</time>
      </trkpt>
      <trkpt lat="49.21248" lon="4.1145">
        <ele>129</ele>
        <time>2020-09-20T10:27:24Z</time>
      </trkpt>
      <trkpt lat="49.21244" lon="4.11456">
        <ele>129</ele>
        <time>2020-09-20T10:27:25Z</time>
      </trkpt>
      <trkpt lat="49.21239" lon="4.11463">
        <ele>129</ele>
        <time>2020-09-20T10:27:26Z</time>
      </trkpt>
      <trkpt lat="49.21235" lon="4.11469">
        <ele>129</ele>
        <time>2020-09-20T10:27:27Z</time>
      </trkpt>
      <trkpt lat="49.21231" lon="4.11474">
        <ele>129</ele>
        <time>2020-09-20T10:27:28Z</time>
      </trkpt>
      <trkpt lat="49.21227" lon="4.11481">
        <ele>129</ele>
        <time>2020-09-20T10:27:29Z</time>
      </trkpt>
      <trkpt lat="49.21223" lon="4.11487">
        <ele>130</ele>
        <time>2020-09-20T10:27:30Z</time>
      </trkpt>
      <trkpt lat="49.21219" lon="4.11493">
        <ele>130</ele>
        <time>2020-09-20T10:27:31Z</time>
      </trkpt>
      <trkpt lat="49.21215" lon="4.11499">
        <ele>130</ele>
        <time>2020-09-20T10:27:32Z</time>
      </trkpt>
      <trkpt lat="49.21211" lon="4.11505">
        <ele>130</ele>
        <time>2020-09-20T10:27:33Z</time>
      </trkpt>
      <trkpt lat="49.21207" lon="4.11511">
        <ele>130</ele>
        <time>2020-09-20T10:27:34Z</time>
      </trkpt>
      <trkpt lat="49.21203" lon="4.11517">
        <ele>130</ele>
        <time>2020-09-20T10:27:35Z</time>
      </trkpt>
      <trkpt lat="49.21199" lon="4.11524">
        <ele>130</ele>
        <time>2020-09-20T10:27:36Z</time>
      </trkpt>
      <trkpt lat="49.21195" lon="4.1153">
        <ele>130</ele>
        <time>2020-09-20T10:27:37Z</time>
      </trkpt>
      <trkpt lat="49.21191" lon="4.11536">
        <ele>130</ele>
        <time>2020-09-20T10:27:38Z</time>
      </trkpt>
      <trkpt lat="49.21187" lon="4.11542">
        <ele>130</ele>
        <time>2020-09-20T10:27:39Z</time>
      </trkpt>
      <trkpt lat="49.21183" lon="4.11549">
        <ele>130</ele>
        <time>2020-09-20T10:27:40Z</time>
      </trkpt>
      <trkpt lat="49.2118" lon="4.11557">
        <ele>130</ele>
        <time>2020-09-20T10:27:41Z</time>
      </trkpt>
      <trkpt lat="49.21176" lon="4.11564">
        <ele>130</ele>
        <time>2020-09-20T10:27:42Z</time>
      </trkpt>
      <trkpt lat="49.21172" lon="4.1157">
        <ele>130</ele>
        <time>2020-09-20T10:27:43Z</time>
      </trkpt>
      <trkpt lat="49.21169" lon="4.11577">
        <ele>130</ele>
        <time>2020-09-20T10:27:44Z</time>
      </trkpt>
      <trkpt lat="49.21165" lon="4.11583">
        <ele>130</ele>
        <time>2020-09-20T10:27:45Z</time>
      </trkpt>
      <trkpt lat="49.21161" lon="4.1159">
        <ele>130</ele>
        <time>2020-09-20T10:27:46Z</time>
      </trkpt>
      <trkpt lat="49.21158" lon="4.11597">
        <ele>130</ele>
        <time>2020-09-20T10:27:47Z</time>
      </trkpt>
      <trkpt lat="49.21154" lon="4.11603">
        <ele>130</ele>
        <time>2020-09-20T10:27:48Z</time>
      </trkpt>
      <trkpt lat="49.21151" lon="4.11611">
        <ele>130</ele>
        <time>2020-09-20T10:27:49Z</time>
      </trkpt>
      <trkpt lat="49.21147" lon="4.11617">
        <ele>131</ele>
        <time>2020-09-20T10:27:50Z</time>
      </trkpt>
      <trkpt lat="49.21143" lon="4.11624">
        <ele>130</ele>
        <time>2020-09-20T10:27:51Z</time>
      </trkpt>
      <trkpt lat="49.2114" lon="4.11632">
        <ele>130</ele>
        <time>2020-09-20T10:27:52Z</time>
      </trkpt>
      <trkpt lat="49.21137" lon="4.11639">
        <ele>131</ele>
        <time>2020-09-20T10:27:53Z</time>
      </trkpt>
      <trkpt lat="49.21133" lon="4.11646">
        <ele>131</ele>
        <time>2020-09-20T10:27:54Z</time>
      </trkpt>
      <trkpt lat="49.2113" lon="4.11653">
        <ele>131</ele>
        <time>2020-09-20T10:27:55Z</time>
      </trkpt>
      <trkpt lat="49.21127" lon="4.1166">
        <ele>131</ele>
        <time>2020-09-20T10:27:56Z</time>
      </trkpt>
      <trkpt lat="49.21124" lon="4.11668">
        <ele>131</ele>
        <time>2020-09-20T10:27:57Z</time>
      </trkpt>
      <trkpt lat="49.2112" lon="4.11675">
        <ele>131</ele>
        <time>2020-09-20T10:27:58Z</time>
      </trkpt>
      <trkpt lat="49.21117" lon="4.11682">
        <ele>131</ele>
        <time>2020-09-20T10:27:59Z</time>
      </trkpt>
      <trkpt lat="49.21113" lon="4.11689">
        <ele>131</ele>
        <time>2020-09-20T10:28:00Z</time>
      </trkpt>
      <trkpt lat="49.2111" lon="4.11696">
        <ele>131</ele>
        <time>2020-09-20T10:28:01Z</time>
      </trkpt>
      <trkpt lat="49.21106" lon="4.11704">
        <ele>130</ele>
        <time>2020-09-20T10:28:02Z</time>
      </trkpt>
      <trkpt lat="49.21103" lon="4.11712">
        <ele>130</ele>
        <time>2020-09-20T10:28:03Z</time>
      </trkpt>
      <trkpt lat="49.211" lon="4.1172">
        <ele>130</ele>
        <time>2020-09-20T10:28:04Z</time>
      </trkpt>
      <trkpt lat="49.21097" lon="4.11728">
        <ele>130</ele>
        <time>2020-09-20T10:28:05Z</time>
      </trkpt>
      <trkpt lat="49.21094" lon="4.11736">
        <ele>129</ele>
        <time>2020-09-20T10:28:06Z</time>
      </trkpt>
      <trkpt lat="49.21092" lon="4.11745">
        <ele>129</ele>
        <time>2020-09-20T10:28:07Z</time>
      </trkpt>
      <trkpt lat="49.21089" lon="4.11753">
        <ele>129</ele>
        <time>2020-09-20T10:28:08Z</time>
      </trkpt>
      <trkpt lat="49.21086" lon="4.11762">
        <ele>129</ele>
        <time>2020-09-20T10:28:09Z</time>
      </trkpt>
      <trkpt lat="49.21083" lon="4.11771">
        <ele>129</ele>
        <time>2020-09-20T10:28:10Z</time>
      </trkpt>
      <trkpt lat="49.2108" lon="4.1178">
        <ele>128</ele>
        <time>2020-09-20T10:28:11Z</time>
      </trkpt>
      <trkpt lat="49.21077" lon="4.11788">
        <ele>129</ele>
        <time>2020-09-20T10:28:12Z</time>
      </trkpt>
      <trkpt lat="49.21073" lon="4.11796">
        <ele>129</ele>
        <time>2020-09-20T10:28:13Z</time>
      </trkpt>
      <trkpt lat="49.21069" lon="4.11805">
        <ele>129</ele>
        <time>2020-09-20T10:28:14Z</time>
      </trkpt>
      <trkpt lat="49.21066" lon="4.11813">
        <ele>129</ele>
        <time>2020-09-20T10:28:15Z</time>
      </trkpt>
      <trkpt lat="49.21064" lon="4.11822">
        <ele>129</ele>
        <time>2020-09-20T10:28:16Z</time>
      </trkpt>
      <trkpt lat="49.21061" lon="4.11831">
        <ele>129</ele>
        <time>2020-09-20T10:28:17Z</time>
      </trkpt>
      <trkpt lat="49.21058" lon="4.11839">
        <ele>129</ele>
        <time>2020-09-20T10:28:18Z</time>
      </trkpt>
      <trkpt lat="49.21056" lon="4.11848">
        <ele>129</ele>
        <time>2020-09-20T10:28:19Z</time>
      </trkpt>
      <trkpt lat="49.21053" lon="4.11857">
        <ele>129</ele>
        <time>2020-09-20T10:28:20Z</time>
      </trkpt>
      <trkpt lat="49.2105" lon="4.11865">
        <ele>129</ele>
        <time>2020-09-20T10:28:21Z</time>
      </trkpt>
      <trkpt lat="49.21047" lon="4.11874">
        <ele>130</ele>
        <time>2020-09-20T10:28:22Z</time>
      </trkpt>
      <trkpt lat="49.21044" lon="4.11882">
        <ele>129</ele>
        <time>2020-09-20T10:28:23Z</time>
      </trkpt>
      <trkpt lat="49.21042" lon="4.11891">
        <ele>129</ele>
        <time>2020-09-20T10:28:24Z</time>
      </trkpt>
      <trkpt lat="49.21039" lon="4.11899">
        <ele>129</ele>
        <time>2020-09-20T10:28:25Z</time>
      </trkpt>
      <trkpt lat="49.21036" lon="4.11907">
        <ele>129</ele>
        <time>2020-09-20T10:28:26Z</time>
      </trkpt>
      <trkpt lat="49.21033" lon="4.11915">
        <ele>128</ele>
        <time>2020-09-20T10:28:27Z</time>
      </trkpt>
      <trkpt lat="49.21031" lon="4.11923">
        <ele>128</ele>
        <time>2020-09-20T10:28:28Z</time>
      </trkpt>
      <trkpt lat="49.21029" lon="4.11932">
        <ele>129</ele>
        <time>2020-09-20T10:28:29Z</time>
      </trkpt>
      <trkpt lat="49.21026" lon="4.1194">
        <ele>129</ele>
        <time>2020-09-20T10:28:30Z</time>
      </trkpt>
      <trkpt lat="49.21024" lon="4.11949">
        <ele>129</ele>
        <time>2020-09-20T10:28:31Z</time>
      </trkpt>
      <trkpt lat="49.21021" lon="4.11957">
        <ele>129</ele>
        <time>2020-09-20T10:28:32Z</time>
      </trkpt>
      <trkpt lat="49.21018" lon="4.11965">
        <ele>129</ele>
        <time>2020-09-20T10:28:33Z</time>
      </trkpt>
      <trkpt lat="49.21015" lon="4.11973">
        <ele>129</ele>
        <time>2020-09-20T10:28:34Z</time>
      </trkpt>
      <trkpt lat="49.21012" lon="4.11981">
        <ele>129</ele>
        <time>2020-09-20T10:28:35Z</time>
      </trkpt>
      <trkpt lat="49.21009" lon="4.11989">
        <ele>129</ele>
        <time>2020-09-20T10:28:36Z</time>
      </trkpt>
      <trkpt lat="49.21007" lon="4.11997">
        <ele>129</ele>
        <time>2020-09-20T10:28:37Z</time>
      </trkpt>
      <trkpt lat="49.21004" lon="4.12005">
        <ele>129</ele>
        <time>2020-09-20T10:28:38Z</time>
      </trkpt>
      <trkpt lat="49.21002" lon="4.12013">
        <ele>129</ele>
        <time>2020-09-20T10:28:39Z</time>
      </trkpt>
      <trkpt lat="49.21" lon="4.12021">
        <ele>129</ele>
        <time>2020-09-20T10:28:40Z</time>
      </trkpt>
      <trkpt lat="49.20997" lon="4.12029">
        <ele>129</ele>
        <time>2020-09-20T10:28:41Z</time>
      </trkpt>
      <trkpt lat="49.20995" lon="4.12037">
        <ele>129</ele>
        <time>2020-09-20T10:28:42Z</time>
      </trkpt>
      <trkpt lat="49.20993" lon="4.12045">
        <ele>129</ele>
        <time>2020-09-20T10:28:43Z</time>
      </trkpt>
      <trkpt lat="49.2099" lon="4.12053">
        <ele>129</ele>
        <time>2020-09-20T10:28:44Z</time>
      </trkpt>
      <trkpt lat="49.20988" lon="4.12061">
        <ele>129</ele>
        <time>2020-09-20T10:28:45Z</time>
      </trkpt>
      <trkpt lat="49.20986" lon="4.12068">
        <ele>129</ele>
        <time>2020-09-20T10:28:46Z</time>
      </trkpt>
      <trkpt lat="49.20983" lon="4.12076">
        <ele>129</ele>
        <time>2020-09-20T10:28:47Z</time>
      </trkpt>
      <trkpt lat="49.20981" lon="4.12084">
        <ele>129</ele>
        <time>2020-09-20T10:28:48Z</time>
      </trkpt>
      <trkpt lat="49.20979" lon="4.12092">
        <ele>129</ele>
        <time>2020-09-20T10:28:49Z</time>
      </trkpt>
      <trkpt lat="49.20976" lon="4.121">
        <ele>129</ele>
        <time>2020-09-20T10:28:50Z</time>
      </trkpt>
      <trkpt lat="49.20974" lon="4.12108">
        <ele>130</ele>
        <time>2020-09-20T10:28:51Z</time>
      </trkpt>
      <trkpt lat="49.20972" lon="4.12116">
        <ele>130</ele>
        <time>2020-09-20T10:28:52Z</time>
      </trkpt>
      <trkpt lat="49.2097" lon="4.12124">
        <ele>130</ele>
        <time>2020-09-20T10:28:53Z</time>
      </trkpt>
      <trkpt lat="49.20968" lon="4.12132">
        <ele>130</ele>
        <time>2020-09-20T10:28:54Z</time>
      </trkpt>
      <trkpt lat="49.20966" lon="4.12139">
        <ele>131</ele>
        <time>2020-09-20T10:28:55Z</time>
      </trkpt>
      <trkpt lat="49.20964" lon="4.12147">
        <ele>131</ele>
        <time>2020-09-20T10:28:56Z</time>
      </trkpt>
      <trkpt lat="49.20962" lon="4.12154">
        <ele>131</ele>
        <time>2020-09-20T10:28:57Z</time>
      </trkpt>
      <trkpt lat="49.20959" lon="4.12161">
        <ele>131</ele>
        <time>2020-09-20T10:28:58Z</time>
      </trkpt>
      <trkpt lat="49.20956" lon="4.12169">
        <ele>131</ele>
        <time>2020-09-20T10:28:59Z</time>
      </trkpt>
      <trkpt lat="49.20953" lon="4.12176">
        <ele>131</ele>
        <time>2020-09-20T10:29:00Z</time>
      </trkpt>
      <trkpt lat="49.2095" lon="4.12182">
        <ele>130</ele>
        <time>2020-09-20T10:29:01Z</time>
      </trkpt>
      <trkpt lat="49.20948" lon="4.12189">
        <ele>131</ele>
        <time>2020-09-20T10:29:02Z</time>
      </trkpt>
      <trkpt lat="49.20946" lon="4.12196">
        <ele>131</ele>
        <time>2020-09-20T10:29:03Z</time>
      </trkpt>
      <trkpt lat="49.20943" lon="4.12203">
        <ele>131</ele>
        <time>2020-09-20T10:29:04Z</time>
      </trkpt>
      <trkpt lat="49.2094" lon="4.12211">
        <ele>131</ele>
        <time>2020-09-20T10:29:05Z</time>
      </trkpt>
      <trkpt lat="49.20938" lon="4.12217">
        <ele>131</ele>
        <time>2020-09-20T10:29:06Z</time>
      </trkpt>
      <trkpt lat="49.20936" lon="4.12224">
        <ele>131</ele>
        <time>2020-09-20T10:29:07Z</time>
      </trkpt>
      <trkpt lat="49.20934" lon="4.12232">
        <ele>131</ele>
        <time>2020-09-20T10:29:08Z</time>
      </trkpt>
      <trkpt lat="49.20932" lon="4.12239">
        <ele>131</ele>
        <time>2020-09-20T10:29:09Z</time>
      </trkpt>
      <trkpt lat="49.2093" lon="4.12246">
        <ele>131</ele>
        <time>2020-09-20T10:29:10Z</time>
      </trkpt>
      <trkpt lat="49.20928" lon="4.12254">
        <ele>131</ele>
        <time>2020-09-20T10:29:11Z</time>
      </trkpt>
      <trkpt lat="49.20926" lon="4.12261">
        <ele>131</ele>
        <time>2020-09-20T10:29:12Z</time>
      </trkpt>
      <trkpt lat="49.20923" lon="4.12269">
        <ele>131</ele>
        <time>2020-09-20T10:29:13Z</time>
      </trkpt>
      <trkpt lat="49.2092" lon="4.12276">
        <ele>131</ele>
        <time>2020-09-20T10:29:14Z</time>
      </trkpt>
      <trkpt lat="49.20918" lon="4.12284">
        <ele>131</ele>
        <time>2020-09-20T10:29:15Z</time>
      </trkpt>
      <trkpt lat="49.20916" lon="4.12292">
        <ele>131</ele>
        <time>2020-09-20T10:29:16Z</time>
      </trkpt>
      <trkpt lat="49.20913" lon="4.12299">
        <ele>131</ele>
        <time>2020-09-20T10:29:17Z</time>
      </trkpt>
      <trkpt lat="49.2091" lon="4.12306">
        <ele>131</ele>
        <time>2020-09-20T10:29:18Z</time>
      </trkpt>
      <trkpt lat="49.20907" lon="4.12314">
        <ele>131</ele>
        <time>2020-09-20T10:29:19Z</time>
      </trkpt>
      <trkpt lat="49.20904" lon="4.12321">
        <ele>131</ele>
        <time>2020-09-20T10:29:20Z</time>
      </trkpt>
      <trkpt lat="49.20902" lon="4.12328">
        <ele>131</ele>
        <time>2020-09-20T10:29:21Z</time>
      </trkpt>
      <trkpt lat="49.20899" lon="4.12335">
        <ele>131</ele>
        <time>2020-09-20T10:29:22Z</time>
      </trkpt>
      <trkpt lat="49.20897" lon="4.12343">
        <ele>131</ele>
        <time>2020-09-20T10:29:23Z</time>
      </trkpt>
      <trkpt lat="49.20894" lon="4.12351">
        <ele>131</ele>
        <time>2020-09-20T10:29:24Z</time>
      </trkpt>
      <trkpt lat="49.20892" lon="4.12358">
        <ele>131</ele>
        <time>2020-09-20T10:29:25Z</time>
      </trkpt>
      <trkpt lat="49.20889" lon="4.12365">
        <ele>131</ele>
        <time>2020-09-20T10:29:26Z</time>
      </trkpt>
      <trkpt lat="49.20887" lon="4.12373">
        <ele>131</ele>
        <time>2020-09-20T10:29:27Z</time>
      </trkpt>
      <trkpt lat="49.20884" lon="4.1238">
        <ele>131</ele>
        <time>2020-09-20T10:29:28Z</time>
      </trkpt>
      <trkpt lat="49.20882" lon="4.12388">
        <ele>131</ele>
        <time>2020-09-20T10:29:29Z</time>
      </trkpt>
      <trkpt lat="49.2088" lon="4.12396">
        <ele>131</ele>
        <time>2020-09-20T10:29:30Z</time>
      </trkpt>
      <trkpt lat="49.20878" lon="4.12404">
        <ele>131</ele>
        <time>2020-09-20T10:29:31Z</time>
      </trkpt>
      <trkpt lat="49.20876" lon="4.12411">
        <ele>131</ele>
        <time>2020-09-20T10:29:32Z</time>
      </trkpt>
      <trkpt lat="49.20874" lon="4.12419">
        <ele>131</ele>
        <time>2020-09-20T10:29:33Z</time>
      </trkpt>
      <trkpt lat="49.20872" lon="4.12427">
        <ele>130</ele>
        <time>2020-09-20T10:29:34Z</time>
      </trkpt>
      <trkpt lat="49.2087" lon="4.12435">
        <ele>130</ele>
        <time>2020-09-20T10:29:35Z</time>
      </trkpt>
      <trkpt lat="49.20868" lon="4.12442">
        <ele>130</ele>
        <time>2020-09-20T10:29:36Z</time>
      </trkpt>
      <trkpt lat="49.20865" lon="4.12449">
        <ele>130</ele>
        <time>2020-09-20T10:29:37Z</time>
      </trkpt>
      <trkpt lat="49.20863" lon="4.12457">
        <ele>130</ele>
        <time>2020-09-20T10:29:38Z</time>
      </trkpt>
      <trkpt lat="49.2086" lon="4.12464">
        <ele>131</ele>
        <time>2020-09-20T10:29:39Z</time>
      </trkpt>
      <trkpt lat="49.20857" lon="4.12471">
        <ele>131</ele>
        <time>2020-09-20T10:29:40Z</time>
      </trkpt>
      <trkpt lat="49.20854" lon="4.12478">
        <ele>131</ele>
        <time>2020-09-20T10:29:41Z</time>
      </trkpt>
      <trkpt lat="49.20851" lon="4.12484">
        <ele>130</ele>
        <time>2020-09-20T10:29:42Z</time>
      </trkpt>
      <trkpt lat="49.20848" lon="4.12491">
        <ele>131</ele>
        <time>2020-09-20T10:29:43Z</time>
      </trkpt>
      <trkpt lat="49.20845" lon="4.12498">
        <ele>131</ele>
        <time>2020-09-20T10:29:44Z</time>
      </trkpt>
      <trkpt lat="49.20843" lon="4.12505">
        <ele>130</ele>
        <time>2020-09-20T10:29:45Z</time>
      </trkpt>
      <trkpt lat="49.2084" lon="4.12512">
        <ele>130</ele>
        <time>2020-09-20T10:29:46Z</time>
      </trkpt>
      <trkpt lat="49.20838" lon="4.12519">
        <ele>131</ele>
        <time>2020-09-20T10:29:47Z</time>
      </trkpt>
      <trkpt lat="49.20835" lon="4.12527">
        <ele>131</ele>
        <time>2020-09-20T10:29:48Z</time>
      </trkpt>
      <trkpt lat="49.20832" lon="4.12534">
        <ele>131</ele>
        <time>2020-09-20T10:29:49Z</time>
      </trkpt>
      <trkpt lat="49.2083" lon="4.12541">
        <ele>131</ele>
        <time>2020-09-20T10:29:50Z</time>
      </trkpt>
      <trkpt lat="49.20827" lon="4.12548">
        <ele>131</ele>
        <time>2020-09-20T10:29:51Z</time>
      </trkpt>
      <trkpt lat="49.20825" lon="4.12555">
        <ele>131</ele>
        <time>2020-09-20T10:29:52Z</time>
      </trkpt>
      <trkpt lat="49.20822" lon="4.12563">
        <ele>131</ele>
        <time>2020-09-20T10:29:53Z</time>
      </trkpt>
      <trkpt lat="49.20819" lon="4.1257">
        <ele>131</ele>
        <time>2020-09-20T10:29:54Z</time>
      </trkpt>
      <trkpt lat="49.20817" lon="4.12577">
        <ele>131</ele>
        <time>2020-09-20T10:29:55Z</time>
      </trkpt>
      <trkpt lat="49.20814" lon="4.12585">
        <ele>131</ele>
        <time>2020-09-20T10:29:56Z</time>
      </trkpt>
      <trkpt lat="49.20812" lon="4.12593">
        <ele>131</ele>
        <time>2020-09-20T10:29:57Z</time>
      </trkpt>
      <trkpt lat="49.20809" lon="4.126">
        <ele>131</ele>
        <time>2020-09-20T10:29:58Z</time>
      </trkpt>
      <trkpt lat="49.20806" lon="4.12607">
        <ele>131</ele>
        <time>2020-09-20T10:29:59Z</time>
      </trkpt>
      <trkpt lat="49.20803" lon="4.12614">
        <ele>131</ele>
        <time>2020-09-20T10:30:00Z</time>
      </trkpt>
      <trkpt lat="49.20801" lon="4.12621">
        <ele>131</ele>
        <time>2020-09-20T10:30:01Z</time>
      </trkpt>
      <trkpt lat="49.20799" lon="4.12628">
        <ele>131</ele>
        <time>2020-09-20T10:30:02Z</time>
      </trkpt>
      <trkpt lat="49.20796" lon="4.12635">
        <ele>131</ele>
        <time>2020-09-20T10:30:03Z</time>
      </trkpt>
      <trkpt lat="49.20794" lon="4.12642">
        <ele>131</ele>
        <time>2020-09-20T10:30:04Z</time>
      </trkpt>
      <trkpt lat="49.20792" lon="4.12649">
        <ele>131</ele>
        <time>2020-09-20T10:30:05Z</time>
      </trkpt>
      <trkpt lat="49.20789" lon="4.12656">
        <ele>131</ele>
        <time>2020-09-20T10:30:06Z</time>
      </trkpt>
      <trkpt lat="49.20787" lon="4.12663">
        <ele>131</ele>
        <time>2020-09-20T10:30:07Z</time>
      </trkpt>
      <trkpt lat="49.20784" lon="4.1267">
        <ele>131</ele>
        <time>2020-09-20T10:30:08Z</time>
      </trkpt>
      <trkpt lat="49.20782" lon="4.12677">
        <ele>131</ele>
        <time>2020-09-20T10:30:09Z</time>
      </trkpt>
      <trkpt lat="49.2078" lon="4.12684">
        <ele>131</ele>
        <time>2020-09-20T10:30:10Z</time>
      </trkpt>
      <trkpt lat="49.20778" lon="4.12691">
        <ele>131</ele>
        <time>2020-09-20T10:30:11Z</time>
      </trkpt>
      <trkpt lat="49.20775" lon="4.12698">
        <ele>131</ele>
        <time>2020-09-20T10:30:12Z</time>
      </trkpt>
      <trkpt lat="49.20773" lon="4.12705">
        <ele>131</ele>
        <time>2020-09-20T10:30:13Z</time>
      </trkpt>
      <trkpt lat="49.2077" lon="4.12713">
        <ele>131</ele>
        <time>2020-09-20T10:30:14Z</time>
      </trkpt>
      <trkpt lat="49.20768" lon="4.1272">
        <ele>131</ele>
        <time>2020-09-20T10:30:15Z</time>
      </trkpt>
      <trkpt lat="49.20766" lon="4.12728">
        <ele>131</ele>
        <time>2020-09-20T10:30:16Z</time>
      </trkpt>
      <trkpt lat="49.20764" lon="4.12735">
        <ele>131</ele>
        <time>2020-09-20T10:30:17Z</time>
      </trkpt>
      <trkpt lat="49.20761" lon="4.12743">
        <ele>130</ele>
        <time>2020-09-20T10:30:18Z</time>
      </trkpt>
      <trkpt lat="49.20759" lon="4.1275">
        <ele>130</ele>
        <time>2020-09-20T10:30:19Z</time>
      </trkpt>
      <trkpt lat="49.20756" lon="4.12758">
        <ele>130</ele>
        <time>2020-09-20T10:30:20Z</time>
      </trkpt>
      <trkpt lat="49.20754" lon="4.12765">
        <ele>130</ele>
        <time>2020-09-20T10:30:21Z</time>
      </trkpt>
      <trkpt lat="49.20751" lon="4.12772">
        <ele>131</ele>
        <time>2020-09-20T10:30:22Z</time>
      </trkpt>
      <trkpt lat="49.20749" lon="4.1278">
        <ele>130</ele>
        <time>2020-09-20T10:30:23Z</time>
      </trkpt>
      <trkpt lat="49.20747" lon="4.12787">
        <ele>130</ele>
        <time>2020-09-20T10:30:24Z</time>
      </trkpt>
      <trkpt lat="49.20744" lon="4.12795">
        <ele>130</ele>
        <time>2020-09-20T10:30:25Z</time>
      </trkpt>
      <trkpt lat="49.20742" lon="4.12802">
        <ele>130</ele>
        <time>2020-09-20T10:30:26Z</time>
      </trkpt>
      <trkpt lat="49.2074" lon="4.12809">
        <ele>130</ele>
        <time>2020-09-20T10:30:27Z</time>
      </trkpt>
      <trkpt lat="49.20737" lon="4.12817">
        <ele>130</ele>
        <time>2020-09-20T10:30:28Z</time>
      </trkpt>
      <trkpt lat="49.20735" lon="4.12825">
        <ele>130</ele>
        <time>2020-09-20T10:30:29Z</time>
      </trkpt>
      <trkpt lat="49.20732" lon="4.12832">
        <ele>130</ele>
        <time>2020-09-20T10:30:30Z</time>
      </trkpt>
      <trkpt lat="49.2073" lon="4.1284">
        <ele>130</ele>
        <time>2020-09-20T10:30:31Z</time>
      </trkpt>
      <trkpt lat="49.20727" lon="4.12847">
        <ele>130</ele>
        <time>2020-09-20T10:30:32Z</time>
      </trkpt>
      <trkpt lat="49.20725" lon="4.12855">
        <ele>130</ele>
        <time>2020-09-20T10:30:33Z</time>
      </trkpt>
      <trkpt lat="49.20723" lon="4.12862">
        <ele>130</ele>
        <time>2020-09-20T10:30:34Z</time>
      </trkpt>
      <trkpt lat="49.2072" lon="4.1287">
        <ele>130</ele>
        <time>2020-09-20T10:30:35Z</time>
      </trkpt>
      <trkpt lat="49.20718" lon="4.12877">
        <ele>130</ele>
        <time>2020-09-20T10:30:36Z</time>
      </trkpt>
      <trkpt lat="49.20716" lon="4.12885">
        <ele>130</ele>
        <time>2020-09-20T10:30:37Z</time>
      </trkpt>
      <trkpt lat="49.20713" lon="4.12892">
        <ele>130</ele>
        <time>2020-09-20T10:30:38Z</time>
      </trkpt>
      <trkpt lat="49.20711" lon="4.12899">
        <ele>130</ele>
        <time>2020-09-20T10:30:39Z</time>
      </trkpt>
      <trkpt lat="49.20708" lon="4.12907">
        <ele>130</ele>
        <time>2020-09-20T10:30:40Z</time>
      </trkpt>
      <trkpt lat="49.20706" lon="4.12914">
        <ele>130</ele>
        <time>2020-09-20T10:30:41Z</time>
      </trkpt>
      <trkpt lat="49.20703" lon="4.12922">
        <ele>130</ele>
        <time>2020-09-20T10:30:42Z</time>
      </trkpt>
      <trkpt lat="49.20701" lon="4.12929">
        <ele>130</ele>
        <time>2020-09-20T10:30:43Z</time>
      </trkpt>
      <trkpt lat="49.20698" lon="4.12937">
        <ele>130</ele>
        <time>2020-09-20T10:30:44Z</time>
      </trkpt>
      <trkpt lat="49.20696" lon="4.12944">
        <ele>129</ele>
        <time>2020-09-20T10:30:45Z</time>
      </trkpt>
      <trkpt lat="49.20693" lon="4.12952">
        <ele>129</ele>
        <time>2020-09-20T10:30:46Z</time>
      </trkpt>
      <trkpt lat="49.20691" lon="4.12959">
        <ele>129</ele>
        <time>2020-09-20T10:30:47Z</time>
      </trkpt>
      <trkpt lat="49.20689" lon="4.12967">
        <ele>130</ele>
        <time>2020-09-20T10:30:48Z</time>
      </trkpt>
      <trkpt lat="49.20686" lon="4.12975">
        <ele>129</ele>
        <time>2020-09-20T10:30:49Z</time>
      </trkpt>
      <trkpt lat="49.20684" lon="4.12982">
        <ele>129</ele>
        <time>2020-09-20T10:30:50Z</time>
      </trkpt>
      <trkpt lat="49.20681" lon="4.12989">
        <ele>129</ele>
        <time>2020-09-20T10:30:51Z</time>
      </trkpt>
      <trkpt lat="49.20679" lon="4.12996">
        <ele>129</ele>
        <time>2020-09-20T10:30:52Z</time>
      </trkpt>
      <trkpt lat="49.20677" lon="4.13003">
        <ele>129</ele>
        <time>2020-09-20T10:30:53Z</time>
      </trkpt>
      <trkpt lat="49.20674" lon="4.1301">
        <ele>129</ele>
        <time>2020-09-20T10:30:54Z</time>
      </trkpt>
      <trkpt lat="49.20672" lon="4.13018">
        <ele>129</ele>
        <time>2020-09-20T10:30:55Z</time>
      </trkpt>
      <trkpt lat="49.2067" lon="4.13025">
        <ele>129</ele>
        <time>2020-09-20T10:30:56Z</time>
      </trkpt>
      <trkpt lat="49.20667" lon="4.13033">
        <ele>129</ele>
        <time>2020-09-20T10:30:57Z</time>
      </trkpt>
      <trkpt lat="49.20665" lon="4.13041">
        <ele>129</ele>
        <time>2020-09-20T10:30:58Z</time>
      </trkpt>
      <trkpt lat="49.20662" lon="4.13048">
        <ele>129</ele>
        <time>2020-09-20T10:30:59Z</time>
      </trkpt>
      <trkpt lat="49.2066" lon="4.13056">
        <ele>129</ele>
        <time>2020-09-20T10:31:00Z</time>
      </trkpt>
      <trkpt lat="49.20658" lon="4.13064">
        <ele>129</ele>
        <time>2020-09-20T10:31:01Z</time>
      </trkpt>
      <trkpt lat="49.20655" lon="4.13071">
        <ele>129</ele>
        <time>2020-09-20T10:31:02Z</time>
      </trkpt>
      <trkpt lat="49.20652" lon="4.13078">
        <ele>129</ele>
        <time>2020-09-20T10:31:03Z</time>
      </trkpt>
      <trkpt lat="49.2065" lon="4.13086">
        <ele>129</ele>
        <time>2020-09-20T10:31:04Z</time>
      </trkpt>
      <trkpt lat="49.20648" lon="4.13093">
        <ele>129</ele>
        <time>2020-09-20T10:31:05Z</time>
      </trkpt>
      <trkpt lat="49.20645" lon="4.131">
        <ele>129</ele>
        <time>2020-09-20T10:31:06Z</time>
      </trkpt>
      <trkpt lat="49.20643" lon="4.13107">
        <ele>129</ele>
        <time>2020-09-20T10:31:07Z</time>
      </trkpt>
      <trkpt lat="49.20641" lon="4.13115">
        <ele>129</ele>
        <time>2020-09-20T10:31:08Z</time>
      </trkpt>
      <trkpt lat="49.20638" lon="4.13122">
        <ele>129</ele>
        <time>2020-09-20T10:31:09Z</time>
      </trkpt>
      <trkpt lat="49.20636" lon="4.1313">
        <ele>129</ele>
        <time>2020-09-20T10:31:10Z</time>
      </trkpt>
      <trkpt lat="49.20634" lon="4.13138">
        <ele>129</ele>
        <time>2020-09-20T10:31:11Z</time>
      </trkpt>
      <trkpt lat="49.20632" lon="4.13146">
        <ele>129</ele>
        <time>2020-09-20T10:31:12Z</time>
      </trkpt>
      <trkpt lat="49.2063" lon="4.13154">
        <ele>129</ele>
        <time>2020-09-20T10:31:13Z</time>
      </trkpt>
      <trkpt lat="49.20628" lon="4.13163">
        <ele>129</ele>
        <time>2020-09-20T10:31:14Z</time>
      </trkpt>
      <trkpt lat="49.20626" lon="4.13171">
        <ele>129</ele>
        <time>2020-09-20T10:31:15Z</time>
      </trkpt>
      <trkpt lat="49.20624" lon="4.13179">
        <ele>129</ele>
        <time>2020-09-20T10:31:16Z</time>
      </trkpt>
      <trkpt lat="49.20622" lon="4.13188">
        <ele>129</ele>
        <time>2020-09-20T10:31:17Z</time>
      </trkpt>
      <trkpt lat="49.20619" lon="4.13196">
        <ele>128</ele>
        <time>2020-09-20T10:31:18Z</time>
      </trkpt>
      <trkpt lat="49.20617" lon="4.13205">
        <ele>128</ele>
        <time>2020-09-20T10:31:19Z</time>
      </trkpt>
      <trkpt lat="49.20615" lon="4.13214">
        <ele>128</ele>
        <time>2020-09-20T10:31:20Z</time>
      </trkpt>
      <trkpt lat="49.20612" lon="4.13222">
        <ele>128</ele>
        <time>2020-09-20T10:31:21Z</time>
      </trkpt>
      <trkpt lat="49.2061" lon="4.1323">
        <ele>129</ele>
        <time>2020-09-20T10:31:22Z</time>
      </trkpt>
      <trkpt lat="49.20607" lon="4.13238">
        <ele>129</ele>
        <time>2020-09-20T10:31:23Z</time>
      </trkpt>
      <trkpt lat="49.20605" lon="4.13246">
        <ele>129</ele>
        <time>2020-09-20T10:31:24Z</time>
      </trkpt>
      <trkpt lat="49.20602" lon="4.13253">
        <ele>129</ele>
        <time>2020-09-20T10:31:25Z</time>
      </trkpt>
      <trkpt lat="49.206" lon="4.13261">
        <ele>129</ele>
        <time>2020-09-20T10:31:26Z</time>
      </trkpt>
      <trkpt lat="49.20598" lon="4.1327">
        <ele>129</ele>
        <time>2020-09-20T10:31:27Z</time>
      </trkpt>
      <trkpt lat="49.20595" lon="4.13278">
        <ele>129</ele>
        <time>2020-09-20T10:31:28Z</time>
      </trkpt>
      <trkpt lat="49.20593" lon="4.13286">
        <ele>129</ele>
        <time>2020-09-20T10:31:29Z</time>
      </trkpt>
      <trkpt lat="49.2059" lon="4.13294">
        <ele>129</ele>
        <time>2020-09-20T10:31:30Z</time>
      </trkpt>
      <trkpt lat="49.20587" lon="4.13302">
        <ele>129</ele>
        <time>2020-09-20T10:31:31Z</time>
      </trkpt>
      <trkpt lat="49.20585" lon="4.13309">
        <ele>129</ele>
        <time>2020-09-20T10:31:32Z</time>
      </trkpt>
      <trkpt lat="49.20583" lon="4.13317">
        <ele>129</ele>
        <time>2020-09-20T10:31:33Z</time>
      </trkpt>
      <trkpt lat="49.20581" lon="4.13324">
        <ele>129</ele>
        <time>2020-09-20T10:31:34Z</time>
      </trkpt>
      <trkpt lat="49.20578" lon="4.13331">
        <ele>129</ele>
        <time>2020-09-20T10:31:35Z</time>
      </trkpt>
      <trkpt lat="49.20575" lon="4.13338">
        <ele>129</ele>
        <time>2020-09-20T10:31:36Z</time>
      </trkpt>
      <trkpt lat="49.20572" lon="4.13344">
        <ele>129</ele>
        <time>2020-09-20T10:31:37Z</time>
      </trkpt>
      <trkpt lat="49.20569" lon="4.13351">
        <ele>129</ele>
        <time>2020-09-20T10:31:38Z</time>
      </trkpt>
      <trkpt lat="49.20565" lon="4.13357">
        <ele>130</ele>
        <time>2020-09-20T10:31:39Z</time>
      </trkpt>
      <trkpt lat="49.20561" lon="4.13364">
        <ele>130</ele>
        <time>2020-09-20T10:31:40Z</time>
      </trkpt>
      <trkpt lat="49.20558" lon="4.13371">
        <ele>130</ele>
        <time>2020-09-20T10:31:41Z</time>
      </trkpt>
      <trkpt lat="49.20554" lon="4.13379">
        <ele>130</ele>
        <time>2020-09-20T10:31:42Z</time>
      </trkpt>
      <trkpt lat="49.2055" lon="4.13386">
        <ele>130</ele>
        <time>2020-09-20T10:31:43Z</time>
      </trkpt>
      <trkpt lat="49.20546" lon="4.13393">
        <ele>129</ele>
        <time>2020-09-20T10:31:44Z</time>
      </trkpt>
      <trkpt lat="49.20542" lon="4.134">
        <ele>130</ele>
        <time>2020-09-20T10:31:45Z</time>
      </trkpt>
      <trkpt lat="49.20538" lon="4.13407">
        <ele>130</ele>
        <time>2020-09-20T10:31:46Z</time>
      </trkpt>
      <trkpt lat="49.20534" lon="4.13414">
        <ele>130</ele>
        <time>2020-09-20T10:31:47Z</time>
      </trkpt>
      <trkpt lat="49.2053" lon="4.13421">
        <ele>130</ele>
        <time>2020-09-20T10:31:48Z</time>
      </trkpt>
      <trkpt lat="49.20525" lon="4.13427">
        <ele>130</ele>
        <time>2020-09-20T10:31:49Z</time>
      </trkpt>
      <trkpt lat="49.20521" lon="4.13433">
        <ele>131</ele>
        <time>2020-09-20T10:31:50Z</time>
      </trkpt>
      <trkpt lat="49.20517" lon="4.13439">
        <ele>131</ele>
        <time>2020-09-20T10:31:51Z</time>
      </trkpt>
      <trkpt lat="49.20512" lon="4.13444">
        <ele>131</ele>
        <time>2020-09-20T10:31:52Z</time>
      </trkpt>
      <trkpt lat="49.20508" lon="4.13451">
        <ele>131</ele>
        <time>2020-09-20T10:31:53Z</time>
      </trkpt>
      <trkpt lat="49.20503" lon="4.13457">
        <ele>132</ele>
        <time>2020-09-20T10:31:54Z</time>
      </trkpt>
      <trkpt lat="49.20498" lon="4.13462">
        <ele>132</ele>
        <time>2020-09-20T10:31:55Z</time>
      </trkpt>
      <trkpt lat="49.20494" lon="4.13467">
        <ele>132</ele>
        <time>2020-09-20T10:31:56Z</time>
      </trkpt>
      <trkpt lat="49.20489" lon="4.13473">
        <ele>132</ele>
        <time>2020-09-20T10:31:57Z</time>
      </trkpt>
      <trkpt lat="49.20484" lon="4.13478">
        <ele>133</ele>
        <time>2020-09-20T10:31:58Z</time>
      </trkpt>
      <trkpt lat="49.20479" lon="4.13484">
        <ele>132</ele>
        <time>2020-09-20T10:31:59Z</time>
      </trkpt>
      <trkpt lat="49.20474" lon="4.13489">
        <ele>132</ele>
        <time>2020-09-20T10:32:00Z</time>
      </trkpt>
      <trkpt lat="49.20469" lon="4.13493">
        <ele>132</ele>
        <time>2020-09-20T10:32:01Z</time>
      </trkpt>
      <trkpt lat="49.20464" lon="4.13498">
        <ele>132</ele>
        <time>2020-09-20T10:32:02Z</time>
      </trkpt>
      <trkpt lat="49.20459" lon="4.13503">
        <ele>132</ele>
        <time>2020-09-20T10:32:03Z</time>
      </trkpt>
      <trkpt lat="49.20453" lon="4.13508">
        <ele>133</ele>
        <time>2020-09-20T10:32:04Z</time>
      </trkpt>
      <trkpt lat="49.20448" lon="4.13512">
        <ele>133</ele>
        <time>2020-09-20T10:32:05Z</time>
      </trkpt>
      <trkpt lat="49.20443" lon="4.13516">
        <ele>133</ele>
        <time>2020-09-20T10:32:06Z</time>
      </trkpt>
      <trkpt lat="49.20438" lon="4.1352">
        <ele>133</ele>
        <time>2020-09-20T10:32:07Z</time>
      </trkpt>
      <trkpt lat="49.20433" lon="4.13523">
        <ele>133</ele>
        <time>2020-09-20T10:32:08Z</time>
      </trkpt>
      <trkpt lat="49.20428" lon="4.13527">
        <ele>133</ele>
        <time>2020-09-20T10:32:09Z</time>
      </trkpt>
      <trkpt lat="49.20423" lon="4.1353">
        <ele>133</ele>
        <time>2020-09-20T10:32:10Z</time>
      </trkpt>
      <trkpt lat="49.20418" lon="4.13534">
        <ele>132</ele>
        <time>2020-09-20T10:32:11Z</time>
      </trkpt>
      <trkpt lat="49.20413" lon="4.13537">
        <ele>132</ele>
        <time>2020-09-20T10:32:12Z</time>
      </trkpt>
      <trkpt lat="49.20407" lon="4.13541">
        <ele>133</ele>
        <time>2020-09-20T10:32:13Z</time>
      </trkpt>
      <trkpt lat="49.20402" lon="4.13543">
        <ele>132</ele>
        <time>2020-09-20T10:32:14Z</time>
      </trkpt>
      <trkpt lat="49.20396" lon="4.13546">
        <ele>132</ele>
        <time>2020-09-20T10:32:15Z</time>
      </trkpt>
      <trkpt lat="49.2039" lon="4.13549">
        <ele>132</ele>
        <time>2020-09-20T10:32:16Z</time>
      </trkpt>
      <trkpt lat="49.20384" lon="4.13552">
        <ele>132</ele>
        <time>2020-09-20T10:32:17Z</time>
      </trkpt>
      <trkpt lat="49.20378" lon="4.13555">
        <ele>132</ele>
        <time>2020-09-20T10:32:18Z</time>
      </trkpt>
      <trkpt lat="49.20373" lon="4.13558">
        <ele>132</ele>
        <time>2020-09-20T10:32:19Z</time>
      </trkpt>
      <trkpt lat="49.20367" lon="4.13561">
        <ele>132</ele>
        <time>2020-09-20T10:32:20Z</time>
      </trkpt>
      <trkpt lat="49.20361" lon="4.13564">
        <ele>132</ele>
        <time>2020-09-20T10:32:21Z</time>
      </trkpt>
      <trkpt lat="49.20355" lon="4.13566">
        <ele>132</ele>
        <time>2020-09-20T10:32:22Z</time>
      </trkpt>
      <trkpt lat="49.20348" lon="4.13568">
        <ele>132</ele>
        <time>2020-09-20T10:32:23Z</time>
      </trkpt>
      <trkpt lat="49.20342" lon="4.1357">
        <ele>131</ele>
        <time>2020-09-20T10:32:24Z</time>
      </trkpt>
      <trkpt lat="49.20336" lon="4.13572">
        <ele>131</ele>
        <time>2020-09-20T10:32:25Z</time>
      </trkpt>
      <trkpt lat="49.2033" lon="4.13573">
        <ele>131</ele>
        <time>2020-09-20T10:32:26Z</time>
      </trkpt>
      <trkpt lat="49.20324" lon="4.13574">
        <ele>131</ele>
        <time>2020-09-20T10:32:27Z</time>
      </trkpt>
      <trkpt lat="49.20318" lon="4.13575">
        <ele>131</ele>
        <time>2020-09-20T10:32:28Z</time>
      </trkpt>
      <trkpt lat="49.20312" lon="4.13576">
        <ele>130</ele>
        <time>2020-09-20T10:32:29Z</time>
      </trkpt>
      <trkpt lat="49.20306" lon="4.13578">
        <ele>130</ele>
        <time>2020-09-20T10:32:30Z</time>
      </trkpt>
      <trkpt lat="49.203" lon="4.13579">
        <ele>130</ele>
        <time>2020-09-20T10:32:31Z</time>
      </trkpt>
      <trkpt lat="49.20294" lon="4.1358">
        <ele>130</ele>
        <time>2020-09-20T10:32:32Z</time>
      </trkpt>
      <trkpt lat="49.20288" lon="4.13581">
        <ele>130</ele>
        <time>2020-09-20T10:32:33Z</time>
      </trkpt>
      <trkpt lat="49.20283" lon="4.13582">
        <ele>130</ele>
        <time>2020-09-20T10:32:34Z</time>
      </trkpt>
      <trkpt lat="49.20277" lon="4.13582">
        <ele>130</ele>
        <time>2020-09-20T10:32:35Z</time>
      </trkpt>
      <trkpt lat="49.20272" lon="4.13582">
        <ele>130</ele>
        <time>2020-09-20T10:32:36Z</time>
      </trkpt>
      <trkpt lat="49.20266" lon="4.13583">
        <ele>130</ele>
        <time>2020-09-20T10:32:37Z</time>
      </trkpt>
      <trkpt lat="49.2026" lon="4.13584">
        <ele>130</ele>
        <time>2020-09-20T10:32:38Z</time>
      </trkpt>
      <trkpt lat="49.20254" lon="4.13585">
        <ele>130</ele>
        <time>2020-09-20T10:32:39Z</time>
      </trkpt>
      <trkpt lat="49.20249" lon="4.13586">
        <ele>130</ele>
        <time>2020-09-20T10:32:40Z</time>
      </trkpt>
      <trkpt lat="49.20243" lon="4.13588">
        <ele>129</ele>
        <time>2020-09-20T10:32:41Z</time>
      </trkpt>
      <trkpt lat="49.20237" lon="4.13589">
        <ele>129</ele>
        <time>2020-09-20T10:32:42Z</time>
      </trkpt>
      <trkpt lat="49.20232" lon="4.13589">
        <ele>129</ele>
        <time>2020-09-20T10:32:43Z</time>
      </trkpt>
      <trkpt lat="49.20226" lon="4.13589">
        <ele>129</ele>
        <time>2020-09-20T10:32:44Z</time>
      </trkpt>
      <trkpt lat="49.2022" lon="4.1359">
        <ele>129</ele>
        <time>2020-09-20T10:32:45Z</time>
      </trkpt>
      <trkpt lat="49.20215" lon="4.13591">
        <ele>129</ele>
        <time>2020-09-20T10:32:46Z</time>
      </trkpt>
      <trkpt lat="49.2021" lon="4.13592">
        <ele>129</ele>
        <time>2020-09-20T10:32:47Z</time>
      </trkpt>
      <trkpt lat="49.20204" lon="4.13593">
        <ele>130</ele>
        <time>2020-09-20T10:32:48Z</time>
      </trkpt>
      <trkpt lat="49.20199" lon="4.13594">
        <ele>130</ele>
        <time>2020-09-20T10:32:49Z</time>
      </trkpt>
      <trkpt lat="49.20193" lon="4.13594">
        <ele>129</ele>
        <time>2020-09-20T10:32:50Z</time>
      </trkpt>
      <trkpt lat="49.20188" lon="4.13595">
        <ele>129</ele>
        <time>2020-09-20T10:32:51Z</time>
      </trkpt>
      <trkpt lat="49.20183" lon="4.13595">
        <ele>130</ele>
        <time>2020-09-20T10:32:52Z</time>
      </trkpt>
      <trkpt lat="49.20177" lon="4.13596">
        <ele>130</ele>
        <time>2020-09-20T10:32:53Z</time>
      </trkpt>
      <trkpt lat="49.20172" lon="4.13597">
        <ele>130</ele>
        <time>2020-09-20T10:32:54Z</time>
      </trkpt>
      <trkpt lat="49.20163" lon="4.136">
        <ele>130</ele>
        <time>2020-09-20T10:32:56Z</time>
      </trkpt>
      <trkpt lat="49.20158" lon="4.13601">
        <ele>130</ele>
        <time>2020-09-20T10:32:57Z</time>
      </trkpt>
      <trkpt lat="49.20154" lon="4.13602">
        <ele>130</ele>
        <time>2020-09-20T10:32:58Z</time>
      </trkpt>
      <trkpt lat="49.2015" lon="4.13605">
        <ele>131</ele>
        <time>2020-09-20T10:32:59Z</time>
      </trkpt>
      <trkpt lat="49.20146" lon="4.13606">
        <ele>131</ele>
        <time>2020-09-20T10:33:00Z</time>
      </trkpt>
      <trkpt lat="49.20142" lon="4.13608">
        <ele>132</ele>
        <time>2020-09-20T10:33:01Z</time>
      </trkpt>
      <trkpt lat="49.20138" lon="4.1361">
        <ele>132</ele>
        <time>2020-09-20T10:33:02Z</time>
      </trkpt>
      <trkpt lat="49.20134" lon="4.13611">
        <ele>132</ele>
        <time>2020-09-20T10:33:03Z</time>
      </trkpt>
      <trkpt lat="49.2013" lon="4.13612">
        <ele>132</ele>
        <time>2020-09-20T10:33:04Z</time>
      </trkpt>
      <trkpt lat="49.20126" lon="4.13613">
        <ele>132</ele>
        <time>2020-09-20T10:33:05Z</time>
      </trkpt>
      <trkpt lat="49.20122" lon="4.13614">
        <ele>132</ele>
        <time>2020-09-20T10:33:06Z</time>
      </trkpt>
      <trkpt lat="49.20118" lon="4.13615">
        <ele>132</ele>
        <time>2020-09-20T10:33:07Z</time>
      </trkpt>
      <trkpt lat="49.20114" lon="4.13617">
        <ele>131</ele>
        <time>2020-09-20T10:33:08Z</time>
      </trkpt>
      <trkpt lat="49.2011" lon="4.13619">
        <ele>132</ele>
        <time>2020-09-20T10:33:09Z</time>
      </trkpt>
      <trkpt lat="49.20106" lon="4.1362">
        <ele>131</ele>
        <time>2020-09-20T10:33:10Z</time>
      </trkpt>
      <trkpt lat="49.20102" lon="4.13623">
        <ele>131</ele>
        <time>2020-09-20T10:33:11Z</time>
      </trkpt>
      <trkpt lat="49.20098" lon="4.13625">
        <ele>131</ele>
        <time>2020-09-20T10:33:12Z</time>
      </trkpt>
      <trkpt lat="49.20095" lon="4.13627">
        <ele>132</ele>
        <time>2020-09-20T10:33:13Z</time>
      </trkpt>
      <trkpt lat="49.20093" lon="4.13628">
        <ele>132</ele>
        <time>2020-09-20T10:33:14Z</time>
      </trkpt>
      <trkpt lat="49.2009" lon="4.13629">
        <ele>132</ele>
        <time>2020-09-20T10:33:15Z</time>
      </trkpt>
      <trkpt lat="49.20086" lon="4.1363">
        <ele>132</ele>
        <time>2020-09-20T10:33:16Z</time>
      </trkpt>
      <trkpt lat="49.20083" lon="4.1363">
        <ele>132</ele>
        <time>2020-09-20T10:33:17Z</time>
      </trkpt>
      <trkpt lat="49.2008" lon="4.13629">
        <ele>132</ele>
        <time>2020-09-20T10:33:18Z</time>
      </trkpt>
      <trkpt lat="49.20077" lon="4.13626">
        <ele>132</ele>
        <time>2020-09-20T10:33:19Z</time>
      </trkpt>
      <trkpt lat="49.20073" lon="4.13622">
        <ele>132</ele>
        <time>2020-09-20T10:33:20Z</time>
      </trkpt>
      <trkpt lat="49.20069" lon="4.13621">
        <ele>132</ele>
        <time>2020-09-20T10:33:21Z</time>
      </trkpt>
      <trkpt lat="49.20064" lon="4.13623">
        <ele>132</ele>
        <time>2020-09-20T10:33:22Z</time>
      </trkpt>
      <trkpt lat="49.2006" lon="4.13624">
        <ele>132</ele>
        <time>2020-09-20T10:33:23Z</time>
      </trkpt>
      <trkpt lat="49.20055" lon="4.13625">
        <ele>132</ele>
        <time>2020-09-20T10:33:24Z</time>
      </trkpt>
      <trkpt lat="49.2005" lon="4.13626">
        <ele>133</ele>
        <time>2020-09-20T10:33:25Z</time>
      </trkpt>
      <trkpt lat="49.20046" lon="4.13627">
        <ele>133</ele>
        <time>2020-09-20T10:33:26Z</time>
      </trkpt>
      <trkpt lat="49.20041" lon="4.13628">
        <ele>133</ele>
        <time>2020-09-20T10:33:27Z</time>
      </trkpt>
      <trkpt lat="49.20037" lon="4.13629">
        <ele>133</ele>
        <time>2020-09-20T10:33:28Z</time>
      </trkpt>
      <trkpt lat="49.20032" lon="4.13629">
        <ele>133</ele>
        <time>2020-09-20T10:33:29Z</time>
      </trkpt>
      <trkpt lat="49.20028" lon="4.1363">
        <ele>133</ele>
        <time>2020-09-20T10:33:30Z</time>
      </trkpt>
      <trkpt lat="49.20024" lon="4.1363">
        <ele>133</ele>
        <time>2020-09-20T10:33:31Z</time>
      </trkpt>
      <trkpt lat="49.20019" lon="4.13631">
        <ele>132</ele>
        <time>2020-09-20T10:33:32Z</time>
      </trkpt>
      <trkpt lat="49.20015" lon="4.13631">
        <ele>132</ele>
        <time>2020-09-20T10:33:33Z</time>
      </trkpt>
      <trkpt lat="49.2001" lon="4.13632">
        <ele>132</ele>
        <time>2020-09-20T10:33:34Z</time>
      </trkpt>
      <trkpt lat="49.20005" lon="4.13633">
        <ele>132</ele>
        <time>2020-09-20T10:33:35Z</time>
      </trkpt>
      <trkpt lat="49.20001" lon="4.13634">
        <ele>133</ele>
        <time>2020-09-20T10:33:36Z</time>
      </trkpt>
      <trkpt lat="49.19996" lon="4.13635">
        <ele>133</ele>
        <time>2020-09-20T10:33:37Z</time>
      </trkpt>
      <trkpt lat="49.19991" lon="4.13636">
        <ele>133</ele>
        <time>2020-09-20T10:33:38Z</time>
      </trkpt>
      <trkpt lat="49.19986" lon="4.13637">
        <ele>133</ele>
        <time>2020-09-20T10:33:39Z</time>
      </trkpt>
      <trkpt lat="49.19981" lon="4.13637">
        <ele>133</ele>
        <time>2020-09-20T10:33:40Z</time>
      </trkpt>
      <trkpt lat="49.19976" lon="4.13638">
        <ele>133</ele>
        <time>2020-09-20T10:33:41Z</time>
      </trkpt>
      <trkpt lat="49.19972" lon="4.13639">
        <ele>133</ele>
        <time>2020-09-20T10:33:42Z</time>
      </trkpt>
      <trkpt lat="49.19967" lon="4.1364">
        <ele>133</ele>
        <time>2020-09-20T10:33:43Z</time>
      </trkpt>
      <trkpt lat="49.19962" lon="4.13641">
        <ele>133</ele>
        <time>2020-09-20T10:33:44Z</time>
      </trkpt>
      <trkpt lat="49.19957" lon="4.13642">
        <ele>133</ele>
        <time>2020-09-20T10:33:45Z</time>
      </trkpt>
      <trkpt lat="49.19952" lon="4.13643">
        <ele>133</ele>
        <time>2020-09-20T10:33:46Z</time>
      </trkpt>
      <trkpt lat="49.19947" lon="4.13644">
        <ele>133</ele>
        <time>2020-09-20T10:33:47Z</time>
      </trkpt>
      <trkpt lat="49.19942" lon="4.13645">
        <ele>133</ele>
        <time>2020-09-20T10:33:48Z</time>
      </trkpt>
      <trkpt lat="49.19938" lon="4.13646">
        <ele>133</ele>
        <time>2020-09-20T10:33:49Z</time>
      </trkpt>
      <trkpt lat="49.19934" lon="4.13647">
        <ele>133</ele>
        <time>2020-09-20T10:33:50Z</time>
      </trkpt>
      <trkpt lat="49.19929" lon="4.13648">
        <ele>133</ele>
        <time>2020-09-20T10:33:51Z</time>
      </trkpt>
      <trkpt lat="49.19925" lon="4.13648">
        <ele>133</ele>
        <time>2020-09-20T10:33:52Z</time>
      </trkpt>
      <trkpt lat="49.19921" lon="4.13649">
        <ele>133</ele>
        <time>2020-09-20T10:33:53Z</time>
      </trkpt>
      <trkpt lat="49.19916" lon="4.13651">
        <ele>133</ele>
        <time>2020-09-20T10:33:54Z</time>
      </trkpt>
      <trkpt lat="49.19912" lon="4.13652">
        <ele>133</ele>
        <time>2020-09-20T10:33:55Z</time>
      </trkpt>
      <trkpt lat="49.19908" lon="4.13653">
        <ele>133</ele>
        <time>2020-09-20T10:33:56Z</time>
      </trkpt>
      <trkpt lat="49.19903" lon="4.13653">
        <ele>133</ele>
        <time>2020-09-20T10:33:57Z</time>
      </trkpt>
      <trkpt lat="49.19899" lon="4.13654">
        <ele>133</ele>
        <time>2020-09-20T10:33:58Z</time>
      </trkpt>
      <trkpt lat="49.19895" lon="4.13655">
        <ele>133</ele>
        <time>2020-09-20T10:33:59Z</time>
      </trkpt>
      <trkpt lat="49.1989" lon="4.13655">
        <ele>133</ele>
        <time>2020-09-20T10:34:00Z</time>
      </trkpt>
      <trkpt lat="49.19886" lon="4.13656">
        <ele>134</ele>
        <time>2020-09-20T10:34:01Z</time>
      </trkpt>
      <trkpt lat="49.19881" lon="4.13656">
        <ele>134</ele>
        <time>2020-09-20T10:34:02Z</time>
      </trkpt>
      <trkpt lat="49.19876" lon="4.13655">
        <ele>134</ele>
        <time>2020-09-20T10:34:03Z</time>
      </trkpt>
      <trkpt lat="49.19871" lon="4.13654">
        <ele>133</ele>
        <time>2020-09-20T10:34:04Z</time>
      </trkpt>
      <trkpt lat="49.19867" lon="4.13654">
        <ele>133</ele>
        <time>2020-09-20T10:34:05Z</time>
      </trkpt>
      <trkpt lat="49.19863" lon="4.13652">
        <ele>133</ele>
        <time>2020-09-20T10:34:06Z</time>
      </trkpt>
      <trkpt lat="49.19859" lon="4.13649">
        <ele>133</ele>
        <time>2020-09-20T10:34:07Z</time>
      </trkpt>
      <trkpt lat="49.19857" lon="4.13644">
        <ele>133</ele>
        <time>2020-09-20T10:34:08Z</time>
      </trkpt>
      <trkpt lat="49.19856" lon="4.13637">
        <ele>134</ele>
        <time>2020-09-20T10:34:09Z</time>
      </trkpt>
      <trkpt lat="49.19856" lon="4.13629">
        <ele>133</ele>
        <time>2020-09-20T10:34:10Z</time>
      </trkpt>
      <trkpt lat="49.19856" lon="4.13622">
        <ele>133</ele>
        <time>2020-09-20T10:34:11Z</time>
      </trkpt>
      <trkpt lat="49.19855" lon="4.13616">
        <ele>133</ele>
        <time>2020-09-20T10:34:12Z</time>
      </trkpt>
      <trkpt lat="49.19853" lon="4.1361">
        <ele>133</ele>
        <time>2020-09-20T10:34:13Z</time>
      </trkpt>
      <trkpt lat="49.19849" lon="4.13606">
        <ele>133</ele>
        <time>2020-09-20T10:34:14Z</time>
      </trkpt>
      <trkpt lat="49.19843" lon="4.13605">
        <ele>133</ele>
        <time>2020-09-20T10:34:15Z</time>
      </trkpt>
      <trkpt lat="49.19839" lon="4.13607">
        <ele>134</ele>
        <time>2020-09-20T10:34:16Z</time>
      </trkpt>
      <trkpt lat="49.19834" lon="4.13609">
        <ele>133</ele>
        <time>2020-09-20T10:34:17Z</time>
      </trkpt>
      <trkpt lat="49.19829" lon="4.1361">
        <ele>133</ele>
        <time>2020-09-20T10:34:18Z</time>
      </trkpt>
      <trkpt lat="49.19824" lon="4.13612">
        <ele>133</ele>
        <time>2020-09-20T10:34:19Z</time>
      </trkpt>
      <trkpt lat="49.19819" lon="4.13613">
        <ele>133</ele>
        <time>2020-09-20T10:34:20Z</time>
      </trkpt>
      <trkpt lat="49.19814" lon="4.13614">
        <ele>133</ele>
        <time>2020-09-20T10:34:21Z</time>
      </trkpt>
      <trkpt lat="49.19809" lon="4.13616">
        <ele>133</ele>
        <time>2020-09-20T10:34:22Z</time>
      </trkpt>
      <trkpt lat="49.19804" lon="4.13617">
        <ele>133</ele>
        <time>2020-09-20T10:34:23Z</time>
      </trkpt>
      <trkpt lat="49.19799" lon="4.13619">
        <ele>133</ele>
        <time>2020-09-20T10:34:24Z</time>
      </trkpt>
      <trkpt lat="49.19794" lon="4.13621">
        <ele>132</ele>
        <time>2020-09-20T10:34:25Z</time>
      </trkpt>
      <trkpt lat="49.1979" lon="4.13623">
        <ele>132</ele>
        <time>2020-09-20T10:34:26Z</time>
      </trkpt>
      <trkpt lat="49.19786" lon="4.13625">
        <ele>132</ele>
        <time>2020-09-20T10:34:27Z</time>
      </trkpt>
      <trkpt lat="49.19781" lon="4.13627">
        <ele>133</ele>
        <time>2020-09-20T10:34:28Z</time>
      </trkpt>
      <trkpt lat="49.19777" lon="4.13629">
        <ele>132</ele>
        <time>2020-09-20T10:34:29Z</time>
      </trkpt>
      <trkpt lat="49.19773" lon="4.13631">
        <ele>133</ele>
        <time>2020-09-20T10:34:30Z</time>
      </trkpt>
      <trkpt lat="49.19769" lon="4.13633">
        <ele>133</ele>
        <time>2020-09-20T10:34:31Z</time>
      </trkpt>
      <trkpt lat="49.19765" lon="4.13635">
        <ele>133</ele>
        <time>2020-09-20T10:34:32Z</time>
      </trkpt>
      <trkpt lat="49.19761" lon="4.13636">
        <ele>133</ele>
        <time>2020-09-20T10:34:33Z</time>
      </trkpt>
      <trkpt lat="49.19758" lon="4.13638">
        <ele>133</ele>
        <time>2020-09-20T10:34:34Z</time>
      </trkpt>
      <trkpt lat="49.19755" lon="4.13638">
        <ele>133</ele>
        <time>2020-09-20T10:34:35Z</time>
      </trkpt>
      <trkpt lat="49.19752" lon="4.13636">
        <ele>133</ele>
        <time>2020-09-20T10:34:36Z</time>
      </trkpt>
      <trkpt lat="49.1975" lon="4.13634">
        <ele>133</ele>
        <time>2020-09-20T10:34:37Z</time>
      </trkpt>
      <trkpt lat="49.19748" lon="4.13633">
        <ele>133</ele>
        <time>2020-09-20T10:34:38Z</time>
      </trkpt>
      <trkpt lat="49.19747" lon="4.13632">
        <ele>133</ele>
        <time>2020-09-20T10:34:39Z</time>
      </trkpt>
      <trkpt lat="49.19747" lon="4.13632">
        <ele>133</ele>
        <time>2020-09-20T10:34:40Z</time>
      </trkpt>
      <trkpt lat="49.19746" lon="4.13632">
        <ele>133</ele>
        <time>2020-09-20T10:34:41Z</time>
      </trkpt>
      <trkpt lat="49.19746" lon="4.13632">
        <ele>133</ele>
        <time>2020-09-20T10:34:42Z</time>
      </trkpt>
      <trkpt lat="49.19746" lon="4.13632">
        <ele>133</ele>
        <time>2020-09-20T10:34:43Z</time>
      </trkpt>
      <trkpt lat="49.19746" lon="4.13632">
        <ele>133</ele>
        <time>2020-09-20T10:34:44Z</time>
      </trkpt>
      <trkpt lat="49.19746" lon="4.13632">
        <ele>133</ele>
        <time>2020-09-20T10:34:45Z</time>
      </trkpt>
      <trkpt lat="49.19746" lon="4.13632">
        <ele>133</ele>
        <time>2020-09-20T10:34:46Z</time>
      </trkpt>
      <trkpt lat="49.19746" lon="4.13632">
        <ele>133</ele>
        <time>2020-09-20T10:34:47Z</time>
      </trkpt>
      <trkpt lat="49.19746" lon="4.13632">
        <ele>133</ele>
        <time>2020-09-20T10:34:48Z</time>
      </trkpt>
      <trkpt lat="49.19746" lon="4.13632">
        <ele>133</ele>
        <time>2020-09-20T10:34:49Z</time>
      </trkpt>
      <trkpt lat="49.19746" lon="4.13632">
        <ele>133</ele>
        <time>2020-09-20T10:34:50Z</time>
      </trkpt>
      <trkpt lat="49.19746" lon="4.13632">
        <ele>133</ele>
        <time>2020-09-20T10:34:51Z</time>
      </trkpt>
      <trkpt lat="49.19746" lon="4.13632">
        <ele>133</ele>
        <time>2020-09-20T10:34:52Z</time>
      </trkpt>
      <trkpt lat="49.19746" lon="4.13633">
        <ele>133</ele>
        <time>2020-09-20T10:34:53Z</time>
      </trkpt>
      <trkpt lat="49.19745" lon="4.13634">
        <ele>132</ele>
        <time>2020-09-20T10:34:54Z</time>
      </trkpt>
      <trkpt lat="49.19745" lon="4.13635">
        <ele>132</ele>
        <time>2020-09-20T10:34:55Z</time>
      </trkpt>
      <trkpt lat="49.19744" lon="4.13635">
        <ele>132</ele>
        <time>2020-09-20T10:34:56Z</time>
      </trkpt>
      <trkpt lat="49.19743" lon="4.13634">
        <ele>131</ele>
        <time>2020-09-20T10:34:57Z</time>
      </trkpt>
      <trkpt lat="49.19742" lon="4.13635">
        <ele>131</ele>
        <time>2020-09-20T10:34:58Z</time>
      </trkpt>
      <trkpt lat="49.19741" lon="4.13636">
        <ele>131</ele>
        <time>2020-09-20T10:34:59Z</time>
      </trkpt>
      <trkpt lat="49.19741" lon="4.13637">
        <ele>131</ele>
        <time>2020-09-20T10:35:00Z</time>
      </trkpt>
      <trkpt lat="49.19741" lon="4.13637">
        <ele>131</ele>
        <time>2020-09-20T10:35:01Z</time>
      </trkpt>
      <trkpt lat="49.19741" lon="4.13636">
        <ele>132</ele>
        <time>2020-09-20T10:35:02Z</time>
      </trkpt>
      <trkpt lat="49.19742" lon="4.13635">
        <ele>132</ele>
        <time>2020-09-20T10:35:03Z</time>
      </trkpt>
      <trkpt lat="49.19743" lon="4.13636">
        <ele>132</ele>
        <time>2020-09-20T10:35:04Z</time>
      </trkpt>
      <trkpt lat="49.19744" lon="4.13636">
        <ele>131</ele>
        <time>2020-09-20T10:35:05Z</time>
      </trkpt>
      <trkpt lat="49.19744" lon="4.13636">
        <ele>131</ele>
        <time>2020-09-20T10:35:06Z</time>
      </trkpt>
      <trkpt lat="49.19744" lon="4.13636">
        <ele>131</ele>
        <time>2020-09-20T10:35:07Z</time>
      </trkpt>
      <trkpt lat="49.19745" lon="4.13637">
        <ele>131</ele>
        <time>2020-09-20T10:35:08Z</time>
      </trkpt>
      <trkpt lat="49.19745" lon="4.13637">
        <ele>131</ele>
        <time>2020-09-20T10:35:09Z</time>
      </trkpt>
      <trkpt lat="49.19745" lon="4.13637">
        <ele>131</ele>
        <time>2020-09-20T10:35:10Z</time>
      </trkpt>
      <trkpt lat="49.19745" lon="4.13636">
        <ele>131</ele>
        <time>2020-09-20T10:35:11Z</time>
      </trkpt>
      <trkpt lat="49.19746" lon="4.13636">
        <ele>131</ele>
        <time>2020-09-20T10:35:12Z</time>
      </trkpt>
      <trkpt lat="49.19746" lon="4.13636">
        <ele>131</ele>
        <time>2020-09-20T10:35:13Z</time>
      </trkpt>
      <trkpt lat="49.19746" lon="4.13636">
        <ele>131</ele>
        <time>2020-09-20T10:35:14Z</time>
      </trkpt>
      <trkpt lat="49.19746" lon="4.13636">
        <ele>131</ele>
        <time>2020-09-20T10:35:15Z</time>
      </trkpt>
      <trkpt lat="49.19746" lon="4.13636">
        <ele>131</ele>
        <time>2020-09-20T10:35:16Z</time>
      </trkpt>
      <trkpt lat="49.19746" lon="4.13636">
        <ele>131</ele>
        <time>2020-09-20T10:35:17Z</time>
      </trkpt>
      <trkpt lat="49.19746" lon="4.13636">
        <ele>131</ele>
        <time>2020-09-20T10:35:18Z</time>
      </trkpt>
      <trkpt lat="49.19746" lon="4.13636">
        <ele>131</ele>
        <time>2020-09-20T10:35:19Z</time>
      </trkpt>
      <trkpt lat="49.19746" lon="4.13636">
        <ele>131</ele>
        <time>2020-09-20T10:35:20Z</time>
      </trkpt>
      <trkpt lat="49.19746" lon="4.13636">
        <ele>131</ele>
        <time>2020-09-20T10:35:21Z</time>
      </trkpt>
      <trkpt lat="49.19746" lon="4.13636">
        <ele>132</ele>
        <time>2020-09-20T10:35:22Z</time>
      </trkpt>
      <trkpt lat="49.19746" lon="4.13635">
        <ele>132</ele>
        <time>2020-09-20T10:35:23Z</time>
      </trkpt>
      <trkpt lat="49.19746" lon="4.13635">
        <ele>132</ele>
        <time>2020-09-20T10:35:24Z</time>
      </trkpt>
      <trkpt lat="49.19746" lon="4.13635">
        <ele>132</ele>
        <time>2020-09-20T10:35:25Z</time>
      </trkpt>
      <trkpt lat="49.19746" lon="4.13635">
        <ele>132</ele>
        <time>2020-09-20T10:35:26Z</time>
      </trkpt>
      <trkpt lat="49.19746" lon="4.13635">
        <ele>132</ele>
        <time>2020-09-20T10:35:27Z</time>
      </trkpt>
      <trkpt lat="49.19746" lon="4.13635">
        <ele>132</ele>
        <time>2020-09-20T10:35:28Z</time>
      </trkpt>
      <trkpt lat="49.19746" lon="4.13635">
        <ele>132</ele>
        <time>2020-09-20T10:35:29Z</time>
      </trkpt>
      <trkpt lat="49.19746" lon="4.13635">
        <ele>132</ele>
        <time>2020-09-20T10:35:30Z</time>
      </trkpt>
      <trkpt lat="49.19746" lon="4.13635">
        <ele>132</ele>
        <time>2020-09-20T10:35:31Z</time>
      </trkpt>
      <trkpt lat="49.19747" lon="4.13635">
        <ele>132</ele>
        <time>2020-09-20T10:35:32Z</time>
      </trkpt>
      <trkpt lat="49.19747" lon="4.13635">
        <ele>132</ele>
        <time>2020-09-20T10:35:33Z</time>
      </trkpt>
      <trkpt lat="49.19747" lon="4.13635">
        <ele>132</ele>
        <time>2020-09-20T10:35:34Z</time>
      </trkpt>
      <trkpt lat="49.19747" lon="4.13635">
        <ele>132</ele>
        <time>2020-09-20T10:35:35Z</time>
      </trkpt>
      <trkpt lat="49.19747" lon="4.13635">
        <ele>132</ele>
        <time>2020-09-20T10:35:36Z</time>
      </trkpt>
      <trkpt lat="49.19747" lon="4.13635">
        <ele>132</ele>
        <time>2020-09-20T10:35:37Z</time>
      </trkpt>
      <trkpt lat="49.19747" lon="4.13635">
        <ele>132</ele>
        <time>2020-09-20T10:35:38Z</time>
      </trkpt>
      <trkpt lat="49.19747" lon="4.13635">
        <ele>132</ele>
        <time>2020-09-20T10:35:39Z</time>
      </trkpt>
      <trkpt lat="49.19747" lon="4.13637">
        <ele>132</ele>
        <time>2020-09-20T10:35:40Z</time>
      </trkpt>
      <trkpt lat="49.19747" lon="4.13637">
        <ele>132</ele>
        <time>2020-09-20T10:35:41Z</time>
      </trkpt>
      <trkpt lat="49.19747" lon="4.13637">
        <ele>132</ele>
        <time>2020-09-20T10:35:42Z</time>
      </trkpt>
      <trkpt lat="49.19747" lon="4.13637">
        <ele>132</ele>
        <time>2020-09-20T10:35:43Z</time>
      </trkpt>
      <trkpt lat="49.19747" lon="4.13637">
        <ele>132</ele>
        <time>2020-09-20T10:35:44Z</time>
      </trkpt>
      <trkpt lat="49.19747" lon="4.13637">
        <ele>132</ele>
        <time>2020-09-20T10:35:45Z</time>
      </trkpt>
      <trkpt lat="49.19747" lon="4.13637">
        <ele>132</ele>
        <time>2020-09-20T10:35:46Z</time>
      </trkpt>
      <trkpt lat="49.19747" lon="4.13637">
        <ele>132</ele>
        <time>2020-09-20T10:35:47Z</time>
      </trkpt>
      <trkpt lat="49.19747" lon="4.13637">
        <ele>132</ele>
        <time>2020-09-20T10:35:48Z</time>
      </trkpt>
      <trkpt lat="49.19747" lon="4.13637">
        <ele>132</ele>
        <time>2020-09-20T10:35:49Z</time>
      </trkpt>
      <trkpt lat="49.19747" lon="4.13637">
        <ele>132</ele>
        <time>2020-09-20T10:35:50Z</time>
      </trkpt>
      <trkpt lat="49.19747" lon="4.13637">
        <ele>132</ele>
        <time>2020-09-20T10:35:51Z</time>
      </trkpt>
      <trkpt lat="49.19747" lon="4.13637">
        <ele>132</ele>
        <time>2020-09-20T10:35:52Z</time>
      </trkpt>
      <trkpt lat="49.19747" lon="4.13637">
        <ele>132</ele>
        <time>2020-09-20T10:35:53Z</time>
      </trkpt>
      <trkpt lat="49.19747" lon="4.13637">
        <ele>132</ele>
        <time>2020-09-20T10:35:54Z</time>
      </trkpt>
      <trkpt lat="49.19747" lon="4.13637">
        <ele>132</ele>
        <time>2020-09-20T10:35:55Z</time>
      </trkpt>
      <trkpt lat="49.19747" lon="4.13637">
        <ele>132</ele>
        <time>2020-09-20T10:35:56Z</time>
      </trkpt>
      <trkpt lat="49.19747" lon="4.13637">
        <ele>132</ele>
        <time>2020-09-20T10:35:57Z</time>
      </trkpt>
      <trkpt lat="49.19747" lon="4.13637">
        <ele>132</ele>
        <time>2020-09-20T10:35:58Z</time>
      </trkpt>
      <trkpt lat="49.19747" lon="4.13637">
        <ele>132</ele>
        <time>2020-09-20T10:35:59Z</time>
      </trkpt>
      <trkpt lat="49.19747" lon="4.13637">
        <ele>132</ele>
        <time>2020-09-20T10:36:00Z</time>
      </trkpt>
      <trkpt lat="49.19747" lon="4.13637">
        <ele>132</ele>
        <time>2020-09-20T10:36:01Z</time>
      </trkpt>
      <trkpt lat="49.19747" lon="4.13637">
        <ele>132</ele>
        <time>2020-09-20T10:36:02Z</time>
      </trkpt>
      <trkpt lat="49.19747" lon="4.13637">
        <ele>132</ele>
        <time>2020-09-20T10:36:03Z</time>
      </trkpt>
      <trkpt lat="49.19747" lon="4.13637">
        <ele>132</ele>
        <time>2020-09-20T10:36:04Z</time>
      </trkpt>
      <trkpt lat="49.19747" lon="4.13637">
        <ele>132</ele>
        <time>2020-09-20T10:36:05Z</time>
      </trkpt>
      <trkpt lat="49.19747" lon="4.13637">
        <ele>132</ele>
        <time>2020-09-20T10:36:06Z</time>
      </trkpt>
      <trkpt lat="49.19747" lon="4.13635">
        <ele>130</ele>
        <time>2020-09-20T10:36:07Z</time>
      </trkpt>
      <trkpt lat="49.19747" lon="4.13636">
        <ele>131</ele>
        <time>2020-09-20T10:36:08Z</time>
      </trkpt>
      <trkpt lat="49.19747" lon="4.13636">
        <ele>131</ele>
        <time>2020-09-20T10:36:09Z</time>
      </trkpt>
      <trkpt lat="49.19747" lon="4.13636">
        <ele>131</ele>
        <time>2020-09-20T10:36:10Z</time>
      </trkpt>
      <trkpt lat="49.19747" lon="4.13636">
        <ele>131</ele>
        <time>2020-09-20T10:36:11Z</time>
      </trkpt>
      <trkpt lat="49.19747" lon="4.13636">
        <ele>131</ele>
        <time>2020-09-20T10:36:12Z</time>
      </trkpt>
      <trkpt lat="49.19747" lon="4.13636">
        <ele>131</ele>
        <time>2020-09-20T10:36:13Z</time>
      </trkpt>
      <trkpt lat="49.19747" lon="4.13636">
        <ele>131</ele>
        <time>2020-09-20T10:36:14Z</time>
      </trkpt>
      <trkpt lat="49.19747" lon="4.13636">
        <ele>131</ele>
        <time>2020-09-20T10:36:15Z</time>
      </trkpt>
      <trkpt lat="49.19747" lon="4.13636">
        <ele>131</ele>
        <time>2020-09-20T10:36:16Z</time>
      </trkpt>
      <trkpt lat="49.19747" lon="4.13636">
        <ele>131</ele>
        <time>2020-09-20T10:36:17Z</time>
      </trkpt>
      <trkpt lat="49.19747" lon="4.13636">
        <ele>131</ele>
        <time>2020-09-20T10:36:18Z</time>
      </trkpt>
      <trkpt lat="49.19747" lon="4.13636">
        <ele>131</ele>
        <time>2020-09-20T10:36:19Z</time>
      </trkpt>
      <trkpt lat="49.19747" lon="4.13636">
        <ele>131</ele>
        <time>2020-09-20T10:36:20Z</time>
      </trkpt>
      <trkpt lat="49.19747" lon="4.13636">
        <ele>131</ele>
        <time>2020-09-20T10:36:21Z</time>
      </trkpt>
      <trkpt lat="49.19747" lon="4.13636">
        <ele>131</ele>
        <time>2020-09-20T10:36:22Z</time>
      </trkpt>
      <trkpt lat="49.19747" lon="4.13636">
        <ele>131</ele>
        <time>2020-09-20T10:36:23Z</time>
      </trkpt>
      <trkpt lat="49.19747" lon="4.13636">
        <ele>131</ele>
        <time>2020-09-20T10:36:24Z</time>
      </trkpt>
      <trkpt lat="49.19747" lon="4.13636">
        <ele>131</ele>
        <time>2020-09-20T10:36:25Z</time>
      </trkpt>
      <trkpt lat="49.19747" lon="4.13636">
        <ele>131</ele>
        <time>2020-09-20T10:36:26Z</time>
      </trkpt>
      <trkpt lat="49.19747" lon="4.13636">
        <ele>131</ele>
        <time>2020-09-20T10:36:27Z</time>
      </trkpt>
      <trkpt lat="49.19747" lon="4.13636">
        <ele>131</ele>
        <time>2020-09-20T10:36:28Z</time>
      </trkpt>
      <trkpt lat="49.19747" lon="4.13636">
        <ele>131</ele>
        <time>2020-09-20T10:36:29Z</time>
      </trkpt>
      <trkpt lat="49.19747" lon="4.13636">
        <ele>131</ele>
        <time>2020-09-20T10:36:30Z</time>
      </trkpt>
      <trkpt lat="49.19747" lon="4.13636">
        <ele>131</ele>
        <time>2020-09-20T10:36:31Z</time>
      </trkpt>
      <trkpt lat="49.19747" lon="4.13636">
        <ele>131</ele>
        <time>2020-09-20T10:36:32Z</time>
      </trkpt>
      <trkpt lat="49.19747" lon="4.13636">
        <ele>131</ele>
        <time>2020-09-20T10:36:33Z</time>
      </trkpt>
      <trkpt lat="49.19747" lon="4.13636">
        <ele>131</ele>
        <time>2020-09-20T10:36:34Z</time>
      </trkpt>
      <trkpt lat="49.19747" lon="4.13636">
        <ele>131</ele>
        <time>2020-09-20T10:36:35Z</time>
      </trkpt>
      <trkpt lat="49.19747" lon="4.13636">
        <ele>131</ele>
        <time>2020-09-20T10:36:36Z</time>
      </trkpt>
      <trkpt lat="49.19747" lon="4.13636">
        <ele>131</ele>
        <time>2020-09-20T10:36:37Z</time>
      </trkpt>
      <trkpt lat="49.19747" lon="4.13636">
        <ele>131</ele>
        <time>2020-09-20T10:36:38Z</time>
      </trkpt>
      <trkpt lat="49.19747" lon="4.13636">
        <ele>131</ele>
        <time>2020-09-20T10:36:39Z</time>
      </trkpt>
      <trkpt lat="49.19747" lon="4.13636">
        <ele>131</ele>
        <time>2020-09-20T10:36:40Z</time>
      </trkpt>
      <trkpt lat="49.19747" lon="4.13636">
        <ele>131</ele>
        <time>2020-09-20T10:36:41Z</time>
      </trkpt>
      <trkpt lat="49.19747" lon="4.13636">
        <ele>131</ele>
        <time>2020-09-20T10:36:42Z</time>
      </trkpt>
      <trkpt lat="49.19747" lon="4.13636">
        <ele>131</ele>
        <time>2020-09-20T10:36:43Z</time>
      </trkpt>
      <trkpt lat="49.19747" lon="4.13636">
        <ele>131</ele>
        <time>2020-09-20T10:36:44Z</time>
      </trkpt>
      <trkpt lat="49.19747" lon="4.13636">
        <ele>131</ele>
        <time>2020-09-20T10:36:45Z</time>
      </trkpt>
      <trkpt lat="49.19747" lon="4.13636">
        <ele>131</ele>
        <time>2020-09-20T10:36:46Z</time>
      </trkpt>
      <trkpt lat="49.19747" lon="4.13636">
        <ele>131</ele>
        <time>2020-09-20T10:36:47Z</time>
      </trkpt>
      <trkpt lat="49.19747" lon="4.13636">
        <ele>131</ele>
        <time>2020-09-20T10:36:48Z</time>
      </trkpt>
      <trkpt lat="49.19745" lon="4.13636">
        <ele>130</ele>
        <time>2020-09-20T10:36:49Z</time>
      </trkpt>
      <trkpt lat="49.19745" lon="4.13636">
        <ele>129</ele>
        <time>2020-09-20T10:36:50Z</time>
      </trkpt>
      <trkpt lat="49.19745" lon="4.13636">
        <ele>129</ele>
        <time>2020-09-20T10:36:51Z</time>
      </trkpt>
      <trkpt lat="49.19744" lon="4.13636">
        <ele>129</ele>
        <time>2020-09-20T10:36:52Z</time>
      </trkpt>
      <trkpt lat="49.19744" lon="4.13637">
        <ele>129</ele>
        <time>2020-09-20T10:36:53Z</time>
      </trkpt>
      <trkpt lat="49.19744" lon="4.13639">
        <ele>129</ele>
        <time>2020-09-20T10:36:54Z</time>
      </trkpt>
      <trkpt lat="49.19745" lon="4.13642">
        <ele>129</ele>
        <time>2020-09-20T10:36:55Z</time>
      </trkpt>
      <trkpt lat="49.19746" lon="4.13643">
        <ele>129</ele>
        <time>2020-09-20T10:36:56Z</time>
      </trkpt>
      <trkpt lat="49.19748" lon="4.13644">
        <ele>130</ele>
        <time>2020-09-20T10:36:57Z</time>
      </trkpt>
      <trkpt lat="49.19749" lon="4.13643">
        <ele>131</ele>
        <time>2020-09-20T10:36:58Z</time>
      </trkpt>
      <trkpt lat="49.19751" lon="4.13643">
        <ele>131</ele>
        <time>2020-09-20T10:36:59Z</time>
      </trkpt>
      <trkpt lat="49.19752" lon="4.13642">
        <ele>131</ele>
        <time>2020-09-20T10:37:00Z</time>
      </trkpt>
      <trkpt lat="49.19754" lon="4.13641">
        <ele>131</ele>
        <time>2020-09-20T10:37:01Z</time>
      </trkpt>
      <trkpt lat="49.19755" lon="4.13641">
        <ele>131</ele>
        <time>2020-09-20T10:37:02Z</time>
      </trkpt>
      <trkpt lat="49.19757" lon="4.13641">
        <ele>131</ele>
        <time>2020-09-20T10:37:03Z</time>
      </trkpt>
      <trkpt lat="49.19759" lon="4.1364">
        <ele>132</ele>
        <time>2020-09-20T10:37:04Z</time>
      </trkpt>
      <trkpt lat="49.19761" lon="4.13639">
        <ele>132</ele>
        <time>2020-09-20T10:37:05Z</time>
      </trkpt>
      <trkpt lat="49.19763" lon="4.13637">
        <ele>133</ele>
        <time>2020-09-20T10:37:06Z</time>
      </trkpt>
      <trkpt lat="49.19766" lon="4.13635">
        <ele>133</ele>
        <time>2020-09-20T10:37:07Z</time>
      </trkpt>
      <trkpt lat="49.19768" lon="4.13634">
        <ele>133</ele>
        <time>2020-09-20T10:37:08Z</time>
      </trkpt>
      <trkpt lat="49.19771" lon="4.13633">
        <ele>133</ele>
        <time>2020-09-20T10:37:09Z</time>
      </trkpt>
      <trkpt lat="49.19774" lon="4.13631">
        <ele>133</ele>
        <time>2020-09-20T10:37:10Z</time>
      </trkpt>
      <trkpt lat="49.19777" lon="4.1363">
        <ele>133</ele>
        <time>2020-09-20T10:37:11Z</time>
      </trkpt>
      <trkpt lat="49.1978" lon="4.13628">
        <ele>133</ele>
        <time>2020-09-20T10:37:12Z</time>
      </trkpt>
      <trkpt lat="49.19784" lon="4.13627">
        <ele>133</ele>
        <time>2020-09-20T10:37:13Z</time>
      </trkpt>
      <trkpt lat="49.19787" lon="4.13625">
        <ele>133</ele>
        <time>2020-09-20T10:37:14Z</time>
      </trkpt>
      <trkpt lat="49.1979" lon="4.13623">
        <ele>133</ele>
        <time>2020-09-20T10:37:15Z</time>
      </trkpt>
      <trkpt lat="49.19794" lon="4.13622">
        <ele>133</ele>
        <time>2020-09-20T10:37:16Z</time>
      </trkpt>
      <trkpt lat="49.19797" lon="4.13621">
        <ele>134</ele>
        <time>2020-09-20T10:37:17Z</time>
      </trkpt>
      <trkpt lat="49.19801" lon="4.1362">
        <ele>134</ele>
        <time>2020-09-20T10:37:18Z</time>
      </trkpt>
      <trkpt lat="49.19805" lon="4.13618">
        <ele>134</ele>
        <time>2020-09-20T10:37:19Z</time>
      </trkpt>
      <trkpt lat="49.19809" lon="4.13616">
        <ele>134</ele>
        <time>2020-09-20T10:37:20Z</time>
      </trkpt>
      <trkpt lat="49.19813" lon="4.13615">
        <ele>134</ele>
        <time>2020-09-20T10:37:21Z</time>
      </trkpt>
      <trkpt lat="49.19817" lon="4.13613">
        <ele>134</ele>
        <time>2020-09-20T10:37:22Z</time>
      </trkpt>
      <trkpt lat="49.19822" lon="4.13612">
        <ele>134</ele>
        <time>2020-09-20T10:37:23Z</time>
      </trkpt>
      <trkpt lat="49.19826" lon="4.1361">
        <ele>134</ele>
        <time>2020-09-20T10:37:24Z</time>
      </trkpt>
      <trkpt lat="49.1983" lon="4.13609">
        <ele>134</ele>
        <time>2020-09-20T10:37:25Z</time>
      </trkpt>
      <trkpt lat="49.19835" lon="4.13608">
        <ele>134</ele>
        <time>2020-09-20T10:37:26Z</time>
      </trkpt>
      <trkpt lat="49.19839" lon="4.13607">
        <ele>134</ele>
        <time>2020-09-20T10:37:27Z</time>
      </trkpt>
      <trkpt lat="49.19843" lon="4.13606">
        <ele>134</ele>
        <time>2020-09-20T10:37:28Z</time>
      </trkpt>
      <trkpt lat="49.19846" lon="4.13606">
        <ele>134</ele>
        <time>2020-09-20T10:37:29Z</time>
      </trkpt>
      <trkpt lat="49.1985" lon="4.13608">
        <ele>134</ele>
        <time>2020-09-20T10:37:30Z</time>
      </trkpt>
      <trkpt lat="49.19852" lon="4.13612">
        <ele>134</ele>
        <time>2020-09-20T10:37:31Z</time>
      </trkpt>
      <trkpt lat="49.19854" lon="4.13617">
        <ele>134</ele>
        <time>2020-09-20T10:37:32Z</time>
      </trkpt>
      <trkpt lat="49.19854" lon="4.13623">
        <ele>134</ele>
        <time>2020-09-20T10:37:33Z</time>
      </trkpt>
      <trkpt lat="49.19855" lon="4.13629">
        <ele>134</ele>
        <time>2020-09-20T10:37:34Z</time>
      </trkpt>
      <trkpt lat="49.19856" lon="4.13635">
        <ele>134</ele>
        <time>2020-09-20T10:37:35Z</time>
      </trkpt>
      <trkpt lat="49.19857" lon="4.13641">
        <ele>134</ele>
        <time>2020-09-20T10:37:36Z</time>
      </trkpt>
      <trkpt lat="49.19858" lon="4.13647">
        <ele>134</ele>
        <time>2020-09-20T10:37:37Z</time>
      </trkpt>
      <trkpt lat="49.19861" lon="4.13652">
        <ele>134</ele>
        <time>2020-09-20T10:37:38Z</time>
      </trkpt>
      <trkpt lat="49.19864" lon="4.13654">
        <ele>134</ele>
        <time>2020-09-20T10:37:39Z</time>
      </trkpt>
      <trkpt lat="49.19869" lon="4.13655">
        <ele>134</ele>
        <time>2020-09-20T10:37:40Z</time>
      </trkpt>
      <trkpt lat="49.19873" lon="4.13655">
        <ele>134</ele>
        <time>2020-09-20T10:37:41Z</time>
      </trkpt>
      <trkpt lat="49.19878" lon="4.13655">
        <ele>135</ele>
        <time>2020-09-20T10:37:42Z</time>
      </trkpt>
      <trkpt lat="49.19882" lon="4.13655">
        <ele>135</ele>
        <time>2020-09-20T10:37:43Z</time>
      </trkpt>
      <trkpt lat="49.19886" lon="4.13655">
        <ele>135</ele>
        <time>2020-09-20T10:37:44Z</time>
      </trkpt>
      <trkpt lat="49.1989" lon="4.13655">
        <ele>135</ele>
        <time>2020-09-20T10:37:45Z</time>
      </trkpt>
      <trkpt lat="49.19894" lon="4.13655">
        <ele>135</ele>
        <time>2020-09-20T10:37:46Z</time>
      </trkpt>
      <trkpt lat="49.19899" lon="4.13654">
        <ele>136</ele>
        <time>2020-09-20T10:37:47Z</time>
      </trkpt>
      <trkpt lat="49.19903" lon="4.13654">
        <ele>136</ele>
        <time>2020-09-20T10:37:48Z</time>
      </trkpt>
      <trkpt lat="49.19907" lon="4.13653">
        <ele>136</ele>
        <time>2020-09-20T10:37:49Z</time>
      </trkpt>
      <trkpt lat="49.19912" lon="4.13653">
        <ele>135</ele>
        <time>2020-09-20T10:37:50Z</time>
      </trkpt>
      <trkpt lat="49.19916" lon="4.13652">
        <ele>135</ele>
        <time>2020-09-20T10:37:51Z</time>
      </trkpt>
      <trkpt lat="49.19921" lon="4.1365">
        <ele>135</ele>
        <time>2020-09-20T10:37:52Z</time>
      </trkpt>
      <trkpt lat="49.19925" lon="4.13649">
        <ele>136</ele>
        <time>2020-09-20T10:37:53Z</time>
      </trkpt>
      <trkpt lat="49.19929" lon="4.13647">
        <ele>135</ele>
        <time>2020-09-20T10:37:54Z</time>
      </trkpt>
      <trkpt lat="49.19934" lon="4.13646">
        <ele>135</ele>
        <time>2020-09-20T10:37:55Z</time>
      </trkpt>
      <trkpt lat="49.19939" lon="4.13644">
        <ele>135</ele>
        <time>2020-09-20T10:37:56Z</time>
      </trkpt>
      <trkpt lat="49.19944" lon="4.13644">
        <ele>135</ele>
        <time>2020-09-20T10:37:57Z</time>
      </trkpt>
      <trkpt lat="49.19949" lon="4.13642">
        <ele>135</ele>
        <time>2020-09-20T10:37:58Z</time>
      </trkpt>
      <trkpt lat="49.19954" lon="4.13641">
        <ele>135</ele>
        <time>2020-09-20T10:37:59Z</time>
      </trkpt>
      <trkpt lat="49.19959" lon="4.1364">
        <ele>135</ele>
        <time>2020-09-20T10:38:00Z</time>
      </trkpt>
      <trkpt lat="49.19965" lon="4.1364">
        <ele>135</ele>
        <time>2020-09-20T10:38:01Z</time>
      </trkpt>
      <trkpt lat="49.1997" lon="4.13639">
        <ele>135</ele>
        <time>2020-09-20T10:38:02Z</time>
      </trkpt>
      <trkpt lat="49.19975" lon="4.13639">
        <ele>135</ele>
        <time>2020-09-20T10:38:03Z</time>
      </trkpt>
      <trkpt lat="49.1998" lon="4.13637">
        <ele>135</ele>
        <time>2020-09-20T10:38:04Z</time>
      </trkpt>
      <trkpt lat="49.19985" lon="4.13636">
        <ele>135</ele>
        <time>2020-09-20T10:38:05Z</time>
      </trkpt>
      <trkpt lat="49.1999" lon="4.13635">
        <ele>135</ele>
        <time>2020-09-20T10:38:06Z</time>
      </trkpt>
      <trkpt lat="49.19996" lon="4.13635">
        <ele>135</ele>
        <time>2020-09-20T10:38:07Z</time>
      </trkpt>
      <trkpt lat="49.20001" lon="4.13634">
        <ele>135</ele>
        <time>2020-09-20T10:38:08Z</time>
      </trkpt>
      <trkpt lat="49.20006" lon="4.13633">
        <ele>135</ele>
        <time>2020-09-20T10:38:09Z</time>
      </trkpt>
      <trkpt lat="49.20012" lon="4.13632">
        <ele>135</ele>
        <time>2020-09-20T10:38:10Z</time>
      </trkpt>
      <trkpt lat="49.20017" lon="4.13631">
        <ele>135</ele>
        <time>2020-09-20T10:38:11Z</time>
      </trkpt>
      <trkpt lat="49.20023" lon="4.13631">
        <ele>135</ele>
        <time>2020-09-20T10:38:12Z</time>
      </trkpt>
      <trkpt lat="49.20029" lon="4.1363">
        <ele>135</ele>
        <time>2020-09-20T10:38:13Z</time>
      </trkpt>
      <trkpt lat="49.20034" lon="4.13629">
        <ele>134</ele>
        <time>2020-09-20T10:38:14Z</time>
      </trkpt>
      <trkpt lat="49.2004" lon="4.13628">
        <ele>134</ele>
        <time>2020-09-20T10:38:15Z</time>
      </trkpt>
      <trkpt lat="49.20045" lon="4.13627">
        <ele>134</ele>
        <time>2020-09-20T10:38:16Z</time>
      </trkpt>
      <trkpt lat="49.20051" lon="4.13626">
        <ele>134</ele>
        <time>2020-09-20T10:38:17Z</time>
      </trkpt>
      <trkpt lat="49.20057" lon="4.13624">
        <ele>134</ele>
        <time>2020-09-20T10:38:18Z</time>
      </trkpt>
      <trkpt lat="49.20063" lon="4.13623">
        <ele>134</ele>
        <time>2020-09-20T10:38:19Z</time>
      </trkpt>
      <trkpt lat="49.20069" lon="4.13622">
        <ele>134</ele>
        <time>2020-09-20T10:38:20Z</time>
      </trkpt>
      <trkpt lat="49.20074" lon="4.13622">
        <ele>134</ele>
        <time>2020-09-20T10:38:21Z</time>
      </trkpt>
      <trkpt lat="49.20079" lon="4.13625">
        <ele>135</ele>
        <time>2020-09-20T10:38:22Z</time>
      </trkpt>
      <trkpt lat="49.20083" lon="4.13629">
        <ele>135</ele>
        <time>2020-09-20T10:38:23Z</time>
      </trkpt>
      <trkpt lat="49.20087" lon="4.13629">
        <ele>135</ele>
        <time>2020-09-20T10:38:24Z</time>
      </trkpt>
      <trkpt lat="49.20091" lon="4.13627">
        <ele>135</ele>
        <time>2020-09-20T10:38:25Z</time>
      </trkpt>
      <trkpt lat="49.20096" lon="4.13624">
        <ele>135</ele>
        <time>2020-09-20T10:38:26Z</time>
      </trkpt>
      <trkpt lat="49.20102" lon="4.13622">
        <ele>135</ele>
        <time>2020-09-20T10:38:27Z</time>
      </trkpt>
      <trkpt lat="49.20107" lon="4.1362">
        <ele>135</ele>
        <time>2020-09-20T10:38:28Z</time>
      </trkpt>
      <trkpt lat="49.20113" lon="4.13617">
        <ele>135</ele>
        <time>2020-09-20T10:38:29Z</time>
      </trkpt>
      <trkpt lat="49.20119" lon="4.13615">
        <ele>135</ele>
        <time>2020-09-20T10:38:30Z</time>
      </trkpt>
      <trkpt lat="49.20125" lon="4.13613">
        <ele>134</ele>
        <time>2020-09-20T10:38:31Z</time>
      </trkpt>
      <trkpt lat="49.20131" lon="4.13611">
        <ele>135</ele>
        <time>2020-09-20T10:38:32Z</time>
      </trkpt>
      <trkpt lat="49.20137" lon="4.13609">
        <ele>134</ele>
        <time>2020-09-20T10:38:33Z</time>
      </trkpt>
      <trkpt lat="49.20143" lon="4.13608">
        <ele>134</ele>
        <time>2020-09-20T10:38:34Z</time>
      </trkpt>
      <trkpt lat="49.2015" lon="4.13605">
        <ele>133</ele>
        <time>2020-09-20T10:38:35Z</time>
      </trkpt>
      <trkpt lat="49.20158" lon="4.13603">
        <ele>133</ele>
        <time>2020-09-20T10:38:36Z</time>
      </trkpt>
      <trkpt lat="49.20166" lon="4.13601">
        <ele>133</ele>
        <time>2020-09-20T10:38:37Z</time>
      </trkpt>
      <trkpt lat="49.20174" lon="4.136">
        <ele>133</ele>
        <time>2020-09-20T10:38:38Z</time>
      </trkpt>
      <trkpt lat="49.20182" lon="4.13599">
        <ele>133</ele>
        <time>2020-09-20T10:38:39Z</time>
      </trkpt>
      <trkpt lat="49.20191" lon="4.13598">
        <ele>132</ele>
        <time>2020-09-20T10:38:40Z</time>
      </trkpt>
      <trkpt lat="49.20199" lon="4.13596">
        <ele>132</ele>
        <time>2020-09-20T10:38:41Z</time>
      </trkpt>
      <trkpt lat="49.20207" lon="4.13595">
        <ele>132</ele>
        <time>2020-09-20T10:38:42Z</time>
      </trkpt>
      <trkpt lat="49.20215" lon="4.13594">
        <ele>132</ele>
        <time>2020-09-20T10:38:43Z</time>
      </trkpt>
      <trkpt lat="49.20223" lon="4.13592">
        <ele>132</ele>
        <time>2020-09-20T10:38:44Z</time>
      </trkpt>
      <trkpt lat="49.20231" lon="4.13591">
        <ele>132</ele>
        <time>2020-09-20T10:38:45Z</time>
      </trkpt>
      <trkpt lat="49.20239" lon="4.1359">
        <ele>132</ele>
        <time>2020-09-20T10:38:46Z</time>
      </trkpt>
      <trkpt lat="49.20247" lon="4.13588">
        <ele>132</ele>
        <time>2020-09-20T10:38:47Z</time>
      </trkpt>
      <trkpt lat="49.20255" lon="4.13587">
        <ele>132</ele>
        <time>2020-09-20T10:38:48Z</time>
      </trkpt>
      <trkpt lat="49.20262" lon="4.13585">
        <ele>132</ele>
        <time>2020-09-20T10:38:49Z</time>
      </trkpt>
      <trkpt lat="49.2027" lon="4.13584">
        <ele>132</ele>
        <time>2020-09-20T10:38:50Z</time>
      </trkpt>
      <trkpt lat="49.20277" lon="4.13583">
        <ele>131</ele>
        <time>2020-09-20T10:38:51Z</time>
      </trkpt>
      <trkpt lat="49.20285" lon="4.13582">
        <ele>131</ele>
        <time>2020-09-20T10:38:52Z</time>
      </trkpt>
      <trkpt lat="49.20292" lon="4.1358">
        <ele>131</ele>
        <time>2020-09-20T10:38:53Z</time>
      </trkpt>
      <trkpt lat="49.203" lon="4.13579">
        <ele>131</ele>
        <time>2020-09-20T10:38:54Z</time>
      </trkpt>
      <trkpt lat="49.20307" lon="4.13578">
        <ele>131</ele>
        <time>2020-09-20T10:38:55Z</time>
      </trkpt>
      <trkpt lat="49.20315" lon="4.13576">
        <ele>131</ele>
        <time>2020-09-20T10:38:56Z</time>
      </trkpt>
      <trkpt lat="49.20322" lon="4.13575">
        <ele>131</ele>
        <time>2020-09-20T10:38:57Z</time>
      </trkpt>
      <trkpt lat="49.2033" lon="4.13572">
        <ele>131</ele>
        <time>2020-09-20T10:38:58Z</time>
      </trkpt>
      <trkpt lat="49.20338" lon="4.1357">
        <ele>131</ele>
        <time>2020-09-20T10:38:59Z</time>
      </trkpt>
      <trkpt lat="49.20345" lon="4.13567">
        <ele>131</ele>
        <time>2020-09-20T10:39:00Z</time>
      </trkpt>
      <trkpt lat="49.20352" lon="4.13565">
        <ele>131</ele>
        <time>2020-09-20T10:39:01Z</time>
      </trkpt>
      <trkpt lat="49.20359" lon="4.13562">
        <ele>131</ele>
        <time>2020-09-20T10:39:02Z</time>
      </trkpt>
      <trkpt lat="49.20366" lon="4.1356">
        <ele>131</ele>
        <time>2020-09-20T10:39:03Z</time>
      </trkpt>
      <trkpt lat="49.20372" lon="4.13558">
        <ele>130</ele>
        <time>2020-09-20T10:39:04Z</time>
      </trkpt>
      <trkpt lat="49.20379" lon="4.13556">
        <ele>131</ele>
        <time>2020-09-20T10:39:05Z</time>
      </trkpt>
      <trkpt lat="49.20386" lon="4.13552">
        <ele>131</ele>
        <time>2020-09-20T10:39:06Z</time>
      </trkpt>
      <trkpt lat="49.20392" lon="4.13549">
        <ele>131</ele>
        <time>2020-09-20T10:39:07Z</time>
      </trkpt>
      <trkpt lat="49.20399" lon="4.13546">
        <ele>131</ele>
        <time>2020-09-20T10:39:08Z</time>
      </trkpt>
      <trkpt lat="49.20405" lon="4.13542">
        <ele>131</ele>
        <time>2020-09-20T10:39:09Z</time>
      </trkpt>
      <trkpt lat="49.20411" lon="4.13538">
        <ele>131</ele>
        <time>2020-09-20T10:39:10Z</time>
      </trkpt>
      <trkpt lat="49.20418" lon="4.13534">
        <ele>131</ele>
        <time>2020-09-20T10:39:11Z</time>
      </trkpt>
      <trkpt lat="49.20424" lon="4.13529">
        <ele>131</ele>
        <time>2020-09-20T10:39:12Z</time>
      </trkpt>
      <trkpt lat="49.20431" lon="4.13525">
        <ele>131</ele>
        <time>2020-09-20T10:39:13Z</time>
      </trkpt>
      <trkpt lat="49.20437" lon="4.13521">
        <ele>131</ele>
        <time>2020-09-20T10:39:14Z</time>
      </trkpt>
      <trkpt lat="49.20443" lon="4.13516">
        <ele>131</ele>
        <time>2020-09-20T10:39:15Z</time>
      </trkpt>
      <trkpt lat="49.20449" lon="4.13512">
        <ele>131</ele>
        <time>2020-09-20T10:39:16Z</time>
      </trkpt>
      <trkpt lat="49.20455" lon="4.13507">
        <ele>131</ele>
        <time>2020-09-20T10:39:17Z</time>
      </trkpt>
      <trkpt lat="49.20461" lon="4.13503">
        <ele>131</ele>
        <time>2020-09-20T10:39:18Z</time>
      </trkpt>
      <trkpt lat="49.20467" lon="4.13498">
        <ele>131</ele>
        <time>2020-09-20T10:39:19Z</time>
      </trkpt>
      <trkpt lat="49.20473" lon="4.13492">
        <ele>131</ele>
        <time>2020-09-20T10:39:20Z</time>
      </trkpt>
      <trkpt lat="49.20479" lon="4.13486">
        <ele>131</ele>
        <time>2020-09-20T10:39:21Z</time>
      </trkpt>
      <trkpt lat="49.20484" lon="4.1348">
        <ele>131</ele>
        <time>2020-09-20T10:39:22Z</time>
      </trkpt>
      <trkpt lat="49.2049" lon="4.13474">
        <ele>131</ele>
        <time>2020-09-20T10:39:23Z</time>
      </trkpt>
      <trkpt lat="49.20496" lon="4.13468">
        <ele>131</ele>
        <time>2020-09-20T10:39:24Z</time>
      </trkpt>
      <trkpt lat="49.20501" lon="4.13462">
        <ele>132</ele>
        <time>2020-09-20T10:39:25Z</time>
      </trkpt>
      <trkpt lat="49.20507" lon="4.13456">
        <ele>132</ele>
        <time>2020-09-20T10:39:26Z</time>
      </trkpt>
      <trkpt lat="49.20512" lon="4.13449">
        <ele>132</ele>
        <time>2020-09-20T10:39:27Z</time>
      </trkpt>
      <trkpt lat="49.20517" lon="4.13442">
        <ele>132</ele>
        <time>2020-09-20T10:39:28Z</time>
      </trkpt>
      <trkpt lat="49.20522" lon="4.13435">
        <ele>132</ele>
        <time>2020-09-20T10:39:29Z</time>
      </trkpt>
      <trkpt lat="49.20527" lon="4.13428">
        <ele>132</ele>
        <time>2020-09-20T10:39:30Z</time>
      </trkpt>
      <trkpt lat="49.20532" lon="4.13421">
        <ele>132</ele>
        <time>2020-09-20T10:39:31Z</time>
      </trkpt>
      <trkpt lat="49.20536" lon="4.13415">
        <ele>132</ele>
        <time>2020-09-20T10:39:32Z</time>
      </trkpt>
      <trkpt lat="49.2054" lon="4.13408">
        <ele>132</ele>
        <time>2020-09-20T10:39:33Z</time>
      </trkpt>
      <trkpt lat="49.20545" lon="4.134">
        <ele>131</ele>
        <time>2020-09-20T10:39:34Z</time>
      </trkpt>
      <trkpt lat="49.20549" lon="4.13393">
        <ele>132</ele>
        <time>2020-09-20T10:39:35Z</time>
      </trkpt>
      <trkpt lat="49.20553" lon="4.13384">
        <ele>131</ele>
        <time>2020-09-20T10:39:36Z</time>
      </trkpt>
      <trkpt lat="49.20557" lon="4.13376">
        <ele>131</ele>
        <time>2020-09-20T10:39:37Z</time>
      </trkpt>
      <trkpt lat="49.2056" lon="4.13368">
        <ele>131</ele>
        <time>2020-09-20T10:39:38Z</time>
      </trkpt>
      <trkpt lat="49.20564" lon="4.13359">
        <ele>130</ele>
        <time>2020-09-20T10:39:39Z</time>
      </trkpt>
      <trkpt lat="49.20568" lon="4.1335">
        <ele>129</ele>
        <time>2020-09-20T10:39:40Z</time>
      </trkpt>
      <trkpt lat="49.20571" lon="4.13342">
        <ele>129</ele>
        <time>2020-09-20T10:39:41Z</time>
      </trkpt>
      <trkpt lat="49.20574" lon="4.13334">
        <ele>129</ele>
        <time>2020-09-20T10:39:42Z</time>
      </trkpt>
      <trkpt lat="49.20577" lon="4.13326">
        <ele>129</ele>
        <time>2020-09-20T10:39:43Z</time>
      </trkpt>
      <trkpt lat="49.2058" lon="4.13318">
        <ele>129</ele>
        <time>2020-09-20T10:39:44Z</time>
      </trkpt>
      <trkpt lat="49.20582" lon="4.1331">
        <ele>129</ele>
        <time>2020-09-20T10:39:45Z</time>
      </trkpt>
      <trkpt lat="49.20585" lon="4.13302">
        <ele>128</ele>
        <time>2020-09-20T10:39:46Z</time>
      </trkpt>
      <trkpt lat="49.20588" lon="4.13294">
        <ele>128</ele>
        <time>2020-09-20T10:39:47Z</time>
      </trkpt>
      <trkpt lat="49.20591" lon="4.13285">
        <ele>128</ele>
        <time>2020-09-20T10:39:48Z</time>
      </trkpt>
      <trkpt lat="49.20593" lon="4.13277">
        <ele>128</ele>
        <time>2020-09-20T10:39:49Z</time>
      </trkpt>
      <trkpt lat="49.20596" lon="4.13269">
        <ele>128</ele>
        <time>2020-09-20T10:39:50Z</time>
      </trkpt>
      <trkpt lat="49.20599" lon="4.1326">
        <ele>127</ele>
        <time>2020-09-20T10:39:51Z</time>
      </trkpt>
      <trkpt lat="49.20602" lon="4.13251">
        <ele>127</ele>
        <time>2020-09-20T10:39:52Z</time>
      </trkpt>
      <trkpt lat="49.20605" lon="4.13243">
        <ele>127</ele>
        <time>2020-09-20T10:39:53Z</time>
      </trkpt>
      <trkpt lat="49.20607" lon="4.13234">
        <ele>128</ele>
        <time>2020-09-20T10:39:54Z</time>
      </trkpt>
      <trkpt lat="49.20613" lon="4.13217">
        <ele>127</ele>
        <time>2020-09-20T10:39:56Z</time>
      </trkpt>
      <trkpt lat="49.20616" lon="4.13209">
        <ele>127</ele>
        <time>2020-09-20T10:39:57Z</time>
      </trkpt>
      <trkpt lat="49.20619" lon="4.132">
        <ele>127</ele>
        <time>2020-09-20T10:39:58Z</time>
      </trkpt>
      <trkpt lat="49.20621" lon="4.13191">
        <ele>127</ele>
        <time>2020-09-20T10:39:59Z</time>
      </trkpt>
      <trkpt lat="49.20623" lon="4.13183">
        <ele>127</ele>
        <time>2020-09-20T10:40:00Z</time>
      </trkpt>
      <trkpt lat="49.20626" lon="4.13175">
        <ele>127</ele>
        <time>2020-09-20T10:40:01Z</time>
      </trkpt>
      <trkpt lat="49.20628" lon="4.13166">
        <ele>127</ele>
        <time>2020-09-20T10:40:02Z</time>
      </trkpt>
      <trkpt lat="49.2063" lon="4.13158">
        <ele>127</ele>
        <time>2020-09-20T10:40:03Z</time>
      </trkpt>
      <trkpt lat="49.20632" lon="4.1315">
        <ele>127</ele>
        <time>2020-09-20T10:40:04Z</time>
      </trkpt>
      <trkpt lat="49.20634" lon="4.13142">
        <ele>128</ele>
        <time>2020-09-20T10:40:05Z</time>
      </trkpt>
      <trkpt lat="49.20637" lon="4.13134">
        <ele>128</ele>
        <time>2020-09-20T10:40:06Z</time>
      </trkpt>
      <trkpt lat="49.20638" lon="4.13126">
        <ele>128</ele>
        <time>2020-09-20T10:40:07Z</time>
      </trkpt>
      <trkpt lat="49.20641" lon="4.13119">
        <ele>128</ele>
        <time>2020-09-20T10:40:08Z</time>
      </trkpt>
      <trkpt lat="49.20643" lon="4.13111">
        <ele>128</ele>
        <time>2020-09-20T10:40:09Z</time>
      </trkpt>
      <trkpt lat="49.20645" lon="4.13103">
        <ele>128</ele>
        <time>2020-09-20T10:40:10Z</time>
      </trkpt>
      <trkpt lat="49.20647" lon="4.13095">
        <ele>128</ele>
        <time>2020-09-20T10:40:11Z</time>
      </trkpt>
      <trkpt lat="49.2065" lon="4.13087">
        <ele>129</ele>
        <time>2020-09-20T10:40:12Z</time>
      </trkpt>
      <trkpt lat="49.20652" lon="4.13079">
        <ele>128</ele>
        <time>2020-09-20T10:40:13Z</time>
      </trkpt>
      <trkpt lat="49.20655" lon="4.13071">
        <ele>129</ele>
        <time>2020-09-20T10:40:14Z</time>
      </trkpt>
      <trkpt lat="49.20658" lon="4.13063">
        <ele>128</ele>
        <time>2020-09-20T10:40:15Z</time>
      </trkpt>
      <trkpt lat="49.20662" lon="4.13047">
        <ele>129</ele>
        <time>2020-09-20T10:40:17Z</time>
      </trkpt>
      <trkpt lat="49.20665" lon="4.13039">
        <ele>129</ele>
        <time>2020-09-20T10:40:18Z</time>
      </trkpt>
      <trkpt lat="49.20668" lon="4.1303">
        <ele>129</ele>
        <time>2020-09-20T10:40:19Z</time>
      </trkpt>
      <trkpt lat="49.2067" lon="4.13022">
        <ele>129</ele>
        <time>2020-09-20T10:40:20Z</time>
      </trkpt>
      <trkpt lat="49.20673" lon="4.13014">
        <ele>129</ele>
        <time>2020-09-20T10:40:21Z</time>
      </trkpt>
      <trkpt lat="49.20675" lon="4.13006">
        <ele>130</ele>
        <time>2020-09-20T10:40:22Z</time>
      </trkpt>
      <trkpt lat="49.20681" lon="4.1299">
        <ele>129</ele>
        <time>2020-09-20T10:40:24Z</time>
      </trkpt>
      <trkpt lat="49.20683" lon="4.12981">
        <ele>129</ele>
        <time>2020-09-20T10:40:25Z</time>
      </trkpt>
      <trkpt lat="49.20686" lon="4.12973">
        <ele>130</ele>
        <time>2020-09-20T10:40:26Z</time>
      </trkpt>
      <trkpt lat="49.20688" lon="4.12964">
        <ele>130</ele>
        <time>2020-09-20T10:40:27Z</time>
      </trkpt>
      <trkpt lat="49.20691" lon="4.12956">
        <ele>130</ele>
        <time>2020-09-20T10:40:28Z</time>
      </trkpt>
      <trkpt lat="49.20694" lon="4.12947">
        <ele>130</ele>
        <time>2020-09-20T10:40:29Z</time>
      </trkpt>
      <trkpt lat="49.20697" lon="4.12939">
        <ele>130</ele>
        <time>2020-09-20T10:40:30Z</time>
      </trkpt>
      <trkpt lat="49.207" lon="4.12931">
        <ele>130</ele>
        <time>2020-09-20T10:40:31Z</time>
      </trkpt>
      <trkpt lat="49.20702" lon="4.12922">
        <ele>130</ele>
        <time>2020-09-20T10:40:32Z</time>
      </trkpt>
      <trkpt lat="49.20705" lon="4.12914">
        <ele>129</ele>
        <time>2020-09-20T10:40:33Z</time>
      </trkpt>
      <trkpt lat="49.20708" lon="4.12906">
        <ele>129</ele>
        <time>2020-09-20T10:40:34Z</time>
      </trkpt>
      <trkpt lat="49.20711" lon="4.12897">
        <ele>129</ele>
        <time>2020-09-20T10:40:35Z</time>
      </trkpt>
      <trkpt lat="49.20713" lon="4.12888">
        <ele>130</ele>
        <time>2020-09-20T10:40:36Z</time>
      </trkpt>
      <trkpt lat="49.20716" lon="4.12879">
        <ele>130</ele>
        <time>2020-09-20T10:40:37Z</time>
      </trkpt>
      <trkpt lat="49.20719" lon="4.1287">
        <ele>130</ele>
        <time>2020-09-20T10:40:38Z</time>
      </trkpt>
      <trkpt lat="49.20722" lon="4.12861">
        <ele>130</ele>
        <time>2020-09-20T10:40:39Z</time>
      </trkpt>
      <trkpt lat="49.20725" lon="4.12852">
        <ele>130</ele>
        <time>2020-09-20T10:40:40Z</time>
      </trkpt>
      <trkpt lat="49.20728" lon="4.12844">
        <ele>130</ele>
        <time>2020-09-20T10:40:41Z</time>
      </trkpt>
      <trkpt lat="49.20731" lon="4.12835">
        <ele>130</ele>
        <time>2020-09-20T10:40:42Z</time>
      </trkpt>
      <trkpt lat="49.20733" lon="4.12826">
        <ele>130</ele>
        <time>2020-09-20T10:40:43Z</time>
      </trkpt>
      <trkpt lat="49.20736" lon="4.12818">
        <ele>130</ele>
        <time>2020-09-20T10:40:44Z</time>
      </trkpt>
      <trkpt lat="49.20739" lon="4.12809">
        <ele>130</ele>
        <time>2020-09-20T10:40:45Z</time>
      </trkpt>
      <trkpt lat="49.20742" lon="4.128">
        <ele>130</ele>
        <time>2020-09-20T10:40:46Z</time>
      </trkpt>
      <trkpt lat="49.20745" lon="4.12791">
        <ele>130</ele>
        <time>2020-09-20T10:40:47Z</time>
      </trkpt>
      <trkpt lat="49.20748" lon="4.12782">
        <ele>130</ele>
        <time>2020-09-20T10:40:48Z</time>
      </trkpt>
      <trkpt lat="49.2075" lon="4.12773">
        <ele>130</ele>
        <time>2020-09-20T10:40:49Z</time>
      </trkpt>
      <trkpt lat="49.20753" lon="4.12765">
        <ele>130</ele>
        <time>2020-09-20T10:40:50Z</time>
      </trkpt>
      <trkpt lat="49.20756" lon="4.12755">
        <ele>130</ele>
        <time>2020-09-20T10:40:51Z</time>
      </trkpt>
      <trkpt lat="49.20759" lon="4.12746">
        <ele>130</ele>
        <time>2020-09-20T10:40:52Z</time>
      </trkpt>
      <trkpt lat="49.20761" lon="4.12737">
        <ele>130</ele>
        <time>2020-09-20T10:40:53Z</time>
      </trkpt>
      <trkpt lat="49.20764" lon="4.12728">
        <ele>130</ele>
        <time>2020-09-20T10:40:54Z</time>
      </trkpt>
      <trkpt lat="49.20767" lon="4.12719">
        <ele>130</ele>
        <time>2020-09-20T10:40:55Z</time>
      </trkpt>
      <trkpt lat="49.2077" lon="4.1271">
        <ele>130</ele>
        <time>2020-09-20T10:40:56Z</time>
      </trkpt>
      <trkpt lat="49.20773" lon="4.12701">
        <ele>130</ele>
        <time>2020-09-20T10:40:57Z</time>
      </trkpt>
      <trkpt lat="49.20776" lon="4.12692">
        <ele>131</ele>
        <time>2020-09-20T10:40:58Z</time>
      </trkpt>
      <trkpt lat="49.20779" lon="4.12683">
        <ele>131</ele>
        <time>2020-09-20T10:40:59Z</time>
      </trkpt>
      <trkpt lat="49.20782" lon="4.12673">
        <ele>131</ele>
        <time>2020-09-20T10:41:00Z</time>
      </trkpt>
      <trkpt lat="49.20785" lon="4.12664">
        <ele>131</ele>
        <time>2020-09-20T10:41:01Z</time>
      </trkpt>
      <trkpt lat="49.20788" lon="4.12654">
        <ele>131</ele>
        <time>2020-09-20T10:41:02Z</time>
      </trkpt>
      <trkpt lat="49.20791" lon="4.12645">
        <ele>131</ele>
        <time>2020-09-20T10:41:03Z</time>
      </trkpt>
      <trkpt lat="49.20794" lon="4.12636">
        <ele>131</ele>
        <time>2020-09-20T10:41:04Z</time>
      </trkpt>
      <trkpt lat="49.20798" lon="4.12627">
        <ele>130</ele>
        <time>2020-09-20T10:41:05Z</time>
      </trkpt>
      <trkpt lat="49.20802" lon="4.12618">
        <ele>130</ele>
        <time>2020-09-20T10:41:06Z</time>
      </trkpt>
      <trkpt lat="49.20805" lon="4.12608">
        <ele>130</ele>
        <time>2020-09-20T10:41:07Z</time>
      </trkpt>
      <trkpt lat="49.20809" lon="4.12599">
        <ele>130</ele>
        <time>2020-09-20T10:41:08Z</time>
      </trkpt>
      <trkpt lat="49.20812" lon="4.12589">
        <ele>130</ele>
        <time>2020-09-20T10:41:09Z</time>
      </trkpt>
      <trkpt lat="49.20815" lon="4.12579">
        <ele>130</ele>
        <time>2020-09-20T10:41:10Z</time>
      </trkpt>
      <trkpt lat="49.20818" lon="4.12569">
        <ele>130</ele>
        <time>2020-09-20T10:41:11Z</time>
      </trkpt>
      <trkpt lat="49.20822" lon="4.12559">
        <ele>130</ele>
        <time>2020-09-20T10:41:12Z</time>
      </trkpt>
      <trkpt lat="49.20825" lon="4.1255">
        <ele>131</ele>
        <time>2020-09-20T10:41:13Z</time>
      </trkpt>
      <trkpt lat="49.20828" lon="4.1254">
        <ele>131</ele>
        <time>2020-09-20T10:41:14Z</time>
      </trkpt>
      <trkpt lat="49.20831" lon="4.12531">
        <ele>130</ele>
        <time>2020-09-20T10:41:15Z</time>
      </trkpt>
      <trkpt lat="49.20835" lon="4.12522">
        <ele>131</ele>
        <time>2020-09-20T10:41:16Z</time>
      </trkpt>
      <trkpt lat="49.20838" lon="4.12513">
        <ele>131</ele>
        <time>2020-09-20T10:41:17Z</time>
      </trkpt>
      <trkpt lat="49.20842" lon="4.12504">
        <ele>131</ele>
        <time>2020-09-20T10:41:18Z</time>
      </trkpt>
      <trkpt lat="49.20845" lon="4.12496">
        <ele>131</ele>
        <time>2020-09-20T10:41:19Z</time>
      </trkpt>
      <trkpt lat="49.20849" lon="4.12487">
        <ele>130</ele>
        <time>2020-09-20T10:41:20Z</time>
      </trkpt>
      <trkpt lat="49.20853" lon="4.12479">
        <ele>130</ele>
        <time>2020-09-20T10:41:21Z</time>
      </trkpt>
      <trkpt lat="49.20856" lon="4.12469">
        <ele>130</ele>
        <time>2020-09-20T10:41:22Z</time>
      </trkpt>
      <trkpt lat="49.2086" lon="4.1246">
        <ele>130</ele>
        <time>2020-09-20T10:41:23Z</time>
      </trkpt>
      <trkpt lat="49.20863" lon="4.12451">
        <ele>130</ele>
        <time>2020-09-20T10:41:24Z</time>
      </trkpt>
      <trkpt lat="49.20867" lon="4.12442">
        <ele>130</ele>
        <time>2020-09-20T10:41:25Z</time>
      </trkpt>
      <trkpt lat="49.2087" lon="4.12432">
        <ele>130</ele>
        <time>2020-09-20T10:41:26Z</time>
      </trkpt>
      <trkpt lat="49.20873" lon="4.12422">
        <ele>130</ele>
        <time>2020-09-20T10:41:27Z</time>
      </trkpt>
      <trkpt lat="49.20876" lon="4.12412">
        <ele>130</ele>
        <time>2020-09-20T10:41:28Z</time>
      </trkpt>
      <trkpt lat="49.20879" lon="4.12403">
        <ele>130</ele>
        <time>2020-09-20T10:41:29Z</time>
      </trkpt>
      <trkpt lat="49.20881" lon="4.12393">
        <ele>130</ele>
        <time>2020-09-20T10:41:30Z</time>
      </trkpt>
      <trkpt lat="49.20884" lon="4.12384">
        <ele>130</ele>
        <time>2020-09-20T10:41:31Z</time>
      </trkpt>
      <trkpt lat="49.20887" lon="4.12374">
        <ele>130</ele>
        <time>2020-09-20T10:41:32Z</time>
      </trkpt>
      <trkpt lat="49.20891" lon="4.12365">
        <ele>130</ele>
        <time>2020-09-20T10:41:33Z</time>
      </trkpt>
      <trkpt lat="49.20894" lon="4.12355">
        <ele>130</ele>
        <time>2020-09-20T10:41:34Z</time>
      </trkpt>
      <trkpt lat="49.20897" lon="4.12345">
        <ele>130</ele>
        <time>2020-09-20T10:41:35Z</time>
      </trkpt>
      <trkpt lat="49.209" lon="4.12335">
        <ele>130</ele>
        <time>2020-09-20T10:41:36Z</time>
      </trkpt>
      <trkpt lat="49.20904" lon="4.12325">
        <ele>130</ele>
        <time>2020-09-20T10:41:37Z</time>
      </trkpt>
      <trkpt lat="49.20907" lon="4.12316">
        <ele>130</ele>
        <time>2020-09-20T10:41:38Z</time>
      </trkpt>
      <trkpt lat="49.2091" lon="4.12306">
        <ele>130</ele>
        <time>2020-09-20T10:41:39Z</time>
      </trkpt>
      <trkpt lat="49.20913" lon="4.12297">
        <ele>130</ele>
        <time>2020-09-20T10:41:40Z</time>
      </trkpt>
      <trkpt lat="49.20915" lon="4.12287">
        <ele>130</ele>
        <time>2020-09-20T10:41:41Z</time>
      </trkpt>
      <trkpt lat="49.20918" lon="4.12276">
        <ele>130</ele>
        <time>2020-09-20T10:41:42Z</time>
      </trkpt>
      <trkpt lat="49.20921" lon="4.12267">
        <ele>130</ele>
        <time>2020-09-20T10:41:43Z</time>
      </trkpt>
      <trkpt lat="49.20925" lon="4.12257">
        <ele>131</ele>
        <time>2020-09-20T10:41:44Z</time>
      </trkpt>
      <trkpt lat="49.20928" lon="4.12248">
        <ele>130</ele>
        <time>2020-09-20T10:41:45Z</time>
      </trkpt>
      <trkpt lat="49.20931" lon="4.12239">
        <ele>130</ele>
        <time>2020-09-20T10:41:46Z</time>
      </trkpt>
      <trkpt lat="49.20934" lon="4.12231">
        <ele>130</ele>
        <time>2020-09-20T10:41:47Z</time>
      </trkpt>
      <trkpt lat="49.20937" lon="4.12222">
        <ele>130</ele>
        <time>2020-09-20T10:41:48Z</time>
      </trkpt>
      <trkpt lat="49.2094" lon="4.12214">
        <ele>129</ele>
        <time>2020-09-20T10:41:49Z</time>
      </trkpt>
      <trkpt lat="49.20943" lon="4.12205">
        <ele>129</ele>
        <time>2020-09-20T10:41:50Z</time>
      </trkpt>
      <trkpt lat="49.20946" lon="4.12196">
        <ele>129</ele>
        <time>2020-09-20T10:41:51Z</time>
      </trkpt>
      <trkpt lat="49.2095" lon="4.12187">
        <ele>129</ele>
        <time>2020-09-20T10:41:52Z</time>
      </trkpt>
      <trkpt lat="49.20953" lon="4.12178">
        <ele>130</ele>
        <time>2020-09-20T10:41:53Z</time>
      </trkpt>
      <trkpt lat="49.20956" lon="4.12169">
        <ele>130</ele>
        <time>2020-09-20T10:41:54Z</time>
      </trkpt>
      <trkpt lat="49.20958" lon="4.12161">
        <ele>131</ele>
        <time>2020-09-20T10:41:55Z</time>
      </trkpt>
      <trkpt lat="49.20961" lon="4.12151">
        <ele>131</ele>
        <time>2020-09-20T10:41:56Z</time>
      </trkpt>
      <trkpt lat="49.20964" lon="4.12142">
        <ele>131</ele>
        <time>2020-09-20T10:41:57Z</time>
      </trkpt>
      <trkpt lat="49.20967" lon="4.12133">
        <ele>132</ele>
        <time>2020-09-20T10:41:58Z</time>
      </trkpt>
      <trkpt lat="49.2097" lon="4.12125">
        <ele>132</ele>
        <time>2020-09-20T10:41:59Z</time>
      </trkpt>
      <trkpt lat="49.20973" lon="4.12116">
        <ele>132</ele>
        <time>2020-09-20T10:42:00Z</time>
      </trkpt>
      <trkpt lat="49.20975" lon="4.12106">
        <ele>132</ele>
        <time>2020-09-20T10:42:01Z</time>
      </trkpt>
      <trkpt lat="49.20978" lon="4.12097">
        <ele>133</ele>
        <time>2020-09-20T10:42:02Z</time>
      </trkpt>
      <trkpt lat="49.20981" lon="4.12088">
        <ele>133</ele>
        <time>2020-09-20T10:42:03Z</time>
      </trkpt>
      <trkpt lat="49.20983" lon="4.12078">
        <ele>133</ele>
        <time>2020-09-20T10:42:04Z</time>
      </trkpt>
      <trkpt lat="49.20986" lon="4.12068">
        <ele>133</ele>
        <time>2020-09-20T10:42:05Z</time>
      </trkpt>
      <trkpt lat="49.20989" lon="4.12058">
        <ele>134</ele>
        <time>2020-09-20T10:42:06Z</time>
      </trkpt>
      <trkpt lat="49.20992" lon="4.12049">
        <ele>135</ele>
        <time>2020-09-20T10:42:07Z</time>
      </trkpt>
      <trkpt lat="49.20995" lon="4.1204">
        <ele>135</ele>
        <time>2020-09-20T10:42:08Z</time>
      </trkpt>
      <trkpt lat="49.20998" lon="4.12031">
        <ele>135</ele>
        <time>2020-09-20T10:42:09Z</time>
      </trkpt>
      <trkpt lat="49.21" lon="4.12022">
        <ele>135</ele>
        <time>2020-09-20T10:42:10Z</time>
      </trkpt>
      <trkpt lat="49.21003" lon="4.12013">
        <ele>134</ele>
        <time>2020-09-20T10:42:11Z</time>
      </trkpt>
      <trkpt lat="49.21006" lon="4.12005">
        <ele>135</ele>
        <time>2020-09-20T10:42:12Z</time>
      </trkpt>
      <trkpt lat="49.21009" lon="4.11996">
        <ele>135</ele>
        <time>2020-09-20T10:42:13Z</time>
      </trkpt>
      <trkpt lat="49.21012" lon="4.11988">
        <ele>134</ele>
        <time>2020-09-20T10:42:14Z</time>
      </trkpt>
      <trkpt lat="49.21015" lon="4.1198">
        <ele>133</ele>
        <time>2020-09-20T10:42:15Z</time>
      </trkpt>
      <trkpt lat="49.21017" lon="4.11971">
        <ele>132</ele>
        <time>2020-09-20T10:42:16Z</time>
      </trkpt>
      <trkpt lat="49.21019" lon="4.11962">
        <ele>132</ele>
        <time>2020-09-20T10:42:17Z</time>
      </trkpt>
      <trkpt lat="49.21022" lon="4.11954">
        <ele>132</ele>
        <time>2020-09-20T10:42:18Z</time>
      </trkpt>
      <trkpt lat="49.21025" lon="4.11945">
        <ele>132</ele>
        <time>2020-09-20T10:42:19Z</time>
      </trkpt>
      <trkpt lat="49.21028" lon="4.11936">
        <ele>132</ele>
        <time>2020-09-20T10:42:20Z</time>
      </trkpt>
      <trkpt lat="49.21031" lon="4.11928">
        <ele>131</ele>
        <time>2020-09-20T10:42:21Z</time>
      </trkpt>
      <trkpt lat="49.21033" lon="4.11919">
        <ele>131</ele>
        <time>2020-09-20T10:42:22Z</time>
      </trkpt>
      <trkpt lat="49.21036" lon="4.11911">
        <ele>131</ele>
        <time>2020-09-20T10:42:23Z</time>
      </trkpt>
      <trkpt lat="49.21039" lon="4.11902">
        <ele>131</ele>
        <time>2020-09-20T10:42:24Z</time>
      </trkpt>
      <trkpt lat="49.21041" lon="4.11893">
        <ele>131</ele>
        <time>2020-09-20T10:42:25Z</time>
      </trkpt>
      <trkpt lat="49.21044" lon="4.11885">
        <ele>131</ele>
        <time>2020-09-20T10:42:26Z</time>
      </trkpt>
      <trkpt lat="49.21047" lon="4.11876">
        <ele>131</ele>
        <time>2020-09-20T10:42:27Z</time>
      </trkpt>
      <trkpt lat="49.21049" lon="4.11868">
        <ele>130</ele>
        <time>2020-09-20T10:42:28Z</time>
      </trkpt>
      <trkpt lat="49.21052" lon="4.1186">
        <ele>130</ele>
        <time>2020-09-20T10:42:29Z</time>
      </trkpt>
      <trkpt lat="49.21055" lon="4.11851">
        <ele>130</ele>
        <time>2020-09-20T10:42:30Z</time>
      </trkpt>
      <trkpt lat="49.21057" lon="4.11842">
        <ele>130</ele>
        <time>2020-09-20T10:42:31Z</time>
      </trkpt>
      <trkpt lat="49.2106" lon="4.11834">
        <ele>130</ele>
        <time>2020-09-20T10:42:32Z</time>
      </trkpt>
      <trkpt lat="49.21062" lon="4.11826">
        <ele>130</ele>
        <time>2020-09-20T10:42:33Z</time>
      </trkpt>
      <trkpt lat="49.21065" lon="4.11817">
        <ele>130</ele>
        <time>2020-09-20T10:42:34Z</time>
      </trkpt>
      <trkpt lat="49.21068" lon="4.11809">
        <ele>130</ele>
        <time>2020-09-20T10:42:35Z</time>
      </trkpt>
      <trkpt lat="49.21071" lon="4.11801">
        <ele>129</ele>
        <time>2020-09-20T10:42:36Z</time>
      </trkpt>
      <trkpt lat="49.21073" lon="4.11793">
        <ele>129</ele>
        <time>2020-09-20T10:42:37Z</time>
      </trkpt>
      <trkpt lat="49.21076" lon="4.11785">
        <ele>129</ele>
        <time>2020-09-20T10:42:38Z</time>
      </trkpt>
      <trkpt lat="49.21079" lon="4.11777">
        <ele>129</ele>
        <time>2020-09-20T10:42:39Z</time>
      </trkpt>
      <trkpt lat="49.21082" lon="4.11769">
        <ele>129</ele>
        <time>2020-09-20T10:42:40Z</time>
      </trkpt>
      <trkpt lat="49.21085" lon="4.11761">
        <ele>129</ele>
        <time>2020-09-20T10:42:41Z</time>
      </trkpt>
      <trkpt lat="49.21088" lon="4.11753">
        <ele>129</ele>
        <time>2020-09-20T10:42:42Z</time>
      </trkpt>
      <trkpt lat="49.21091" lon="4.11745">
        <ele>129</ele>
        <time>2020-09-20T10:42:43Z</time>
      </trkpt>
      <trkpt lat="49.21093" lon="4.11737">
        <ele>130</ele>
        <time>2020-09-20T10:42:44Z</time>
      </trkpt>
      <trkpt lat="49.21097" lon="4.1173">
        <ele>130</ele>
        <time>2020-09-20T10:42:45Z</time>
      </trkpt>
      <trkpt lat="49.21099" lon="4.11721">
        <ele>130</ele>
        <time>2020-09-20T10:42:46Z</time>
      </trkpt>
      <trkpt lat="49.21102" lon="4.11713">
        <ele>129</ele>
        <time>2020-09-20T10:42:47Z</time>
      </trkpt>
      <trkpt lat="49.21106" lon="4.11706">
        <ele>130</ele>
        <time>2020-09-20T10:42:48Z</time>
      </trkpt>
      <trkpt lat="49.21109" lon="4.11698">
        <ele>130</ele>
        <time>2020-09-20T10:42:49Z</time>
      </trkpt>
      <trkpt lat="49.21112" lon="4.11691">
        <ele>130</ele>
        <time>2020-09-20T10:42:50Z</time>
      </trkpt>
      <trkpt lat="49.21116" lon="4.11684">
        <ele>130</ele>
        <time>2020-09-20T10:42:51Z</time>
      </trkpt>
      <trkpt lat="49.2112" lon="4.11677">
        <ele>130</ele>
        <time>2020-09-20T10:42:52Z</time>
      </trkpt>
      <trkpt lat="49.21123" lon="4.1167">
        <ele>130</ele>
        <time>2020-09-20T10:42:53Z</time>
      </trkpt>
      <trkpt lat="49.21127" lon="4.11663">
        <ele>129</ele>
        <time>2020-09-20T10:42:54Z</time>
      </trkpt>
      <trkpt lat="49.2113" lon="4.11656">
        <ele>130</ele>
        <time>2020-09-20T10:42:55Z</time>
      </trkpt>
      <trkpt lat="49.21134" lon="4.11649">
        <ele>130</ele>
        <time>2020-09-20T10:42:56Z</time>
      </trkpt>
      <trkpt lat="49.21137" lon="4.11642">
        <ele>130</ele>
        <time>2020-09-20T10:42:57Z</time>
      </trkpt>
      <trkpt lat="49.2114" lon="4.11635">
        <ele>130</ele>
        <time>2020-09-20T10:42:58Z</time>
      </trkpt>
      <trkpt lat="49.21144" lon="4.11628">
        <ele>130</ele>
        <time>2020-09-20T10:42:59Z</time>
      </trkpt>
      <trkpt lat="49.21148" lon="4.11621">
        <ele>130</ele>
        <time>2020-09-20T10:43:00Z</time>
      </trkpt>
      <trkpt lat="49.21151" lon="4.11614">
        <ele>130</ele>
        <time>2020-09-20T10:43:01Z</time>
      </trkpt>
      <trkpt lat="49.21155" lon="4.11607">
        <ele>130</ele>
        <time>2020-09-20T10:43:02Z</time>
      </trkpt>
      <trkpt lat="49.21158" lon="4.116">
        <ele>130</ele>
        <time>2020-09-20T10:43:03Z</time>
      </trkpt>
      <trkpt lat="49.21162" lon="4.11594">
        <ele>130</ele>
        <time>2020-09-20T10:43:04Z</time>
      </trkpt>
      <trkpt lat="49.21166" lon="4.11587">
        <ele>130</ele>
        <time>2020-09-20T10:43:05Z</time>
      </trkpt>
      <trkpt lat="49.21169" lon="4.1158">
        <ele>130</ele>
        <time>2020-09-20T10:43:06Z</time>
      </trkpt>
      <trkpt lat="49.21173" lon="4.11574">
        <ele>130</ele>
        <time>2020-09-20T10:43:07Z</time>
      </trkpt>
      <trkpt lat="49.21176" lon="4.11567">
        <ele>129</ele>
        <time>2020-09-20T10:43:08Z</time>
      </trkpt>
      <trkpt lat="49.21179" lon="4.11561">
        <ele>129</ele>
        <time>2020-09-20T10:43:09Z</time>
      </trkpt>
      <trkpt lat="49.21182" lon="4.11554">
        <ele>129</ele>
        <time>2020-09-20T10:43:10Z</time>
      </trkpt>
      <trkpt lat="49.21186" lon="4.11547">
        <ele>129</ele>
        <time>2020-09-20T10:43:11Z</time>
      </trkpt>
      <trkpt lat="49.21189" lon="4.1154">
        <ele>129</ele>
        <time>2020-09-20T10:43:12Z</time>
      </trkpt>
      <trkpt lat="49.21193" lon="4.11533">
        <ele>130</ele>
        <time>2020-09-20T10:43:13Z</time>
      </trkpt>
      <trkpt lat="49.21198" lon="4.11526">
        <ele>130</ele>
        <time>2020-09-20T10:43:14Z</time>
      </trkpt>
      <trkpt lat="49.21202" lon="4.11519">
        <ele>129</ele>
        <time>2020-09-20T10:43:15Z</time>
      </trkpt>
      <trkpt lat="49.21206" lon="4.11513">
        <ele>129</ele>
        <time>2020-09-20T10:43:16Z</time>
      </trkpt>
      <trkpt lat="49.21211" lon="4.11507">
        <ele>129</ele>
        <time>2020-09-20T10:43:17Z</time>
      </trkpt>
      <trkpt lat="49.21216" lon="4.11502">
        <ele>129</ele>
        <time>2020-09-20T10:43:18Z</time>
      </trkpt>
      <trkpt lat="49.21221" lon="4.11496">
        <ele>130</ele>
        <time>2020-09-20T10:43:19Z</time>
      </trkpt>
      <trkpt lat="49.21226" lon="4.11491">
        <ele>130</ele>
        <time>2020-09-20T10:43:20Z</time>
      </trkpt>
      <trkpt lat="49.21231" lon="4.11485">
        <ele>130</ele>
        <time>2020-09-20T10:43:21Z</time>
      </trkpt>
      <trkpt lat="49.21236" lon="4.11479">
        <ele>130</ele>
        <time>2020-09-20T10:43:22Z</time>
      </trkpt>
      <trkpt lat="49.21241" lon="4.11472">
        <ele>130</ele>
        <time>2020-09-20T10:43:23Z</time>
      </trkpt>
      <trkpt lat="49.21246" lon="4.11465">
        <ele>130</ele>
        <time>2020-09-20T10:43:24Z</time>
      </trkpt>
      <trkpt lat="49.21251" lon="4.11459">
        <ele>131</ele>
        <time>2020-09-20T10:43:25Z</time>
      </trkpt>
      <trkpt lat="49.21256" lon="4.11452">
        <ele>131</ele>
        <time>2020-09-20T10:43:26Z</time>
      </trkpt>
      <trkpt lat="49.21261" lon="4.11445">
        <ele>130</ele>
        <time>2020-09-20T10:43:27Z</time>
      </trkpt>
      <trkpt lat="49.21265" lon="4.11438">
        <ele>131</ele>
        <time>2020-09-20T10:43:28Z</time>
      </trkpt>
      <trkpt lat="49.2127" lon="4.11431">
        <ele>131</ele>
        <time>2020-09-20T10:43:29Z</time>
      </trkpt>
      <trkpt lat="49.21275" lon="4.11425">
        <ele>131</ele>
        <time>2020-09-20T10:43:30Z</time>
      </trkpt>
      <trkpt lat="49.21279" lon="4.11418">
        <ele>132</ele>
        <time>2020-09-20T10:43:31Z</time>
      </trkpt>
      <trkpt lat="49.21284" lon="4.11412">
        <ele>132</ele>
        <time>2020-09-20T10:43:32Z</time>
      </trkpt>
      <trkpt lat="49.21289" lon="4.11406">
        <ele>131</ele>
        <time>2020-09-20T10:43:33Z</time>
      </trkpt>
      <trkpt lat="49.21294" lon="4.114">
        <ele>131</ele>
        <time>2020-09-20T10:43:34Z</time>
      </trkpt>
      <trkpt lat="49.21299" lon="4.11393">
        <ele>131</ele>
        <time>2020-09-20T10:43:35Z</time>
      </trkpt>
      <trkpt lat="49.21304" lon="4.11386">
        <ele>131</ele>
        <time>2020-09-20T10:43:36Z</time>
      </trkpt>
      <trkpt lat="49.21309" lon="4.11379">
        <ele>131</ele>
        <time>2020-09-20T10:43:37Z</time>
      </trkpt>
      <trkpt lat="49.21314" lon="4.11372">
        <ele>130</ele>
        <time>2020-09-20T10:43:38Z</time>
      </trkpt>
      <trkpt lat="49.21319" lon="4.11364">
        <ele>130</ele>
        <time>2020-09-20T10:43:39Z</time>
      </trkpt>
      <trkpt lat="49.21323" lon="4.11358">
        <ele>130</ele>
        <time>2020-09-20T10:43:40Z</time>
      </trkpt>
      <trkpt lat="49.21328" lon="4.1135">
        <ele>131</ele>
        <time>2020-09-20T10:43:41Z</time>
      </trkpt>
      <trkpt lat="49.21333" lon="4.11343">
        <ele>131</ele>
        <time>2020-09-20T10:43:42Z</time>
      </trkpt>
      <trkpt lat="49.21338" lon="4.11337">
        <ele>131</ele>
        <time>2020-09-20T10:43:43Z</time>
      </trkpt>
      <trkpt lat="49.21343" lon="4.1133">
        <ele>131</ele>
        <time>2020-09-20T10:43:44Z</time>
      </trkpt>
      <trkpt lat="49.21348" lon="4.11323">
        <ele>131</ele>
        <time>2020-09-20T10:43:45Z</time>
      </trkpt>
      <trkpt lat="49.21353" lon="4.11317">
        <ele>131</ele>
        <time>2020-09-20T10:43:46Z</time>
      </trkpt>
      <trkpt lat="49.21358" lon="4.1131">
        <ele>131</ele>
        <time>2020-09-20T10:43:47Z</time>
      </trkpt>
      <trkpt lat="49.21363" lon="4.11303">
        <ele>131</ele>
        <time>2020-09-20T10:43:48Z</time>
      </trkpt>
      <trkpt lat="49.21368" lon="4.11296">
        <ele>131</ele>
        <time>2020-09-20T10:43:49Z</time>
      </trkpt>
      <trkpt lat="49.21372" lon="4.11289">
        <ele>132</ele>
        <time>2020-09-20T10:43:50Z</time>
      </trkpt>
      <trkpt lat="49.21377" lon="4.11282">
        <ele>132</ele>
        <time>2020-09-20T10:43:51Z</time>
      </trkpt>
      <trkpt lat="49.21382" lon="4.11276">
        <ele>132</ele>
        <time>2020-09-20T10:43:52Z</time>
      </trkpt>
      <trkpt lat="49.21387" lon="4.11269">
        <ele>131</ele>
        <time>2020-09-20T10:43:53Z</time>
      </trkpt>
      <trkpt lat="49.21391" lon="4.11262">
        <ele>131</ele>
        <time>2020-09-20T10:43:54Z</time>
      </trkpt>
      <trkpt lat="49.21396" lon="4.11255">
        <ele>131</ele>
        <time>2020-09-20T10:43:55Z</time>
      </trkpt>
      <trkpt lat="49.21401" lon="4.11247">
        <ele>131</ele>
        <time>2020-09-20T10:43:56Z</time>
      </trkpt>
      <trkpt lat="49.21406" lon="4.1124">
        <ele>131</ele>
        <time>2020-09-20T10:43:57Z</time>
      </trkpt>
      <trkpt lat="49.2141" lon="4.11233">
        <ele>131</ele>
        <time>2020-09-20T10:43:58Z</time>
      </trkpt>
      <trkpt lat="49.21415" lon="4.11226">
        <ele>130</ele>
        <time>2020-09-20T10:43:59Z</time>
      </trkpt>
      <trkpt lat="49.2142" lon="4.11219">
        <ele>130</ele>
        <time>2020-09-20T10:44:00Z</time>
      </trkpt>
      <trkpt lat="49.21424" lon="4.11213">
        <ele>129</ele>
        <time>2020-09-20T10:44:01Z</time>
      </trkpt>
      <trkpt lat="49.21429" lon="4.11206">
        <ele>129</ele>
        <time>2020-09-20T10:44:02Z</time>
      </trkpt>
      <trkpt lat="49.21434" lon="4.11199">
        <ele>129</ele>
        <time>2020-09-20T10:44:03Z</time>
      </trkpt>
      <trkpt lat="49.21439" lon="4.11192">
        <ele>129</ele>
        <time>2020-09-20T10:44:04Z</time>
      </trkpt>
      <trkpt lat="49.21444" lon="4.11185">
        <ele>129</ele>
        <time>2020-09-20T10:44:05Z</time>
      </trkpt>
      <trkpt lat="49.21449" lon="4.11179">
        <ele>129</ele>
        <time>2020-09-20T10:44:06Z</time>
      </trkpt>
      <trkpt lat="49.21454" lon="4.11173">
        <ele>129</ele>
        <time>2020-09-20T10:44:07Z</time>
      </trkpt>
      <trkpt lat="49.21459" lon="4.11166">
        <ele>129</ele>
        <time>2020-09-20T10:44:08Z</time>
      </trkpt>
      <trkpt lat="49.21464" lon="4.1116">
        <ele>129</ele>
        <time>2020-09-20T10:44:09Z</time>
      </trkpt>
      <trkpt lat="49.21468" lon="4.11153">
        <ele>129</ele>
        <time>2020-09-20T10:44:10Z</time>
      </trkpt>
      <trkpt lat="49.21473" lon="4.11147">
        <ele>129</ele>
        <time>2020-09-20T10:44:11Z</time>
      </trkpt>
      <trkpt lat="49.21477" lon="4.1114">
        <ele>129</ele>
        <time>2020-09-20T10:44:12Z</time>
      </trkpt>
      <trkpt lat="49.21482" lon="4.11134">
        <ele>129</ele>
        <time>2020-09-20T10:44:13Z</time>
      </trkpt>
      <trkpt lat="49.21486" lon="4.11128">
        <ele>129</ele>
        <time>2020-09-20T10:44:14Z</time>
      </trkpt>
      <trkpt lat="49.2149" lon="4.11122">
        <ele>129</ele>
        <time>2020-09-20T10:44:15Z</time>
      </trkpt>
      <trkpt lat="49.21495" lon="4.11115">
        <ele>129</ele>
        <time>2020-09-20T10:44:16Z</time>
      </trkpt>
      <trkpt lat="49.21499" lon="4.11109">
        <ele>129</ele>
        <time>2020-09-20T10:44:17Z</time>
      </trkpt>
      <trkpt lat="49.21503" lon="4.11102">
        <ele>129</ele>
        <time>2020-09-20T10:44:18Z</time>
      </trkpt>
      <trkpt lat="49.21508" lon="4.11095">
        <ele>129</ele>
        <time>2020-09-20T10:44:19Z</time>
      </trkpt>
      <trkpt lat="49.21512" lon="4.11089">
        <ele>129</ele>
        <time>2020-09-20T10:44:20Z</time>
      </trkpt>
      <trkpt lat="49.21517" lon="4.11082">
        <ele>129</ele>
        <time>2020-09-20T10:44:21Z</time>
      </trkpt>
      <trkpt lat="49.21522" lon="4.11076">
        <ele>129</ele>
        <time>2020-09-20T10:44:22Z</time>
      </trkpt>
      <trkpt lat="49.21526" lon="4.11069">
        <ele>129</ele>
        <time>2020-09-20T10:44:23Z</time>
      </trkpt>
      <trkpt lat="49.21531" lon="4.11063">
        <ele>129</ele>
        <time>2020-09-20T10:44:24Z</time>
      </trkpt>
      <trkpt lat="49.21535" lon="4.11057">
        <ele>129</ele>
        <time>2020-09-20T10:44:25Z</time>
      </trkpt>
      <trkpt lat="49.2154" lon="4.1105">
        <ele>129</ele>
        <time>2020-09-20T10:44:26Z</time>
      </trkpt>
      <trkpt lat="49.21544" lon="4.11044">
        <ele>129</ele>
        <time>2020-09-20T10:44:27Z</time>
      </trkpt>
      <trkpt lat="49.21549" lon="4.11038">
        <ele>129</ele>
        <time>2020-09-20T10:44:28Z</time>
      </trkpt>
      <trkpt lat="49.21554" lon="4.11032">
        <ele>129</ele>
        <time>2020-09-20T10:44:29Z</time>
      </trkpt>
      <trkpt lat="49.21558" lon="4.11026">
        <ele>129</ele>
        <time>2020-09-20T10:44:30Z</time>
      </trkpt>
      <trkpt lat="49.21562" lon="4.11019">
        <ele>129</ele>
        <time>2020-09-20T10:44:31Z</time>
      </trkpt>
      <trkpt lat="49.21567" lon="4.11014">
        <ele>129</ele>
        <time>2020-09-20T10:44:32Z</time>
      </trkpt>
      <trkpt lat="49.21571" lon="4.11008">
        <ele>130</ele>
        <time>2020-09-20T10:44:33Z</time>
      </trkpt>
      <trkpt lat="49.21576" lon="4.11001">
        <ele>130</ele>
        <time>2020-09-20T10:44:34Z</time>
      </trkpt>
      <trkpt lat="49.2158" lon="4.10995">
        <ele>129</ele>
        <time>2020-09-20T10:44:35Z</time>
      </trkpt>
      <trkpt lat="49.21584" lon="4.10989">
        <ele>129</ele>
        <time>2020-09-20T10:44:36Z</time>
      </trkpt>
      <trkpt lat="49.21589" lon="4.10984">
        <ele>129</ele>
        <time>2020-09-20T10:44:37Z</time>
      </trkpt>
      <trkpt lat="49.21593" lon="4.10978">
        <ele>129</ele>
        <time>2020-09-20T10:44:38Z</time>
      </trkpt>
      <trkpt lat="49.21598" lon="4.10972">
        <ele>129</ele>
        <time>2020-09-20T10:44:39Z</time>
      </trkpt>
      <trkpt lat="49.21602" lon="4.10965">
        <ele>129</ele>
        <time>2020-09-20T10:44:40Z</time>
      </trkpt>
      <trkpt lat="49.21607" lon="4.10959">
        <ele>129</ele>
        <time>2020-09-20T10:44:41Z</time>
      </trkpt>
      <trkpt lat="49.2161" lon="4.10954">
        <ele>129</ele>
        <time>2020-09-20T10:44:42Z</time>
      </trkpt>
      <trkpt lat="49.21615" lon="4.10948">
        <ele>129</ele>
        <time>2020-09-20T10:44:43Z</time>
      </trkpt>
      <trkpt lat="49.21619" lon="4.10942">
        <ele>129</ele>
        <time>2020-09-20T10:44:44Z</time>
      </trkpt>
      <trkpt lat="49.21624" lon="4.10935">
        <ele>129</ele>
        <time>2020-09-20T10:44:45Z</time>
      </trkpt>
      <trkpt lat="49.21628" lon="4.1093">
        <ele>129</ele>
        <time>2020-09-20T10:44:46Z</time>
      </trkpt>
      <trkpt lat="49.21633" lon="4.10924">
        <ele>129</ele>
        <time>2020-09-20T10:44:47Z</time>
      </trkpt>
      <trkpt lat="49.21637" lon="4.10919">
        <ele>129</ele>
        <time>2020-09-20T10:44:48Z</time>
      </trkpt>
      <trkpt lat="49.21641" lon="4.10913">
        <ele>129</ele>
        <time>2020-09-20T10:44:49Z</time>
      </trkpt>
      <trkpt lat="49.21645" lon="4.10908">
        <ele>130</ele>
        <time>2020-09-20T10:44:50Z</time>
      </trkpt>
      <trkpt lat="49.2165" lon="4.10902">
        <ele>130</ele>
        <time>2020-09-20T10:44:51Z</time>
      </trkpt>
      <trkpt lat="49.21654" lon="4.10895">
        <ele>130</ele>
        <time>2020-09-20T10:44:52Z</time>
      </trkpt>
      <trkpt lat="49.21658" lon="4.10888">
        <ele>129</ele>
        <time>2020-09-20T10:44:53Z</time>
      </trkpt>
      <trkpt lat="49.21663" lon="4.10881">
        <ele>129</ele>
        <time>2020-09-20T10:44:54Z</time>
      </trkpt>
      <trkpt lat="49.21666" lon="4.10873">
        <ele>129</ele>
        <time>2020-09-20T10:44:55Z</time>
      </trkpt>
      <trkpt lat="49.21671" lon="4.10866">
        <ele>129</ele>
        <time>2020-09-20T10:44:56Z</time>
      </trkpt>
      <trkpt lat="49.21675" lon="4.1086">
        <ele>129</ele>
        <time>2020-09-20T10:44:57Z</time>
      </trkpt>
      <trkpt lat="49.2168" lon="4.10853">
        <ele>128</ele>
        <time>2020-09-20T10:44:58Z</time>
      </trkpt>
      <trkpt lat="49.21684" lon="4.10846">
        <ele>127</ele>
        <time>2020-09-20T10:44:59Z</time>
      </trkpt>
      <trkpt lat="49.21689" lon="4.1084">
        <ele>127</ele>
        <time>2020-09-20T10:45:00Z</time>
      </trkpt>
      <trkpt lat="49.21693" lon="4.10833">
        <ele>127</ele>
        <time>2020-09-20T10:45:01Z</time>
      </trkpt>
      <trkpt lat="49.21697" lon="4.10825">
        <ele>127</ele>
        <time>2020-09-20T10:45:02Z</time>
      </trkpt>
      <trkpt lat="49.21702" lon="4.10818">
        <ele>127</ele>
        <time>2020-09-20T10:45:03Z</time>
      </trkpt>
      <trkpt lat="49.21707" lon="4.10811">
        <ele>127</ele>
        <time>2020-09-20T10:45:04Z</time>
      </trkpt>
      <trkpt lat="49.21711" lon="4.10804">
        <ele>127</ele>
        <time>2020-09-20T10:45:05Z</time>
      </trkpt>
      <trkpt lat="49.21715" lon="4.10796">
        <ele>128</ele>
        <time>2020-09-20T10:45:06Z</time>
      </trkpt>
      <trkpt lat="49.21718" lon="4.10789">
        <ele>128</ele>
        <time>2020-09-20T10:45:07Z</time>
      </trkpt>
      <trkpt lat="49.21722" lon="4.10782">
        <ele>128</ele>
        <time>2020-09-20T10:45:08Z</time>
      </trkpt>
      <trkpt lat="49.21726" lon="4.10775">
        <ele>128</ele>
        <time>2020-09-20T10:45:09Z</time>
      </trkpt>
      <trkpt lat="49.21731" lon="4.10768">
        <ele>128</ele>
        <time>2020-09-20T10:45:10Z</time>
      </trkpt>
      <trkpt lat="49.21734" lon="4.10761">
        <ele>128</ele>
        <time>2020-09-20T10:45:11Z</time>
      </trkpt>
      <trkpt lat="49.21739" lon="4.10753">
        <ele>129</ele>
        <time>2020-09-20T10:45:12Z</time>
      </trkpt>
      <trkpt lat="49.21743" lon="4.10746">
        <ele>129</ele>
        <time>2020-09-20T10:45:13Z</time>
      </trkpt>
      <trkpt lat="49.21747" lon="4.10739">
        <ele>129</ele>
        <time>2020-09-20T10:45:14Z</time>
      </trkpt>
      <trkpt lat="49.21751" lon="4.10732">
        <ele>129</ele>
        <time>2020-09-20T10:45:15Z</time>
      </trkpt>
      <trkpt lat="49.21755" lon="4.10725">
        <ele>129</ele>
        <time>2020-09-20T10:45:16Z</time>
      </trkpt>
      <trkpt lat="49.21758" lon="4.10718">
        <ele>129</ele>
        <time>2020-09-20T10:45:17Z</time>
      </trkpt>
      <trkpt lat="49.21761" lon="4.10711">
        <ele>129</ele>
        <time>2020-09-20T10:45:18Z</time>
      </trkpt>
      <trkpt lat="49.21764" lon="4.10703">
        <ele>129</ele>
        <time>2020-09-20T10:45:19Z</time>
      </trkpt>
      <trkpt lat="49.21768" lon="4.10695">
        <ele>128</ele>
        <time>2020-09-20T10:45:20Z</time>
      </trkpt>
      <trkpt lat="49.21771" lon="4.10688">
        <ele>128</ele>
        <time>2020-09-20T10:45:21Z</time>
      </trkpt>
      <trkpt lat="49.21774" lon="4.1068">
        <ele>128</ele>
        <time>2020-09-20T10:45:22Z</time>
      </trkpt>
      <trkpt lat="49.21777" lon="4.10673">
        <ele>128</ele>
        <time>2020-09-20T10:45:23Z</time>
      </trkpt>
      <trkpt lat="49.2178" lon="4.10665">
        <ele>128</ele>
        <time>2020-09-20T10:45:24Z</time>
      </trkpt>
      <trkpt lat="49.21784" lon="4.10657">
        <ele>128</ele>
        <time>2020-09-20T10:45:25Z</time>
      </trkpt>
      <trkpt lat="49.21788" lon="4.1065">
        <ele>128</ele>
        <time>2020-09-20T10:45:26Z</time>
      </trkpt>
      <trkpt lat="49.21792" lon="4.10643">
        <ele>128</ele>
        <time>2020-09-20T10:45:27Z</time>
      </trkpt>
      <trkpt lat="49.21795" lon="4.10636">
        <ele>129</ele>
        <time>2020-09-20T10:45:28Z</time>
      </trkpt>
      <trkpt lat="49.21799" lon="4.10629">
        <ele>129</ele>
        <time>2020-09-20T10:45:29Z</time>
      </trkpt>
      <trkpt lat="49.21803" lon="4.10621">
        <ele>128</ele>
        <time>2020-09-20T10:45:30Z</time>
      </trkpt>
      <trkpt lat="49.21806" lon="4.10612">
        <ele>128</ele>
        <time>2020-09-20T10:45:31Z</time>
      </trkpt>
      <trkpt lat="49.2181" lon="4.10605">
        <ele>128</ele>
        <time>2020-09-20T10:45:32Z</time>
      </trkpt>
      <trkpt lat="49.21814" lon="4.10597">
        <ele>128</ele>
        <time>2020-09-20T10:45:33Z</time>
      </trkpt>
      <trkpt lat="49.21818" lon="4.10588">
        <ele>128</ele>
        <time>2020-09-20T10:45:34Z</time>
      </trkpt>
      <trkpt lat="49.21821" lon="4.10579">
        <ele>127</ele>
        <time>2020-09-20T10:45:35Z</time>
      </trkpt>
      <trkpt lat="49.21825" lon="4.10571">
        <ele>127</ele>
        <time>2020-09-20T10:45:36Z</time>
      </trkpt>
      <trkpt lat="49.21828" lon="4.10562">
        <ele>127</ele>
        <time>2020-09-20T10:45:37Z</time>
      </trkpt>
      <trkpt lat="49.21832" lon="4.10553">
        <ele>127</ele>
        <time>2020-09-20T10:45:38Z</time>
      </trkpt>
      <trkpt lat="49.21836" lon="4.10546">
        <ele>126</ele>
        <time>2020-09-20T10:45:39Z</time>
      </trkpt>
      <trkpt lat="49.21839" lon="4.10538">
        <ele>127</ele>
        <time>2020-09-20T10:45:40Z</time>
      </trkpt>
      <trkpt lat="49.21843" lon="4.1053">
        <ele>127</ele>
        <time>2020-09-20T10:45:41Z</time>
      </trkpt>
      <trkpt lat="49.21846" lon="4.10521">
        <ele>127</ele>
        <time>2020-09-20T10:45:42Z</time>
      </trkpt>
      <trkpt lat="49.21849" lon="4.10513">
        <ele>128</ele>
        <time>2020-09-20T10:45:43Z</time>
      </trkpt>
      <trkpt lat="49.21853" lon="4.10505">
        <ele>127</ele>
        <time>2020-09-20T10:45:44Z</time>
      </trkpt>
      <trkpt lat="49.21857" lon="4.10498">
        <ele>127</ele>
        <time>2020-09-20T10:45:45Z</time>
      </trkpt>
      <trkpt lat="49.2186" lon="4.1049">
        <ele>127</ele>
        <time>2020-09-20T10:45:46Z</time>
      </trkpt>
      <trkpt lat="49.21863" lon="4.10483">
        <ele>128</ele>
        <time>2020-09-20T10:45:47Z</time>
      </trkpt>
      <trkpt lat="49.21867" lon="4.10475">
        <ele>128</ele>
        <time>2020-09-20T10:45:48Z</time>
      </trkpt>
      <trkpt lat="49.2187" lon="4.10467">
        <ele>127</ele>
        <time>2020-09-20T10:45:49Z</time>
      </trkpt>
      <trkpt lat="49.21874" lon="4.10459">
        <ele>127</ele>
        <time>2020-09-20T10:45:50Z</time>
      </trkpt>
      <trkpt lat="49.21877" lon="4.10451">
        <ele>127</ele>
        <time>2020-09-20T10:45:51Z</time>
      </trkpt>
      <trkpt lat="49.2188" lon="4.10443">
        <ele>127</ele>
        <time>2020-09-20T10:45:52Z</time>
      </trkpt>
      <trkpt lat="49.21884" lon="4.10435">
        <ele>127</ele>
        <time>2020-09-20T10:45:53Z</time>
      </trkpt>
      <trkpt lat="49.21887" lon="4.10426">
        <ele>126</ele>
        <time>2020-09-20T10:45:54Z</time>
      </trkpt>
      <trkpt lat="49.2189" lon="4.10419">
        <ele>127</ele>
        <time>2020-09-20T10:45:55Z</time>
      </trkpt>
      <trkpt lat="49.21893" lon="4.1041">
        <ele>127</ele>
        <time>2020-09-20T10:45:56Z</time>
      </trkpt>
      <trkpt lat="49.21896" lon="4.10403">
        <ele>127</ele>
        <time>2020-09-20T10:45:57Z</time>
      </trkpt>
      <trkpt lat="49.219" lon="4.10395">
        <ele>127</ele>
        <time>2020-09-20T10:45:58Z</time>
      </trkpt>
      <trkpt lat="49.21903" lon="4.10388">
        <ele>127</ele>
        <time>2020-09-20T10:45:59Z</time>
      </trkpt>
      <trkpt lat="49.21906" lon="4.1038">
        <ele>127</ele>
        <time>2020-09-20T10:46:00Z</time>
      </trkpt>
      <trkpt lat="49.21909" lon="4.10372">
        <ele>127</ele>
        <time>2020-09-20T10:46:01Z</time>
      </trkpt>
      <trkpt lat="49.21912" lon="4.10364">
        <ele>127</ele>
        <time>2020-09-20T10:46:02Z</time>
      </trkpt>
      <trkpt lat="49.21915" lon="4.10356">
        <ele>127</ele>
        <time>2020-09-20T10:46:03Z</time>
      </trkpt>
      <trkpt lat="49.21918" lon="4.10349">
        <ele>128</ele>
        <time>2020-09-20T10:46:04Z</time>
      </trkpt>
      <trkpt lat="49.21921" lon="4.10341">
        <ele>127</ele>
        <time>2020-09-20T10:46:05Z</time>
      </trkpt>
      <trkpt lat="49.21925" lon="4.10333">
        <ele>127</ele>
        <time>2020-09-20T10:46:06Z</time>
      </trkpt>
      <trkpt lat="49.21928" lon="4.10325">
        <ele>127</ele>
        <time>2020-09-20T10:46:07Z</time>
      </trkpt>
      <trkpt lat="49.21931" lon="4.10317">
        <ele>127</ele>
        <time>2020-09-20T10:46:08Z</time>
      </trkpt>
      <trkpt lat="49.21935" lon="4.10309">
        <ele>128</ele>
        <time>2020-09-20T10:46:09Z</time>
      </trkpt>
      <trkpt lat="49.21939" lon="4.10302">
        <ele>128</ele>
        <time>2020-09-20T10:46:10Z</time>
      </trkpt>
      <trkpt lat="49.21942" lon="4.10294">
        <ele>128</ele>
        <time>2020-09-20T10:46:11Z</time>
      </trkpt>
      <trkpt lat="49.21946" lon="4.10286">
        <ele>128</ele>
        <time>2020-09-20T10:46:12Z</time>
      </trkpt>
      <trkpt lat="49.2195" lon="4.10278">
        <ele>128</ele>
        <time>2020-09-20T10:46:13Z</time>
      </trkpt>
      <trkpt lat="49.21953" lon="4.1027">
        <ele>128</ele>
        <time>2020-09-20T10:46:14Z</time>
      </trkpt>
      <trkpt lat="49.21957" lon="4.10263">
        <ele>129</ele>
        <time>2020-09-20T10:46:15Z</time>
      </trkpt>
      <trkpt lat="49.2196" lon="4.10255">
        <ele>128</ele>
        <time>2020-09-20T10:46:16Z</time>
      </trkpt>
      <trkpt lat="49.21963" lon="4.10247">
        <ele>129</ele>
        <time>2020-09-20T10:46:17Z</time>
      </trkpt>
      <trkpt lat="49.21967" lon="4.10239">
        <ele>128</ele>
        <time>2020-09-20T10:46:18Z</time>
      </trkpt>
      <trkpt lat="49.2197" lon="4.10232">
        <ele>128</ele>
        <time>2020-09-20T10:46:19Z</time>
      </trkpt>
      <trkpt lat="49.21972" lon="4.10225">
        <ele>128</ele>
        <time>2020-09-20T10:46:20Z</time>
      </trkpt>
      <trkpt lat="49.21975" lon="4.10217">
        <ele>128</ele>
        <time>2020-09-20T10:46:21Z</time>
      </trkpt>
      <trkpt lat="49.21979" lon="4.10209">
        <ele>127</ele>
        <time>2020-09-20T10:46:22Z</time>
      </trkpt>
      <trkpt lat="49.21982" lon="4.10202">
        <ele>127</ele>
        <time>2020-09-20T10:46:23Z</time>
      </trkpt>
      <trkpt lat="49.21985" lon="4.10195">
        <ele>127</ele>
        <time>2020-09-20T10:46:24Z</time>
      </trkpt>
      <trkpt lat="49.21988" lon="4.10187">
        <ele>127</ele>
        <time>2020-09-20T10:46:25Z</time>
      </trkpt>
      <trkpt lat="49.21992" lon="4.10179">
        <ele>126</ele>
        <time>2020-09-20T10:46:26Z</time>
      </trkpt>
      <trkpt lat="49.21995" lon="4.10171">
        <ele>127</ele>
        <time>2020-09-20T10:46:27Z</time>
      </trkpt>
      <trkpt lat="49.21999" lon="4.10164">
        <ele>127</ele>
        <time>2020-09-20T10:46:28Z</time>
      </trkpt>
      <trkpt lat="49.22002" lon="4.10157">
        <ele>127</ele>
        <time>2020-09-20T10:46:29Z</time>
      </trkpt>
      <trkpt lat="49.22005" lon="4.1015">
        <ele>127</ele>
        <time>2020-09-20T10:46:30Z</time>
      </trkpt>
      <trkpt lat="49.22009" lon="4.10142">
        <ele>127</ele>
        <time>2020-09-20T10:46:31Z</time>
      </trkpt>
      <trkpt lat="49.22013" lon="4.10135">
        <ele>127</ele>
        <time>2020-09-20T10:46:32Z</time>
      </trkpt>
      <trkpt lat="49.22016" lon="4.10128">
        <ele>127</ele>
        <time>2020-09-20T10:46:33Z</time>
      </trkpt>
      <trkpt lat="49.22019" lon="4.10121">
        <ele>127</ele>
        <time>2020-09-20T10:46:34Z</time>
      </trkpt>
      <trkpt lat="49.22023" lon="4.10113">
        <ele>127</ele>
        <time>2020-09-20T10:46:35Z</time>
      </trkpt>
      <trkpt lat="49.22026" lon="4.10106">
        <ele>127</ele>
        <time>2020-09-20T10:46:36Z</time>
      </trkpt>
      <trkpt lat="49.2203" lon="4.10098">
        <ele>127</ele>
        <time>2020-09-20T10:46:37Z</time>
      </trkpt>
      <trkpt lat="49.22033" lon="4.1009">
        <ele>127</ele>
        <time>2020-09-20T10:46:38Z</time>
      </trkpt>
      <trkpt lat="49.22036" lon="4.10083">
        <ele>126</ele>
        <time>2020-09-20T10:46:39Z</time>
      </trkpt>
      <trkpt lat="49.2204" lon="4.10076">
        <ele>127</ele>
        <time>2020-09-20T10:46:40Z</time>
      </trkpt>
      <trkpt lat="49.22043" lon="4.10068">
        <ele>127</ele>
        <time>2020-09-20T10:46:41Z</time>
      </trkpt>
      <trkpt lat="49.22047" lon="4.10061">
        <ele>126</ele>
        <time>2020-09-20T10:46:42Z</time>
      </trkpt>
      <trkpt lat="49.2205" lon="4.10054">
        <ele>127</ele>
        <time>2020-09-20T10:46:43Z</time>
      </trkpt>
      <trkpt lat="49.22054" lon="4.10047">
        <ele>127</ele>
        <time>2020-09-20T10:46:44Z</time>
      </trkpt>
      <trkpt lat="49.22057" lon="4.1004">
        <ele>127</ele>
        <time>2020-09-20T10:46:45Z</time>
      </trkpt>
      <trkpt lat="49.2206" lon="4.10032">
        <ele>127</ele>
        <time>2020-09-20T10:46:46Z</time>
      </trkpt>
      <trkpt lat="49.22064" lon="4.10025">
        <ele>127</ele>
        <time>2020-09-20T10:46:47Z</time>
      </trkpt>
      <trkpt lat="49.22067" lon="4.10017">
        <ele>127</ele>
        <time>2020-09-20T10:46:48Z</time>
      </trkpt>
      <trkpt lat="49.2207" lon="4.10009">
        <ele>127</ele>
        <time>2020-09-20T10:46:49Z</time>
      </trkpt>
      <trkpt lat="49.22073" lon="4.10001">
        <ele>127</ele>
        <time>2020-09-20T10:46:50Z</time>
      </trkpt>
      <trkpt lat="49.22077" lon="4.09994">
        <ele>127</ele>
        <time>2020-09-20T10:46:51Z</time>
      </trkpt>
      <trkpt lat="49.2208" lon="4.09987">
        <ele>127</ele>
        <time>2020-09-20T10:46:52Z</time>
      </trkpt>
      <trkpt lat="49.22084" lon="4.0998">
        <ele>127</ele>
        <time>2020-09-20T10:46:53Z</time>
      </trkpt>
      <trkpt lat="49.22087" lon="4.09973">
        <ele>127</ele>
        <time>2020-09-20T10:46:54Z</time>
      </trkpt>
      <trkpt lat="49.22091" lon="4.09966">
        <ele>127</ele>
        <time>2020-09-20T10:46:55Z</time>
      </trkpt>
      <trkpt lat="49.22094" lon="4.09958">
        <ele>127</ele>
        <time>2020-09-20T10:46:56Z</time>
      </trkpt>
      <trkpt lat="49.22097" lon="4.0995">
        <ele>126</ele>
        <time>2020-09-20T10:46:57Z</time>
      </trkpt>
      <trkpt lat="49.221" lon="4.09941">
        <ele>126</ele>
        <time>2020-09-20T10:46:58Z</time>
      </trkpt>
      <trkpt lat="49.22103" lon="4.09933">
        <ele>126</ele>
        <time>2020-09-20T10:46:59Z</time>
      </trkpt>
      <trkpt lat="49.22106" lon="4.09925">
        <ele>126</ele>
        <time>2020-09-20T10:47:00Z</time>
      </trkpt>
      <trkpt lat="49.2211" lon="4.09917">
        <ele>126</ele>
        <time>2020-09-20T10:47:01Z</time>
      </trkpt>
      <trkpt lat="49.22113" lon="4.0991">
        <ele>127</ele>
        <time>2020-09-20T10:47:02Z</time>
      </trkpt>
      <trkpt lat="49.22117" lon="4.09902">
        <ele>127</ele>
        <time>2020-09-20T10:47:03Z</time>
      </trkpt>
      <trkpt lat="49.2212" lon="4.09894">
        <ele>127</ele>
        <time>2020-09-20T10:47:04Z</time>
      </trkpt>
      <trkpt lat="49.22123" lon="4.09886">
        <ele>127</ele>
        <time>2020-09-20T10:47:05Z</time>
      </trkpt>
      <trkpt lat="49.22127" lon="4.09878">
        <ele>127</ele>
        <time>2020-09-20T10:47:06Z</time>
      </trkpt>
      <trkpt lat="49.2213" lon="4.09871">
        <ele>127</ele>
        <time>2020-09-20T10:47:07Z</time>
      </trkpt>
      <trkpt lat="49.22133" lon="4.09863">
        <ele>127</ele>
        <time>2020-09-20T10:47:08Z</time>
      </trkpt>
      <trkpt lat="49.22136" lon="4.09855">
        <ele>127</ele>
        <time>2020-09-20T10:47:09Z</time>
      </trkpt>
      <trkpt lat="49.2214" lon="4.09847">
        <ele>127</ele>
        <time>2020-09-20T10:47:10Z</time>
      </trkpt>
      <trkpt lat="49.22143" lon="4.09839">
        <ele>127</ele>
        <time>2020-09-20T10:47:11Z</time>
      </trkpt>
      <trkpt lat="49.22146" lon="4.09832">
        <ele>127</ele>
        <time>2020-09-20T10:47:12Z</time>
      </trkpt>
      <trkpt lat="49.2215" lon="4.09824">
        <ele>127</ele>
        <time>2020-09-20T10:47:13Z</time>
      </trkpt>
      <trkpt lat="49.22153" lon="4.09817">
        <ele>127</ele>
        <time>2020-09-20T10:47:14Z</time>
      </trkpt>
      <trkpt lat="49.22157" lon="4.09809">
        <ele>127</ele>
        <time>2020-09-20T10:47:15Z</time>
      </trkpt>
      <trkpt lat="49.2216" lon="4.09801">
        <ele>127</ele>
        <time>2020-09-20T10:47:16Z</time>
      </trkpt>
      <trkpt lat="49.22164" lon="4.09794">
        <ele>127</ele>
        <time>2020-09-20T10:47:17Z</time>
      </trkpt>
      <trkpt lat="49.22167" lon="4.09786">
        <ele>127</ele>
        <time>2020-09-20T10:47:18Z</time>
      </trkpt>
      <trkpt lat="49.22171" lon="4.09778">
        <ele>127</ele>
        <time>2020-09-20T10:47:19Z</time>
      </trkpt>
      <trkpt lat="49.22174" lon="4.0977">
        <ele>127</ele>
        <time>2020-09-20T10:47:20Z</time>
      </trkpt>
      <trkpt lat="49.22177" lon="4.09763">
        <ele>127</ele>
        <time>2020-09-20T10:47:21Z</time>
      </trkpt>
      <trkpt lat="49.22181" lon="4.09755">
        <ele>127</ele>
        <time>2020-09-20T10:47:22Z</time>
      </trkpt>
      <trkpt lat="49.22184" lon="4.09747">
        <ele>127</ele>
        <time>2020-09-20T10:47:23Z</time>
      </trkpt>
      <trkpt lat="49.22187" lon="4.09739">
        <ele>127</ele>
        <time>2020-09-20T10:47:24Z</time>
      </trkpt>
      <trkpt lat="49.22191" lon="4.09732">
        <ele>128</ele>
        <time>2020-09-20T10:47:25Z</time>
      </trkpt>
      <trkpt lat="49.22194" lon="4.09724">
        <ele>127</ele>
        <time>2020-09-20T10:47:26Z</time>
      </trkpt>
      <trkpt lat="49.22197" lon="4.09716">
        <ele>127</ele>
        <time>2020-09-20T10:47:27Z</time>
      </trkpt>
      <trkpt lat="49.22199" lon="4.09707">
        <ele>127</ele>
        <time>2020-09-20T10:47:28Z</time>
      </trkpt>
      <trkpt lat="49.22202" lon="4.09699">
        <ele>127</ele>
        <time>2020-09-20T10:47:29Z</time>
      </trkpt>
      <trkpt lat="49.22205" lon="4.09691">
        <ele>127</ele>
        <time>2020-09-20T10:47:30Z</time>
      </trkpt>
      <trkpt lat="49.22208" lon="4.09684">
        <ele>127</ele>
        <time>2020-09-20T10:47:31Z</time>
      </trkpt>
      <trkpt lat="49.2221" lon="4.09676">
        <ele>127</ele>
        <time>2020-09-20T10:47:32Z</time>
      </trkpt>
      <trkpt lat="49.22213" lon="4.09669">
        <ele>127</ele>
        <time>2020-09-20T10:47:33Z</time>
      </trkpt>
      <trkpt lat="49.22216" lon="4.09662">
        <ele>127</ele>
        <time>2020-09-20T10:47:34Z</time>
      </trkpt>
      <trkpt lat="49.22218" lon="4.09655">
        <ele>127</ele>
        <time>2020-09-20T10:47:35Z</time>
      </trkpt>
      <trkpt lat="49.2222" lon="4.09647">
        <ele>127</ele>
        <time>2020-09-20T10:47:36Z</time>
      </trkpt>
      <trkpt lat="49.22222" lon="4.0964">
        <ele>127</ele>
        <time>2020-09-20T10:47:37Z</time>
      </trkpt>
      <trkpt lat="49.22225" lon="4.09632">
        <ele>127</ele>
        <time>2020-09-20T10:47:38Z</time>
      </trkpt>
      <trkpt lat="49.22227" lon="4.09624">
        <ele>127</ele>
        <time>2020-09-20T10:47:39Z</time>
      </trkpt>
      <trkpt lat="49.2223" lon="4.09617">
        <ele>127</ele>
        <time>2020-09-20T10:47:40Z</time>
      </trkpt>
      <trkpt lat="49.22233" lon="4.0961">
        <ele>126</ele>
        <time>2020-09-20T10:47:41Z</time>
      </trkpt>
      <trkpt lat="49.22236" lon="4.09602">
        <ele>126</ele>
        <time>2020-09-20T10:47:42Z</time>
      </trkpt>
      <trkpt lat="49.22239" lon="4.09593">
        <ele>126</ele>
        <time>2020-09-20T10:47:43Z</time>
      </trkpt>
      <trkpt lat="49.22241" lon="4.09584">
        <ele>126</ele>
        <time>2020-09-20T10:47:44Z</time>
      </trkpt>
      <trkpt lat="49.22243" lon="4.09576">
        <ele>127</ele>
        <time>2020-09-20T10:47:45Z</time>
      </trkpt>
      <trkpt lat="49.22245" lon="4.09568">
        <ele>127</ele>
        <time>2020-09-20T10:47:46Z</time>
      </trkpt>
      <trkpt lat="49.22247" lon="4.0956">
        <ele>127</ele>
        <time>2020-09-20T10:47:47Z</time>
      </trkpt>
      <trkpt lat="49.22249" lon="4.09551">
        <ele>127</ele>
        <time>2020-09-20T10:47:48Z</time>
      </trkpt>
      <trkpt lat="49.22251" lon="4.09543">
        <ele>128</ele>
        <time>2020-09-20T10:47:49Z</time>
      </trkpt>
      <trkpt lat="49.22253" lon="4.09534">
        <ele>128</ele>
        <time>2020-09-20T10:47:50Z</time>
      </trkpt>
      <trkpt lat="49.22255" lon="4.09526">
        <ele>128</ele>
        <time>2020-09-20T10:47:51Z</time>
      </trkpt>
      <trkpt lat="49.22258" lon="4.09517">
        <ele>129</ele>
        <time>2020-09-20T10:47:52Z</time>
      </trkpt>
      <trkpt lat="49.22259" lon="4.09509">
        <ele>129</ele>
        <time>2020-09-20T10:47:53Z</time>
      </trkpt>
      <trkpt lat="49.22262" lon="4.095">
        <ele>129</ele>
        <time>2020-09-20T10:47:54Z</time>
      </trkpt>
      <trkpt lat="49.22263" lon="4.09491">
        <ele>129</ele>
        <time>2020-09-20T10:47:55Z</time>
      </trkpt>
      <trkpt lat="49.22264" lon="4.09481">
        <ele>129</ele>
        <time>2020-09-20T10:47:56Z</time>
      </trkpt>
      <trkpt lat="49.22266" lon="4.09473">
        <ele>129</ele>
        <time>2020-09-20T10:47:57Z</time>
      </trkpt>
      <trkpt lat="49.22267" lon="4.09464">
        <ele>129</ele>
        <time>2020-09-20T10:47:58Z</time>
      </trkpt>
      <trkpt lat="49.22269" lon="4.09456">
        <ele>129</ele>
        <time>2020-09-20T10:47:59Z</time>
      </trkpt>
      <trkpt lat="49.22271" lon="4.09447">
        <ele>129</ele>
        <time>2020-09-20T10:48:00Z</time>
      </trkpt>
      <trkpt lat="49.22273" lon="4.09438">
        <ele>129</ele>
        <time>2020-09-20T10:48:01Z</time>
      </trkpt>
      <trkpt lat="49.22274" lon="4.0943">
        <ele>129</ele>
        <time>2020-09-20T10:48:02Z</time>
      </trkpt>
      <trkpt lat="49.22276" lon="4.09421">
        <ele>129</ele>
        <time>2020-09-20T10:48:03Z</time>
      </trkpt>
      <trkpt lat="49.22278" lon="4.09413">
        <ele>129</ele>
        <time>2020-09-20T10:48:04Z</time>
      </trkpt>
      <trkpt lat="49.22279" lon="4.09403">
        <ele>129</ele>
        <time>2020-09-20T10:48:05Z</time>
      </trkpt>
      <trkpt lat="49.22281" lon="4.09394">
        <ele>129</ele>
        <time>2020-09-20T10:48:06Z</time>
      </trkpt>
      <trkpt lat="49.22282" lon="4.09385">
        <ele>129</ele>
        <time>2020-09-20T10:48:07Z</time>
      </trkpt>
      <trkpt lat="49.22284" lon="4.09376">
        <ele>128</ele>
        <time>2020-09-20T10:48:08Z</time>
      </trkpt>
      <trkpt lat="49.22286" lon="4.09368">
        <ele>128</ele>
        <time>2020-09-20T10:48:09Z</time>
      </trkpt>
      <trkpt lat="49.22288" lon="4.09358">
        <ele>128</ele>
        <time>2020-09-20T10:48:10Z</time>
      </trkpt>
      <trkpt lat="49.2229" lon="4.09349">
        <ele>128</ele>
        <time>2020-09-20T10:48:11Z</time>
      </trkpt>
      <trkpt lat="49.22291" lon="4.0934">
        <ele>128</ele>
        <time>2020-09-20T10:48:12Z</time>
      </trkpt>
      <trkpt lat="49.22293" lon="4.09331">
        <ele>128</ele>
        <time>2020-09-20T10:48:13Z</time>
      </trkpt>
      <trkpt lat="49.22295" lon="4.09322">
        <ele>128</ele>
        <time>2020-09-20T10:48:14Z</time>
      </trkpt>
      <trkpt lat="49.22297" lon="4.09313">
        <ele>127</ele>
        <time>2020-09-20T10:48:15Z</time>
      </trkpt>
      <trkpt lat="49.22298" lon="4.09304">
        <ele>127</ele>
        <time>2020-09-20T10:48:16Z</time>
      </trkpt>
      <trkpt lat="49.223" lon="4.09294">
        <ele>127</ele>
        <time>2020-09-20T10:48:17Z</time>
      </trkpt>
      <trkpt lat="49.22302" lon="4.09286">
        <ele>128</ele>
        <time>2020-09-20T10:48:18Z</time>
      </trkpt>
      <trkpt lat="49.22304" lon="4.09277">
        <ele>128</ele>
        <time>2020-09-20T10:48:19Z</time>
      </trkpt>
      <trkpt lat="49.22306" lon="4.09267">
        <ele>128</ele>
        <time>2020-09-20T10:48:20Z</time>
      </trkpt>
      <trkpt lat="49.22308" lon="4.09258">
        <ele>128</ele>
        <time>2020-09-20T10:48:21Z</time>
      </trkpt>
      <trkpt lat="49.2231" lon="4.09249">
        <ele>128</ele>
        <time>2020-09-20T10:48:22Z</time>
      </trkpt>
      <trkpt lat="49.22311" lon="4.09239">
        <ele>128</ele>
        <time>2020-09-20T10:48:23Z</time>
      </trkpt>
      <trkpt lat="49.22314" lon="4.0923">
        <ele>127</ele>
        <time>2020-09-20T10:48:24Z</time>
      </trkpt>
      <trkpt lat="49.22316" lon="4.0922">
        <ele>128</ele>
        <time>2020-09-20T10:48:25Z</time>
      </trkpt>
      <trkpt lat="49.22318" lon="4.09211">
        <ele>127</ele>
        <time>2020-09-20T10:48:26Z</time>
      </trkpt>
      <trkpt lat="49.22319" lon="4.09202">
        <ele>127</ele>
        <time>2020-09-20T10:48:27Z</time>
      </trkpt>
      <trkpt lat="49.22321" lon="4.09193">
        <ele>127</ele>
        <time>2020-09-20T10:48:28Z</time>
      </trkpt>
      <trkpt lat="49.22323" lon="4.09184">
        <ele>127</ele>
        <time>2020-09-20T10:48:29Z</time>
      </trkpt>
      <trkpt lat="49.22325" lon="4.09176">
        <ele>128</ele>
        <time>2020-09-20T10:48:30Z</time>
      </trkpt>
      <trkpt lat="49.22326" lon="4.09167">
        <ele>128</ele>
        <time>2020-09-20T10:48:31Z</time>
      </trkpt>
      <trkpt lat="49.22327" lon="4.09159">
        <ele>128</ele>
        <time>2020-09-20T10:48:32Z</time>
      </trkpt>
      <trkpt lat="49.22329" lon="4.0915">
        <ele>128</ele>
        <time>2020-09-20T10:48:33Z</time>
      </trkpt>
      <trkpt lat="49.2233" lon="4.09141">
        <ele>127</ele>
        <time>2020-09-20T10:48:34Z</time>
      </trkpt>
      <trkpt lat="49.22332" lon="4.09132">
        <ele>127</ele>
        <time>2020-09-20T10:48:35Z</time>
      </trkpt>
      <trkpt lat="49.22334" lon="4.09123">
        <ele>127</ele>
        <time>2020-09-20T10:48:36Z</time>
      </trkpt>
      <trkpt lat="49.22335" lon="4.09115">
        <ele>127</ele>
        <time>2020-09-20T10:48:37Z</time>
      </trkpt>
      <trkpt lat="49.22337" lon="4.09109">
        <ele>128</ele>
        <time>2020-09-20T10:48:38Z</time>
      </trkpt>
      <trkpt lat="49.22339" lon="4.09103">
        <ele>128</ele>
        <time>2020-09-20T10:48:39Z</time>
      </trkpt>
      <trkpt lat="49.2234" lon="4.09096">
        <ele>128</ele>
        <time>2020-09-20T10:48:40Z</time>
      </trkpt>
      <trkpt lat="49.22342" lon="4.09089">
        <ele>128</ele>
        <time>2020-09-20T10:48:41Z</time>
      </trkpt>
      <trkpt lat="49.22343" lon="4.09082">
        <ele>128</ele>
        <time>2020-09-20T10:48:42Z</time>
      </trkpt>
      <trkpt lat="49.22345" lon="4.09075">
        <ele>128</ele>
        <time>2020-09-20T10:48:43Z</time>
      </trkpt>
      <trkpt lat="49.22346" lon="4.09067">
        <ele>129</ele>
        <time>2020-09-20T10:48:44Z</time>
      </trkpt>
      <trkpt lat="49.22348" lon="4.09059">
        <ele>128</ele>
        <time>2020-09-20T10:48:45Z</time>
      </trkpt>
      <trkpt lat="49.22349" lon="4.09052">
        <ele>128</ele>
        <time>2020-09-20T10:48:46Z</time>
      </trkpt>
      <trkpt lat="49.22351" lon="4.09044">
        <ele>128</ele>
        <time>2020-09-20T10:48:47Z</time>
      </trkpt>
      <trkpt lat="49.22352" lon="4.09038">
        <ele>128</ele>
        <time>2020-09-20T10:48:48Z</time>
      </trkpt>
      <trkpt lat="49.22354" lon="4.09032">
        <ele>128</ele>
        <time>2020-09-20T10:48:49Z</time>
      </trkpt>
      <trkpt lat="49.22356" lon="4.09026">
        <ele>129</ele>
        <time>2020-09-20T10:48:50Z</time>
      </trkpt>
      <trkpt lat="49.22357" lon="4.09019">
        <ele>129</ele>
        <time>2020-09-20T10:48:51Z</time>
      </trkpt>
      <trkpt lat="49.22358" lon="4.09011">
        <ele>129</ele>
        <time>2020-09-20T10:48:52Z</time>
      </trkpt>
      <trkpt lat="49.2236" lon="4.09004">
        <ele>129</ele>
        <time>2020-09-20T10:48:53Z</time>
      </trkpt>
      <trkpt lat="49.22362" lon="4.08997">
        <ele>128</ele>
        <time>2020-09-20T10:48:54Z</time>
      </trkpt>
      <trkpt lat="49.22364" lon="4.08989">
        <ele>128</ele>
        <time>2020-09-20T10:48:55Z</time>
      </trkpt>
      <trkpt lat="49.22365" lon="4.08981">
        <ele>127</ele>
        <time>2020-09-20T10:48:56Z</time>
      </trkpt>
      <trkpt lat="49.22366" lon="4.08972">
        <ele>128</ele>
        <time>2020-09-20T10:48:57Z</time>
      </trkpt>
      <trkpt lat="49.22367" lon="4.08963">
        <ele>128</ele>
        <time>2020-09-20T10:48:58Z</time>
      </trkpt>
      <trkpt lat="49.22368" lon="4.08954">
        <ele>128</ele>
        <time>2020-09-20T10:48:59Z</time>
      </trkpt>
      <trkpt lat="49.2237" lon="4.08946">
        <ele>128</ele>
        <time>2020-09-20T10:49:00Z</time>
      </trkpt>
      <trkpt lat="49.22372" lon="4.08937">
        <ele>128</ele>
        <time>2020-09-20T10:49:01Z</time>
      </trkpt>
      <trkpt lat="49.22374" lon="4.08928">
        <ele>129</ele>
        <time>2020-09-20T10:49:02Z</time>
      </trkpt>
      <trkpt lat="49.22376" lon="4.0892">
        <ele>128</ele>
        <time>2020-09-20T10:49:03Z</time>
      </trkpt>
      <trkpt lat="49.22378" lon="4.0891">
        <ele>128</ele>
        <time>2020-09-20T10:49:04Z</time>
      </trkpt>
      <trkpt lat="49.2238" lon="4.08901">
        <ele>129</ele>
        <time>2020-09-20T10:49:05Z</time>
      </trkpt>
      <trkpt lat="49.22382" lon="4.08891">
        <ele>129</ele>
        <time>2020-09-20T10:49:06Z</time>
      </trkpt>
      <trkpt lat="49.22384" lon="4.08882">
        <ele>129</ele>
        <time>2020-09-20T10:49:07Z</time>
      </trkpt>
      <trkpt lat="49.22386" lon="4.08872">
        <ele>129</ele>
        <time>2020-09-20T10:49:08Z</time>
      </trkpt>
      <trkpt lat="49.22388" lon="4.08863">
        <ele>129</ele>
        <time>2020-09-20T10:49:09Z</time>
      </trkpt>
      <trkpt lat="49.2239" lon="4.08853">
        <ele>130</ele>
        <time>2020-09-20T10:49:10Z</time>
      </trkpt>
      <trkpt lat="49.22392" lon="4.08844">
        <ele>129</ele>
        <time>2020-09-20T10:49:11Z</time>
      </trkpt>
      <trkpt lat="49.22394" lon="4.08834">
        <ele>129</ele>
        <time>2020-09-20T10:49:12Z</time>
      </trkpt>
      <trkpt lat="49.22396" lon="4.08825">
        <ele>129</ele>
        <time>2020-09-20T10:49:13Z</time>
      </trkpt>
      <trkpt lat="49.22398" lon="4.08816">
        <ele>128</ele>
        <time>2020-09-20T10:49:14Z</time>
      </trkpt>
      <trkpt lat="49.224" lon="4.08807">
        <ele>128</ele>
        <time>2020-09-20T10:49:15Z</time>
      </trkpt>
      <trkpt lat="49.22402" lon="4.08798">
        <ele>128</ele>
        <time>2020-09-20T10:49:16Z</time>
      </trkpt>
      <trkpt lat="49.22404" lon="4.08789">
        <ele>128</ele>
        <time>2020-09-20T10:49:17Z</time>
      </trkpt>
      <trkpt lat="49.22406" lon="4.08779">
        <ele>128</ele>
        <time>2020-09-20T10:49:18Z</time>
      </trkpt>
      <trkpt lat="49.22408" lon="4.08771">
        <ele>128</ele>
        <time>2020-09-20T10:49:19Z</time>
      </trkpt>
      <trkpt lat="49.22411" lon="4.08761">
        <ele>128</ele>
        <time>2020-09-20T10:49:20Z</time>
      </trkpt>
      <trkpt lat="49.22413" lon="4.08752">
        <ele>127</ele>
        <time>2020-09-20T10:49:21Z</time>
      </trkpt>
      <trkpt lat="49.22415" lon="4.08743">
        <ele>127</ele>
        <time>2020-09-20T10:49:22Z</time>
      </trkpt>
      <trkpt lat="49.22417" lon="4.08734">
        <ele>127</ele>
        <time>2020-09-20T10:49:23Z</time>
      </trkpt>
      <trkpt lat="49.22419" lon="4.08725">
        <ele>127</ele>
        <time>2020-09-20T10:49:24Z</time>
      </trkpt>
      <trkpt lat="49.22421" lon="4.08716">
        <ele>127</ele>
        <time>2020-09-20T10:49:25Z</time>
      </trkpt>
      <trkpt lat="49.22423" lon="4.08707">
        <ele>127</ele>
        <time>2020-09-20T10:49:26Z</time>
      </trkpt>
      <trkpt lat="49.22424" lon="4.08698">
        <ele>127</ele>
        <time>2020-09-20T10:49:27Z</time>
      </trkpt>
      <trkpt lat="49.22426" lon="4.08689">
        <ele>126</ele>
        <time>2020-09-20T10:49:28Z</time>
      </trkpt>
      <trkpt lat="49.22428" lon="4.0868">
        <ele>126</ele>
        <time>2020-09-20T10:49:29Z</time>
      </trkpt>
      <trkpt lat="49.22429" lon="4.08671">
        <ele>126</ele>
        <time>2020-09-20T10:49:30Z</time>
      </trkpt>
      <trkpt lat="49.22431" lon="4.08663">
        <ele>126</ele>
        <time>2020-09-20T10:49:31Z</time>
      </trkpt>
      <trkpt lat="49.22433" lon="4.08654">
        <ele>126</ele>
        <time>2020-09-20T10:49:32Z</time>
      </trkpt>
      <trkpt lat="49.22434" lon="4.08645">
        <ele>126</ele>
        <time>2020-09-20T10:49:33Z</time>
      </trkpt>
      <trkpt lat="49.22436" lon="4.08636">
        <ele>126</ele>
        <time>2020-09-20T10:49:34Z</time>
      </trkpt>
      <trkpt lat="49.22437" lon="4.08626">
        <ele>126</ele>
        <time>2020-09-20T10:49:35Z</time>
      </trkpt>
      <trkpt lat="49.22439" lon="4.08617">
        <ele>126</ele>
        <time>2020-09-20T10:49:36Z</time>
      </trkpt>
      <trkpt lat="49.2244" lon="4.08608">
        <ele>126</ele>
        <time>2020-09-20T10:49:37Z</time>
      </trkpt>
      <trkpt lat="49.22443" lon="4.08599">
        <ele>126</ele>
        <time>2020-09-20T10:49:38Z</time>
      </trkpt>
      <trkpt lat="49.22445" lon="4.0859">
        <ele>126</ele>
        <time>2020-09-20T10:49:39Z</time>
      </trkpt>
      <trkpt lat="49.22446" lon="4.08581">
        <ele>126</ele>
        <time>2020-09-20T10:49:40Z</time>
      </trkpt>
      <trkpt lat="49.22448" lon="4.08572">
        <ele>126</ele>
        <time>2020-09-20T10:49:41Z</time>
      </trkpt>
      <trkpt lat="49.22449" lon="4.08564">
        <ele>126</ele>
        <time>2020-09-20T10:49:42Z</time>
      </trkpt>
      <trkpt lat="49.22451" lon="4.08555">
        <ele>126</ele>
        <time>2020-09-20T10:49:43Z</time>
      </trkpt>
      <trkpt lat="49.22453" lon="4.08546">
        <ele>126</ele>
        <time>2020-09-20T10:49:44Z</time>
      </trkpt>
      <trkpt lat="49.22454" lon="4.08537">
        <ele>126</ele>
        <time>2020-09-20T10:49:45Z</time>
      </trkpt>
      <trkpt lat="49.22456" lon="4.08529">
        <ele>126</ele>
        <time>2020-09-20T10:49:46Z</time>
      </trkpt>
      <trkpt lat="49.22458" lon="4.0852">
        <ele>126</ele>
        <time>2020-09-20T10:49:47Z</time>
      </trkpt>
      <trkpt lat="49.22459" lon="4.08512">
        <ele>126</ele>
        <time>2020-09-20T10:49:48Z</time>
      </trkpt>
      <trkpt lat="49.22461" lon="4.08502">
        <ele>126</ele>
        <time>2020-09-20T10:49:49Z</time>
      </trkpt>
      <trkpt lat="49.22463" lon="4.08493">
        <ele>126</ele>
        <time>2020-09-20T10:49:50Z</time>
      </trkpt>
      <trkpt lat="49.22465" lon="4.08484">
        <ele>126</ele>
        <time>2020-09-20T10:49:51Z</time>
      </trkpt>
      <trkpt lat="49.22468" lon="4.08475">
        <ele>126</ele>
        <time>2020-09-20T10:49:52Z</time>
      </trkpt>
      <trkpt lat="49.2247" lon="4.08466">
        <ele>126</ele>
        <time>2020-09-20T10:49:53Z</time>
      </trkpt>
      <trkpt lat="49.22472" lon="4.08457">
        <ele>127</ele>
        <time>2020-09-20T10:49:54Z</time>
      </trkpt>
      <trkpt lat="49.22474" lon="4.08448">
        <ele>127</ele>
        <time>2020-09-20T10:49:55Z</time>
      </trkpt>
      <trkpt lat="49.22475" lon="4.0844">
        <ele>127</ele>
        <time>2020-09-20T10:49:56Z</time>
      </trkpt>
      <trkpt lat="49.22477" lon="4.08431">
        <ele>127</ele>
        <time>2020-09-20T10:49:57Z</time>
      </trkpt>
      <trkpt lat="49.22479" lon="4.08422">
        <ele>127</ele>
        <time>2020-09-20T10:49:58Z</time>
      </trkpt>
      <trkpt lat="49.22481" lon="4.08414">
        <ele>128</ele>
        <time>2020-09-20T10:49:59Z</time>
      </trkpt>
      <trkpt lat="49.22483" lon="4.08405">
        <ele>127</ele>
        <time>2020-09-20T10:50:00Z</time>
      </trkpt>
      <trkpt lat="49.22485" lon="4.08395">
        <ele>127</ele>
        <time>2020-09-20T10:50:01Z</time>
      </trkpt>
      <trkpt lat="49.22487" lon="4.08387">
        <ele>127</ele>
        <time>2020-09-20T10:50:02Z</time>
      </trkpt>
      <trkpt lat="49.22489" lon="4.08378">
        <ele>127</ele>
        <time>2020-09-20T10:50:03Z</time>
      </trkpt>
      <trkpt lat="49.2249" lon="4.0837">
        <ele>128</ele>
        <time>2020-09-20T10:50:04Z</time>
      </trkpt>
      <trkpt lat="49.22492" lon="4.08362">
        <ele>127</ele>
        <time>2020-09-20T10:50:05Z</time>
      </trkpt>
      <trkpt lat="49.22495" lon="4.08353">
        <ele>127</ele>
        <time>2020-09-20T10:50:06Z</time>
      </trkpt>
      <trkpt lat="49.22496" lon="4.08345">
        <ele>128</ele>
        <time>2020-09-20T10:50:07Z</time>
      </trkpt>
      <trkpt lat="49.22498" lon="4.08336">
        <ele>128</ele>
        <time>2020-09-20T10:50:08Z</time>
      </trkpt>
      <trkpt lat="49.22499" lon="4.08328">
        <ele>128</ele>
        <time>2020-09-20T10:50:09Z</time>
      </trkpt>
      <trkpt lat="49.22501" lon="4.08319">
        <ele>128</ele>
        <time>2020-09-20T10:50:10Z</time>
      </trkpt>
      <trkpt lat="49.22502" lon="4.08311">
        <ele>128</ele>
        <time>2020-09-20T10:50:11Z</time>
      </trkpt>
      <trkpt lat="49.22504" lon="4.08303">
        <ele>128</ele>
        <time>2020-09-20T10:50:12Z</time>
      </trkpt>
      <trkpt lat="49.22505" lon="4.08295">
        <ele>129</ele>
        <time>2020-09-20T10:50:13Z</time>
      </trkpt>
      <trkpt lat="49.22507" lon="4.08286">
        <ele>129</ele>
        <time>2020-09-20T10:50:14Z</time>
      </trkpt>
      <trkpt lat="49.22509" lon="4.08278">
        <ele>129</ele>
        <time>2020-09-20T10:50:15Z</time>
      </trkpt>
      <trkpt lat="49.22511" lon="4.08269">
        <ele>129</ele>
        <time>2020-09-20T10:50:16Z</time>
      </trkpt>
      <trkpt lat="49.22513" lon="4.08261">
        <ele>129</ele>
        <time>2020-09-20T10:50:17Z</time>
      </trkpt>
      <trkpt lat="49.22515" lon="4.08252">
        <ele>129</ele>
        <time>2020-09-20T10:50:18Z</time>
      </trkpt>
      <trkpt lat="49.22517" lon="4.08244">
        <ele>129</ele>
        <time>2020-09-20T10:50:19Z</time>
      </trkpt>
      <trkpt lat="49.22519" lon="4.08235">
        <ele>129</ele>
        <time>2020-09-20T10:50:20Z</time>
      </trkpt>
      <trkpt lat="49.2252" lon="4.08227">
        <ele>129</ele>
        <time>2020-09-20T10:50:21Z</time>
      </trkpt>
      <trkpt lat="49.22522" lon="4.08219">
        <ele>129</ele>
        <time>2020-09-20T10:50:22Z</time>
      </trkpt>
      <trkpt lat="49.22524" lon="4.08211">
        <ele>129</ele>
        <time>2020-09-20T10:50:23Z</time>
      </trkpt>
      <trkpt lat="49.22526" lon="4.08202">
        <ele>129</ele>
        <time>2020-09-20T10:50:24Z</time>
      </trkpt>
      <trkpt lat="49.22527" lon="4.08194">
        <ele>129</ele>
        <time>2020-09-20T10:50:25Z</time>
      </trkpt>
      <trkpt lat="49.22529" lon="4.08186">
        <ele>129</ele>
        <time>2020-09-20T10:50:26Z</time>
      </trkpt>
      <trkpt lat="49.2253" lon="4.08177">
        <ele>129</ele>
        <time>2020-09-20T10:50:27Z</time>
      </trkpt>
      <trkpt lat="49.22532" lon="4.08169">
        <ele>128</ele>
        <time>2020-09-20T10:50:28Z</time>
      </trkpt>
      <trkpt lat="49.22534" lon="4.08161">
        <ele>128</ele>
        <time>2020-09-20T10:50:29Z</time>
      </trkpt>
      <trkpt lat="49.22535" lon="4.08152">
        <ele>128</ele>
        <time>2020-09-20T10:50:30Z</time>
      </trkpt>
      <trkpt lat="49.22537" lon="4.08144">
        <ele>127</ele>
        <time>2020-09-20T10:50:31Z</time>
      </trkpt>
      <trkpt lat="49.22538" lon="4.08135">
        <ele>127</ele>
        <time>2020-09-20T10:50:32Z</time>
      </trkpt>
      <trkpt lat="49.2254" lon="4.08127">
        <ele>127</ele>
        <time>2020-09-20T10:50:33Z</time>
      </trkpt>
      <trkpt lat="49.22542" lon="4.08118">
        <ele>126</ele>
        <time>2020-09-20T10:50:34Z</time>
      </trkpt>
      <trkpt lat="49.22543" lon="4.08109">
        <ele>127</ele>
        <time>2020-09-20T10:50:35Z</time>
      </trkpt>
      <trkpt lat="49.22545" lon="4.08101">
        <ele>127</ele>
        <time>2020-09-20T10:50:36Z</time>
      </trkpt>
      <trkpt lat="49.22547" lon="4.08092">
        <ele>127</ele>
        <time>2020-09-20T10:50:37Z</time>
      </trkpt>
      <trkpt lat="49.22549" lon="4.08084">
        <ele>127</ele>
        <time>2020-09-20T10:50:38Z</time>
      </trkpt>
      <trkpt lat="49.22551" lon="4.08075">
        <ele>127</ele>
        <time>2020-09-20T10:50:39Z</time>
      </trkpt>
      <trkpt lat="49.22552" lon="4.08066">
        <ele>126</ele>
        <time>2020-09-20T10:50:40Z</time>
      </trkpt>
      <trkpt lat="49.22553" lon="4.08057">
        <ele>126</ele>
        <time>2020-09-20T10:50:41Z</time>
      </trkpt>
      <trkpt lat="49.22554" lon="4.08048">
        <ele>125</ele>
        <time>2020-09-20T10:50:42Z</time>
      </trkpt>
      <trkpt lat="49.22556" lon="4.0804">
        <ele>125</ele>
        <time>2020-09-20T10:50:43Z</time>
      </trkpt>
      <trkpt lat="49.22557" lon="4.08031">
        <ele>125</ele>
        <time>2020-09-20T10:50:44Z</time>
      </trkpt>
      <trkpt lat="49.22559" lon="4.08022">
        <ele>125</ele>
        <time>2020-09-20T10:50:45Z</time>
      </trkpt>
      <trkpt lat="49.22561" lon="4.08013">
        <ele>125</ele>
        <time>2020-09-20T10:50:46Z</time>
      </trkpt>
      <trkpt lat="49.22562" lon="4.08005">
        <ele>125</ele>
        <time>2020-09-20T10:50:47Z</time>
      </trkpt>
      <trkpt lat="49.22564" lon="4.07997">
        <ele>125</ele>
        <time>2020-09-20T10:50:48Z</time>
      </trkpt>
      <trkpt lat="49.22565" lon="4.07989">
        <ele>125</ele>
        <time>2020-09-20T10:50:49Z</time>
      </trkpt>
      <trkpt lat="49.22567" lon="4.0798">
        <ele>125</ele>
        <time>2020-09-20T10:50:50Z</time>
      </trkpt>
      <trkpt lat="49.22569" lon="4.07972">
        <ele>125</ele>
        <time>2020-09-20T10:50:51Z</time>
      </trkpt>
      <trkpt lat="49.22571" lon="4.07963">
        <ele>125</ele>
        <time>2020-09-20T10:50:52Z</time>
      </trkpt>
      <trkpt lat="49.22572" lon="4.07955">
        <ele>125</ele>
        <time>2020-09-20T10:50:53Z</time>
      </trkpt>
      <trkpt lat="49.22574" lon="4.07946">
        <ele>125</ele>
        <time>2020-09-20T10:50:54Z</time>
      </trkpt>
      <trkpt lat="49.22576" lon="4.07938">
        <ele>125</ele>
        <time>2020-09-20T10:50:55Z</time>
      </trkpt>
      <trkpt lat="49.22578" lon="4.0793">
        <ele>125</ele>
        <time>2020-09-20T10:50:56Z</time>
      </trkpt>
      <trkpt lat="49.2258" lon="4.07921">
        <ele>125</ele>
        <time>2020-09-20T10:50:57Z</time>
      </trkpt>
      <trkpt lat="49.22582" lon="4.07913">
        <ele>125</ele>
        <time>2020-09-20T10:50:58Z</time>
      </trkpt>
      <trkpt lat="49.22584" lon="4.07904">
        <ele>125</ele>
        <time>2020-09-20T10:50:59Z</time>
      </trkpt>
      <trkpt lat="49.22585" lon="4.07896">
        <ele>125</ele>
        <time>2020-09-20T10:51:00Z</time>
      </trkpt>
      <trkpt lat="49.22587" lon="4.07888">
        <ele>125</ele>
        <time>2020-09-20T10:51:01Z</time>
      </trkpt>
      <trkpt lat="49.22589" lon="4.07879">
        <ele>125</ele>
        <time>2020-09-20T10:51:02Z</time>
      </trkpt>
      <trkpt lat="49.22591" lon="4.07871">
        <ele>125</ele>
        <time>2020-09-20T10:51:03Z</time>
      </trkpt>
      <trkpt lat="49.22592" lon="4.07863">
        <ele>126</ele>
        <time>2020-09-20T10:51:04Z</time>
      </trkpt>
      <trkpt lat="49.22593" lon="4.07855">
        <ele>126</ele>
        <time>2020-09-20T10:51:05Z</time>
      </trkpt>
      <trkpt lat="49.22595" lon="4.07847">
        <ele>126</ele>
        <time>2020-09-20T10:51:06Z</time>
      </trkpt>
      <trkpt lat="49.22596" lon="4.07838">
        <ele>127</ele>
        <time>2020-09-20T10:51:07Z</time>
      </trkpt>
      <trkpt lat="49.22598" lon="4.07829">
        <ele>126</ele>
        <time>2020-09-20T10:51:08Z</time>
      </trkpt>
      <trkpt lat="49.226" lon="4.0782">
        <ele>126</ele>
        <time>2020-09-20T10:51:09Z</time>
      </trkpt>
      <trkpt lat="49.22603" lon="4.07811">
        <ele>127</ele>
        <time>2020-09-20T10:51:10Z</time>
      </trkpt>
      <trkpt lat="49.22605" lon="4.07802">
        <ele>127</ele>
        <time>2020-09-20T10:51:11Z</time>
      </trkpt>
      <trkpt lat="49.22607" lon="4.07794">
        <ele>127</ele>
        <time>2020-09-20T10:51:12Z</time>
      </trkpt>
      <trkpt lat="49.22609" lon="4.07785">
        <ele>128</ele>
        <time>2020-09-20T10:51:13Z</time>
      </trkpt>
      <trkpt lat="49.22611" lon="4.07776">
        <ele>128</ele>
        <time>2020-09-20T10:51:14Z</time>
      </trkpt>
      <trkpt lat="49.22613" lon="4.07768">
        <ele>128</ele>
        <time>2020-09-20T10:51:15Z</time>
      </trkpt>
      <trkpt lat="49.22614" lon="4.07759">
        <ele>128</ele>
        <time>2020-09-20T10:51:16Z</time>
      </trkpt>
      <trkpt lat="49.22617" lon="4.07751">
        <ele>128</ele>
        <time>2020-09-20T10:51:17Z</time>
      </trkpt>
      <trkpt lat="49.22619" lon="4.07742">
        <ele>129</ele>
        <time>2020-09-20T10:51:18Z</time>
      </trkpt>
      <trkpt lat="49.22621" lon="4.07734">
        <ele>129</ele>
        <time>2020-09-20T10:51:19Z</time>
      </trkpt>
      <trkpt lat="49.22623" lon="4.07725">
        <ele>128</ele>
        <time>2020-09-20T10:51:20Z</time>
      </trkpt>
      <trkpt lat="49.22625" lon="4.07717">
        <ele>128</ele>
        <time>2020-09-20T10:51:21Z</time>
      </trkpt>
      <trkpt lat="49.22627" lon="4.07709">
        <ele>128</ele>
        <time>2020-09-20T10:51:22Z</time>
      </trkpt>
      <trkpt lat="49.22628" lon="4.07701">
        <ele>128</ele>
        <time>2020-09-20T10:51:23Z</time>
      </trkpt>
      <trkpt lat="49.22629" lon="4.07692">
        <ele>128</ele>
        <time>2020-09-20T10:51:24Z</time>
      </trkpt>
      <trkpt lat="49.22631" lon="4.07684">
        <ele>128</ele>
        <time>2020-09-20T10:51:25Z</time>
      </trkpt>
      <trkpt lat="49.22633" lon="4.07676">
        <ele>128</ele>
        <time>2020-09-20T10:51:26Z</time>
      </trkpt>
      <trkpt lat="49.22634" lon="4.07667">
        <ele>128</ele>
        <time>2020-09-20T10:51:27Z</time>
      </trkpt>
      <trkpt lat="49.22636" lon="4.07658">
        <ele>127</ele>
        <time>2020-09-20T10:51:28Z</time>
      </trkpt>
      <trkpt lat="49.22637" lon="4.0765">
        <ele>127</ele>
        <time>2020-09-20T10:51:29Z</time>
      </trkpt>
      <trkpt lat="49.22638" lon="4.07641">
        <ele>127</ele>
        <time>2020-09-20T10:51:30Z</time>
      </trkpt>
      <trkpt lat="49.2264" lon="4.07632">
        <ele>127</ele>
        <time>2020-09-20T10:51:31Z</time>
      </trkpt>
      <trkpt lat="49.22642" lon="4.07623">
        <ele>126</ele>
        <time>2020-09-20T10:51:32Z</time>
      </trkpt>
      <trkpt lat="49.22644" lon="4.07614">
        <ele>126</ele>
        <time>2020-09-20T10:51:33Z</time>
      </trkpt>
      <trkpt lat="49.22646" lon="4.07605">
        <ele>126</ele>
        <time>2020-09-20T10:51:34Z</time>
      </trkpt>
      <trkpt lat="49.22647" lon="4.07595">
        <ele>126</ele>
        <time>2020-09-20T10:51:35Z</time>
      </trkpt>
      <trkpt lat="49.22649" lon="4.07585">
        <ele>126</ele>
        <time>2020-09-20T10:51:36Z</time>
      </trkpt>
      <trkpt lat="49.22651" lon="4.07577">
        <ele>126</ele>
        <time>2020-09-20T10:51:37Z</time>
      </trkpt>
      <trkpt lat="49.22653" lon="4.07568">
        <ele>125</ele>
        <time>2020-09-20T10:51:38Z</time>
      </trkpt>
      <trkpt lat="49.22655" lon="4.0756">
        <ele>126</ele>
        <time>2020-09-20T10:51:39Z</time>
      </trkpt>
      <trkpt lat="49.22657" lon="4.07551">
        <ele>126</ele>
        <time>2020-09-20T10:51:40Z</time>
      </trkpt>
      <trkpt lat="49.2266" lon="4.07542">
        <ele>126</ele>
        <time>2020-09-20T10:51:41Z</time>
      </trkpt>
      <trkpt lat="49.22662" lon="4.07534">
        <ele>127</ele>
        <time>2020-09-20T10:51:42Z</time>
      </trkpt>
      <trkpt lat="49.22664" lon="4.07525">
        <ele>127</ele>
        <time>2020-09-20T10:51:43Z</time>
      </trkpt>
      <trkpt lat="49.22666" lon="4.07515">
        <ele>127</ele>
        <time>2020-09-20T10:51:44Z</time>
      </trkpt>
      <trkpt lat="49.22668" lon="4.07506">
        <ele>127</ele>
        <time>2020-09-20T10:51:45Z</time>
      </trkpt>
      <trkpt lat="49.22669" lon="4.07496">
        <ele>127</ele>
        <time>2020-09-20T10:51:46Z</time>
      </trkpt>
      <trkpt lat="49.22671" lon="4.07487">
        <ele>127</ele>
        <time>2020-09-20T10:51:47Z</time>
      </trkpt>
      <trkpt lat="49.22673" lon="4.07478">
        <ele>128</ele>
        <time>2020-09-20T10:51:48Z</time>
      </trkpt>
      <trkpt lat="49.22674" lon="4.07469">
        <ele>128</ele>
        <time>2020-09-20T10:51:49Z</time>
      </trkpt>
      <trkpt lat="49.22676" lon="4.07459">
        <ele>129</ele>
        <time>2020-09-20T10:51:50Z</time>
      </trkpt>
      <trkpt lat="49.22678" lon="4.07451">
        <ele>129</ele>
        <time>2020-09-20T10:51:51Z</time>
      </trkpt>
      <trkpt lat="49.2268" lon="4.07443">
        <ele>129</ele>
        <time>2020-09-20T10:51:52Z</time>
      </trkpt>
      <trkpt lat="49.22682" lon="4.07434">
        <ele>128</ele>
        <time>2020-09-20T10:51:53Z</time>
      </trkpt>
      <trkpt lat="49.22684" lon="4.07425">
        <ele>128</ele>
        <time>2020-09-20T10:51:54Z</time>
      </trkpt>
      <trkpt lat="49.22686" lon="4.07416">
        <ele>128</ele>
        <time>2020-09-20T10:51:55Z</time>
      </trkpt>
      <trkpt lat="49.22688" lon="4.07407">
        <ele>128</ele>
        <time>2020-09-20T10:51:56Z</time>
      </trkpt>
      <trkpt lat="49.2269" lon="4.07398">
        <ele>128</ele>
        <time>2020-09-20T10:51:57Z</time>
      </trkpt>
      <trkpt lat="49.22692" lon="4.0739">
        <ele>127</ele>
        <time>2020-09-20T10:51:58Z</time>
      </trkpt>
      <trkpt lat="49.22693" lon="4.0738">
        <ele>127</ele>
        <time>2020-09-20T10:51:59Z</time>
      </trkpt>
      <trkpt lat="49.22695" lon="4.07372">
        <ele>126</ele>
        <time>2020-09-20T10:52:00Z</time>
      </trkpt>
      <trkpt lat="49.22697" lon="4.07363">
        <ele>126</ele>
        <time>2020-09-20T10:52:01Z</time>
      </trkpt>
      <trkpt lat="49.22699" lon="4.07354">
        <ele>126</ele>
        <time>2020-09-20T10:52:02Z</time>
      </trkpt>
      <trkpt lat="49.22701" lon="4.07345">
        <ele>127</ele>
        <time>2020-09-20T10:52:03Z</time>
      </trkpt>
      <trkpt lat="49.22702" lon="4.07336">
        <ele>127</ele>
        <time>2020-09-20T10:52:04Z</time>
      </trkpt>
      <trkpt lat="49.22703" lon="4.07327">
        <ele>127</ele>
        <time>2020-09-20T10:52:05Z</time>
      </trkpt>
      <trkpt lat="49.22705" lon="4.07318">
        <ele>127</ele>
        <time>2020-09-20T10:52:06Z</time>
      </trkpt>
      <trkpt lat="49.22707" lon="4.07309">
        <ele>127</ele>
        <time>2020-09-20T10:52:07Z</time>
      </trkpt>
      <trkpt lat="49.22708" lon="4.073">
        <ele>127</ele>
        <time>2020-09-20T10:52:08Z</time>
      </trkpt>
      <trkpt lat="49.2271" lon="4.07291">
        <ele>127</ele>
        <time>2020-09-20T10:52:09Z</time>
      </trkpt>
      <trkpt lat="49.22712" lon="4.07283">
        <ele>127</ele>
        <time>2020-09-20T10:52:10Z</time>
      </trkpt>
      <trkpt lat="49.22714" lon="4.07274">
        <ele>128</ele>
        <time>2020-09-20T10:52:11Z</time>
      </trkpt>
      <trkpt lat="49.22715" lon="4.07265">
        <ele>127</ele>
        <time>2020-09-20T10:52:12Z</time>
      </trkpt>
      <trkpt lat="49.22717" lon="4.07257">
        <ele>127</ele>
        <time>2020-09-20T10:52:13Z</time>
      </trkpt>
      <trkpt lat="49.22719" lon="4.07249">
        <ele>127</ele>
        <time>2020-09-20T10:52:14Z</time>
      </trkpt>
      <trkpt lat="49.22721" lon="4.0724">
        <ele>127</ele>
        <time>2020-09-20T10:52:15Z</time>
      </trkpt>
      <trkpt lat="49.22722" lon="4.07232">
        <ele>127</ele>
        <time>2020-09-20T10:52:16Z</time>
      </trkpt>
      <trkpt lat="49.22724" lon="4.07225">
        <ele>127</ele>
        <time>2020-09-20T10:52:17Z</time>
      </trkpt>
      <trkpt lat="49.22725" lon="4.07217">
        <ele>128</ele>
        <time>2020-09-20T10:52:18Z</time>
      </trkpt>
      <trkpt lat="49.22727" lon="4.07209">
        <ele>128</ele>
        <time>2020-09-20T10:52:19Z</time>
      </trkpt>
      <trkpt lat="49.22728" lon="4.07202">
        <ele>128</ele>
        <time>2020-09-20T10:52:20Z</time>
      </trkpt>
      <trkpt lat="49.22729" lon="4.07195">
        <ele>128</ele>
        <time>2020-09-20T10:52:21Z</time>
      </trkpt>
      <trkpt lat="49.2273" lon="4.07188">
        <ele>128</ele>
        <time>2020-09-20T10:52:22Z</time>
      </trkpt>
      <trkpt lat="49.22731" lon="4.07181">
        <ele>128</ele>
        <time>2020-09-20T10:52:23Z</time>
      </trkpt>
      <trkpt lat="49.22732" lon="4.07174">
        <ele>128</ele>
        <time>2020-09-20T10:52:24Z</time>
      </trkpt>
      <trkpt lat="49.22734" lon="4.07167">
        <ele>128</ele>
        <time>2020-09-20T10:52:25Z</time>
      </trkpt>
      <trkpt lat="49.22735" lon="4.0716">
        <ele>128</ele>
        <time>2020-09-20T10:52:26Z</time>
      </trkpt>
      <trkpt lat="49.22737" lon="4.07155">
        <ele>128</ele>
        <time>2020-09-20T10:52:27Z</time>
      </trkpt>
      <trkpt lat="49.22738" lon="4.07151">
        <ele>128</ele>
        <time>2020-09-20T10:52:28Z</time>
      </trkpt>
      <trkpt lat="49.2274" lon="4.07147">
        <ele>128</ele>
        <time>2020-09-20T10:52:29Z</time>
      </trkpt>
      <trkpt lat="49.22741" lon="4.07141">
        <ele>128</ele>
        <time>2020-09-20T10:52:30Z</time>
      </trkpt>
      <trkpt lat="49.22742" lon="4.07136">
        <ele>128</ele>
        <time>2020-09-20T10:52:31Z</time>
      </trkpt>
      <trkpt lat="49.22743" lon="4.07129">
        <ele>128</ele>
        <time>2020-09-20T10:52:32Z</time>
      </trkpt>
      <trkpt lat="49.22743" lon="4.07122">
        <ele>128</ele>
        <time>2020-09-20T10:52:33Z</time>
      </trkpt>
      <trkpt lat="49.22745" lon="4.07114">
        <ele>128</ele>
        <time>2020-09-20T10:52:34Z</time>
      </trkpt>
      <trkpt lat="49.22747" lon="4.07107">
        <ele>128</ele>
        <time>2020-09-20T10:52:35Z</time>
      </trkpt>
      <trkpt lat="49.22749" lon="4.071">
        <ele>128</ele>
        <time>2020-09-20T10:52:36Z</time>
      </trkpt>
      <trkpt lat="49.22751" lon="4.07093">
        <ele>128</ele>
        <time>2020-09-20T10:52:37Z</time>
      </trkpt>
      <trkpt lat="49.22753" lon="4.07085">
        <ele>128</ele>
        <time>2020-09-20T10:52:38Z</time>
      </trkpt>
      <trkpt lat="49.22756" lon="4.07078">
        <ele>128</ele>
        <time>2020-09-20T10:52:39Z</time>
      </trkpt>
      <trkpt lat="49.2276" lon="4.07071">
        <ele>128</ele>
        <time>2020-09-20T10:52:40Z</time>
      </trkpt>
      <trkpt lat="49.22763" lon="4.07065">
        <ele>128</ele>
        <time>2020-09-20T10:52:41Z</time>
      </trkpt>
      <trkpt lat="49.22765" lon="4.07057">
        <ele>128</ele>
        <time>2020-09-20T10:52:42Z</time>
      </trkpt>
      <trkpt lat="49.22767" lon="4.07048">
        <ele>128</ele>
        <time>2020-09-20T10:52:43Z</time>
      </trkpt>
      <trkpt lat="49.22768" lon="4.0704">
        <ele>128</ele>
        <time>2020-09-20T10:52:44Z</time>
      </trkpt>
      <trkpt lat="49.22769" lon="4.07031">
        <ele>128</ele>
        <time>2020-09-20T10:52:45Z</time>
      </trkpt>
      <trkpt lat="49.2277" lon="4.07022">
        <ele>128</ele>
        <time>2020-09-20T10:52:46Z</time>
      </trkpt>
      <trkpt lat="49.22771" lon="4.07012">
        <ele>128</ele>
        <time>2020-09-20T10:52:47Z</time>
      </trkpt>
      <trkpt lat="49.22773" lon="4.07004">
        <ele>128</ele>
        <time>2020-09-20T10:52:48Z</time>
      </trkpt>
      <trkpt lat="49.22775" lon="4.06993">
        <ele>128</ele>
        <time>2020-09-20T10:52:49Z</time>
      </trkpt>
      <trkpt lat="49.22777" lon="4.06984">
        <ele>128</ele>
        <time>2020-09-20T10:52:50Z</time>
      </trkpt>
      <trkpt lat="49.22778" lon="4.06975">
        <ele>128</ele>
        <time>2020-09-20T10:52:51Z</time>
      </trkpt>
      <trkpt lat="49.2278" lon="4.06965">
        <ele>129</ele>
        <time>2020-09-20T10:52:52Z</time>
      </trkpt>
      <trkpt lat="49.22782" lon="4.06955">
        <ele>129</ele>
        <time>2020-09-20T10:52:53Z</time>
      </trkpt>
      <trkpt lat="49.22784" lon="4.06945">
        <ele>130</ele>
        <time>2020-09-20T10:52:54Z</time>
      </trkpt>
      <trkpt lat="49.22786" lon="4.06935">
        <ele>130</ele>
        <time>2020-09-20T10:52:55Z</time>
      </trkpt>
      <trkpt lat="49.22787" lon="4.06925">
        <ele>130</ele>
        <time>2020-09-20T10:52:56Z</time>
      </trkpt>
      <trkpt lat="49.22789" lon="4.06916">
        <ele>130</ele>
        <time>2020-09-20T10:52:57Z</time>
      </trkpt>
      <trkpt lat="49.22791" lon="4.06907">
        <ele>130</ele>
        <time>2020-09-20T10:52:58Z</time>
      </trkpt>
      <trkpt lat="49.22793" lon="4.06897">
        <ele>131</ele>
        <time>2020-09-20T10:52:59Z</time>
      </trkpt>
      <trkpt lat="49.22795" lon="4.06887">
        <ele>131</ele>
        <time>2020-09-20T10:53:00Z</time>
      </trkpt>
      <trkpt lat="49.22798" lon="4.06877">
        <ele>132</ele>
        <time>2020-09-20T10:53:01Z</time>
      </trkpt>
      <trkpt lat="49.228" lon="4.06868">
        <ele>132</ele>
        <time>2020-09-20T10:53:02Z</time>
      </trkpt>
      <trkpt lat="49.22802" lon="4.06858">
        <ele>132</ele>
        <time>2020-09-20T10:53:03Z</time>
      </trkpt>
      <trkpt lat="49.22804" lon="4.06849">
        <ele>132</ele>
        <time>2020-09-20T10:53:04Z</time>
      </trkpt>
      <trkpt lat="49.22805" lon="4.0684">
        <ele>132</ele>
        <time>2020-09-20T10:53:05Z</time>
      </trkpt>
      <trkpt lat="49.22806" lon="4.0683">
        <ele>132</ele>
        <time>2020-09-20T10:53:06Z</time>
      </trkpt>
      <trkpt lat="49.22808" lon="4.06821">
        <ele>131</ele>
        <time>2020-09-20T10:53:07Z</time>
      </trkpt>
      <trkpt lat="49.2281" lon="4.06812">
        <ele>131</ele>
        <time>2020-09-20T10:53:08Z</time>
      </trkpt>
      <trkpt lat="49.22811" lon="4.06803">
        <ele>131</ele>
        <time>2020-09-20T10:53:09Z</time>
      </trkpt>
      <trkpt lat="49.22813" lon="4.06794">
        <ele>130</ele>
        <time>2020-09-20T10:53:10Z</time>
      </trkpt>
      <trkpt lat="49.22815" lon="4.06785">
        <ele>130</ele>
        <time>2020-09-20T10:53:11Z</time>
      </trkpt>
      <trkpt lat="49.22817" lon="4.06777">
        <ele>130</ele>
        <time>2020-09-20T10:53:12Z</time>
      </trkpt>
      <trkpt lat="49.2282" lon="4.06768">
        <ele>130</ele>
        <time>2020-09-20T10:53:13Z</time>
      </trkpt>
      <trkpt lat="49.22822" lon="4.0676">
        <ele>130</ele>
        <time>2020-09-20T10:53:14Z</time>
      </trkpt>
      <trkpt lat="49.22823" lon="4.06752">
        <ele>130</ele>
        <time>2020-09-20T10:53:15Z</time>
      </trkpt>
      <trkpt lat="49.22824" lon="4.06743">
        <ele>130</ele>
        <time>2020-09-20T10:53:16Z</time>
      </trkpt>
      <trkpt lat="49.22826" lon="4.06734">
        <ele>130</ele>
        <time>2020-09-20T10:53:17Z</time>
      </trkpt>
      <trkpt lat="49.22829" lon="4.06724">
        <ele>130</ele>
        <time>2020-09-20T10:53:18Z</time>
      </trkpt>
      <trkpt lat="49.22832" lon="4.06713">
        <ele>130</ele>
        <time>2020-09-20T10:53:19Z</time>
      </trkpt>
      <trkpt lat="49.22833" lon="4.06702">
        <ele>131</ele>
        <time>2020-09-20T10:53:20Z</time>
      </trkpt>
      <trkpt lat="49.22834" lon="4.06694">
        <ele>132</ele>
        <time>2020-09-20T10:53:21Z</time>
      </trkpt>
      <trkpt lat="49.22835" lon="4.06686">
        <ele>132</ele>
        <time>2020-09-20T10:53:22Z</time>
      </trkpt>
      <trkpt lat="49.22837" lon="4.06678">
        <ele>131</ele>
        <time>2020-09-20T10:53:23Z</time>
      </trkpt>
      <trkpt lat="49.22839" lon="4.0667">
        <ele>131</ele>
        <time>2020-09-20T10:53:24Z</time>
      </trkpt>
      <trkpt lat="49.22841" lon="4.06661">
        <ele>131</ele>
        <time>2020-09-20T10:53:25Z</time>
      </trkpt>
      <trkpt lat="49.22842" lon="4.06652">
        <ele>130</ele>
        <time>2020-09-20T10:53:26Z</time>
      </trkpt>
      <trkpt lat="49.22844" lon="4.06644">
        <ele>130</ele>
        <time>2020-09-20T10:53:27Z</time>
      </trkpt>
      <trkpt lat="49.22846" lon="4.06636">
        <ele>130</ele>
        <time>2020-09-20T10:53:28Z</time>
      </trkpt>
      <trkpt lat="49.22848" lon="4.06627">
        <ele>130</ele>
        <time>2020-09-20T10:53:29Z</time>
      </trkpt>
      <trkpt lat="49.2285" lon="4.06618">
        <ele>130</ele>
        <time>2020-09-20T10:53:30Z</time>
      </trkpt>
      <trkpt lat="49.22851" lon="4.0661">
        <ele>130</ele>
        <time>2020-09-20T10:53:31Z</time>
      </trkpt>
      <trkpt lat="49.22853" lon="4.06602">
        <ele>131</ele>
        <time>2020-09-20T10:53:32Z</time>
      </trkpt>
      <trkpt lat="49.22855" lon="4.06593">
        <ele>131</ele>
        <time>2020-09-20T10:53:33Z</time>
      </trkpt>
      <trkpt lat="49.22856" lon="4.06584">
        <ele>131</ele>
        <time>2020-09-20T10:53:34Z</time>
      </trkpt>
      <trkpt lat="49.22858" lon="4.06576">
        <ele>130</ele>
        <time>2020-09-20T10:53:35Z</time>
      </trkpt>
      <trkpt lat="49.2286" lon="4.06567">
        <ele>131</ele>
        <time>2020-09-20T10:53:36Z</time>
      </trkpt>
      <trkpt lat="49.22862" lon="4.06558">
        <ele>131</ele>
        <time>2020-09-20T10:53:37Z</time>
      </trkpt>
      <trkpt lat="49.22864" lon="4.0655">
        <ele>131</ele>
        <time>2020-09-20T10:53:38Z</time>
      </trkpt>
      <trkpt lat="49.22866" lon="4.06541">
        <ele>131</ele>
        <time>2020-09-20T10:53:39Z</time>
      </trkpt>
      <trkpt lat="49.22867" lon="4.06533">
        <ele>131</ele>
        <time>2020-09-20T10:53:40Z</time>
      </trkpt>
      <trkpt lat="49.22869" lon="4.06524">
        <ele>131</ele>
        <time>2020-09-20T10:53:41Z</time>
      </trkpt>
      <trkpt lat="49.22871" lon="4.06516">
        <ele>130</ele>
        <time>2020-09-20T10:53:42Z</time>
      </trkpt>
      <trkpt lat="49.22873" lon="4.06507">
        <ele>130</ele>
        <time>2020-09-20T10:53:43Z</time>
      </trkpt>
      <trkpt lat="49.22874" lon="4.06498">
        <ele>130</ele>
        <time>2020-09-20T10:53:44Z</time>
      </trkpt>
      <trkpt lat="49.22876" lon="4.06489">
        <ele>130</ele>
        <time>2020-09-20T10:53:45Z</time>
      </trkpt>
      <trkpt lat="49.22878" lon="4.0648">
        <ele>130</ele>
        <time>2020-09-20T10:53:46Z</time>
      </trkpt>
      <trkpt lat="49.22879" lon="4.06471">
        <ele>130</ele>
        <time>2020-09-20T10:53:47Z</time>
      </trkpt>
      <trkpt lat="49.22881" lon="4.06463">
        <ele>130</ele>
        <time>2020-09-20T10:53:48Z</time>
      </trkpt>
      <trkpt lat="49.22883" lon="4.06454">
        <ele>130</ele>
        <time>2020-09-20T10:53:49Z</time>
      </trkpt>
      <trkpt lat="49.22885" lon="4.06445">
        <ele>130</ele>
        <time>2020-09-20T10:53:50Z</time>
      </trkpt>
      <trkpt lat="49.22886" lon="4.06436">
        <ele>129</ele>
        <time>2020-09-20T10:53:51Z</time>
      </trkpt>
      <trkpt lat="49.22888" lon="4.06428">
        <ele>130</ele>
        <time>2020-09-20T10:53:52Z</time>
      </trkpt>
      <trkpt lat="49.2289" lon="4.06419">
        <ele>130</ele>
        <time>2020-09-20T10:53:53Z</time>
      </trkpt>
      <trkpt lat="49.22891" lon="4.0641">
        <ele>130</ele>
        <time>2020-09-20T10:53:54Z</time>
      </trkpt>
      <trkpt lat="49.22893" lon="4.06402">
        <ele>130</ele>
        <time>2020-09-20T10:53:55Z</time>
      </trkpt>
      <trkpt lat="49.22895" lon="4.06393">
        <ele>130</ele>
        <time>2020-09-20T10:53:56Z</time>
      </trkpt>
      <trkpt lat="49.22897" lon="4.06385">
        <ele>130</ele>
        <time>2020-09-20T10:53:57Z</time>
      </trkpt>
      <trkpt lat="49.22899" lon="4.06376">
        <ele>130</ele>
        <time>2020-09-20T10:53:58Z</time>
      </trkpt>
      <trkpt lat="49.22901" lon="4.06367">
        <ele>130</ele>
        <time>2020-09-20T10:53:59Z</time>
      </trkpt>
      <trkpt lat="49.22902" lon="4.06359">
        <ele>130</ele>
        <time>2020-09-20T10:54:00Z</time>
      </trkpt>
      <trkpt lat="49.22904" lon="4.0635">
        <ele>130</ele>
        <time>2020-09-20T10:54:01Z</time>
      </trkpt>
      <trkpt lat="49.22906" lon="4.06341">
        <ele>130</ele>
        <time>2020-09-20T10:54:02Z</time>
      </trkpt>
      <trkpt lat="49.22908" lon="4.06332">
        <ele>130</ele>
        <time>2020-09-20T10:54:03Z</time>
      </trkpt>
      <trkpt lat="49.2291" lon="4.06323">
        <ele>130</ele>
        <time>2020-09-20T10:54:04Z</time>
      </trkpt>
      <trkpt lat="49.22912" lon="4.06314">
        <ele>130</ele>
        <time>2020-09-20T10:54:05Z</time>
      </trkpt>
      <trkpt lat="49.22914" lon="4.06305">
        <ele>130</ele>
        <time>2020-09-20T10:54:06Z</time>
      </trkpt>
      <trkpt lat="49.22915" lon="4.06295">
        <ele>130</ele>
        <time>2020-09-20T10:54:07Z</time>
      </trkpt>
      <trkpt lat="49.22917" lon="4.06286">
        <ele>130</ele>
        <time>2020-09-20T10:54:08Z</time>
      </trkpt>
      <trkpt lat="49.22919" lon="4.06277">
        <ele>130</ele>
        <time>2020-09-20T10:54:09Z</time>
      </trkpt>
      <trkpt lat="49.22921" lon="4.06269">
        <ele>129</ele>
        <time>2020-09-20T10:54:10Z</time>
      </trkpt>
      <trkpt lat="49.22923" lon="4.0626">
        <ele>129</ele>
        <time>2020-09-20T10:54:11Z</time>
      </trkpt>
      <trkpt lat="49.22925" lon="4.06251">
        <ele>129</ele>
        <time>2020-09-20T10:54:12Z</time>
      </trkpt>
      <trkpt lat="49.22926" lon="4.06241">
        <ele>129</ele>
        <time>2020-09-20T10:54:13Z</time>
      </trkpt>
      <trkpt lat="49.22929" lon="4.06232">
        <ele>129</ele>
        <time>2020-09-20T10:54:14Z</time>
      </trkpt>
      <trkpt lat="49.22931" lon="4.06223">
        <ele>129</ele>
        <time>2020-09-20T10:54:15Z</time>
      </trkpt>
      <trkpt lat="49.22932" lon="4.06213">
        <ele>129</ele>
        <time>2020-09-20T10:54:16Z</time>
      </trkpt>
      <trkpt lat="49.22934" lon="4.06204">
        <ele>129</ele>
        <time>2020-09-20T10:54:17Z</time>
      </trkpt>
      <trkpt lat="49.22936" lon="4.06195">
        <ele>129</ele>
        <time>2020-09-20T10:54:18Z</time>
      </trkpt>
      <trkpt lat="49.22938" lon="4.06186">
        <ele>129</ele>
        <time>2020-09-20T10:54:19Z</time>
      </trkpt>
      <trkpt lat="49.2294" lon="4.06177">
        <ele>129</ele>
        <time>2020-09-20T10:54:20Z</time>
      </trkpt>
      <trkpt lat="49.22941" lon="4.06168">
        <ele>129</ele>
        <time>2020-09-20T10:54:21Z</time>
      </trkpt>
      <trkpt lat="49.22943" lon="4.06159">
        <ele>129</ele>
        <time>2020-09-20T10:54:22Z</time>
      </trkpt>
      <trkpt lat="49.22945" lon="4.06149">
        <ele>129</ele>
        <time>2020-09-20T10:54:23Z</time>
      </trkpt>
      <trkpt lat="49.22947" lon="4.0614">
        <ele>129</ele>
        <time>2020-09-20T10:54:24Z</time>
      </trkpt>
      <trkpt lat="49.22949" lon="4.06131">
        <ele>129</ele>
        <time>2020-09-20T10:54:25Z</time>
      </trkpt>
      <trkpt lat="49.22951" lon="4.06121">
        <ele>129</ele>
        <time>2020-09-20T10:54:26Z</time>
      </trkpt>
      <trkpt lat="49.22953" lon="4.06112">
        <ele>129</ele>
        <time>2020-09-20T10:54:27Z</time>
      </trkpt>
      <trkpt lat="49.22955" lon="4.06103">
        <ele>129</ele>
        <time>2020-09-20T10:54:28Z</time>
      </trkpt>
      <trkpt lat="49.22956" lon="4.06094">
        <ele>129</ele>
        <time>2020-09-20T10:54:29Z</time>
      </trkpt>
      <trkpt lat="49.22959" lon="4.06085">
        <ele>129</ele>
        <time>2020-09-20T10:54:30Z</time>
      </trkpt>
      <trkpt lat="49.22961" lon="4.06076">
        <ele>129</ele>
        <time>2020-09-20T10:54:31Z</time>
      </trkpt>
      <trkpt lat="49.22963" lon="4.06067">
        <ele>130</ele>
        <time>2020-09-20T10:54:32Z</time>
      </trkpt>
      <trkpt lat="49.22965" lon="4.06058">
        <ele>130</ele>
        <time>2020-09-20T10:54:33Z</time>
      </trkpt>
      <trkpt lat="49.22967" lon="4.06048">
        <ele>129</ele>
        <time>2020-09-20T10:54:34Z</time>
      </trkpt>
      <trkpt lat="49.22968" lon="4.06038">
        <ele>129</ele>
        <time>2020-09-20T10:54:35Z</time>
      </trkpt>
      <trkpt lat="49.2297" lon="4.06028">
        <ele>129</ele>
        <time>2020-09-20T10:54:36Z</time>
      </trkpt>
      <trkpt lat="49.22972" lon="4.06019">
        <ele>129</ele>
        <time>2020-09-20T10:54:37Z</time>
      </trkpt>
      <trkpt lat="49.22974" lon="4.0601">
        <ele>129</ele>
        <time>2020-09-20T10:54:38Z</time>
      </trkpt>
      <trkpt lat="49.22975" lon="4.06002">
        <ele>129</ele>
        <time>2020-09-20T10:54:39Z</time>
      </trkpt>
      <trkpt lat="49.22977" lon="4.05993">
        <ele>129</ele>
        <time>2020-09-20T10:54:40Z</time>
      </trkpt>
      <trkpt lat="49.22979" lon="4.05984">
        <ele>129</ele>
        <time>2020-09-20T10:54:41Z</time>
      </trkpt>
      <trkpt lat="49.22981" lon="4.05975">
        <ele>129</ele>
        <time>2020-09-20T10:54:42Z</time>
      </trkpt>
      <trkpt lat="49.22983" lon="4.05967">
        <ele>129</ele>
        <time>2020-09-20T10:54:43Z</time>
      </trkpt>
      <trkpt lat="49.22985" lon="4.05958">
        <ele>129</ele>
        <time>2020-09-20T10:54:44Z</time>
      </trkpt>
      <trkpt lat="49.22987" lon="4.05949">
        <ele>129</ele>
        <time>2020-09-20T10:54:45Z</time>
      </trkpt>
      <trkpt lat="49.22989" lon="4.05941">
        <ele>129</ele>
        <time>2020-09-20T10:54:46Z</time>
      </trkpt>
      <trkpt lat="49.22991" lon="4.05932">
        <ele>129</ele>
        <time>2020-09-20T10:54:47Z</time>
      </trkpt>
      <trkpt lat="49.22993" lon="4.05923">
        <ele>129</ele>
        <time>2020-09-20T10:54:48Z</time>
      </trkpt>
      <trkpt lat="49.22995" lon="4.05914">
        <ele>128</ele>
        <time>2020-09-20T10:54:49Z</time>
      </trkpt>
      <trkpt lat="49.22997" lon="4.05906">
        <ele>128</ele>
        <time>2020-09-20T10:54:50Z</time>
      </trkpt>
      <trkpt lat="49.23" lon="4.05897">
        <ele>129</ele>
        <time>2020-09-20T10:54:51Z</time>
      </trkpt>
      <trkpt lat="49.23002" lon="4.05888">
        <ele>129</ele>
        <time>2020-09-20T10:54:52Z</time>
      </trkpt>
      <trkpt lat="49.23004" lon="4.0588">
        <ele>129</ele>
        <time>2020-09-20T10:54:53Z</time>
      </trkpt>
      <trkpt lat="49.23006" lon="4.05872">
        <ele>128</ele>
        <time>2020-09-20T10:54:54Z</time>
      </trkpt>
      <trkpt lat="49.23008" lon="4.05863">
        <ele>128</ele>
        <time>2020-09-20T10:54:55Z</time>
      </trkpt>
      <trkpt lat="49.2301" lon="4.05854">
        <ele>128</ele>
        <time>2020-09-20T10:54:56Z</time>
      </trkpt>
      <trkpt lat="49.23013" lon="4.05846">
        <ele>128</ele>
        <time>2020-09-20T10:54:57Z</time>
      </trkpt>
      <trkpt lat="49.23015" lon="4.05837">
        <ele>128</ele>
        <time>2020-09-20T10:54:58Z</time>
      </trkpt>
      <trkpt lat="49.23017" lon="4.05829">
        <ele>128</ele>
        <time>2020-09-20T10:54:59Z</time>
      </trkpt>
      <trkpt lat="49.23019" lon="4.0582">
        <ele>128</ele>
        <time>2020-09-20T10:55:00Z</time>
      </trkpt>
      <trkpt lat="49.23022" lon="4.05812">
        <ele>128</ele>
        <time>2020-09-20T10:55:01Z</time>
      </trkpt>
      <trkpt lat="49.23023" lon="4.05803">
        <ele>128</ele>
        <time>2020-09-20T10:55:02Z</time>
      </trkpt>
      <trkpt lat="49.23025" lon="4.05795">
        <ele>128</ele>
        <time>2020-09-20T10:55:03Z</time>
      </trkpt>
      <trkpt lat="49.23027" lon="4.05787">
        <ele>128</ele>
        <time>2020-09-20T10:55:04Z</time>
      </trkpt>
      <trkpt lat="49.2303" lon="4.05779">
        <ele>128</ele>
        <time>2020-09-20T10:55:05Z</time>
      </trkpt>
      <trkpt lat="49.23032" lon="4.05771">
        <ele>128</ele>
        <time>2020-09-20T10:55:06Z</time>
      </trkpt>
      <trkpt lat="49.23034" lon="4.05763">
        <ele>128</ele>
        <time>2020-09-20T10:55:07Z</time>
      </trkpt>
      <trkpt lat="49.23036" lon="4.05755">
        <ele>128</ele>
        <time>2020-09-20T10:55:08Z</time>
      </trkpt>
      <trkpt lat="49.23038" lon="4.05746">
        <ele>128</ele>
        <time>2020-09-20T10:55:09Z</time>
      </trkpt>
      <trkpt lat="49.2304" lon="4.05738">
        <ele>128</ele>
        <time>2020-09-20T10:55:10Z</time>
      </trkpt>
      <trkpt lat="49.23042" lon="4.0573">
        <ele>128</ele>
        <time>2020-09-20T10:55:11Z</time>
      </trkpt>
      <trkpt lat="49.23044" lon="4.05721">
        <ele>128</ele>
        <time>2020-09-20T10:55:12Z</time>
      </trkpt>
      <trkpt lat="49.23046" lon="4.05713">
        <ele>128</ele>
        <time>2020-09-20T10:55:13Z</time>
      </trkpt>
      <trkpt lat="49.23049" lon="4.05705">
        <ele>129</ele>
        <time>2020-09-20T10:55:14Z</time>
      </trkpt>
      <trkpt lat="49.23051" lon="4.05697">
        <ele>129</ele>
        <time>2020-09-20T10:55:15Z</time>
      </trkpt>
      <trkpt lat="49.23053" lon="4.05689">
        <ele>129</ele>
        <time>2020-09-20T10:55:16Z</time>
      </trkpt>
      <trkpt lat="49.23055" lon="4.05681">
        <ele>129</ele>
        <time>2020-09-20T10:55:17Z</time>
      </trkpt>
      <trkpt lat="49.23057" lon="4.05673">
        <ele>129</ele>
        <time>2020-09-20T10:55:18Z</time>
      </trkpt>
      <trkpt lat="49.23059" lon="4.05665">
        <ele>129</ele>
        <time>2020-09-20T10:55:19Z</time>
      </trkpt>
      <trkpt lat="49.23061" lon="4.05657">
        <ele>129</ele>
        <time>2020-09-20T10:55:20Z</time>
      </trkpt>
      <trkpt lat="49.23063" lon="4.05649">
        <ele>129</ele>
        <time>2020-09-20T10:55:21Z</time>
      </trkpt>
      <trkpt lat="49.23065" lon="4.05641">
        <ele>129</ele>
        <time>2020-09-20T10:55:22Z</time>
      </trkpt>
      <trkpt lat="49.23067" lon="4.05633">
        <ele>129</ele>
        <time>2020-09-20T10:55:23Z</time>
      </trkpt>
      <trkpt lat="49.23069" lon="4.05625">
        <ele>129</ele>
        <time>2020-09-20T10:55:24Z</time>
      </trkpt>
      <trkpt lat="49.23071" lon="4.05616">
        <ele>128</ele>
        <time>2020-09-20T10:55:25Z</time>
      </trkpt>
      <trkpt lat="49.23073" lon="4.05608">
        <ele>129</ele>
        <time>2020-09-20T10:55:26Z</time>
      </trkpt>
      <trkpt lat="49.23075" lon="4.056">
        <ele>129</ele>
        <time>2020-09-20T10:55:27Z</time>
      </trkpt>
      <trkpt lat="49.23077" lon="4.05591">
        <ele>129</ele>
        <time>2020-09-20T10:55:28Z</time>
      </trkpt>
      <trkpt lat="49.23079" lon="4.05583">
        <ele>129</ele>
        <time>2020-09-20T10:55:29Z</time>
      </trkpt>
      <trkpt lat="49.23081" lon="4.05574">
        <ele>129</ele>
        <time>2020-09-20T10:55:30Z</time>
      </trkpt>
      <trkpt lat="49.23083" lon="4.05565">
        <ele>129</ele>
        <time>2020-09-20T10:55:31Z</time>
      </trkpt>
      <trkpt lat="49.23085" lon="4.05557">
        <ele>129</ele>
        <time>2020-09-20T10:55:32Z</time>
      </trkpt>
      <trkpt lat="49.23087" lon="4.05548">
        <ele>129</ele>
        <time>2020-09-20T10:55:33Z</time>
      </trkpt>
      <trkpt lat="49.2309" lon="4.0554">
        <ele>129</ele>
        <time>2020-09-20T10:55:34Z</time>
      </trkpt>
      <trkpt lat="49.23092" lon="4.05531">
        <ele>129</ele>
        <time>2020-09-20T10:55:35Z</time>
      </trkpt>
      <trkpt lat="49.23094" lon="4.05523">
        <ele>129</ele>
        <time>2020-09-20T10:55:36Z</time>
      </trkpt>
      <trkpt lat="49.23097" lon="4.05514">
        <ele>130</ele>
        <time>2020-09-20T10:55:37Z</time>
      </trkpt>
      <trkpt lat="49.23099" lon="4.05506">
        <ele>130</ele>
        <time>2020-09-20T10:55:38Z</time>
      </trkpt>
      <trkpt lat="49.23101" lon="4.05498">
        <ele>130</ele>
        <time>2020-09-20T10:55:39Z</time>
      </trkpt>
      <trkpt lat="49.23103" lon="4.05491">
        <ele>130</ele>
        <time>2020-09-20T10:55:40Z</time>
      </trkpt>
      <trkpt lat="49.23106" lon="4.05482">
        <ele>130</ele>
        <time>2020-09-20T10:55:41Z</time>
      </trkpt>
      <trkpt lat="49.23108" lon="4.05473">
        <ele>130</ele>
        <time>2020-09-20T10:55:42Z</time>
      </trkpt>
      <trkpt lat="49.2311" lon="4.05465">
        <ele>130</ele>
        <time>2020-09-20T10:55:43Z</time>
      </trkpt>
      <trkpt lat="49.23113" lon="4.05456">
        <ele>130</ele>
        <time>2020-09-20T10:55:44Z</time>
      </trkpt>
      <trkpt lat="49.23115" lon="4.05447">
        <ele>130</ele>
        <time>2020-09-20T10:55:45Z</time>
      </trkpt>
      <trkpt lat="49.23117" lon="4.05439">
        <ele>130</ele>
        <time>2020-09-20T10:55:46Z</time>
      </trkpt>
      <trkpt lat="49.23119" lon="4.0543">
        <ele>130</ele>
        <time>2020-09-20T10:55:47Z</time>
      </trkpt>
      <trkpt lat="49.23122" lon="4.05421">
        <ele>130</ele>
        <time>2020-09-20T10:55:48Z</time>
      </trkpt>
      <trkpt lat="49.23124" lon="4.05412">
        <ele>130</ele>
        <time>2020-09-20T10:55:49Z</time>
      </trkpt>
      <trkpt lat="49.23126" lon="4.05403">
        <ele>130</ele>
        <time>2020-09-20T10:55:50Z</time>
      </trkpt>
      <trkpt lat="49.23128" lon="4.05395">
        <ele>130</ele>
        <time>2020-09-20T10:55:51Z</time>
      </trkpt>
      <trkpt lat="49.23131" lon="4.05386">
        <ele>130</ele>
        <time>2020-09-20T10:55:52Z</time>
      </trkpt>
      <trkpt lat="49.23133" lon="4.05378">
        <ele>130</ele>
        <time>2020-09-20T10:55:53Z</time>
      </trkpt>
      <trkpt lat="49.23136" lon="4.05369">
        <ele>130</ele>
        <time>2020-09-20T10:55:54Z</time>
      </trkpt>
      <trkpt lat="49.23138" lon="4.05361">
        <ele>130</ele>
        <time>2020-09-20T10:55:55Z</time>
      </trkpt>
      <trkpt lat="49.2314" lon="4.05352">
        <ele>130</ele>
        <time>2020-09-20T10:55:56Z</time>
      </trkpt>
      <trkpt lat="49.23142" lon="4.05344">
        <ele>129</ele>
        <time>2020-09-20T10:55:57Z</time>
      </trkpt>
      <trkpt lat="49.23144" lon="4.05335">
        <ele>129</ele>
        <time>2020-09-20T10:55:58Z</time>
      </trkpt>
      <trkpt lat="49.23146" lon="4.05327">
        <ele>129</ele>
        <time>2020-09-20T10:55:59Z</time>
      </trkpt>
      <trkpt lat="49.23148" lon="4.05319">
        <ele>129</ele>
        <time>2020-09-20T10:56:00Z</time>
      </trkpt>
      <trkpt lat="49.23151" lon="4.05311">
        <ele>129</ele>
        <time>2020-09-20T10:56:01Z</time>
      </trkpt>
      <trkpt lat="49.23153" lon="4.05303">
        <ele>129</ele>
        <time>2020-09-20T10:56:02Z</time>
      </trkpt>
      <trkpt lat="49.23155" lon="4.05296">
        <ele>129</ele>
        <time>2020-09-20T10:56:03Z</time>
      </trkpt>
      <trkpt lat="49.23157" lon="4.05288">
        <ele>129</ele>
        <time>2020-09-20T10:56:04Z</time>
      </trkpt>
      <trkpt lat="49.23162" lon="4.05272">
        <ele>129</ele>
        <time>2020-09-20T10:56:06Z</time>
      </trkpt>
      <trkpt lat="49.23164" lon="4.05264">
        <ele>129</ele>
        <time>2020-09-20T10:56:07Z</time>
      </trkpt>
      <trkpt lat="49.23166" lon="4.05257">
        <ele>129</ele>
        <time>2020-09-20T10:56:08Z</time>
      </trkpt>
      <trkpt lat="49.23168" lon="4.05249">
        <ele>129</ele>
        <time>2020-09-20T10:56:09Z</time>
      </trkpt>
      <trkpt lat="49.2317" lon="4.05241">
        <ele>130</ele>
        <time>2020-09-20T10:56:10Z</time>
      </trkpt>
      <trkpt lat="49.23173" lon="4.05233">
        <ele>130</ele>
        <time>2020-09-20T10:56:11Z</time>
      </trkpt>
      <trkpt lat="49.23175" lon="4.05225">
        <ele>130</ele>
        <time>2020-09-20T10:56:12Z</time>
      </trkpt>
      <trkpt lat="49.23177" lon="4.05217">
        <ele>130</ele>
        <time>2020-09-20T10:56:13Z</time>
      </trkpt>
      <trkpt lat="49.2318" lon="4.05209">
        <ele>131</ele>
        <time>2020-09-20T10:56:14Z</time>
      </trkpt>
      <trkpt lat="49.23182" lon="4.052">
        <ele>131</ele>
        <time>2020-09-20T10:56:15Z</time>
      </trkpt>
      <trkpt lat="49.23184" lon="4.05193">
        <ele>130</ele>
        <time>2020-09-20T10:56:16Z</time>
      </trkpt>
      <trkpt lat="49.23186" lon="4.05185">
        <ele>131</ele>
        <time>2020-09-20T10:56:17Z</time>
      </trkpt>
      <trkpt lat="49.23188" lon="4.05177">
        <ele>130</ele>
        <time>2020-09-20T10:56:18Z</time>
      </trkpt>
      <trkpt lat="49.2319" lon="4.05169">
        <ele>130</ele>
        <time>2020-09-20T10:56:19Z</time>
      </trkpt>
      <trkpt lat="49.23193" lon="4.05161">
        <ele>131</ele>
        <time>2020-09-20T10:56:20Z</time>
      </trkpt>
      <trkpt lat="49.23195" lon="4.05153">
        <ele>131</ele>
        <time>2020-09-20T10:56:21Z</time>
      </trkpt>
      <trkpt lat="49.23197" lon="4.05144">
        <ele>132</ele>
        <time>2020-09-20T10:56:22Z</time>
      </trkpt>
      <trkpt lat="49.23199" lon="4.05137">
        <ele>131</ele>
        <time>2020-09-20T10:56:23Z</time>
      </trkpt>
      <trkpt lat="49.23201" lon="4.05128">
        <ele>131</ele>
        <time>2020-09-20T10:56:24Z</time>
      </trkpt>
      <trkpt lat="49.23203" lon="4.0512">
        <ele>132</ele>
        <time>2020-09-20T10:56:25Z</time>
      </trkpt>
      <trkpt lat="49.23204" lon="4.05112">
        <ele>132</ele>
        <time>2020-09-20T10:56:26Z</time>
      </trkpt>
      <trkpt lat="49.23207" lon="4.05103">
        <ele>132</ele>
        <time>2020-09-20T10:56:27Z</time>
      </trkpt>
      <trkpt lat="49.23209" lon="4.05095">
        <ele>132</ele>
        <time>2020-09-20T10:56:28Z</time>
      </trkpt>
      <trkpt lat="49.23211" lon="4.05087">
        <ele>132</ele>
        <time>2020-09-20T10:56:29Z</time>
      </trkpt>
      <trkpt lat="49.23213" lon="4.05079">
        <ele>131</ele>
        <time>2020-09-20T10:56:30Z</time>
      </trkpt>
      <trkpt lat="49.23215" lon="4.05071">
        <ele>131</ele>
        <time>2020-09-20T10:56:31Z</time>
      </trkpt>
      <trkpt lat="49.23217" lon="4.05062">
        <ele>131</ele>
        <time>2020-09-20T10:56:32Z</time>
      </trkpt>
      <trkpt lat="49.2322" lon="4.05054">
        <ele>131</ele>
        <time>2020-09-20T10:56:33Z</time>
      </trkpt>
      <trkpt lat="49.23222" lon="4.05045">
        <ele>131</ele>
        <time>2020-09-20T10:56:34Z</time>
      </trkpt>
      <trkpt lat="49.23224" lon="4.05037">
        <ele>131</ele>
        <time>2020-09-20T10:56:35Z</time>
      </trkpt>
      <trkpt lat="49.23225" lon="4.05029">
        <ele>131</ele>
        <time>2020-09-20T10:56:36Z</time>
      </trkpt>
      <trkpt lat="49.23227" lon="4.05021">
        <ele>131</ele>
        <time>2020-09-20T10:56:37Z</time>
      </trkpt>
      <trkpt lat="49.23229" lon="4.05013">
        <ele>131</ele>
        <time>2020-09-20T10:56:38Z</time>
      </trkpt>
      <trkpt lat="49.23231" lon="4.05005">
        <ele>131</ele>
        <time>2020-09-20T10:56:39Z</time>
      </trkpt>
      <trkpt lat="49.23233" lon="4.04997">
        <ele>131</ele>
        <time>2020-09-20T10:56:40Z</time>
      </trkpt>
      <trkpt lat="49.23235" lon="4.04989">
        <ele>131</ele>
        <time>2020-09-20T10:56:41Z</time>
      </trkpt>
      <trkpt lat="49.23237" lon="4.04981">
        <ele>131</ele>
        <time>2020-09-20T10:56:42Z</time>
      </trkpt>
      <trkpt lat="49.2324" lon="4.04973">
        <ele>130</ele>
        <time>2020-09-20T10:56:43Z</time>
      </trkpt>
      <trkpt lat="49.23242" lon="4.04965">
        <ele>130</ele>
        <time>2020-09-20T10:56:44Z</time>
      </trkpt>
      <trkpt lat="49.23245" lon="4.04956">
        <ele>130</ele>
        <time>2020-09-20T10:56:45Z</time>
      </trkpt>
      <trkpt lat="49.23247" lon="4.04948">
        <ele>131</ele>
        <time>2020-09-20T10:56:46Z</time>
      </trkpt>
      <trkpt lat="49.23249" lon="4.0494">
        <ele>131</ele>
        <time>2020-09-20T10:56:47Z</time>
      </trkpt>
      <trkpt lat="49.23251" lon="4.04931">
        <ele>131</ele>
        <time>2020-09-20T10:56:48Z</time>
      </trkpt>
      <trkpt lat="49.23253" lon="4.04923">
        <ele>130</ele>
        <time>2020-09-20T10:56:49Z</time>
      </trkpt>
      <trkpt lat="49.23255" lon="4.04915">
        <ele>130</ele>
        <time>2020-09-20T10:56:50Z</time>
      </trkpt>
      <trkpt lat="49.23258" lon="4.04908">
        <ele>130</ele>
        <time>2020-09-20T10:56:51Z</time>
      </trkpt>
      <trkpt lat="49.23261" lon="4.04901">
        <ele>130</ele>
        <time>2020-09-20T10:56:52Z</time>
      </trkpt>
      <trkpt lat="49.23263" lon="4.04893">
        <ele>130</ele>
        <time>2020-09-20T10:56:53Z</time>
      </trkpt>
      <trkpt lat="49.23266" lon="4.04884">
        <ele>129</ele>
        <time>2020-09-20T10:56:54Z</time>
      </trkpt>
      <trkpt lat="49.23269" lon="4.04875">
        <ele>129</ele>
        <time>2020-09-20T10:56:55Z</time>
      </trkpt>
      <trkpt lat="49.23271" lon="4.04866">
        <ele>128</ele>
        <time>2020-09-20T10:56:56Z</time>
      </trkpt>
      <trkpt lat="49.23274" lon="4.04857">
        <ele>128</ele>
        <time>2020-09-20T10:56:57Z</time>
      </trkpt>
      <trkpt lat="49.23278" lon="4.04848">
        <ele>128</ele>
        <time>2020-09-20T10:56:58Z</time>
      </trkpt>
      <trkpt lat="49.23281" lon="4.04839">
        <ele>128</ele>
        <time>2020-09-20T10:56:59Z</time>
      </trkpt>
      <trkpt lat="49.23283" lon="4.04829">
        <ele>129</ele>
        <time>2020-09-20T10:57:00Z</time>
      </trkpt>
      <trkpt lat="49.23284" lon="4.0482">
        <ele>129</ele>
        <time>2020-09-20T10:57:01Z</time>
      </trkpt>
      <trkpt lat="49.23286" lon="4.0481">
        <ele>129</ele>
        <time>2020-09-20T10:57:02Z</time>
      </trkpt>
      <trkpt lat="49.23288" lon="4.048">
        <ele>129</ele>
        <time>2020-09-20T10:57:03Z</time>
      </trkpt>
      <trkpt lat="49.2329" lon="4.0479">
        <ele>128</ele>
        <time>2020-09-20T10:57:04Z</time>
      </trkpt>
      <trkpt lat="49.23291" lon="4.04781">
        <ele>128</ele>
        <time>2020-09-20T10:57:05Z</time>
      </trkpt>
      <trkpt lat="49.23292" lon="4.04772">
        <ele>129</ele>
        <time>2020-09-20T10:57:06Z</time>
      </trkpt>
      <trkpt lat="49.23293" lon="4.04763">
        <ele>128</ele>
        <time>2020-09-20T10:57:07Z</time>
      </trkpt>
      <trkpt lat="49.23296" lon="4.04754">
        <ele>128</ele>
        <time>2020-09-20T10:57:08Z</time>
      </trkpt>
      <trkpt lat="49.23299" lon="4.04744">
        <ele>128</ele>
        <time>2020-09-20T10:57:09Z</time>
      </trkpt>
      <trkpt lat="49.23302" lon="4.04735">
        <ele>128</ele>
        <time>2020-09-20T10:57:10Z</time>
      </trkpt>
      <trkpt lat="49.23305" lon="4.04725">
        <ele>128</ele>
        <time>2020-09-20T10:57:11Z</time>
      </trkpt>
      <trkpt lat="49.23308" lon="4.04714">
        <ele>128</ele>
        <time>2020-09-20T10:57:12Z</time>
      </trkpt>
      <trkpt lat="49.23311" lon="4.04704">
        <ele>128</ele>
        <time>2020-09-20T10:57:13Z</time>
      </trkpt>
      <trkpt lat="49.23313" lon="4.04695">
        <ele>127</ele>
        <time>2020-09-20T10:57:14Z</time>
      </trkpt>
      <trkpt lat="49.23316" lon="4.04685">
        <ele>127</ele>
        <time>2020-09-20T10:57:15Z</time>
      </trkpt>
      <trkpt lat="49.23318" lon="4.04675">
        <ele>127</ele>
        <time>2020-09-20T10:57:16Z</time>
      </trkpt>
      <trkpt lat="49.23321" lon="4.04665">
        <ele>127</ele>
        <time>2020-09-20T10:57:17Z</time>
      </trkpt>
      <trkpt lat="49.23324" lon="4.04655">
        <ele>127</ele>
        <time>2020-09-20T10:57:18Z</time>
      </trkpt>
      <trkpt lat="49.23326" lon="4.04646">
        <ele>126</ele>
        <time>2020-09-20T10:57:19Z</time>
      </trkpt>
      <trkpt lat="49.23328" lon="4.04636">
        <ele>126</ele>
        <time>2020-09-20T10:57:20Z</time>
      </trkpt>
      <trkpt lat="49.23331" lon="4.04626">
        <ele>126</ele>
        <time>2020-09-20T10:57:21Z</time>
      </trkpt>
      <trkpt lat="49.23334" lon="4.04617">
        <ele>126</ele>
        <time>2020-09-20T10:57:22Z</time>
      </trkpt>
      <trkpt lat="49.23336" lon="4.04607">
        <ele>126</ele>
        <time>2020-09-20T10:57:23Z</time>
      </trkpt>
      <trkpt lat="49.23339" lon="4.04598">
        <ele>126</ele>
        <time>2020-09-20T10:57:24Z</time>
      </trkpt>
      <trkpt lat="49.23341" lon="4.04588">
        <ele>126</ele>
        <time>2020-09-20T10:57:25Z</time>
      </trkpt>
      <trkpt lat="49.23344" lon="4.04579">
        <ele>125</ele>
        <time>2020-09-20T10:57:26Z</time>
      </trkpt>
      <trkpt lat="49.23346" lon="4.04569">
        <ele>125</ele>
        <time>2020-09-20T10:57:27Z</time>
      </trkpt>
      <trkpt lat="49.23348" lon="4.0456">
        <ele>124</ele>
        <time>2020-09-20T10:57:28Z</time>
      </trkpt>
      <trkpt lat="49.23351" lon="4.0455">
        <ele>124</ele>
        <time>2020-09-20T10:57:29Z</time>
      </trkpt>
      <trkpt lat="49.23354" lon="4.04541">
        <ele>124</ele>
        <time>2020-09-20T10:57:30Z</time>
      </trkpt>
      <trkpt lat="49.23356" lon="4.04532">
        <ele>124</ele>
        <time>2020-09-20T10:57:31Z</time>
      </trkpt>
      <trkpt lat="49.23359" lon="4.04522">
        <ele>123</ele>
        <time>2020-09-20T10:57:32Z</time>
      </trkpt>
      <trkpt lat="49.23362" lon="4.04514">
        <ele>123</ele>
        <time>2020-09-20T10:57:33Z</time>
      </trkpt>
      <trkpt lat="49.23364" lon="4.04504">
        <ele>123</ele>
        <time>2020-09-20T10:57:34Z</time>
      </trkpt>
      <trkpt lat="49.23367" lon="4.04494">
        <ele>122</ele>
        <time>2020-09-20T10:57:35Z</time>
      </trkpt>
      <trkpt lat="49.2337" lon="4.04485">
        <ele>122</ele>
        <time>2020-09-20T10:57:36Z</time>
      </trkpt>
      <trkpt lat="49.23373" lon="4.04476">
        <ele>122</ele>
        <time>2020-09-20T10:57:37Z</time>
      </trkpt>
      <trkpt lat="49.23379" lon="4.0446">
        <ele>122</ele>
        <time>2020-09-20T10:57:39Z</time>
      </trkpt>
      <trkpt lat="49.23382" lon="4.04452">
        <ele>122</ele>
        <time>2020-09-20T10:57:40Z</time>
      </trkpt>
      <trkpt lat="49.23386" lon="4.04444">
        <ele>122</ele>
        <time>2020-09-20T10:57:41Z</time>
      </trkpt>
      <trkpt lat="49.23389" lon="4.04436">
        <ele>122</ele>
        <time>2020-09-20T10:57:42Z</time>
      </trkpt>
      <trkpt lat="49.23392" lon="4.04428">
        <ele>123</ele>
        <time>2020-09-20T10:57:43Z</time>
      </trkpt>
      <trkpt lat="49.23396" lon="4.0442">
        <ele>123</ele>
        <time>2020-09-20T10:57:44Z</time>
      </trkpt>
      <trkpt lat="49.23399" lon="4.04413">
        <ele>123</ele>
        <time>2020-09-20T10:57:45Z</time>
      </trkpt>
      <trkpt lat="49.23403" lon="4.04405">
        <ele>123</ele>
        <time>2020-09-20T10:57:46Z</time>
      </trkpt>
      <trkpt lat="49.23406" lon="4.04398">
        <ele>124</ele>
        <time>2020-09-20T10:57:47Z</time>
      </trkpt>
      <trkpt lat="49.23409" lon="4.04391">
        <ele>124</ele>
        <time>2020-09-20T10:57:48Z</time>
      </trkpt>
      <trkpt lat="49.23412" lon="4.04386">
        <ele>124</ele>
        <time>2020-09-20T10:57:49Z</time>
      </trkpt>
      <trkpt lat="49.23414" lon="4.04381">
        <ele>124</ele>
        <time>2020-09-20T10:57:50Z</time>
      </trkpt>
      <trkpt lat="49.23417" lon="4.04375">
        <ele>123</ele>
        <time>2020-09-20T10:57:51Z</time>
      </trkpt>
      <trkpt lat="49.2342" lon="4.04369">
        <ele>123</ele>
        <time>2020-09-20T10:57:52Z</time>
      </trkpt>
      <trkpt lat="49.23424" lon="4.04363">
        <ele>123</ele>
        <time>2020-09-20T10:57:53Z</time>
      </trkpt>
      <trkpt lat="49.23427" lon="4.04357">
        <ele>123</ele>
        <time>2020-09-20T10:57:54Z</time>
      </trkpt>
      <trkpt lat="49.23431" lon="4.0435">
        <ele>123</ele>
        <time>2020-09-20T10:57:55Z</time>
      </trkpt>
      <trkpt lat="49.23434" lon="4.04344">
        <ele>123</ele>
        <time>2020-09-20T10:57:56Z</time>
      </trkpt>
      <trkpt lat="49.23438" lon="4.04337">
        <ele>123</ele>
        <time>2020-09-20T10:57:57Z</time>
      </trkpt>
      <trkpt lat="49.23442" lon="4.04331">
        <ele>123</ele>
        <time>2020-09-20T10:57:58Z</time>
      </trkpt>
      <trkpt lat="49.23446" lon="4.04325">
        <ele>123</ele>
        <time>2020-09-20T10:57:59Z</time>
      </trkpt>
      <trkpt lat="49.2345" lon="4.04318">
        <ele>123</ele>
        <time>2020-09-20T10:58:00Z</time>
      </trkpt>
      <trkpt lat="49.23454" lon="4.04313">
        <ele>123</ele>
        <time>2020-09-20T10:58:01Z</time>
      </trkpt>
      <trkpt lat="49.23458" lon="4.04306">
        <ele>123</ele>
        <time>2020-09-20T10:58:02Z</time>
      </trkpt>
      <trkpt lat="49.23461" lon="4.04299">
        <ele>124</ele>
        <time>2020-09-20T10:58:03Z</time>
      </trkpt>
      <trkpt lat="49.23465" lon="4.04293">
        <ele>124</ele>
        <time>2020-09-20T10:58:04Z</time>
      </trkpt>
      <trkpt lat="49.2347" lon="4.04286">
        <ele>124</ele>
        <time>2020-09-20T10:58:05Z</time>
      </trkpt>
      <trkpt lat="49.23474" lon="4.04279">
        <ele>124</ele>
        <time>2020-09-20T10:58:06Z</time>
      </trkpt>
      <trkpt lat="49.23478" lon="4.04273">
        <ele>124</ele>
        <time>2020-09-20T10:58:07Z</time>
      </trkpt>
      <trkpt lat="49.23482" lon="4.04266">
        <ele>124</ele>
        <time>2020-09-20T10:58:08Z</time>
      </trkpt>
      <trkpt lat="49.23486" lon="4.04261">
        <ele>124</ele>
        <time>2020-09-20T10:58:09Z</time>
      </trkpt>
      <trkpt lat="49.23491" lon="4.04256">
        <ele>125</ele>
        <time>2020-09-20T10:58:10Z</time>
      </trkpt>
      <trkpt lat="49.23497" lon="4.04251">
        <ele>125</ele>
        <time>2020-09-20T10:58:11Z</time>
      </trkpt>
      <trkpt lat="49.23502" lon="4.04246">
        <ele>125</ele>
        <time>2020-09-20T10:58:12Z</time>
      </trkpt>
      <trkpt lat="49.23507" lon="4.0424">
        <ele>124</ele>
        <time>2020-09-20T10:58:13Z</time>
      </trkpt>
      <trkpt lat="49.23512" lon="4.04234">
        <ele>124</ele>
        <time>2020-09-20T10:58:14Z</time>
      </trkpt>
      <trkpt lat="49.23517" lon="4.04229">
        <ele>125</ele>
        <time>2020-09-20T10:58:15Z</time>
      </trkpt>
      <trkpt lat="49.23522" lon="4.04225">
        <ele>125</ele>
        <time>2020-09-20T10:58:16Z</time>
      </trkpt>
      <trkpt lat="49.23527" lon="4.0422">
        <ele>125</ele>
        <time>2020-09-20T10:58:17Z</time>
      </trkpt>
      <trkpt lat="49.23531" lon="4.04217">
        <ele>125</ele>
        <time>2020-09-20T10:58:18Z</time>
      </trkpt>
      <trkpt lat="49.23535" lon="4.04213">
        <ele>125</ele>
        <time>2020-09-20T10:58:19Z</time>
      </trkpt>
      <trkpt lat="49.2354" lon="4.04206">
        <ele>125</ele>
        <time>2020-09-20T10:58:20Z</time>
      </trkpt>
      <trkpt lat="49.23544" lon="4.04198">
        <ele>125</ele>
        <time>2020-09-20T10:58:21Z</time>
      </trkpt>
      <trkpt lat="49.23549" lon="4.04191">
        <ele>125</ele>
        <time>2020-09-20T10:58:22Z</time>
      </trkpt>
      <trkpt lat="49.23557" lon="4.04185">
        <ele>124</ele>
        <time>2020-09-20T10:58:23Z</time>
      </trkpt>
      <trkpt lat="49.23562" lon="4.0418">
        <ele>125</ele>
        <time>2020-09-20T10:58:24Z</time>
      </trkpt>
      <trkpt lat="49.23567" lon="4.04175">
        <ele>124</ele>
        <time>2020-09-20T10:58:25Z</time>
      </trkpt>
      <trkpt lat="49.23572" lon="4.04169">
        <ele>124</ele>
        <time>2020-09-20T10:58:26Z</time>
      </trkpt>
      <trkpt lat="49.23577" lon="4.04164">
        <ele>125</ele>
        <time>2020-09-20T10:58:27Z</time>
      </trkpt>
      <trkpt lat="49.23582" lon="4.04159">
        <ele>125</ele>
        <time>2020-09-20T10:58:28Z</time>
      </trkpt>
      <trkpt lat="49.23587" lon="4.04154">
        <ele>125</ele>
        <time>2020-09-20T10:58:29Z</time>
      </trkpt>
      <trkpt lat="49.23593" lon="4.04149">
        <ele>125</ele>
        <time>2020-09-20T10:58:30Z</time>
      </trkpt>
      <trkpt lat="49.23599" lon="4.04144">
        <ele>125</ele>
        <time>2020-09-20T10:58:31Z</time>
      </trkpt>
      <trkpt lat="49.23604" lon="4.04138">
        <ele>125</ele>
        <time>2020-09-20T10:58:32Z</time>
      </trkpt>
      <trkpt lat="49.23609" lon="4.04132">
        <ele>125</ele>
        <time>2020-09-20T10:58:33Z</time>
      </trkpt>
      <trkpt lat="49.23615" lon="4.04125">
        <ele>125</ele>
        <time>2020-09-20T10:58:34Z</time>
      </trkpt>
      <trkpt lat="49.2362" lon="4.04119">
        <ele>125</ele>
        <time>2020-09-20T10:58:35Z</time>
      </trkpt>
      <trkpt lat="49.23626" lon="4.04112">
        <ele>124</ele>
        <time>2020-09-20T10:58:36Z</time>
      </trkpt>
      <trkpt lat="49.23631" lon="4.04105">
        <ele>124</ele>
        <time>2020-09-20T10:58:37Z</time>
      </trkpt>
      <trkpt lat="49.23637" lon="4.04099">
        <ele>124</ele>
        <time>2020-09-20T10:58:38Z</time>
      </trkpt>
      <trkpt lat="49.23643" lon="4.04094">
        <ele>125</ele>
        <time>2020-09-20T10:58:39Z</time>
      </trkpt>
      <trkpt lat="49.23648" lon="4.04089">
        <ele>125</ele>
        <time>2020-09-20T10:58:40Z</time>
      </trkpt>
      <trkpt lat="49.23654" lon="4.04084">
        <ele>125</ele>
        <time>2020-09-20T10:58:41Z</time>
      </trkpt>
      <trkpt lat="49.2366" lon="4.04077">
        <ele>125</ele>
        <time>2020-09-20T10:58:42Z</time>
      </trkpt>
      <trkpt lat="49.23665" lon="4.04071">
        <ele>125</ele>
        <time>2020-09-20T10:58:43Z</time>
      </trkpt>
      <trkpt lat="49.23671" lon="4.04065">
        <ele>125</ele>
        <time>2020-09-20T10:58:44Z</time>
      </trkpt>
      <trkpt lat="49.23676" lon="4.04059">
        <ele>125</ele>
        <time>2020-09-20T10:58:45Z</time>
      </trkpt>
      <trkpt lat="49.23682" lon="4.04052">
        <ele>124</ele>
        <time>2020-09-20T10:58:46Z</time>
      </trkpt>
      <trkpt lat="49.23687" lon="4.04046">
        <ele>124</ele>
        <time>2020-09-20T10:58:47Z</time>
      </trkpt>
      <trkpt lat="49.23692" lon="4.04041">
        <ele>124</ele>
        <time>2020-09-20T10:58:48Z</time>
      </trkpt>
      <trkpt lat="49.23698" lon="4.04034">
        <ele>124</ele>
        <time>2020-09-20T10:58:49Z</time>
      </trkpt>
      <trkpt lat="49.23703" lon="4.04029">
        <ele>125</ele>
        <time>2020-09-20T10:58:50Z</time>
      </trkpt>
      <trkpt lat="49.23708" lon="4.04024">
        <ele>125</ele>
        <time>2020-09-20T10:58:51Z</time>
      </trkpt>
      <trkpt lat="49.23713" lon="4.04019">
        <ele>124</ele>
        <time>2020-09-20T10:58:52Z</time>
      </trkpt>
      <trkpt lat="49.23718" lon="4.04014">
        <ele>124</ele>
        <time>2020-09-20T10:58:53Z</time>
      </trkpt>
      <trkpt lat="49.23724" lon="4.04008">
        <ele>124</ele>
        <time>2020-09-20T10:58:54Z</time>
      </trkpt>
      <trkpt lat="49.23729" lon="4.04003">
        <ele>124</ele>
        <time>2020-09-20T10:58:55Z</time>
      </trkpt>
      <trkpt lat="49.23733" lon="4.03999">
        <ele>124</ele>
        <time>2020-09-20T10:58:56Z</time>
      </trkpt>
      <trkpt lat="49.23738" lon="4.03994">
        <ele>124</ele>
        <time>2020-09-20T10:58:57Z</time>
      </trkpt>
      <trkpt lat="49.23742" lon="4.03989">
        <ele>124</ele>
        <time>2020-09-20T10:58:58Z</time>
      </trkpt>
      <trkpt lat="49.23747" lon="4.03983">
        <ele>123</ele>
        <time>2020-09-20T10:58:59Z</time>
      </trkpt>
      <trkpt lat="49.23751" lon="4.03978">
        <ele>123</ele>
        <time>2020-09-20T10:59:00Z</time>
      </trkpt>
      <trkpt lat="49.23755" lon="4.03974">
        <ele>122</ele>
        <time>2020-09-20T10:59:01Z</time>
      </trkpt>
      <trkpt lat="49.2376" lon="4.0397">
        <ele>122</ele>
        <time>2020-09-20T10:59:02Z</time>
      </trkpt>
      <trkpt lat="49.23764" lon="4.03966">
        <ele>122</ele>
        <time>2020-09-20T10:59:03Z</time>
      </trkpt>
      <trkpt lat="49.23767" lon="4.03962">
        <ele>123</ele>
        <time>2020-09-20T10:59:04Z</time>
      </trkpt>
      <trkpt lat="49.23771" lon="4.03958">
        <ele>123</ele>
        <time>2020-09-20T10:59:05Z</time>
      </trkpt>
      <trkpt lat="49.23775" lon="4.03952">
        <ele>123</ele>
        <time>2020-09-20T10:59:06Z</time>
      </trkpt>
      <trkpt lat="49.23779" lon="4.03947">
        <ele>123</ele>
        <time>2020-09-20T10:59:07Z</time>
      </trkpt>
      <trkpt lat="49.23784" lon="4.03942">
        <ele>123</ele>
        <time>2020-09-20T10:59:08Z</time>
      </trkpt>
      <trkpt lat="49.23788" lon="4.03937">
        <ele>122</ele>
        <time>2020-09-20T10:59:09Z</time>
      </trkpt>
      <trkpt lat="49.23793" lon="4.03933">
        <ele>123</ele>
        <time>2020-09-20T10:59:10Z</time>
      </trkpt>
      <trkpt lat="49.23798" lon="4.03929">
        <ele>123</ele>
        <time>2020-09-20T10:59:11Z</time>
      </trkpt>
      <trkpt lat="49.23803" lon="4.03924">
        <ele>122</ele>
        <time>2020-09-20T10:59:12Z</time>
      </trkpt>
      <trkpt lat="49.23808" lon="4.03919">
        <ele>122</ele>
        <time>2020-09-20T10:59:13Z</time>
      </trkpt>
      <trkpt lat="49.23813" lon="4.03915">
        <ele>122</ele>
        <time>2020-09-20T10:59:14Z</time>
      </trkpt>
      <trkpt lat="49.23817" lon="4.0391">
        <ele>122</ele>
        <time>2020-09-20T10:59:15Z</time>
      </trkpt>
      <trkpt lat="49.23821" lon="4.03905">
        <ele>123</ele>
        <time>2020-09-20T10:59:16Z</time>
      </trkpt>
      <trkpt lat="49.23825" lon="4.03899">
        <ele>123</ele>
        <time>2020-09-20T10:59:17Z</time>
      </trkpt>
      <trkpt lat="49.2383" lon="4.03894">
        <ele>123</ele>
        <time>2020-09-20T10:59:18Z</time>
      </trkpt>
      <trkpt lat="49.23834" lon="4.0389">
        <ele>123</ele>
        <time>2020-09-20T10:59:19Z</time>
      </trkpt>
      <trkpt lat="49.23839" lon="4.03885">
        <ele>123</ele>
        <time>2020-09-20T10:59:20Z</time>
      </trkpt>
      <trkpt lat="49.23844" lon="4.0388">
        <ele>123</ele>
        <time>2020-09-20T10:59:21Z</time>
      </trkpt>
      <trkpt lat="49.23848" lon="4.03875">
        <ele>123</ele>
        <time>2020-09-20T10:59:22Z</time>
      </trkpt>
      <trkpt lat="49.23853" lon="4.0387">
        <ele>123</ele>
        <time>2020-09-20T10:59:23Z</time>
      </trkpt>
      <trkpt lat="49.23857" lon="4.03865">
        <ele>123</ele>
        <time>2020-09-20T10:59:24Z</time>
      </trkpt>
      <trkpt lat="49.23861" lon="4.0386">
        <ele>122</ele>
        <time>2020-09-20T10:59:25Z</time>
      </trkpt>
      <trkpt lat="49.23866" lon="4.03855">
        <ele>123</ele>
        <time>2020-09-20T10:59:26Z</time>
      </trkpt>
      <trkpt lat="49.23871" lon="4.03851">
        <ele>122</ele>
        <time>2020-09-20T10:59:27Z</time>
      </trkpt>
      <trkpt lat="49.23875" lon="4.03847">
        <ele>122</ele>
        <time>2020-09-20T10:59:28Z</time>
      </trkpt>
      <trkpt lat="49.2388" lon="4.03842">
        <ele>122</ele>
        <time>2020-09-20T10:59:29Z</time>
      </trkpt>
      <trkpt lat="49.23884" lon="4.03837">
        <ele>122</ele>
        <time>2020-09-20T10:59:30Z</time>
      </trkpt>
      <trkpt lat="49.23889" lon="4.03832">
        <ele>122</ele>
        <time>2020-09-20T10:59:31Z</time>
      </trkpt>
      <trkpt lat="49.23893" lon="4.03827">
        <ele>121</ele>
        <time>2020-09-20T10:59:32Z</time>
      </trkpt>
      <trkpt lat="49.23898" lon="4.03822">
        <ele>121</ele>
        <time>2020-09-20T10:59:33Z</time>
      </trkpt>
      <trkpt lat="49.23902" lon="4.03816">
        <ele>121</ele>
        <time>2020-09-20T10:59:34Z</time>
      </trkpt>
      <trkpt lat="49.23907" lon="4.03812">
        <ele>121</ele>
        <time>2020-09-20T10:59:35Z</time>
      </trkpt>
      <trkpt lat="49.23911" lon="4.03806">
        <ele>121</ele>
        <time>2020-09-20T10:59:36Z</time>
      </trkpt>
      <trkpt lat="49.23915" lon="4.03801">
        <ele>121</ele>
        <time>2020-09-20T10:59:37Z</time>
      </trkpt>
      <trkpt lat="49.2392" lon="4.03796">
        <ele>121</ele>
        <time>2020-09-20T10:59:38Z</time>
      </trkpt>
      <trkpt lat="49.23924" lon="4.03792">
        <ele>121</ele>
        <time>2020-09-20T10:59:39Z</time>
      </trkpt>
      <trkpt lat="49.23928" lon="4.03787">
        <ele>121</ele>
        <time>2020-09-20T10:59:40Z</time>
      </trkpt>
      <trkpt lat="49.23933" lon="4.03781">
        <ele>121</ele>
        <time>2020-09-20T10:59:41Z</time>
      </trkpt>
      <trkpt lat="49.23938" lon="4.03776">
        <ele>121</ele>
        <time>2020-09-20T10:59:42Z</time>
      </trkpt>
      <trkpt lat="49.23943" lon="4.03771">
        <ele>121</ele>
        <time>2020-09-20T10:59:43Z</time>
      </trkpt>
      <trkpt lat="49.23948" lon="4.03765">
        <ele>120</ele>
        <time>2020-09-20T10:59:44Z</time>
      </trkpt>
      <trkpt lat="49.23954" lon="4.0376">
        <ele>121</ele>
        <time>2020-09-20T10:59:45Z</time>
      </trkpt>
      <trkpt lat="49.23958" lon="4.03755">
        <ele>121</ele>
        <time>2020-09-20T10:59:46Z</time>
      </trkpt>
      <trkpt lat="49.23963" lon="4.03749">
        <ele>121</ele>
        <time>2020-09-20T10:59:47Z</time>
      </trkpt>
      <trkpt lat="49.23967" lon="4.03743">
        <ele>120</ele>
        <time>2020-09-20T10:59:48Z</time>
      </trkpt>
      <trkpt lat="49.23971" lon="4.03738">
        <ele>120</ele>
        <time>2020-09-20T10:59:49Z</time>
      </trkpt>
      <trkpt lat="49.23976" lon="4.03733">
        <ele>120</ele>
        <time>2020-09-20T10:59:50Z</time>
      </trkpt>
      <trkpt lat="49.23981" lon="4.03729">
        <ele>120</ele>
        <time>2020-09-20T10:59:51Z</time>
      </trkpt>
      <trkpt lat="49.23986" lon="4.03725">
        <ele>120</ele>
        <time>2020-09-20T10:59:52Z</time>
      </trkpt>
      <trkpt lat="49.2399" lon="4.0372">
        <ele>120</ele>
        <time>2020-09-20T10:59:53Z</time>
      </trkpt>
      <trkpt lat="49.23996" lon="4.03716">
        <ele>121</ele>
        <time>2020-09-20T10:59:54Z</time>
      </trkpt>
      <trkpt lat="49.24" lon="4.0371">
        <ele>121</ele>
        <time>2020-09-20T10:59:55Z</time>
      </trkpt>
      <trkpt lat="49.24005" lon="4.03703">
        <ele>120</ele>
        <time>2020-09-20T10:59:56Z</time>
      </trkpt>
      <trkpt lat="49.2401" lon="4.03697">
        <ele>120</ele>
        <time>2020-09-20T10:59:57Z</time>
      </trkpt>
      <trkpt lat="49.24015" lon="4.03693">
        <ele>120</ele>
        <time>2020-09-20T10:59:58Z</time>
      </trkpt>
      <trkpt lat="49.2402" lon="4.03688">
        <ele>120</ele>
        <time>2020-09-20T10:59:59Z</time>
      </trkpt>
      <trkpt lat="49.24025" lon="4.03684">
        <ele>121</ele>
        <time>2020-09-20T11:00:00Z</time>
      </trkpt>
      <trkpt lat="49.24029" lon="4.03679">
        <ele>121</ele>
        <time>2020-09-20T11:00:01Z</time>
      </trkpt>
      <trkpt lat="49.24034" lon="4.03674">
        <ele>121</ele>
        <time>2020-09-20T11:00:02Z</time>
      </trkpt>
      <trkpt lat="49.24039" lon="4.03669">
        <ele>121</ele>
        <time>2020-09-20T11:00:03Z</time>
      </trkpt>
      <trkpt lat="49.24044" lon="4.03663">
        <ele>120</ele>
        <time>2020-09-20T11:00:04Z</time>
      </trkpt>
      <trkpt lat="49.24048" lon="4.03658">
        <ele>121</ele>
        <time>2020-09-20T11:00:05Z</time>
      </trkpt>
      <trkpt lat="49.24052" lon="4.03653">
        <ele>120</ele>
        <time>2020-09-20T11:00:06Z</time>
      </trkpt>
      <trkpt lat="49.24056" lon="4.03649">
        <ele>120</ele>
        <time>2020-09-20T11:00:07Z</time>
      </trkpt>
      <trkpt lat="49.2406" lon="4.03645">
        <ele>120</ele>
        <time>2020-09-20T11:00:08Z</time>
      </trkpt>
      <trkpt lat="49.24064" lon="4.03641">
        <ele>121</ele>
        <time>2020-09-20T11:00:09Z</time>
      </trkpt>
      <trkpt lat="49.24069" lon="4.03636">
        <ele>121</ele>
        <time>2020-09-20T11:00:10Z</time>
      </trkpt>
      <trkpt lat="49.24073" lon="4.03632">
        <ele>120</ele>
        <time>2020-09-20T11:00:11Z</time>
      </trkpt>
      <trkpt lat="49.24077" lon="4.03627">
        <ele>120</ele>
        <time>2020-09-20T11:00:12Z</time>
      </trkpt>
      <trkpt lat="49.24081" lon="4.03623">
        <ele>121</ele>
        <time>2020-09-20T11:00:13Z</time>
      </trkpt>
      <trkpt lat="49.24084" lon="4.03618">
        <ele>121</ele>
        <time>2020-09-20T11:00:14Z</time>
      </trkpt>
      <trkpt lat="49.24088" lon="4.03614">
        <ele>122</ele>
        <time>2020-09-20T11:00:15Z</time>
      </trkpt>
      <trkpt lat="49.24092" lon="4.03609">
        <ele>121</ele>
        <time>2020-09-20T11:00:16Z</time>
      </trkpt>
      <trkpt lat="49.24096" lon="4.03605">
        <ele>121</ele>
        <time>2020-09-20T11:00:17Z</time>
      </trkpt>
      <trkpt lat="49.241" lon="4.03602">
        <ele>122</ele>
        <time>2020-09-20T11:00:18Z</time>
      </trkpt>
      <trkpt lat="49.24103" lon="4.03598">
        <ele>122</ele>
        <time>2020-09-20T11:00:19Z</time>
      </trkpt>
      <trkpt lat="49.24107" lon="4.03594">
        <ele>121</ele>
        <time>2020-09-20T11:00:20Z</time>
      </trkpt>
      <trkpt lat="49.2411" lon="4.03589">
        <ele>121</ele>
        <time>2020-09-20T11:00:21Z</time>
      </trkpt>
      <trkpt lat="49.24114" lon="4.03585">
        <ele>121</ele>
        <time>2020-09-20T11:00:22Z</time>
      </trkpt>
      <trkpt lat="49.24117" lon="4.03583">
        <ele>121</ele>
        <time>2020-09-20T11:00:23Z</time>
      </trkpt>
      <trkpt lat="49.24121" lon="4.0358">
        <ele>122</ele>
        <time>2020-09-20T11:00:24Z</time>
      </trkpt>
      <trkpt lat="49.24126" lon="4.03578">
        <ele>122</ele>
        <time>2020-09-20T11:00:25Z</time>
      </trkpt>
      <trkpt lat="49.2413" lon="4.03574">
        <ele>122</ele>
        <time>2020-09-20T11:00:26Z</time>
      </trkpt>
      <trkpt lat="49.24134" lon="4.03569">
        <ele>122</ele>
        <time>2020-09-20T11:00:27Z</time>
      </trkpt>
      <trkpt lat="49.24138" lon="4.03564">
        <ele>123</ele>
        <time>2020-09-20T11:00:28Z</time>
      </trkpt>
      <trkpt lat="49.24142" lon="4.0356">
        <ele>123</ele>
        <time>2020-09-20T11:00:29Z</time>
      </trkpt>
      <trkpt lat="49.24146" lon="4.03555">
        <ele>123</ele>
        <time>2020-09-20T11:00:30Z</time>
      </trkpt>
      <trkpt lat="49.2415" lon="4.0355">
        <ele>123</ele>
        <time>2020-09-20T11:00:31Z</time>
      </trkpt>
      <trkpt lat="49.24154" lon="4.03547">
        <ele>123</ele>
        <time>2020-09-20T11:00:32Z</time>
      </trkpt>
      <trkpt lat="49.24158" lon="4.03545">
        <ele>123</ele>
        <time>2020-09-20T11:00:33Z</time>
      </trkpt>
      <trkpt lat="49.24163" lon="4.03542">
        <ele>123</ele>
        <time>2020-09-20T11:00:34Z</time>
      </trkpt>
      <trkpt lat="49.24168" lon="4.0354">
        <ele>123</ele>
        <time>2020-09-20T11:00:35Z</time>
      </trkpt>
      <trkpt lat="49.24173" lon="4.03537">
        <ele>124</ele>
        <time>2020-09-20T11:00:36Z</time>
      </trkpt>
      <trkpt lat="49.24176" lon="4.03531">
        <ele>124</ele>
        <time>2020-09-20T11:00:37Z</time>
      </trkpt>
      <trkpt lat="49.24179" lon="4.03525">
        <ele>125</ele>
        <time>2020-09-20T11:00:38Z</time>
      </trkpt>
      <trkpt lat="49.24182" lon="4.03521">
        <ele>125</ele>
        <time>2020-09-20T11:00:39Z</time>
      </trkpt>
      <trkpt lat="49.24184" lon="4.03516">
        <ele>125</ele>
        <time>2020-09-20T11:00:40Z</time>
      </trkpt>
      <trkpt lat="49.24188" lon="4.03511">
        <ele>124</ele>
        <time>2020-09-20T11:00:41Z</time>
      </trkpt>
      <trkpt lat="49.24191" lon="4.03507">
        <ele>124</ele>
        <time>2020-09-20T11:00:42Z</time>
      </trkpt>
      <trkpt lat="49.24194" lon="4.03503">
        <ele>123</ele>
        <time>2020-09-20T11:00:43Z</time>
      </trkpt>
      <trkpt lat="49.24197" lon="4.03499">
        <ele>123</ele>
        <time>2020-09-20T11:00:44Z</time>
      </trkpt>
      <trkpt lat="49.242" lon="4.03494">
        <ele>122</ele>
        <time>2020-09-20T11:00:45Z</time>
      </trkpt>
      <trkpt lat="49.24202" lon="4.03487">
        <ele>122</ele>
        <time>2020-09-20T11:00:46Z</time>
      </trkpt>
      <trkpt lat="49.24203" lon="4.03479">
        <ele>121</ele>
        <time>2020-09-20T11:00:47Z</time>
      </trkpt>
      <trkpt lat="49.24205" lon="4.03473">
        <ele>122</ele>
        <time>2020-09-20T11:00:48Z</time>
      </trkpt>
      <trkpt lat="49.2421" lon="4.03467">
        <ele>122</ele>
        <time>2020-09-20T11:00:49Z</time>
      </trkpt>
      <trkpt lat="49.24215" lon="4.03462">
        <ele>122</ele>
        <time>2020-09-20T11:00:50Z</time>
      </trkpt>
      <trkpt lat="49.24219" lon="4.03458">
        <ele>121</ele>
        <time>2020-09-20T11:00:51Z</time>
      </trkpt>
      <trkpt lat="49.24224" lon="4.03453">
        <ele>121</ele>
        <time>2020-09-20T11:00:52Z</time>
      </trkpt>
      <trkpt lat="49.24229" lon="4.03448">
        <ele>121</ele>
        <time>2020-09-20T11:00:53Z</time>
      </trkpt>
      <trkpt lat="49.24234" lon="4.03443">
        <ele>122</ele>
        <time>2020-09-20T11:00:54Z</time>
      </trkpt>
      <trkpt lat="49.24239" lon="4.03439">
        <ele>122</ele>
        <time>2020-09-20T11:00:55Z</time>
      </trkpt>
      <trkpt lat="49.24244" lon="4.03434">
        <ele>122</ele>
        <time>2020-09-20T11:00:56Z</time>
      </trkpt>
      <trkpt lat="49.2425" lon="4.03429">
        <ele>122</ele>
        <time>2020-09-20T11:00:57Z</time>
      </trkpt>
      <trkpt lat="49.24255" lon="4.03424">
        <ele>122</ele>
        <time>2020-09-20T11:00:58Z</time>
      </trkpt>
      <trkpt lat="49.2426" lon="4.03418">
        <ele>122</ele>
        <time>2020-09-20T11:00:59Z</time>
      </trkpt>
      <trkpt lat="49.24265" lon="4.03412">
        <ele>122</ele>
        <time>2020-09-20T11:01:00Z</time>
      </trkpt>
      <trkpt lat="49.2427" lon="4.03407">
        <ele>122</ele>
        <time>2020-09-20T11:01:01Z</time>
      </trkpt>
      <trkpt lat="49.24275" lon="4.03401">
        <ele>122</ele>
        <time>2020-09-20T11:01:02Z</time>
      </trkpt>
      <trkpt lat="49.24281" lon="4.03395">
        <ele>123</ele>
        <time>2020-09-20T11:01:03Z</time>
      </trkpt>
      <trkpt lat="49.24286" lon="4.03389">
        <ele>123</ele>
        <time>2020-09-20T11:01:04Z</time>
      </trkpt>
      <trkpt lat="49.24292" lon="4.03382">
        <ele>123</ele>
        <time>2020-09-20T11:01:05Z</time>
      </trkpt>
      <trkpt lat="49.24297" lon="4.03376">
        <ele>123</ele>
        <time>2020-09-20T11:01:06Z</time>
      </trkpt>
      <trkpt lat="49.24302" lon="4.0337">
        <ele>124</ele>
        <time>2020-09-20T11:01:07Z</time>
      </trkpt>
      <trkpt lat="49.24307" lon="4.03365">
        <ele>124</ele>
        <time>2020-09-20T11:01:08Z</time>
      </trkpt>
      <trkpt lat="49.24312" lon="4.0336">
        <ele>124</ele>
        <time>2020-09-20T11:01:09Z</time>
      </trkpt>
      <trkpt lat="49.24316" lon="4.03354">
        <ele>124</ele>
        <time>2020-09-20T11:01:10Z</time>
      </trkpt>
      <trkpt lat="49.24321" lon="4.03348">
        <ele>124</ele>
        <time>2020-09-20T11:01:11Z</time>
      </trkpt>
      <trkpt lat="49.24326" lon="4.03342">
        <ele>124</ele>
        <time>2020-09-20T11:01:12Z</time>
      </trkpt>
      <trkpt lat="49.24331" lon="4.03336">
        <ele>125</ele>
        <time>2020-09-20T11:01:13Z</time>
      </trkpt>
      <trkpt lat="49.24337" lon="4.0333">
        <ele>124</ele>
        <time>2020-09-20T11:01:14Z</time>
      </trkpt>
      <trkpt lat="49.24342" lon="4.03324">
        <ele>124</ele>
        <time>2020-09-20T11:01:15Z</time>
      </trkpt>
      <trkpt lat="49.24348" lon="4.03319">
        <ele>124</ele>
        <time>2020-09-20T11:01:16Z</time>
      </trkpt>
      <trkpt lat="49.24353" lon="4.03314">
        <ele>124</ele>
        <time>2020-09-20T11:01:17Z</time>
      </trkpt>
      <trkpt lat="49.24358" lon="4.03308">
        <ele>125</ele>
        <time>2020-09-20T11:01:18Z</time>
      </trkpt>
      <trkpt lat="49.24362" lon="4.03301">
        <ele>124</ele>
        <time>2020-09-20T11:01:19Z</time>
      </trkpt>
      <trkpt lat="49.24367" lon="4.03296">
        <ele>124</ele>
        <time>2020-09-20T11:01:20Z</time>
      </trkpt>
      <trkpt lat="49.24372" lon="4.0329">
        <ele>124</ele>
        <time>2020-09-20T11:01:21Z</time>
      </trkpt>
      <trkpt lat="49.24377" lon="4.03284">
        <ele>124</ele>
        <time>2020-09-20T11:01:22Z</time>
      </trkpt>
      <trkpt lat="49.24382" lon="4.03278">
        <ele>124</ele>
        <time>2020-09-20T11:01:23Z</time>
      </trkpt>
      <trkpt lat="49.24387" lon="4.03272">
        <ele>124</ele>
        <time>2020-09-20T11:01:24Z</time>
      </trkpt>
      <trkpt lat="49.24392" lon="4.03266">
        <ele>124</ele>
        <time>2020-09-20T11:01:25Z</time>
      </trkpt>
      <trkpt lat="49.24396" lon="4.03259">
        <ele>124</ele>
        <time>2020-09-20T11:01:26Z</time>
      </trkpt>
      <trkpt lat="49.24401" lon="4.03252">
        <ele>124</ele>
        <time>2020-09-20T11:01:27Z</time>
      </trkpt>
      <trkpt lat="49.24405" lon="4.03246">
        <ele>124</ele>
        <time>2020-09-20T11:01:28Z</time>
      </trkpt>
      <trkpt lat="49.2441" lon="4.0324">
        <ele>124</ele>
        <time>2020-09-20T11:01:29Z</time>
      </trkpt>
      <trkpt lat="49.24414" lon="4.03234">
        <ele>124</ele>
        <time>2020-09-20T11:01:30Z</time>
      </trkpt>
      <trkpt lat="49.24419" lon="4.03228">
        <ele>124</ele>
        <time>2020-09-20T11:01:31Z</time>
      </trkpt>
      <trkpt lat="49.24423" lon="4.03221">
        <ele>125</ele>
        <time>2020-09-20T11:01:32Z</time>
      </trkpt>
      <trkpt lat="49.24427" lon="4.03215">
        <ele>124</ele>
        <time>2020-09-20T11:01:33Z</time>
      </trkpt>
      <trkpt lat="49.24431" lon="4.03209">
        <ele>124</ele>
        <time>2020-09-20T11:01:34Z</time>
      </trkpt>
      <trkpt lat="49.24435" lon="4.03202">
        <ele>124</ele>
        <time>2020-09-20T11:01:35Z</time>
      </trkpt>
      <trkpt lat="49.24439" lon="4.03196">
        <ele>123</ele>
        <time>2020-09-20T11:01:36Z</time>
      </trkpt>
      <trkpt lat="49.24443" lon="4.0319">
        <ele>124</ele>
        <time>2020-09-20T11:01:37Z</time>
      </trkpt>
      <trkpt lat="49.24446" lon="4.03184">
        <ele>124</ele>
        <time>2020-09-20T11:01:38Z</time>
      </trkpt>
      <trkpt lat="49.24451" lon="4.03178">
        <ele>124</ele>
        <time>2020-09-20T11:01:39Z</time>
      </trkpt>
      <trkpt lat="49.24455" lon="4.03172">
        <ele>124</ele>
        <time>2020-09-20T11:01:40Z</time>
      </trkpt>
      <trkpt lat="49.24458" lon="4.03167">
        <ele>124</ele>
        <time>2020-09-20T11:01:41Z</time>
      </trkpt>
      <trkpt lat="49.24462" lon="4.03162">
        <ele>124</ele>
        <time>2020-09-20T11:01:42Z</time>
      </trkpt>
      <trkpt lat="49.24466" lon="4.03156">
        <ele>124</ele>
        <time>2020-09-20T11:01:43Z</time>
      </trkpt>
      <trkpt lat="49.2447" lon="4.03151">
        <ele>124</ele>
        <time>2020-09-20T11:01:44Z</time>
      </trkpt>
      <trkpt lat="49.24474" lon="4.03144">
        <ele>125</ele>
        <time>2020-09-20T11:01:45Z</time>
      </trkpt>
      <trkpt lat="49.24477" lon="4.03139">
        <ele>125</ele>
        <time>2020-09-20T11:01:46Z</time>
      </trkpt>
      <trkpt lat="49.24481" lon="4.03133">
        <ele>125</ele>
        <time>2020-09-20T11:01:47Z</time>
      </trkpt>
      <trkpt lat="49.24484" lon="4.03127">
        <ele>124</ele>
        <time>2020-09-20T11:01:48Z</time>
      </trkpt>
      <trkpt lat="49.24488" lon="4.03122">
        <ele>124</ele>
        <time>2020-09-20T11:01:49Z</time>
      </trkpt>
      <trkpt lat="49.24491" lon="4.03117">
        <ele>124</ele>
        <time>2020-09-20T11:01:50Z</time>
      </trkpt>
      <trkpt lat="49.24495" lon="4.03111">
        <ele>124</ele>
        <time>2020-09-20T11:01:51Z</time>
      </trkpt>
      <trkpt lat="49.24498" lon="4.03106">
        <ele>124</ele>
        <time>2020-09-20T11:01:52Z</time>
      </trkpt>
      <trkpt lat="49.24502" lon="4.031">
        <ele>125</ele>
        <time>2020-09-20T11:01:53Z</time>
      </trkpt>
      <trkpt lat="49.24505" lon="4.03095">
        <ele>124</ele>
        <time>2020-09-20T11:01:54Z</time>
      </trkpt>
      <trkpt lat="49.24509" lon="4.0309">
        <ele>124</ele>
        <time>2020-09-20T11:01:55Z</time>
      </trkpt>
      <trkpt lat="49.24512" lon="4.03085">
        <ele>124</ele>
        <time>2020-09-20T11:01:56Z</time>
      </trkpt>
      <trkpt lat="49.24516" lon="4.0308">
        <ele>124</ele>
        <time>2020-09-20T11:01:57Z</time>
      </trkpt>
      <trkpt lat="49.24519" lon="4.03075">
        <ele>124</ele>
        <time>2020-09-20T11:01:58Z</time>
      </trkpt>
      <trkpt lat="49.24522" lon="4.03071">
        <ele>124</ele>
        <time>2020-09-20T11:01:59Z</time>
      </trkpt>
      <trkpt lat="49.24526" lon="4.03065">
        <ele>124</ele>
        <time>2020-09-20T11:02:00Z</time>
      </trkpt>
      <trkpt lat="49.2453" lon="4.03061">
        <ele>124</ele>
        <time>2020-09-20T11:02:01Z</time>
      </trkpt>
      <trkpt lat="49.24535" lon="4.03057">
        <ele>125</ele>
        <time>2020-09-20T11:02:02Z</time>
      </trkpt>
      <trkpt lat="49.24539" lon="4.03052">
        <ele>124</ele>
        <time>2020-09-20T11:02:03Z</time>
      </trkpt>
      <trkpt lat="49.24543" lon="4.03048">
        <ele>124</ele>
        <time>2020-09-20T11:02:04Z</time>
      </trkpt>
      <trkpt lat="49.24547" lon="4.03043">
        <ele>124</ele>
        <time>2020-09-20T11:02:05Z</time>
      </trkpt>
      <trkpt lat="49.24551" lon="4.03039">
        <ele>124</ele>
        <time>2020-09-20T11:02:06Z</time>
      </trkpt>
      <trkpt lat="49.24555" lon="4.03034">
        <ele>124</ele>
        <time>2020-09-20T11:02:07Z</time>
      </trkpt>
      <trkpt lat="49.24559" lon="4.0303">
        <ele>124</ele>
        <time>2020-09-20T11:02:08Z</time>
      </trkpt>
      <trkpt lat="49.24563" lon="4.03024">
        <ele>124</ele>
        <time>2020-09-20T11:02:09Z</time>
      </trkpt>
      <trkpt lat="49.24568" lon="4.03019">
        <ele>123</ele>
        <time>2020-09-20T11:02:10Z</time>
      </trkpt>
      <trkpt lat="49.24572" lon="4.03012">
        <ele>123</ele>
        <time>2020-09-20T11:02:11Z</time>
      </trkpt>
      <trkpt lat="49.24577" lon="4.03005">
        <ele>124</ele>
        <time>2020-09-20T11:02:12Z</time>
      </trkpt>
      <trkpt lat="49.2458" lon="4.02998">
        <ele>124</ele>
        <time>2020-09-20T11:02:13Z</time>
      </trkpt>
      <trkpt lat="49.24584" lon="4.02992">
        <ele>125</ele>
        <time>2020-09-20T11:02:14Z</time>
      </trkpt>
      <trkpt lat="49.24586" lon="4.02985">
        <ele>124</ele>
        <time>2020-09-20T11:02:15Z</time>
      </trkpt>
      <trkpt lat="49.24589" lon="4.02978">
        <ele>124</ele>
        <time>2020-09-20T11:02:16Z</time>
      </trkpt>
      <trkpt lat="49.24591" lon="4.02972">
        <ele>124</ele>
        <time>2020-09-20T11:02:17Z</time>
      </trkpt>
      <trkpt lat="49.24594" lon="4.02964">
        <ele>124</ele>
        <time>2020-09-20T11:02:18Z</time>
      </trkpt>
      <trkpt lat="49.24596" lon="4.02956">
        <ele>124</ele>
        <time>2020-09-20T11:02:19Z</time>
      </trkpt>
      <trkpt lat="49.24598" lon="4.02948">
        <ele>124</ele>
        <time>2020-09-20T11:02:20Z</time>
      </trkpt>
      <trkpt lat="49.24601" lon="4.02941">
        <ele>124</ele>
        <time>2020-09-20T11:02:21Z</time>
      </trkpt>
      <trkpt lat="49.24604" lon="4.02934">
        <ele>124</ele>
        <time>2020-09-20T11:02:22Z</time>
      </trkpt>
      <trkpt lat="49.24606" lon="4.02927">
        <ele>124</ele>
        <time>2020-09-20T11:02:23Z</time>
      </trkpt>
      <trkpt lat="49.24609" lon="4.02919">
        <ele>124</ele>
        <time>2020-09-20T11:02:24Z</time>
      </trkpt>
      <trkpt lat="49.24612" lon="4.02913">
        <ele>124</ele>
        <time>2020-09-20T11:02:25Z</time>
      </trkpt>
      <trkpt lat="49.24616" lon="4.02907">
        <ele>124</ele>
        <time>2020-09-20T11:02:26Z</time>
      </trkpt>
      <trkpt lat="49.2462" lon="4.02901">
        <ele>124</ele>
        <time>2020-09-20T11:02:27Z</time>
      </trkpt>
      <trkpt lat="49.24624" lon="4.02896">
        <ele>123</ele>
        <time>2020-09-20T11:02:28Z</time>
      </trkpt>
      <trkpt lat="49.24627" lon="4.0289">
        <ele>123</ele>
        <time>2020-09-20T11:02:29Z</time>
      </trkpt>
      <trkpt lat="49.24631" lon="4.02883">
        <ele>123</ele>
        <time>2020-09-20T11:02:30Z</time>
      </trkpt>
      <trkpt lat="49.24634" lon="4.02878">
        <ele>122</ele>
        <time>2020-09-20T11:02:31Z</time>
      </trkpt>
      <trkpt lat="49.24638" lon="4.02871">
        <ele>122</ele>
        <time>2020-09-20T11:02:32Z</time>
      </trkpt>
      <trkpt lat="49.24641" lon="4.02866">
        <ele>122</ele>
        <time>2020-09-20T11:02:33Z</time>
      </trkpt>
      <trkpt lat="49.24645" lon="4.02859">
        <ele>122</ele>
        <time>2020-09-20T11:02:34Z</time>
      </trkpt>
      <trkpt lat="49.24648" lon="4.02854">
        <ele>122</ele>
        <time>2020-09-20T11:02:35Z</time>
      </trkpt>
      <trkpt lat="49.24653" lon="4.02848">
        <ele>122</ele>
        <time>2020-09-20T11:02:36Z</time>
      </trkpt>
      <trkpt lat="49.24657" lon="4.02842">
        <ele>122</ele>
        <time>2020-09-20T11:02:37Z</time>
      </trkpt>
      <trkpt lat="49.24661" lon="4.02836">
        <ele>122</ele>
        <time>2020-09-20T11:02:38Z</time>
      </trkpt>
      <trkpt lat="49.24665" lon="4.02829">
        <ele>122</ele>
        <time>2020-09-20T11:02:39Z</time>
      </trkpt>
      <trkpt lat="49.24669" lon="4.02822">
        <ele>122</ele>
        <time>2020-09-20T11:02:40Z</time>
      </trkpt>
      <trkpt lat="49.24673" lon="4.02816">
        <ele>122</ele>
        <time>2020-09-20T11:02:41Z</time>
      </trkpt>
      <trkpt lat="49.24677" lon="4.0281">
        <ele>121</ele>
        <time>2020-09-20T11:02:42Z</time>
      </trkpt>
      <trkpt lat="49.24681" lon="4.02803">
        <ele>121</ele>
        <time>2020-09-20T11:02:43Z</time>
      </trkpt>
      <trkpt lat="49.24685" lon="4.02796">
        <ele>122</ele>
        <time>2020-09-20T11:02:44Z</time>
      </trkpt>
      <trkpt lat="49.2469" lon="4.0279">
        <ele>122</ele>
        <time>2020-09-20T11:02:45Z</time>
      </trkpt>
      <trkpt lat="49.24694" lon="4.02783">
        <ele>122</ele>
        <time>2020-09-20T11:02:46Z</time>
      </trkpt>
      <trkpt lat="49.24698" lon="4.02777">
        <ele>122</ele>
        <time>2020-09-20T11:02:47Z</time>
      </trkpt>
      <trkpt lat="49.24702" lon="4.0277">
        <ele>123</ele>
        <time>2020-09-20T11:02:48Z</time>
      </trkpt>
      <trkpt lat="49.24705" lon="4.02763">
        <ele>123</ele>
        <time>2020-09-20T11:02:49Z</time>
      </trkpt>
      <trkpt lat="49.24709" lon="4.02757">
        <ele>122</ele>
        <time>2020-09-20T11:02:50Z</time>
      </trkpt>
      <trkpt lat="49.24713" lon="4.02751">
        <ele>122</ele>
        <time>2020-09-20T11:02:51Z</time>
      </trkpt>
      <trkpt lat="49.24718" lon="4.02745">
        <ele>122</ele>
        <time>2020-09-20T11:02:52Z</time>
      </trkpt>
      <trkpt lat="49.24721" lon="4.02738">
        <ele>122</ele>
        <time>2020-09-20T11:02:53Z</time>
      </trkpt>
      <trkpt lat="49.24725" lon="4.02731">
        <ele>122</ele>
        <time>2020-09-20T11:02:54Z</time>
      </trkpt>
      <trkpt lat="49.24729" lon="4.02724">
        <ele>122</ele>
        <time>2020-09-20T11:02:55Z</time>
      </trkpt>
      <trkpt lat="49.24734" lon="4.02718">
        <ele>123</ele>
        <time>2020-09-20T11:02:56Z</time>
      </trkpt>
      <trkpt lat="49.24738" lon="4.02712">
        <ele>123</ele>
        <time>2020-09-20T11:02:57Z</time>
      </trkpt>
      <trkpt lat="49.24742" lon="4.02705">
        <ele>123</ele>
        <time>2020-09-20T11:02:58Z</time>
      </trkpt>
      <trkpt lat="49.24746" lon="4.02699">
        <ele>123</ele>
        <time>2020-09-20T11:02:59Z</time>
      </trkpt>
      <trkpt lat="49.2475" lon="4.02693">
        <ele>123</ele>
        <time>2020-09-20T11:03:00Z</time>
      </trkpt>
      <trkpt lat="49.24755" lon="4.02687">
        <ele>124</ele>
        <time>2020-09-20T11:03:01Z</time>
      </trkpt>
      <trkpt lat="49.24759" lon="4.0268">
        <ele>123</ele>
        <time>2020-09-20T11:03:02Z</time>
      </trkpt>
      <trkpt lat="49.24763" lon="4.02675">
        <ele>123</ele>
        <time>2020-09-20T11:03:03Z</time>
      </trkpt>
      <trkpt lat="49.24767" lon="4.02668">
        <ele>123</ele>
        <time>2020-09-20T11:03:04Z</time>
      </trkpt>
      <trkpt lat="49.24771" lon="4.02661">
        <ele>123</ele>
        <time>2020-09-20T11:03:05Z</time>
      </trkpt>
      <trkpt lat="49.24776" lon="4.02656">
        <ele>123</ele>
        <time>2020-09-20T11:03:06Z</time>
      </trkpt>
      <trkpt lat="49.2478" lon="4.02649">
        <ele>123</ele>
        <time>2020-09-20T11:03:07Z</time>
      </trkpt>
      <trkpt lat="49.24784" lon="4.02643">
        <ele>123</ele>
        <time>2020-09-20T11:03:08Z</time>
      </trkpt>
      <trkpt lat="49.24789" lon="4.02637">
        <ele>124</ele>
        <time>2020-09-20T11:03:09Z</time>
      </trkpt>
      <trkpt lat="49.24793" lon="4.0263">
        <ele>124</ele>
        <time>2020-09-20T11:03:10Z</time>
      </trkpt>
      <trkpt lat="49.24797" lon="4.02623">
        <ele>124</ele>
        <time>2020-09-20T11:03:11Z</time>
      </trkpt>
      <trkpt lat="49.24801" lon="4.02616">
        <ele>124</ele>
        <time>2020-09-20T11:03:12Z</time>
      </trkpt>
      <trkpt lat="49.24805" lon="4.02609">
        <ele>124</ele>
        <time>2020-09-20T11:03:13Z</time>
      </trkpt>
      <trkpt lat="49.24808" lon="4.02603">
        <ele>124</ele>
        <time>2020-09-20T11:03:14Z</time>
      </trkpt>
      <trkpt lat="49.24812" lon="4.02597">
        <ele>124</ele>
        <time>2020-09-20T11:03:15Z</time>
      </trkpt>
      <trkpt lat="49.24815" lon="4.02592">
        <ele>123</ele>
        <time>2020-09-20T11:03:16Z</time>
      </trkpt>
      <trkpt lat="49.24819" lon="4.02587">
        <ele>123</ele>
        <time>2020-09-20T11:03:17Z</time>
      </trkpt>
      <trkpt lat="49.24822" lon="4.02581">
        <ele>123</ele>
        <time>2020-09-20T11:03:18Z</time>
      </trkpt>
      <trkpt lat="49.24825" lon="4.02576">
        <ele>123</ele>
        <time>2020-09-20T11:03:19Z</time>
      </trkpt>
      <trkpt lat="49.24828" lon="4.02572">
        <ele>122</ele>
        <time>2020-09-20T11:03:20Z</time>
      </trkpt>
      <trkpt lat="49.24831" lon="4.02567">
        <ele>122</ele>
        <time>2020-09-20T11:03:21Z</time>
      </trkpt>
      <trkpt lat="49.24835" lon="4.02562">
        <ele>122</ele>
        <time>2020-09-20T11:03:22Z</time>
      </trkpt>
      <trkpt lat="49.24838" lon="4.02557">
        <ele>122</ele>
        <time>2020-09-20T11:03:23Z</time>
      </trkpt>
      <trkpt lat="49.2484" lon="4.02551">
        <ele>122</ele>
        <time>2020-09-20T11:03:24Z</time>
      </trkpt>
      <trkpt lat="49.24843" lon="4.02544">
        <ele>122</ele>
        <time>2020-09-20T11:03:25Z</time>
      </trkpt>
      <trkpt lat="49.24847" lon="4.02539">
        <ele>122</ele>
        <time>2020-09-20T11:03:26Z</time>
      </trkpt>
      <trkpt lat="49.2485" lon="4.02533">
        <ele>122</ele>
        <time>2020-09-20T11:03:27Z</time>
      </trkpt>
      <trkpt lat="49.24854" lon="4.02527">
        <ele>122</ele>
        <time>2020-09-20T11:03:28Z</time>
      </trkpt>
      <trkpt lat="49.24858" lon="4.02521">
        <ele>122</ele>
        <time>2020-09-20T11:03:29Z</time>
      </trkpt>
      <trkpt lat="49.24862" lon="4.02516">
        <ele>122</ele>
        <time>2020-09-20T11:03:30Z</time>
      </trkpt>
      <trkpt lat="49.24867" lon="4.0251">
        <ele>122</ele>
        <time>2020-09-20T11:03:31Z</time>
      </trkpt>
      <trkpt lat="49.24872" lon="4.02505">
        <ele>122</ele>
        <time>2020-09-20T11:03:32Z</time>
      </trkpt>
      <trkpt lat="49.24876" lon="4.02498">
        <ele>122</ele>
        <time>2020-09-20T11:03:33Z</time>
      </trkpt>
      <trkpt lat="49.2488" lon="4.02492">
        <ele>122</ele>
        <time>2020-09-20T11:03:34Z</time>
      </trkpt>
      <trkpt lat="49.24884" lon="4.02486">
        <ele>121</ele>
        <time>2020-09-20T11:03:35Z</time>
      </trkpt>
      <trkpt lat="49.24888" lon="4.02479">
        <ele>122</ele>
        <time>2020-09-20T11:03:36Z</time>
      </trkpt>
      <trkpt lat="49.24892" lon="4.02473">
        <ele>122</ele>
        <time>2020-09-20T11:03:37Z</time>
      </trkpt>
      <trkpt lat="49.24897" lon="4.02467">
        <ele>122</ele>
        <time>2020-09-20T11:03:38Z</time>
      </trkpt>
      <trkpt lat="49.24901" lon="4.02462">
        <ele>122</ele>
        <time>2020-09-20T11:03:39Z</time>
      </trkpt>
      <trkpt lat="49.24906" lon="4.02456">
        <ele>122</ele>
        <time>2020-09-20T11:03:40Z</time>
      </trkpt>
      <trkpt lat="49.24911" lon="4.02451">
        <ele>122</ele>
        <time>2020-09-20T11:03:41Z</time>
      </trkpt>
      <trkpt lat="49.24916" lon="4.02446">
        <ele>122</ele>
        <time>2020-09-20T11:03:42Z</time>
      </trkpt>
      <trkpt lat="49.24921" lon="4.02439">
        <ele>122</ele>
        <time>2020-09-20T11:03:43Z</time>
      </trkpt>
      <trkpt lat="49.24926" lon="4.02433">
        <ele>122</ele>
        <time>2020-09-20T11:03:44Z</time>
      </trkpt>
      <trkpt lat="49.24931" lon="4.02427">
        <ele>122</ele>
        <time>2020-09-20T11:03:45Z</time>
      </trkpt>
      <trkpt lat="49.24936" lon="4.02421">
        <ele>122</ele>
        <time>2020-09-20T11:03:46Z</time>
      </trkpt>
      <trkpt lat="49.24941" lon="4.02414">
        <ele>123</ele>
        <time>2020-09-20T11:03:47Z</time>
      </trkpt>
      <trkpt lat="49.24946" lon="4.02408">
        <ele>123</ele>
        <time>2020-09-20T11:03:48Z</time>
      </trkpt>
      <trkpt lat="49.24951" lon="4.02401">
        <ele>123</ele>
        <time>2020-09-20T11:03:49Z</time>
      </trkpt>
      <trkpt lat="49.24955" lon="4.02394">
        <ele>122</ele>
        <time>2020-09-20T11:03:50Z</time>
      </trkpt>
      <trkpt lat="49.2496" lon="4.02387">
        <ele>122</ele>
        <time>2020-09-20T11:03:51Z</time>
      </trkpt>
      <trkpt lat="49.24965" lon="4.02381">
        <ele>122</ele>
        <time>2020-09-20T11:03:52Z</time>
      </trkpt>
      <trkpt lat="49.24969" lon="4.02374">
        <ele>122</ele>
        <time>2020-09-20T11:03:53Z</time>
      </trkpt>
      <trkpt lat="49.24974" lon="4.02368">
        <ele>121</ele>
        <time>2020-09-20T11:03:54Z</time>
      </trkpt>
      <trkpt lat="49.24978" lon="4.02362">
        <ele>121</ele>
        <time>2020-09-20T11:03:55Z</time>
      </trkpt>
      <trkpt lat="49.24983" lon="4.02356">
        <ele>121</ele>
        <time>2020-09-20T11:03:56Z</time>
      </trkpt>
      <trkpt lat="49.24987" lon="4.0235">
        <ele>121</ele>
        <time>2020-09-20T11:03:57Z</time>
      </trkpt>
      <trkpt lat="49.24991" lon="4.02344">
        <ele>121</ele>
        <time>2020-09-20T11:03:58Z</time>
      </trkpt>
      <trkpt lat="49.24995" lon="4.02338">
        <ele>121</ele>
        <time>2020-09-20T11:03:59Z</time>
      </trkpt>
      <trkpt lat="49.25" lon="4.02332">
        <ele>121</ele>
        <time>2020-09-20T11:04:00Z</time>
      </trkpt>
      <trkpt lat="49.25004" lon="4.02327">
        <ele>121</ele>
        <time>2020-09-20T11:04:01Z</time>
      </trkpt>
      <trkpt lat="49.25008" lon="4.02321">
        <ele>121</ele>
        <time>2020-09-20T11:04:02Z</time>
      </trkpt>
      <trkpt lat="49.25012" lon="4.02315">
        <ele>121</ele>
        <time>2020-09-20T11:04:03Z</time>
      </trkpt>
      <trkpt lat="49.25016" lon="4.02309">
        <ele>121</ele>
        <time>2020-09-20T11:04:04Z</time>
      </trkpt>
      <trkpt lat="49.2502" lon="4.02304">
        <ele>121</ele>
        <time>2020-09-20T11:04:05Z</time>
      </trkpt>
      <trkpt lat="49.25023" lon="4.02299">
        <ele>121</ele>
        <time>2020-09-20T11:04:06Z</time>
      </trkpt>
      <trkpt lat="49.25027" lon="4.02294">
        <ele>121</ele>
        <time>2020-09-20T11:04:07Z</time>
      </trkpt>
      <trkpt lat="49.25031" lon="4.02289">
        <ele>121</ele>
        <time>2020-09-20T11:04:08Z</time>
      </trkpt>
      <trkpt lat="49.25034" lon="4.02285">
        <ele>121</ele>
        <time>2020-09-20T11:04:09Z</time>
      </trkpt>
      <trkpt lat="49.25038" lon="4.0228">
        <ele>121</ele>
        <time>2020-09-20T11:04:10Z</time>
      </trkpt>
      <trkpt lat="49.25041" lon="4.02275">
        <ele>121</ele>
        <time>2020-09-20T11:04:11Z</time>
      </trkpt>
      <trkpt lat="49.25044" lon="4.0227">
        <ele>121</ele>
        <time>2020-09-20T11:04:12Z</time>
      </trkpt>
      <trkpt lat="49.25047" lon="4.02266">
        <ele>121</ele>
        <time>2020-09-20T11:04:13Z</time>
      </trkpt>
      <trkpt lat="49.2505" lon="4.02262">
        <ele>121</ele>
        <time>2020-09-20T11:04:14Z</time>
      </trkpt>
      <trkpt lat="49.25053" lon="4.02257">
        <ele>121</ele>
        <time>2020-09-20T11:04:15Z</time>
      </trkpt>
      <trkpt lat="49.25056" lon="4.02253">
        <ele>121</ele>
        <time>2020-09-20T11:04:16Z</time>
      </trkpt>
      <trkpt lat="49.25059" lon="4.02249">
        <ele>121</ele>
        <time>2020-09-20T11:04:17Z</time>
      </trkpt>
      <trkpt lat="49.25062" lon="4.02245">
        <ele>121</ele>
        <time>2020-09-20T11:04:18Z</time>
      </trkpt>
      <trkpt lat="49.25065" lon="4.02241">
        <ele>121</ele>
        <time>2020-09-20T11:04:19Z</time>
      </trkpt>
      <trkpt lat="49.25068" lon="4.02237">
        <ele>121</ele>
        <time>2020-09-20T11:04:20Z</time>
      </trkpt>
      <trkpt lat="49.25071" lon="4.02233">
        <ele>122</ele>
        <time>2020-09-20T11:04:21Z</time>
      </trkpt>
      <trkpt lat="49.25074" lon="4.02228">
        <ele>121</ele>
        <time>2020-09-20T11:04:22Z</time>
      </trkpt>
      <trkpt lat="49.25076" lon="4.02224">
        <ele>121</ele>
        <time>2020-09-20T11:04:23Z</time>
      </trkpt>
      <trkpt lat="49.25079" lon="4.0222">
        <ele>121</ele>
        <time>2020-09-20T11:04:24Z</time>
      </trkpt>
      <trkpt lat="49.25081" lon="4.02215">
        <ele>121</ele>
        <time>2020-09-20T11:04:25Z</time>
      </trkpt>
      <trkpt lat="49.25083" lon="4.02212">
        <ele>121</ele>
        <time>2020-09-20T11:04:26Z</time>
      </trkpt>
      <trkpt lat="49.25084" lon="4.0221">
        <ele>121</ele>
        <time>2020-09-20T11:04:27Z</time>
      </trkpt>
      <trkpt lat="49.25084" lon="4.02209">
        <ele>122</ele>
        <time>2020-09-20T11:04:28Z</time>
      </trkpt>
      <trkpt lat="49.25084" lon="4.02209">
        <ele>122</ele>
        <time>2020-09-20T11:04:29Z</time>
      </trkpt>
      <trkpt lat="49.25084" lon="4.02209">
        <ele>122</ele>
        <time>2020-09-20T11:04:30Z</time>
      </trkpt>
      <trkpt lat="49.25085" lon="4.02208">
        <ele>122</ele>
        <time>2020-09-20T11:04:31Z</time>
      </trkpt>
      <trkpt lat="49.25085" lon="4.02207">
        <ele>122</ele>
        <time>2020-09-20T11:04:32Z</time>
      </trkpt>
      <trkpt lat="49.25086" lon="4.02206">
        <ele>123</ele>
        <time>2020-09-20T11:04:33Z</time>
      </trkpt>
      <trkpt lat="49.25086" lon="4.02205">
        <ele>123</ele>
        <time>2020-09-20T11:04:34Z</time>
      </trkpt>
      <trkpt lat="49.25086" lon="4.02205">
        <ele>123</ele>
        <time>2020-09-20T11:04:35Z</time>
      </trkpt>
      <trkpt lat="49.25086" lon="4.02205">
        <ele>123</ele>
        <time>2020-09-20T11:04:36Z</time>
      </trkpt>
      <trkpt lat="49.25086" lon="4.02205">
        <ele>123</ele>
        <time>2020-09-20T11:04:37Z</time>
      </trkpt>
      <trkpt lat="49.25086" lon="4.02205">
        <ele>123</ele>
        <time>2020-09-20T11:04:38Z</time>
      </trkpt>
      <trkpt lat="49.25086" lon="4.02205">
        <ele>123</ele>
        <time>2020-09-20T11:04:39Z</time>
      </trkpt>
      <trkpt lat="49.25086" lon="4.02205">
        <ele>123</ele>
        <time>2020-09-20T11:04:40Z</time>
      </trkpt>
      <trkpt lat="49.25086" lon="4.02205">
        <ele>123</ele>
        <time>2020-09-20T11:04:41Z</time>
      </trkpt>
      <trkpt lat="49.25086" lon="4.02205">
        <ele>123</ele>
        <time>2020-09-20T11:04:42Z</time>
      </trkpt>
      <trkpt lat="49.25086" lon="4.02205">
        <ele>123</ele>
        <time>2020-09-20T11:04:43Z</time>
      </trkpt>
      <trkpt lat="49.25087" lon="4.02203">
        <ele>123</ele>
        <time>2020-09-20T11:04:44Z</time>
      </trkpt>
      <trkpt lat="49.25088" lon="4.02201">
        <ele>124</ele>
        <time>2020-09-20T11:04:45Z</time>
      </trkpt>
      <trkpt lat="49.25089" lon="4.02201">
        <ele>124</ele>
        <time>2020-09-20T11:04:46Z</time>
      </trkpt>
      <trkpt lat="49.25089" lon="4.022">
        <ele>125</ele>
        <time>2020-09-20T11:04:47Z</time>
      </trkpt>
      <trkpt lat="49.25089" lon="4.022">
        <ele>125</ele>
        <time>2020-09-20T11:04:48Z</time>
      </trkpt>
      <trkpt lat="49.25089" lon="4.022">
        <ele>125</ele>
        <time>2020-09-20T11:04:49Z</time>
      </trkpt>
      <trkpt lat="49.2509" lon="4.02198">
        <ele>125</ele>
        <time>2020-09-20T11:04:50Z</time>
      </trkpt>
      <trkpt lat="49.2509" lon="4.02197">
        <ele>125</ele>
        <time>2020-09-20T11:04:51Z</time>
      </trkpt>
      <trkpt lat="49.2509" lon="4.02196">
        <ele>125</ele>
        <time>2020-09-20T11:04:52Z</time>
      </trkpt>
      <trkpt lat="49.2509" lon="4.02196">
        <ele>125</ele>
        <time>2020-09-20T11:04:53Z</time>
      </trkpt>
      <trkpt lat="49.25091" lon="4.02195">
        <ele>125</ele>
        <time>2020-09-20T11:04:54Z</time>
      </trkpt>
      <trkpt lat="49.25091" lon="4.02195">
        <ele>125</ele>
        <time>2020-09-20T11:04:55Z</time>
      </trkpt>
      <trkpt lat="49.25091" lon="4.02195">
        <ele>125</ele>
        <time>2020-09-20T11:04:56Z</time>
      </trkpt>
      <trkpt lat="49.25091" lon="4.02195">
        <ele>125</ele>
        <time>2020-09-20T11:04:57Z</time>
      </trkpt>
      <trkpt lat="49.25091" lon="4.02193">
        <ele>125</ele>
        <time>2020-09-20T11:04:58Z</time>
      </trkpt>
      <trkpt lat="49.25091" lon="4.02191">
        <ele>126</ele>
        <time>2020-09-20T11:04:59Z</time>
      </trkpt>
      <trkpt lat="49.25091" lon="4.02192">
        <ele>126</ele>
        <time>2020-09-20T11:05:00Z</time>
      </trkpt>
      <trkpt lat="49.25092" lon="4.02191">
        <ele>126</ele>
        <time>2020-09-20T11:05:01Z</time>
      </trkpt>
      <trkpt lat="49.25092" lon="4.0219">
        <ele>126</ele>
        <time>2020-09-20T11:05:02Z</time>
      </trkpt>
      <trkpt lat="49.25092" lon="4.02189">
        <ele>127</ele>
        <time>2020-09-20T11:05:03Z</time>
      </trkpt>
      <trkpt lat="49.25092" lon="4.02187">
        <ele>126</ele>
        <time>2020-09-20T11:05:04Z</time>
      </trkpt>
      <trkpt lat="49.25091" lon="4.02184">
        <ele>126</ele>
        <time>2020-09-20T11:05:05Z</time>
      </trkpt>
      <trkpt lat="49.2509" lon="4.02181">
        <ele>127</ele>
        <time>2020-09-20T11:05:06Z</time>
      </trkpt>
      <trkpt lat="49.25089" lon="4.02177">
        <ele>127</ele>
        <time>2020-09-20T11:05:07Z</time>
      </trkpt>
      <trkpt lat="49.25087" lon="4.02172">
        <ele>127</ele>
        <time>2020-09-20T11:05:08Z</time>
      </trkpt>
      <trkpt lat="49.25085" lon="4.02167">
        <ele>127</ele>
        <time>2020-09-20T11:05:09Z</time>
      </trkpt>
      <trkpt lat="49.25083" lon="4.02163">
        <ele>127</ele>
        <time>2020-09-20T11:05:10Z</time>
      </trkpt>
      <trkpt lat="49.25081" lon="4.02158">
        <ele>126</ele>
        <time>2020-09-20T11:05:11Z</time>
      </trkpt>
      <trkpt lat="49.25079" lon="4.02152">
        <ele>126</ele>
        <time>2020-09-20T11:05:12Z</time>
      </trkpt>
      <trkpt lat="49.25077" lon="4.02147">
        <ele>126</ele>
        <time>2020-09-20T11:05:13Z</time>
      </trkpt>
      <trkpt lat="49.25074" lon="4.02141">
        <ele>125</ele>
        <time>2020-09-20T11:05:14Z</time>
      </trkpt>
      <trkpt lat="49.25072" lon="4.02135">
        <ele>125</ele>
        <time>2020-09-20T11:05:15Z</time>
      </trkpt>
      <trkpt lat="49.2507" lon="4.02129">
        <ele>125</ele>
        <time>2020-09-20T11:05:16Z</time>
      </trkpt>
      <trkpt lat="49.25068" lon="4.02122">
        <ele>125</ele>
        <time>2020-09-20T11:05:17Z</time>
      </trkpt>
      <trkpt lat="49.25064" lon="4.02115">
        <ele>124</ele>
        <time>2020-09-20T11:05:18Z</time>
      </trkpt>
      <trkpt lat="49.25061" lon="4.02108">
        <ele>124</ele>
        <time>2020-09-20T11:05:19Z</time>
      </trkpt>
      <trkpt lat="49.25057" lon="4.02101">
        <ele>124</ele>
        <time>2020-09-20T11:05:20Z</time>
      </trkpt>
      <trkpt lat="49.25055" lon="4.02094">
        <ele>124</ele>
        <time>2020-09-20T11:05:21Z</time>
      </trkpt>
      <trkpt lat="49.25052" lon="4.02086">
        <ele>124</ele>
        <time>2020-09-20T11:05:22Z</time>
      </trkpt>
      <trkpt lat="49.25049" lon="4.02077">
        <ele>124</ele>
        <time>2020-09-20T11:05:23Z</time>
      </trkpt>
      <trkpt lat="49.25047" lon="4.02068">
        <ele>124</ele>
        <time>2020-09-20T11:05:24Z</time>
      </trkpt>
      <trkpt lat="49.25045" lon="4.02059">
        <ele>125</ele>
        <time>2020-09-20T11:05:25Z</time>
      </trkpt>
      <trkpt lat="49.25043" lon="4.02051">
        <ele>124</ele>
        <time>2020-09-20T11:05:26Z</time>
      </trkpt>
      <trkpt lat="49.2504" lon="4.02042">
        <ele>124</ele>
        <time>2020-09-20T11:05:27Z</time>
      </trkpt>
      <trkpt lat="49.25038" lon="4.02034">
        <ele>124</ele>
        <time>2020-09-20T11:05:28Z</time>
      </trkpt>
      <trkpt lat="49.25035" lon="4.02026">
        <ele>124</ele>
        <time>2020-09-20T11:05:29Z</time>
      </trkpt>
      <trkpt lat="49.25032" lon="4.02019">
        <ele>124</ele>
        <time>2020-09-20T11:05:30Z</time>
      </trkpt>
      <trkpt lat="49.25028" lon="4.02013">
        <ele>124</ele>
        <time>2020-09-20T11:05:31Z</time>
      </trkpt>
      <trkpt lat="49.25025" lon="4.02005">
        <ele>123</ele>
        <time>2020-09-20T11:05:32Z</time>
      </trkpt>
      <trkpt lat="49.25022" lon="4.01998">
        <ele>123</ele>
        <time>2020-09-20T11:05:33Z</time>
      </trkpt>
      <trkpt lat="49.2502" lon="4.01991">
        <ele>123</ele>
        <time>2020-09-20T11:05:34Z</time>
      </trkpt>
      <trkpt lat="49.25017" lon="4.01984">
        <ele>123</ele>
        <time>2020-09-20T11:05:35Z</time>
      </trkpt>
      <trkpt lat="49.25014" lon="4.01979">
        <ele>123</ele>
        <time>2020-09-20T11:05:36Z</time>
      </trkpt>
      <trkpt lat="49.25011" lon="4.01973">
        <ele>123</ele>
        <time>2020-09-20T11:05:37Z</time>
      </trkpt>
      <trkpt lat="49.25008" lon="4.01968">
        <ele>123</ele>
        <time>2020-09-20T11:05:38Z</time>
      </trkpt>
      <trkpt lat="49.25004" lon="4.01964">
        <ele>125</ele>
        <time>2020-09-20T11:05:39Z</time>
      </trkpt>
      <trkpt lat="49.25002" lon="4.0196">
        <ele>125</ele>
        <time>2020-09-20T11:05:40Z</time>
      </trkpt>
      <trkpt lat="49.24999" lon="4.01953">
        <ele>125</ele>
        <time>2020-09-20T11:05:41Z</time>
      </trkpt>
      <trkpt lat="49.24998" lon="4.01948">
        <ele>126</ele>
        <time>2020-09-20T11:05:42Z</time>
      </trkpt>
      <trkpt lat="49.24999" lon="4.01945">
        <ele>126</ele>
        <time>2020-09-20T11:05:43Z</time>
      </trkpt>
      <trkpt lat="49.24999" lon="4.01941">
        <ele>126</ele>
        <time>2020-09-20T11:05:44Z</time>
      </trkpt>
      <trkpt lat="49.25" lon="4.01937">
        <ele>126</ele>
        <time>2020-09-20T11:05:45Z</time>
      </trkpt>
      <trkpt lat="49.25" lon="4.01934">
        <ele>126</ele>
        <time>2020-09-20T11:05:46Z</time>
      </trkpt>
      <trkpt lat="49.25" lon="4.0193">
        <ele>126</ele>
        <time>2020-09-20T11:05:47Z</time>
      </trkpt>
      <trkpt lat="49.24999" lon="4.01926">
        <ele>126</ele>
        <time>2020-09-20T11:05:48Z</time>
      </trkpt>
      <trkpt lat="49.24998" lon="4.01922">
        <ele>127</ele>
        <time>2020-09-20T11:05:49Z</time>
      </trkpt>
      <trkpt lat="49.24998" lon="4.01919">
        <ele>126</ele>
        <time>2020-09-20T11:05:50Z</time>
      </trkpt>
      <trkpt lat="49.24997" lon="4.01916">
        <ele>126</ele>
        <time>2020-09-20T11:05:51Z</time>
      </trkpt>
      <trkpt lat="49.24997" lon="4.01914">
        <ele>126</ele>
        <time>2020-09-20T11:05:52Z</time>
      </trkpt>
      <trkpt lat="49.24996" lon="4.01912">
        <ele>126</ele>
        <time>2020-09-20T11:05:53Z</time>
      </trkpt>
      <trkpt lat="49.24996" lon="4.0191">
        <ele>126</ele>
        <time>2020-09-20T11:05:54Z</time>
      </trkpt>
      <trkpt lat="49.24996" lon="4.01909">
        <ele>126</ele>
        <time>2020-09-20T11:05:55Z</time>
      </trkpt>
      <trkpt lat="49.24996" lon="4.01907">
        <ele>127</ele>
        <time>2020-09-20T11:05:56Z</time>
      </trkpt>
      <trkpt lat="49.24996" lon="4.01905">
        <ele>127</ele>
        <time>2020-09-20T11:05:57Z</time>
      </trkpt>
      <trkpt lat="49.24996" lon="4.01904">
        <ele>127</ele>
        <time>2020-09-20T11:05:58Z</time>
      </trkpt>
      <trkpt lat="49.24996" lon="4.01903">
        <ele>128</ele>
        <time>2020-09-20T11:05:59Z</time>
      </trkpt>
      <trkpt lat="49.24996" lon="4.01903">
        <ele>128</ele>
        <time>2020-09-20T11:06:00Z</time>
      </trkpt>
      <trkpt lat="49.24996" lon="4.01902">
        <ele>128</ele>
        <time>2020-09-20T11:06:01Z</time>
      </trkpt>
      <trkpt lat="49.24996" lon="4.01902">
        <ele>128</ele>
        <time>2020-09-20T11:06:02Z</time>
      </trkpt>
      <trkpt lat="49.24996" lon="4.01902">
        <ele>128</ele>
        <time>2020-09-20T11:06:03Z</time>
      </trkpt>
      <trkpt lat="49.24996" lon="4.01902">
        <ele>128</ele>
        <time>2020-09-20T11:06:04Z</time>
      </trkpt>
      <trkpt lat="49.24996" lon="4.01902">
        <ele>128</ele>
        <time>2020-09-20T11:06:05Z</time>
      </trkpt>
      <trkpt lat="49.24996" lon="4.01902">
        <ele>128</ele>
        <time>2020-09-20T11:06:06Z</time>
      </trkpt>
      <trkpt lat="49.24996" lon="4.01902">
        <ele>128</ele>
        <time>2020-09-20T11:06:07Z</time>
      </trkpt>
      <trkpt lat="49.24996" lon="4.01902">
        <ele>128</ele>
        <time>2020-09-20T11:06:08Z</time>
      </trkpt>
      <trkpt lat="49.24996" lon="4.01901">
        <ele>128</ele>
        <time>2020-09-20T11:06:09Z</time>
      </trkpt>
      <trkpt lat="49.24995" lon="4.01899">
        <ele>128</ele>
        <time>2020-09-20T11:06:10Z</time>
      </trkpt>
      <trkpt lat="49.24995" lon="4.01896">
        <ele>128</ele>
        <time>2020-09-20T11:06:11Z</time>
      </trkpt>
      <trkpt lat="49.24994" lon="4.01892">
        <ele>128</ele>
        <time>2020-09-20T11:06:12Z</time>
      </trkpt>
      <trkpt lat="49.24993" lon="4.01888">
        <ele>128</ele>
        <time>2020-09-20T11:06:13Z</time>
      </trkpt>
      <trkpt lat="49.24993" lon="4.01884">
        <ele>128</ele>
        <time>2020-09-20T11:06:14Z</time>
      </trkpt>
      <trkpt lat="49.24992" lon="4.01879">
        <ele>129</ele>
        <time>2020-09-20T11:06:15Z</time>
      </trkpt>
      <trkpt lat="49.24992" lon="4.01874">
        <ele>129</ele>
        <time>2020-09-20T11:06:16Z</time>
      </trkpt>
      <trkpt lat="49.24991" lon="4.01869">
        <ele>129</ele>
        <time>2020-09-20T11:06:17Z</time>
      </trkpt>
      <trkpt lat="49.2499" lon="4.01864">
        <ele>130</ele>
        <time>2020-09-20T11:06:18Z</time>
      </trkpt>
      <trkpt lat="49.24989" lon="4.01858">
        <ele>131</ele>
        <time>2020-09-20T11:06:19Z</time>
      </trkpt>
      <trkpt lat="49.24987" lon="4.01854">
        <ele>131</ele>
        <time>2020-09-20T11:06:20Z</time>
      </trkpt>
      <trkpt lat="49.24986" lon="4.0185">
        <ele>132</ele>
        <time>2020-09-20T11:06:21Z</time>
      </trkpt>
      <trkpt lat="49.24985" lon="4.01845">
        <ele>132</ele>
        <time>2020-09-20T11:06:22Z</time>
      </trkpt>
      <trkpt lat="49.24984" lon="4.01843">
        <ele>132</ele>
        <time>2020-09-20T11:06:23Z</time>
      </trkpt>
      <trkpt lat="49.24983" lon="4.0184">
        <ele>133</ele>
        <time>2020-09-20T11:06:24Z</time>
      </trkpt>
      <trkpt lat="49.24982" lon="4.01836">
        <ele>133</ele>
        <time>2020-09-20T11:06:25Z</time>
      </trkpt>
      <trkpt lat="49.24981" lon="4.0183">
        <ele>134</ele>
        <time>2020-09-20T11:06:26Z</time>
      </trkpt>
      <trkpt lat="49.2498" lon="4.01825">
        <ele>135</ele>
        <time>2020-09-20T11:06:27Z</time>
      </trkpt>
      <trkpt lat="49.24978" lon="4.01818">
        <ele>135</ele>
        <time>2020-09-20T11:06:28Z</time>
      </trkpt>
      <trkpt lat="49.24976" lon="4.0181">
        <ele>138</ele>
        <time>2020-09-20T11:06:29Z</time>
      </trkpt>
      <trkpt lat="49.24973" lon="4.01803">
        <ele>140</ele>
        <time>2020-09-20T11:06:30Z</time>
      </trkpt>
      <trkpt lat="49.24971" lon="4.01796">
        <ele>141</ele>
        <time>2020-09-20T11:06:31Z</time>
      </trkpt>
      <trkpt lat="49.2497" lon="4.01789">
        <ele>141</ele>
        <time>2020-09-20T11:06:32Z</time>
      </trkpt>
      <trkpt lat="49.24968" lon="4.01782">
        <ele>141</ele>
        <time>2020-09-20T11:06:33Z</time>
      </trkpt>
      <trkpt lat="49.24966" lon="4.01775">
        <ele>141</ele>
        <time>2020-09-20T11:06:34Z</time>
      </trkpt>
      <trkpt lat="49.24964" lon="4.0177">
        <ele>141</ele>
        <time>2020-09-20T11:06:35Z</time>
      </trkpt>
      <trkpt lat="49.24961" lon="4.01764">
        <ele>140</ele>
        <time>2020-09-20T11:06:36Z</time>
      </trkpt>
      <trkpt lat="49.24959" lon="4.01757">
        <ele>140</ele>
        <time>2020-09-20T11:06:37Z</time>
      </trkpt>
      <trkpt lat="49.24957" lon="4.0175">
        <ele>140</ele>
        <time>2020-09-20T11:06:38Z</time>
      </trkpt>
      <trkpt lat="49.24953" lon="4.01743">
        <ele>140</ele>
        <time>2020-09-20T11:06:39Z</time>
      </trkpt>
      <trkpt lat="49.24951" lon="4.01736">
        <ele>139</ele>
        <time>2020-09-20T11:06:40Z</time>
      </trkpt>
      <trkpt lat="49.24949" lon="4.0173">
        <ele>139</ele>
        <time>2020-09-20T11:06:41Z</time>
      </trkpt>
      <trkpt lat="49.24947" lon="4.01724">
        <ele>139</ele>
        <time>2020-09-20T11:06:42Z</time>
      </trkpt>
      <trkpt lat="49.24945" lon="4.01718">
        <ele>139</ele>
        <time>2020-09-20T11:06:43Z</time>
      </trkpt>
      <trkpt lat="49.24942" lon="4.01711">
        <ele>139</ele>
        <time>2020-09-20T11:06:44Z</time>
      </trkpt>
      <trkpt lat="49.24939" lon="4.01706">
        <ele>139</ele>
        <time>2020-09-20T11:06:45Z</time>
      </trkpt>
      <trkpt lat="49.24936" lon="4.01701">
        <ele>139</ele>
        <time>2020-09-20T11:06:46Z</time>
      </trkpt>
      <trkpt lat="49.24934" lon="4.01695">
        <ele>138</ele>
        <time>2020-09-20T11:06:47Z</time>
      </trkpt>
      <trkpt lat="49.24932" lon="4.01688">
        <ele>137</ele>
        <time>2020-09-20T11:06:48Z</time>
      </trkpt>
      <trkpt lat="49.2493" lon="4.01682">
        <ele>137</ele>
        <time>2020-09-20T11:06:49Z</time>
      </trkpt>
      <trkpt lat="49.24929" lon="4.01675">
        <ele>136</ele>
        <time>2020-09-20T11:06:50Z</time>
      </trkpt>
      <trkpt lat="49.24924" lon="4.01665">
        <ele>135</ele>
        <time>2020-09-20T11:06:52Z</time>
      </trkpt>
      <trkpt lat="49.2492" lon="4.01661">
        <ele>133</ele>
        <time>2020-09-20T11:06:53Z</time>
      </trkpt>
      <trkpt lat="49.24918" lon="4.01658">
        <ele>132</ele>
        <time>2020-09-20T11:06:54Z</time>
      </trkpt>
      <trkpt lat="49.24918" lon="4.01652">
        <ele>132</ele>
        <time>2020-09-20T11:06:55Z</time>
      </trkpt>
      <trkpt lat="49.24917" lon="4.01648">
        <ele>132</ele>
        <time>2020-09-20T11:06:56Z</time>
      </trkpt>
      <trkpt lat="49.24917" lon="4.01643">
        <ele>131</ele>
        <time>2020-09-20T11:06:57Z</time>
      </trkpt>
      <trkpt lat="49.24916" lon="4.01638">
        <ele>131</ele>
        <time>2020-09-20T11:06:58Z</time>
      </trkpt>
      <trkpt lat="49.24915" lon="4.01632">
        <ele>131</ele>
        <time>2020-09-20T11:06:59Z</time>
      </trkpt>
      <trkpt lat="49.24914" lon="4.01627">
        <ele>131</ele>
        <time>2020-09-20T11:07:00Z</time>
      </trkpt>
      <trkpt lat="49.24913" lon="4.0162">
        <ele>130</ele>
        <time>2020-09-20T11:07:01Z</time>
      </trkpt>
      <trkpt lat="49.24912" lon="4.01613">
        <ele>130</ele>
        <time>2020-09-20T11:07:02Z</time>
      </trkpt>
      <trkpt lat="49.24911" lon="4.01606">
        <ele>130</ele>
        <time>2020-09-20T11:07:03Z</time>
      </trkpt>
      <trkpt lat="49.24911" lon="4.016">
        <ele>130</ele>
        <time>2020-09-20T11:07:04Z</time>
      </trkpt>
      <trkpt lat="49.2491" lon="4.01593">
        <ele>129</ele>
        <time>2020-09-20T11:07:05Z</time>
      </trkpt>
      <trkpt lat="49.24909" lon="4.01587">
        <ele>129</ele>
        <time>2020-09-20T11:07:06Z</time>
      </trkpt>
      <trkpt lat="49.24908" lon="4.01581">
        <ele>129</ele>
        <time>2020-09-20T11:07:07Z</time>
      </trkpt>
      <trkpt lat="49.24907" lon="4.01575">
        <ele>129</ele>
        <time>2020-09-20T11:07:08Z</time>
      </trkpt>
      <trkpt lat="49.24906" lon="4.01568">
        <ele>128</ele>
        <time>2020-09-20T11:07:09Z</time>
      </trkpt>
      <trkpt lat="49.24906" lon="4.01562">
        <ele>128</ele>
        <time>2020-09-20T11:07:10Z</time>
      </trkpt>
      <trkpt lat="49.24906" lon="4.01558">
        <ele>128</ele>
        <time>2020-09-20T11:07:11Z</time>
      </trkpt>
      <trkpt lat="49.24905" lon="4.01549">
        <ele>128</ele>
        <time>2020-09-20T11:07:13Z</time>
      </trkpt>
      <trkpt lat="49.24904" lon="4.01544">
        <ele>128</ele>
        <time>2020-09-20T11:07:14Z</time>
      </trkpt>
      <trkpt lat="49.24903" lon="4.01539">
        <ele>128</ele>
        <time>2020-09-20T11:07:15Z</time>
      </trkpt>
      <trkpt lat="49.24902" lon="4.01534">
        <ele>129</ele>
        <time>2020-09-20T11:07:16Z</time>
      </trkpt>
      <trkpt lat="49.24901" lon="4.01528">
        <ele>130</ele>
        <time>2020-09-20T11:07:17Z</time>
      </trkpt>
      <trkpt lat="49.24898" lon="4.01524">
        <ele>130</ele>
        <time>2020-09-20T11:07:18Z</time>
      </trkpt>
      <trkpt lat="49.24895" lon="4.0152">
        <ele>130</ele>
        <time>2020-09-20T11:07:19Z</time>
      </trkpt>
      <trkpt lat="49.24892" lon="4.01515">
        <ele>130</ele>
        <time>2020-09-20T11:07:20Z</time>
      </trkpt>
      <trkpt lat="49.24889" lon="4.01511">
        <ele>130</ele>
        <time>2020-09-20T11:07:21Z</time>
      </trkpt>
      <trkpt lat="49.24884" lon="4.01509">
        <ele>130</ele>
        <time>2020-09-20T11:07:22Z</time>
      </trkpt>
      <trkpt lat="49.24881" lon="4.01506">
        <ele>130</ele>
        <time>2020-09-20T11:07:23Z</time>
      </trkpt>
      <trkpt lat="49.24877" lon="4.01502">
        <ele>130</ele>
        <time>2020-09-20T11:07:24Z</time>
      </trkpt>
      <trkpt lat="49.24874" lon="4.015">
        <ele>130</ele>
        <time>2020-09-20T11:07:25Z</time>
      </trkpt>
      <trkpt lat="49.24868" lon="4.01495">
        <ele>130</ele>
        <time>2020-09-20T11:07:27Z</time>
      </trkpt>
      <trkpt lat="49.24865" lon="4.01492">
        <ele>130</ele>
        <time>2020-09-20T11:07:28Z</time>
      </trkpt>
      <trkpt lat="49.24861" lon="4.0149">
        <ele>130</ele>
        <time>2020-09-20T11:07:29Z</time>
      </trkpt>
      <trkpt lat="49.24856" lon="4.01488">
        <ele>130</ele>
        <time>2020-09-20T11:07:30Z</time>
      </trkpt>
      <trkpt lat="49.24853" lon="4.01481">
        <ele>132</ele>
        <time>2020-09-20T11:07:31Z</time>
      </trkpt>
      <trkpt lat="49.24849" lon="4.01477">
        <ele>133</ele>
        <time>2020-09-20T11:07:32Z</time>
      </trkpt>
      <trkpt lat="49.24846" lon="4.01474">
        <ele>133</ele>
        <time>2020-09-20T11:07:33Z</time>
      </trkpt>
      <trkpt lat="49.24842" lon="4.01472">
        <ele>133</ele>
        <time>2020-09-20T11:07:34Z</time>
      </trkpt>
      <trkpt lat="49.24839" lon="4.01469">
        <ele>133</ele>
        <time>2020-09-20T11:07:35Z</time>
      </trkpt>
      <trkpt lat="49.24836" lon="4.01467">
        <ele>133</ele>
        <time>2020-09-20T11:07:36Z</time>
      </trkpt>
      <trkpt lat="49.24833" lon="4.01464">
        <ele>133</ele>
        <time>2020-09-20T11:07:37Z</time>
      </trkpt>
      <trkpt lat="49.2483" lon="4.01463">
        <ele>134</ele>
        <time>2020-09-20T11:07:38Z</time>
      </trkpt>
      <trkpt lat="49.24827" lon="4.0146">
        <ele>134</ele>
        <time>2020-09-20T11:07:39Z</time>
      </trkpt>
      <trkpt lat="49.24825" lon="4.01458">
        <ele>134</ele>
        <time>2020-09-20T11:07:40Z</time>
      </trkpt>
      <trkpt lat="49.24822" lon="4.01455">
        <ele>134</ele>
        <time>2020-09-20T11:07:41Z</time>
      </trkpt>
      <trkpt lat="49.24817" lon="4.01455">
        <ele>133</ele>
        <time>2020-09-20T11:07:42Z</time>
      </trkpt>
      <trkpt lat="49.24812" lon="4.01454">
        <ele>133</ele>
        <time>2020-09-20T11:07:43Z</time>
      </trkpt>
      <trkpt lat="49.24809" lon="4.01452">
        <ele>133</ele>
        <time>2020-09-20T11:07:44Z</time>
      </trkpt>
      <trkpt lat="49.24806" lon="4.01448">
        <ele>133</ele>
        <time>2020-09-20T11:07:45Z</time>
      </trkpt>
      <trkpt lat="49.24802" lon="4.01446">
        <ele>133</ele>
        <time>2020-09-20T11:07:46Z</time>
      </trkpt>
      <trkpt lat="49.24798" lon="4.01444">
        <ele>133</ele>
        <time>2020-09-20T11:07:47Z</time>
      </trkpt>
      <trkpt lat="49.24795" lon="4.01442">
        <ele>133</ele>
        <time>2020-09-20T11:07:48Z</time>
      </trkpt>
      <trkpt lat="49.24792" lon="4.01438">
        <ele>133</ele>
        <time>2020-09-20T11:07:49Z</time>
      </trkpt>
      <trkpt lat="49.24788" lon="4.01435">
        <ele>133</ele>
        <time>2020-09-20T11:07:50Z</time>
      </trkpt>
      <trkpt lat="49.24786" lon="4.01432">
        <ele>133</ele>
        <time>2020-09-20T11:07:51Z</time>
      </trkpt>
      <trkpt lat="49.24783" lon="4.01429">
        <ele>134</ele>
        <time>2020-09-20T11:07:52Z</time>
      </trkpt>
      <trkpt lat="49.24779" lon="4.01426">
        <ele>134</ele>
        <time>2020-09-20T11:07:53Z</time>
      </trkpt>
      <trkpt lat="49.24776" lon="4.01423">
        <ele>134</ele>
        <time>2020-09-20T11:07:54Z</time>
      </trkpt>
      <trkpt lat="49.24773" lon="4.0142">
        <ele>134</ele>
        <time>2020-09-20T11:07:55Z</time>
      </trkpt>
      <trkpt lat="49.24769" lon="4.01417">
        <ele>134</ele>
        <time>2020-09-20T11:07:56Z</time>
      </trkpt>
      <trkpt lat="49.24765" lon="4.01415">
        <ele>133</ele>
        <time>2020-09-20T11:07:57Z</time>
      </trkpt>
      <trkpt lat="49.24762" lon="4.01411">
        <ele>133</ele>
        <time>2020-09-20T11:07:58Z</time>
      </trkpt>
      <trkpt lat="49.24759" lon="4.01406">
        <ele>134</ele>
        <time>2020-09-20T11:07:59Z</time>
      </trkpt>
      <trkpt lat="49.24757" lon="4.01401">
        <ele>134</ele>
        <time>2020-09-20T11:08:00Z</time>
      </trkpt>
      <trkpt lat="49.24754" lon="4.01397">
        <ele>134</ele>
        <time>2020-09-20T11:08:01Z</time>
      </trkpt>
      <trkpt lat="49.24751" lon="4.01395">
        <ele>135</ele>
        <time>2020-09-20T11:08:02Z</time>
      </trkpt>
      <trkpt lat="49.24747" lon="4.01393">
        <ele>135</ele>
        <time>2020-09-20T11:08:03Z</time>
      </trkpt>
      <trkpt lat="49.24743" lon="4.01391">
        <ele>134</ele>
        <time>2020-09-20T11:08:04Z</time>
      </trkpt>
      <trkpt lat="49.2474" lon="4.01388">
        <ele>134</ele>
        <time>2020-09-20T11:08:05Z</time>
      </trkpt>
      <trkpt lat="49.24737" lon="4.01386">
        <ele>135</ele>
        <time>2020-09-20T11:08:06Z</time>
      </trkpt>
      <trkpt lat="49.24734" lon="4.01384">
        <ele>135</ele>
        <time>2020-09-20T11:08:07Z</time>
      </trkpt>
      <trkpt lat="49.2473" lon="4.01382">
        <ele>135</ele>
        <time>2020-09-20T11:08:08Z</time>
      </trkpt>
      <trkpt lat="49.24727" lon="4.01379">
        <ele>135</ele>
        <time>2020-09-20T11:08:09Z</time>
      </trkpt>
      <trkpt lat="49.24724" lon="4.01377">
        <ele>136</ele>
        <time>2020-09-20T11:08:10Z</time>
      </trkpt>
      <trkpt lat="49.24721" lon="4.01374">
        <ele>136</ele>
        <time>2020-09-20T11:08:11Z</time>
      </trkpt>
      <trkpt lat="49.24718" lon="4.01373">
        <ele>136</ele>
        <time>2020-09-20T11:08:12Z</time>
      </trkpt>
      <trkpt lat="49.24715" lon="4.0137">
        <ele>137</ele>
        <time>2020-09-20T11:08:13Z</time>
      </trkpt>
      <trkpt lat="49.24711" lon="4.01367">
        <ele>137</ele>
        <time>2020-09-20T11:08:14Z</time>
      </trkpt>
      <trkpt lat="49.24707" lon="4.01367">
        <ele>138</ele>
        <time>2020-09-20T11:08:15Z</time>
      </trkpt>
      <trkpt lat="49.24704" lon="4.01364">
        <ele>138</ele>
        <time>2020-09-20T11:08:16Z</time>
      </trkpt>
      <trkpt lat="49.247" lon="4.01362">
        <ele>138</ele>
        <time>2020-09-20T11:08:17Z</time>
      </trkpt>
      <trkpt lat="49.24697" lon="4.01359">
        <ele>139</ele>
        <time>2020-09-20T11:08:18Z</time>
      </trkpt>
      <trkpt lat="49.24695" lon="4.01356">
        <ele>139</ele>
        <time>2020-09-20T11:08:19Z</time>
      </trkpt>
      <trkpt lat="49.24693" lon="4.01354">
        <ele>139</ele>
        <time>2020-09-20T11:08:20Z</time>
      </trkpt>
      <trkpt lat="49.2469" lon="4.01352">
        <ele>139</ele>
        <time>2020-09-20T11:08:21Z</time>
      </trkpt>
      <trkpt lat="49.24688" lon="4.0135">
        <ele>139</ele>
        <time>2020-09-20T11:08:22Z</time>
      </trkpt>
      <trkpt lat="49.24685" lon="4.01347">
        <ele>139</ele>
        <time>2020-09-20T11:08:23Z</time>
      </trkpt>
      <trkpt lat="49.24682" lon="4.01344">
        <ele>139</ele>
        <time>2020-09-20T11:08:24Z</time>
      </trkpt>
      <trkpt lat="49.2468" lon="4.01342">
        <ele>139</ele>
        <time>2020-09-20T11:08:25Z</time>
      </trkpt>
      <trkpt lat="49.24677" lon="4.0134">
        <ele>139</ele>
        <time>2020-09-20T11:08:26Z</time>
      </trkpt>
      <trkpt lat="49.24675" lon="4.01338">
        <ele>139</ele>
        <time>2020-09-20T11:08:27Z</time>
      </trkpt>
      <trkpt lat="49.24672" lon="4.01335">
        <ele>139</ele>
        <time>2020-09-20T11:08:28Z</time>
      </trkpt>
      <trkpt lat="49.2467" lon="4.01334">
        <ele>139</ele>
        <time>2020-09-20T11:08:29Z</time>
      </trkpt>
      <trkpt lat="49.24667" lon="4.01332">
        <ele>139</ele>
        <time>2020-09-20T11:08:30Z</time>
      </trkpt>
      <trkpt lat="49.24664" lon="4.01329">
        <ele>138</ele>
        <time>2020-09-20T11:08:31Z</time>
      </trkpt>
      <trkpt lat="49.24662" lon="4.01327">
        <ele>138</ele>
        <time>2020-09-20T11:08:32Z</time>
      </trkpt>
      <trkpt lat="49.24659" lon="4.01324">
        <ele>138</ele>
        <time>2020-09-20T11:08:33Z</time>
      </trkpt>
      <trkpt lat="49.24656" lon="4.01321">
        <ele>137</ele>
        <time>2020-09-20T11:08:34Z</time>
      </trkpt>
      <trkpt lat="49.24653" lon="4.01318">
        <ele>137</ele>
        <time>2020-09-20T11:08:35Z</time>
      </trkpt>
      <trkpt lat="49.2465" lon="4.01316">
        <ele>137</ele>
        <time>2020-09-20T11:08:36Z</time>
      </trkpt>
      <trkpt lat="49.24647" lon="4.01313">
        <ele>137</ele>
        <time>2020-09-20T11:08:37Z</time>
      </trkpt>
      <trkpt lat="49.24645" lon="4.01311">
        <ele>137</ele>
        <time>2020-09-20T11:08:38Z</time>
      </trkpt>
      <trkpt lat="49.24642" lon="4.0131">
        <ele>137</ele>
        <time>2020-09-20T11:08:39Z</time>
      </trkpt>
      <trkpt lat="49.24639" lon="4.01308">
        <ele>137</ele>
        <time>2020-09-20T11:08:40Z</time>
      </trkpt>
      <trkpt lat="49.24637" lon="4.01307">
        <ele>136</ele>
        <time>2020-09-20T11:08:41Z</time>
      </trkpt>
      <trkpt lat="49.24635" lon="4.01307">
        <ele>136</ele>
        <time>2020-09-20T11:08:42Z</time>
      </trkpt>
      <trkpt lat="49.24633" lon="4.01307">
        <ele>136</ele>
        <time>2020-09-20T11:08:43Z</time>
      </trkpt>
      <trkpt lat="49.24631" lon="4.01308">
        <ele>136</ele>
        <time>2020-09-20T11:08:44Z</time>
      </trkpt>
      <trkpt lat="49.2463" lon="4.01307">
        <ele>135</ele>
        <time>2020-09-20T11:08:45Z</time>
      </trkpt>
      <trkpt lat="49.24629" lon="4.01305">
        <ele>135</ele>
        <time>2020-09-20T11:08:46Z</time>
      </trkpt>
      <trkpt lat="49.2463" lon="4.01303">
        <ele>135</ele>
        <time>2020-09-20T11:08:47Z</time>
      </trkpt>
      <trkpt lat="49.24631" lon="4.01301">
        <ele>135</ele>
        <time>2020-09-20T11:08:48Z</time>
      </trkpt>
      <trkpt lat="49.24632" lon="4.013">
        <ele>135</ele>
        <time>2020-09-20T11:08:49Z</time>
      </trkpt>
      <trkpt lat="49.24631" lon="4.01299">
        <ele>134</ele>
        <time>2020-09-20T11:08:50Z</time>
      </trkpt>
      <trkpt lat="49.24631" lon="4.01299">
        <ele>134</ele>
        <time>2020-09-20T11:08:51Z</time>
      </trkpt>
      <trkpt lat="49.2463" lon="4.01299">
        <ele>135</ele>
        <time>2020-09-20T11:08:52Z</time>
      </trkpt>
      <trkpt lat="49.24628" lon="4.01298">
        <ele>134</ele>
        <time>2020-09-20T11:08:53Z</time>
      </trkpt>
      <trkpt lat="49.24626" lon="4.01297">
        <ele>134</ele>
        <time>2020-09-20T11:08:54Z</time>
      </trkpt>
      <trkpt lat="49.24623" lon="4.01296">
        <ele>134</ele>
        <time>2020-09-20T11:08:55Z</time>
      </trkpt>
      <trkpt lat="49.24621" lon="4.01293">
        <ele>134</ele>
        <time>2020-09-20T11:08:56Z</time>
      </trkpt>
      <trkpt lat="49.24618" lon="4.0129">
        <ele>133</ele>
        <time>2020-09-20T11:08:57Z</time>
      </trkpt>
      <trkpt lat="49.24615" lon="4.01288">
        <ele>133</ele>
        <time>2020-09-20T11:08:58Z</time>
      </trkpt>
      <trkpt lat="49.24613" lon="4.01286">
        <ele>134</ele>
        <time>2020-09-20T11:08:59Z</time>
      </trkpt>
      <trkpt lat="49.2461" lon="4.01283">
        <ele>134</ele>
        <time>2020-09-20T11:09:00Z</time>
      </trkpt>
      <trkpt lat="49.24609" lon="4.0128">
        <ele>133</ele>
        <time>2020-09-20T11:09:01Z</time>
      </trkpt>
      <trkpt lat="49.24609" lon="4.01274">
        <ele>133</ele>
        <time>2020-09-20T11:09:02Z</time>
      </trkpt>
      <trkpt lat="49.24609" lon="4.01269">
        <ele>134</ele>
        <time>2020-09-20T11:09:03Z</time>
      </trkpt>
      <trkpt lat="49.2461" lon="4.01262">
        <ele>135</ele>
        <time>2020-09-20T11:09:04Z</time>
      </trkpt>
      <trkpt lat="49.2461" lon="4.01256">
        <ele>135</ele>
        <time>2020-09-20T11:09:05Z</time>
      </trkpt>
      <trkpt lat="49.24609" lon="4.01253">
        <ele>134</ele>
        <time>2020-09-20T11:09:06Z</time>
      </trkpt>
      <trkpt lat="49.24608" lon="4.01252">
        <ele>134</ele>
        <time>2020-09-20T11:09:07Z</time>
      </trkpt>
      <trkpt lat="49.24605" lon="4.01252">
        <ele>133</ele>
        <time>2020-09-20T11:09:08Z</time>
      </trkpt>
      <trkpt lat="49.24601" lon="4.01253">
        <ele>132</ele>
        <time>2020-09-20T11:09:09Z</time>
      </trkpt>
      <trkpt lat="49.24597" lon="4.01253">
        <ele>133</ele>
        <time>2020-09-20T11:09:10Z</time>
      </trkpt>
      <trkpt lat="49.24593" lon="4.01253">
        <ele>133</ele>
        <time>2020-09-20T11:09:11Z</time>
      </trkpt>
      <trkpt lat="49.2459" lon="4.01253">
        <ele>133</ele>
        <time>2020-09-20T11:09:12Z</time>
      </trkpt>
      <trkpt lat="49.24588" lon="4.01253">
        <ele>133</ele>
        <time>2020-09-20T11:09:13Z</time>
      </trkpt>
      <trkpt lat="49.24587" lon="4.01254">
        <ele>133</ele>
        <time>2020-09-20T11:09:14Z</time>
      </trkpt>
      <trkpt lat="49.24587" lon="4.01254">
        <ele>133</ele>
        <time>2020-09-20T11:09:15Z</time>
      </trkpt>
      <trkpt lat="49.24587" lon="4.01254">
        <ele>133</ele>
        <time>2020-09-20T11:09:16Z</time>
      </trkpt>
      <trkpt lat="49.24586" lon="4.01254">
        <ele>133</ele>
        <time>2020-09-20T11:09:17Z</time>
      </trkpt>
      <trkpt lat="49.24586" lon="4.01254">
        <ele>133</ele>
        <time>2020-09-20T11:09:18Z</time>
      </trkpt>
      <trkpt lat="49.24586" lon="4.01254">
        <ele>133</ele>
        <time>2020-09-20T11:09:19Z</time>
      </trkpt>
      <trkpt lat="49.24586" lon="4.01255">
        <ele>133</ele>
        <time>2020-09-20T11:09:20Z</time>
      </trkpt>
      <trkpt lat="49.24585" lon="4.01255">
        <ele>133</ele>
        <time>2020-09-20T11:09:21Z</time>
      </trkpt>
      <trkpt lat="49.24585" lon="4.01255">
        <ele>134</ele>
        <time>2020-09-20T11:09:22Z</time>
      </trkpt>
      <trkpt lat="49.24584" lon="4.01254">
        <ele>134</ele>
        <time>2020-09-20T11:09:23Z</time>
      </trkpt>
      <trkpt lat="49.24584" lon="4.01254">
        <ele>134</ele>
        <time>2020-09-20T11:09:24Z</time>
      </trkpt>
      <trkpt lat="49.24584" lon="4.01254">
        <ele>134</ele>
        <time>2020-09-20T11:09:25Z</time>
      </trkpt>
      <trkpt lat="49.24584" lon="4.01254">
        <ele>134</ele>
        <time>2020-09-20T11:09:26Z</time>
      </trkpt>
      <trkpt lat="49.24584" lon="4.01254">
        <ele>134</ele>
        <time>2020-09-20T11:09:27Z</time>
      </trkpt>
      <trkpt lat="49.24584" lon="4.01254">
        <ele>134</ele>
        <time>2020-09-20T11:09:28Z</time>
      </trkpt>
      <trkpt lat="49.24584" lon="4.01254">
        <ele>134</ele>
        <time>2020-09-20T11:09:29Z</time>
      </trkpt>
      <trkpt lat="49.24584" lon="4.01254">
        <ele>134</ele>
        <time>2020-09-20T11:09:30Z</time>
      </trkpt>
      <trkpt lat="49.24583" lon="4.01253">
        <ele>134</ele>
        <time>2020-09-20T11:09:31Z</time>
      </trkpt>
      <trkpt lat="49.24582" lon="4.01252">
        <ele>134</ele>
        <time>2020-09-20T11:09:32Z</time>
      </trkpt>
      <trkpt lat="49.2458" lon="4.01252">
        <ele>134</ele>
        <time>2020-09-20T11:09:33Z</time>
      </trkpt>
      <trkpt lat="49.24578" lon="4.01252">
        <ele>134</ele>
        <time>2020-09-20T11:09:34Z</time>
      </trkpt>
      <trkpt lat="49.24576" lon="4.01252">
        <ele>134</ele>
        <time>2020-09-20T11:09:35Z</time>
      </trkpt>
      <trkpt lat="49.24574" lon="4.01253">
        <ele>134</ele>
        <time>2020-09-20T11:09:36Z</time>
      </trkpt>
      <trkpt lat="49.24572" lon="4.01252">
        <ele>134</ele>
        <time>2020-09-20T11:09:37Z</time>
      </trkpt>
      <trkpt lat="49.24569" lon="4.01252">
        <ele>134</ele>
        <time>2020-09-20T11:09:38Z</time>
      </trkpt>
      <trkpt lat="49.24566" lon="4.01252">
        <ele>134</ele>
        <time>2020-09-20T11:09:39Z</time>
      </trkpt>
      <trkpt lat="49.24563" lon="4.01252">
        <ele>134</ele>
        <time>2020-09-20T11:09:40Z</time>
      </trkpt>
      <trkpt lat="49.24561" lon="4.01253">
        <ele>134</ele>
        <time>2020-09-20T11:09:41Z</time>
      </trkpt>
      <trkpt lat="49.24558" lon="4.01253">
        <ele>134</ele>
        <time>2020-09-20T11:09:42Z</time>
      </trkpt>
      <trkpt lat="49.24555" lon="4.01253">
        <ele>133</ele>
        <time>2020-09-20T11:09:43Z</time>
      </trkpt>
      <trkpt lat="49.24552" lon="4.01254">
        <ele>133</ele>
        <time>2020-09-20T11:09:44Z</time>
      </trkpt>
      <trkpt lat="49.24549" lon="4.01253">
        <ele>133</ele>
        <time>2020-09-20T11:09:45Z</time>
      </trkpt>
      <trkpt lat="49.24546" lon="4.01254">
        <ele>133</ele>
        <time>2020-09-20T11:09:46Z</time>
      </trkpt>
      <trkpt lat="49.24543" lon="4.01254">
        <ele>133</ele>
        <time>2020-09-20T11:09:47Z</time>
      </trkpt>
      <trkpt lat="49.2454" lon="4.01254">
        <ele>133</ele>
        <time>2020-09-20T11:09:48Z</time>
      </trkpt>
      <trkpt lat="49.24538" lon="4.01255">
        <ele>133</ele>
        <time>2020-09-20T11:09:49Z</time>
      </trkpt>
      <trkpt lat="49.24535" lon="4.01255">
        <ele>133</ele>
        <time>2020-09-20T11:09:50Z</time>
      </trkpt>
      <trkpt lat="49.24533" lon="4.01254">
        <ele>133</ele>
        <time>2020-09-20T11:09:51Z</time>
      </trkpt>
      <trkpt lat="49.24532" lon="4.01252">
        <ele>133</ele>
        <time>2020-09-20T11:09:52Z</time>
      </trkpt>
      <trkpt lat="49.24531" lon="4.01248">
        <ele>133</ele>
        <time>2020-09-20T11:09:53Z</time>
      </trkpt>
      <trkpt lat="49.2453" lon="4.01243">
        <ele>134</ele>
        <time>2020-09-20T11:09:54Z</time>
      </trkpt>
      <trkpt lat="49.24528" lon="4.0124">
        <ele>134</ele>
        <time>2020-09-20T11:09:55Z</time>
      </trkpt>
      <trkpt lat="49.24527" lon="4.01236">
        <ele>134</ele>
        <time>2020-09-20T11:09:56Z</time>
      </trkpt>
      <trkpt lat="49.24525" lon="4.01233">
        <ele>134</ele>
        <time>2020-09-20T11:09:57Z</time>
      </trkpt>
      <trkpt lat="49.24523" lon="4.01231">
        <ele>134</ele>
        <time>2020-09-20T11:09:58Z</time>
      </trkpt>
      <trkpt lat="49.24522" lon="4.01228">
        <ele>135</ele>
        <time>2020-09-20T11:09:59Z</time>
      </trkpt>
      <trkpt lat="49.24521" lon="4.01225">
        <ele>135</ele>
        <time>2020-09-20T11:10:00Z</time>
      </trkpt>
      <trkpt lat="49.2452" lon="4.01221">
        <ele>135</ele>
        <time>2020-09-20T11:10:01Z</time>
      </trkpt>
      <trkpt lat="49.2452" lon="4.01218">
        <ele>136</ele>
        <time>2020-09-20T11:10:02Z</time>
      </trkpt>
      <trkpt lat="49.24518" lon="4.01216">
        <ele>136</ele>
        <time>2020-09-20T11:10:03Z</time>
      </trkpt>
      <trkpt lat="49.24517" lon="4.01214">
        <ele>136</ele>
        <time>2020-09-20T11:10:04Z</time>
      </trkpt>
      <trkpt lat="49.24516" lon="4.01212">
        <ele>136</ele>
        <time>2020-09-20T11:10:05Z</time>
      </trkpt>
      <trkpt lat="49.24514" lon="4.01211">
        <ele>136</ele>
        <time>2020-09-20T11:10:06Z</time>
      </trkpt>
      <trkpt lat="49.24513" lon="4.01211">
        <ele>136</ele>
        <time>2020-09-20T11:10:07Z</time>
      </trkpt>
      <trkpt lat="49.24512" lon="4.0121">
        <ele>137</ele>
        <time>2020-09-20T11:10:08Z</time>
      </trkpt>
      <trkpt lat="49.24511" lon="4.01209">
        <ele>137</ele>
        <time>2020-09-20T11:10:09Z</time>
      </trkpt>
      <trkpt lat="49.2451" lon="4.01208">
        <ele>137</ele>
        <time>2020-09-20T11:10:10Z</time>
      </trkpt>
      <trkpt lat="49.24509" lon="4.01208">
        <ele>136</ele>
        <time>2020-09-20T11:10:11Z</time>
      </trkpt>
      <trkpt lat="49.24507" lon="4.01208">
        <ele>136</ele>
        <time>2020-09-20T11:10:12Z</time>
      </trkpt>
      <trkpt lat="49.24506" lon="4.01208">
        <ele>137</ele>
        <time>2020-09-20T11:10:13Z</time>
      </trkpt>
      <trkpt lat="49.24505" lon="4.01207">
        <ele>137</ele>
        <time>2020-09-20T11:10:14Z</time>
      </trkpt>
      <trkpt lat="49.24505" lon="4.01208">
        <ele>137</ele>
        <time>2020-09-20T11:10:15Z</time>
      </trkpt>
      <trkpt lat="49.24505" lon="4.01208">
        <ele>138</ele>
        <time>2020-09-20T11:10:16Z</time>
      </trkpt>
      <trkpt lat="49.24505" lon="4.01209">
        <ele>138</ele>
        <time>2020-09-20T11:10:17Z</time>
      </trkpt>
      <trkpt lat="49.24504" lon="4.0121">
        <ele>138</ele>
        <time>2020-09-20T11:10:18Z</time>
      </trkpt>
      <trkpt lat="49.24504" lon="4.0121">
        <ele>138</ele>
        <time>2020-09-20T11:10:19Z</time>
      </trkpt>
      <trkpt lat="49.24503" lon="4.01212">
        <ele>137</ele>
        <time>2020-09-20T11:10:20Z</time>
      </trkpt>
      <trkpt lat="49.24503" lon="4.01213">
        <ele>137</ele>
        <time>2020-09-20T11:10:21Z</time>
      </trkpt>
      <trkpt lat="49.24503" lon="4.01213">
        <ele>137</ele>
        <time>2020-09-20T11:10:22Z</time>
      </trkpt>
      <trkpt lat="49.24503" lon="4.01213">
        <ele>137</ele>
        <time>2020-09-20T11:10:23Z</time>
      </trkpt>
      <trkpt lat="49.24503" lon="4.01213">
        <ele>137</ele>
        <time>2020-09-20T11:10:24Z</time>
      </trkpt>
      <trkpt lat="49.24503" lon="4.01213">
        <ele>137</ele>
        <time>2020-09-20T11:10:25Z</time>
      </trkpt>
      <trkpt lat="49.24503" lon="4.01213">
        <ele>137</ele>
        <time>2020-09-20T11:10:26Z</time>
      </trkpt>
      <trkpt lat="49.24503" lon="4.01213">
        <ele>137</ele>
        <time>2020-09-20T11:10:27Z</time>
      </trkpt>
      <trkpt lat="49.24503" lon="4.01213">
        <ele>137</ele>
        <time>2020-09-20T11:10:28Z</time>
      </trkpt>
      <trkpt lat="49.24503" lon="4.01213">
        <ele>137</ele>
        <time>2020-09-20T11:10:29Z</time>
      </trkpt>
      <trkpt lat="49.24503" lon="4.01213">
        <ele>137</ele>
        <time>2020-09-20T11:10:30Z</time>
      </trkpt>
      <trkpt lat="49.24503" lon="4.01213">
        <ele>137</ele>
        <time>2020-09-20T11:10:31Z</time>
      </trkpt>
      <trkpt lat="49.24503" lon="4.01214">
        <ele>137</ele>
        <time>2020-09-20T11:10:32Z</time>
      </trkpt>
      <trkpt lat="49.24503" lon="4.01215">
        <ele>137</ele>
        <time>2020-09-20T11:10:33Z</time>
      </trkpt>
      <trkpt lat="49.24504" lon="4.01215">
        <ele>137</ele>
        <time>2020-09-20T11:10:34Z</time>
      </trkpt>
      <trkpt lat="49.24504" lon="4.01215">
        <ele>138</ele>
        <time>2020-09-20T11:10:35Z</time>
      </trkpt>
      <trkpt lat="49.24504" lon="4.01214">
        <ele>138</ele>
        <time>2020-09-20T11:10:36Z</time>
      </trkpt>
      <trkpt lat="49.24504" lon="4.01214">
        <ele>138</ele>
        <time>2020-09-20T11:10:37Z</time>
      </trkpt>
      <trkpt lat="49.24504" lon="4.01213">
        <ele>139</ele>
        <time>2020-09-20T11:10:38Z</time>
      </trkpt>
      <trkpt lat="49.24504" lon="4.01214">
        <ele>139</ele>
        <time>2020-09-20T11:10:39Z</time>
      </trkpt>
      <trkpt lat="49.24504" lon="4.01214">
        <ele>139</ele>
        <time>2020-09-20T11:10:40Z</time>
      </trkpt>
      <trkpt lat="49.24504" lon="4.01214">
        <ele>139</ele>
        <time>2020-09-20T11:10:41Z</time>
      </trkpt>
      <trkpt lat="49.24504" lon="4.01214">
        <ele>139</ele>
        <time>2020-09-20T11:10:42Z</time>
      </trkpt>
      <trkpt lat="49.24504" lon="4.01214">
        <ele>139</ele>
        <time>2020-09-20T11:10:43Z</time>
      </trkpt>
      <trkpt lat="49.24504" lon="4.01214">
        <ele>139</ele>
        <time>2020-09-20T11:10:44Z</time>
      </trkpt>
      <trkpt lat="49.24504" lon="4.01214">
        <ele>139</ele>
        <time>2020-09-20T11:10:45Z</time>
      </trkpt>
      <trkpt lat="49.24504" lon="4.01214">
        <ele>139</ele>
        <time>2020-09-20T11:10:46Z</time>
      </trkpt>
      <trkpt lat="49.24505" lon="4.01211">
        <ele>138</ele>
        <time>2020-09-20T11:10:47Z</time>
      </trkpt>
      <trkpt lat="49.24506" lon="4.01209">
        <ele>138</ele>
        <time>2020-09-20T11:10:48Z</time>
      </trkpt>
      <trkpt lat="49.2449" lon="4.01139">
        <ele>68</ele>
        <time>2020-09-20T11:11:42Z</time>
      </trkpt>
      <trkpt lat="49.24505" lon="4.0114">
        <ele>85</ele>
        <time>2020-09-20T11:11:46Z</time>
      </trkpt>
      <trkpt lat="49.24505" lon="4.01142">
        <ele>89</ele>
        <time>2020-09-20T11:11:47Z</time>
      </trkpt>
    </trkseg>
  </trk>
</gpx>